<?xml version="1.0" encoding="UTF-8" standalone="no" ?>
<gpx xmlns="http://www.topografix.com/GPX/1/1" xmlns:xsi="http://www.w3.org/2001/XMLSchema-instance" xsi:schemaLocation="http://www.topografix.com/GPX/1/1 http://www.topografix.com/GPX/1/1/gpx.xsd" version="1.1" creator="VisuGPX - https://www.visugpx.com">
  <metadata>
    <name>Etape 2 Férel - Les Moûtiers</name>
    <desc><![CDATA[Randonnée vélo Rennes - Hendaye, empruntant la Vélodyssée à partir de Saint-Brevin-Les-Pins. ]]></desc>
  </metadata>
  <trk>
    <name><![CDATA[Sequence 1]]></name>
    <trkseg>
      <trkpt lat="47.49482" lon="-2.35655">
        <ele>-59</ele>
        <time>2016-07-22T04:41:46Z</time>
      </trkpt>
      <trkpt lat="47.49374" lon="-2.35907">
        <ele>-56</ele>
        <time>2016-07-22T04:41:58Z</time>
      </trkpt>
      <trkpt lat="47.49348" lon="-2.35922">
        <ele>-54</ele>
        <time>2016-07-22T04:42:05Z</time>
      </trkpt>
      <trkpt lat="47.49331" lon="-2.35912">
        <ele>-54</ele>
        <time>2016-07-22T04:42:09Z</time>
      </trkpt>
      <trkpt lat="47.49313" lon="-2.35912">
        <ele>-59</ele>
        <time>2016-07-22T04:42:13Z</time>
      </trkpt>
      <trkpt lat="47.49289" lon="-2.35895">
        <ele>-64</ele>
        <time>2016-07-22T04:42:19Z</time>
      </trkpt>
      <trkpt lat="47.49257" lon="-2.35873">
        <ele>-64</ele>
        <time>2016-07-22T04:42:27Z</time>
      </trkpt>
      <trkpt lat="47.49246" lon="-2.3587">
        <ele>-62</ele>
        <time>2016-07-22T04:42:30Z</time>
      </trkpt>
      <trkpt lat="47.49235" lon="-2.35865">
        <ele>-62</ele>
        <time>2016-07-22T04:42:33Z</time>
      </trkpt>
      <trkpt lat="47.4921" lon="-2.35867">
        <ele>-60</ele>
        <time>2016-07-22T04:42:39Z</time>
      </trkpt>
      <trkpt lat="47.49199" lon="-2.35867">
        <ele>-61</ele>
        <time>2016-07-22T04:42:43Z</time>
      </trkpt>
      <trkpt lat="47.492" lon="-2.35873">
        <ele>-61</ele>
        <time>2016-07-22T04:42:57Z</time>
      </trkpt>
      <trkpt lat="47.49197" lon="-2.3587">
        <ele>-61</ele>
        <time>2016-07-22T04:43:02Z</time>
      </trkpt>
      <trkpt lat="47.49183" lon="-2.35861">
        <ele>-62</ele>
        <time>2016-07-22T04:43:07Z</time>
      </trkpt>
      <trkpt lat="47.49165" lon="-2.35861">
        <ele>-60</ele>
        <time>2016-07-22T04:43:12Z</time>
      </trkpt>
      <trkpt lat="47.49161" lon="-2.35861">
        <ele>-58</ele>
        <time>2016-07-22T04:43:13Z</time>
      </trkpt>
      <trkpt lat="47.49132" lon="-2.3586">
        <ele>-51</ele>
        <time>2016-07-22T04:43:20Z</time>
      </trkpt>
      <trkpt lat="47.49127" lon="-2.3587">
        <ele>-41</ele>
        <time>2016-07-22T04:43:26Z</time>
      </trkpt>
      <trkpt lat="47.4912" lon="-2.35886">
        <ele>-25</ele>
        <time>2016-07-22T04:43:32Z</time>
      </trkpt>
      <trkpt lat="47.49105" lon="-2.35895">
        <ele>-13</ele>
        <time>2016-07-22T04:43:37Z</time>
      </trkpt>
      <trkpt lat="47.49094" lon="-2.35898">
        <ele>-9</ele>
        <time>2016-07-22T04:43:40Z</time>
      </trkpt>
      <trkpt lat="47.49079" lon="-2.35901">
        <ele>-2</ele>
        <time>2016-07-22T04:43:44Z</time>
      </trkpt>
      <trkpt lat="47.49044" lon="-2.35907">
        <ele>14</ele>
        <time>2016-07-22T04:43:52Z</time>
      </trkpt>
      <trkpt lat="47.49026" lon="-2.3591">
        <ele>23</ele>
        <time>2016-07-22T04:43:56Z</time>
      </trkpt>
      <trkpt lat="47.49006" lon="-2.35908">
        <ele>30</ele>
        <time>2016-07-22T04:44:01Z</time>
      </trkpt>
      <trkpt lat="47.48998" lon="-2.35906">
        <ele>30</ele>
        <time>2016-07-22T04:44:03Z</time>
      </trkpt>
      <trkpt lat="47.48979" lon="-2.35898">
        <ele>33</ele>
        <time>2016-07-22T04:44:08Z</time>
      </trkpt>
      <trkpt lat="47.48959" lon="-2.35891">
        <ele>35</ele>
        <time>2016-07-22T04:44:13Z</time>
      </trkpt>
      <trkpt lat="47.48939" lon="-2.3586">
        <ele>33</ele>
        <time>2016-07-22T04:44:18Z</time>
      </trkpt>
      <trkpt lat="47.48919" lon="-2.35833">
        <ele>32</ele>
        <time>2016-07-22T04:44:23Z</time>
      </trkpt>
      <trkpt lat="47.48898" lon="-2.35819">
        <ele>36</ele>
        <time>2016-07-22T04:44:28Z</time>
      </trkpt>
      <trkpt lat="47.48884" lon="-2.35806">
        <ele>43</ele>
        <time>2016-07-22T04:44:33Z</time>
      </trkpt>
      <trkpt lat="47.48864" lon="-2.35794">
        <ele>42</ele>
        <time>2016-07-22T04:44:38Z</time>
      </trkpt>
      <trkpt lat="47.48824" lon="-2.35792">
        <ele>45</ele>
        <time>2016-07-22T04:44:46Z</time>
      </trkpt>
      <trkpt lat="47.4881" lon="-2.35793">
        <ele>49</ele>
        <time>2016-07-22T04:44:49Z</time>
      </trkpt>
      <trkpt lat="47.48791" lon="-2.35789">
        <ele>51</ele>
        <time>2016-07-22T04:44:54Z</time>
      </trkpt>
      <trkpt lat="47.4878" lon="-2.35793">
        <ele>65</ele>
        <time>2016-07-22T04:44:58Z</time>
      </trkpt>
      <trkpt lat="47.48754" lon="-2.35803">
        <ele>67</ele>
        <time>2016-07-22T04:45:03Z</time>
      </trkpt>
      <trkpt lat="47.48731" lon="-2.35811">
        <ele>72</ele>
        <time>2016-07-22T04:45:08Z</time>
      </trkpt>
      <trkpt lat="47.48705" lon="-2.35816">
        <ele>76</ele>
        <time>2016-07-22T04:45:13Z</time>
      </trkpt>
      <trkpt lat="47.4869" lon="-2.35821">
        <ele>78</ele>
        <time>2016-07-22T04:45:18Z</time>
      </trkpt>
      <trkpt lat="47.4865" lon="-2.35831">
        <ele>77</ele>
        <time>2016-07-22T04:45:26Z</time>
      </trkpt>
      <trkpt lat="47.48617" lon="-2.35833">
        <ele>75</ele>
        <time>2016-07-22T04:45:32Z</time>
      </trkpt>
      <trkpt lat="47.48612" lon="-2.35833">
        <ele>74</ele>
        <time>2016-07-22T04:45:33Z</time>
      </trkpt>
      <trkpt lat="47.48574" lon="-2.35827">
        <ele>70</ele>
        <time>2016-07-22T04:45:40Z</time>
      </trkpt>
      <trkpt lat="47.48562" lon="-2.35823">
        <ele>67</ele>
        <time>2016-07-22T04:45:43Z</time>
      </trkpt>
      <trkpt lat="47.48539" lon="-2.35828">
        <ele>64</ele>
        <time>2016-07-22T04:45:48Z</time>
      </trkpt>
      <trkpt lat="47.48514" lon="-2.35839">
        <ele>61</ele>
        <time>2016-07-22T04:45:53Z</time>
      </trkpt>
      <trkpt lat="47.48502" lon="-2.35814">
        <ele>58</ele>
        <time>2016-07-22T04:45:58Z</time>
      </trkpt>
      <trkpt lat="47.48487" lon="-2.3578">
        <ele>56</ele>
        <time>2016-07-22T04:46:03Z</time>
      </trkpt>
      <trkpt lat="47.48463" lon="-2.35719">
        <ele>55</ele>
        <time>2016-07-22T04:46:11Z</time>
      </trkpt>
      <trkpt lat="47.48458" lon="-2.35708">
        <ele>56</ele>
        <time>2016-07-22T04:46:13Z</time>
      </trkpt>
      <trkpt lat="47.48445" lon="-2.3566">
        <ele>52</ele>
        <time>2016-07-22T04:46:19Z</time>
      </trkpt>
      <trkpt lat="47.48431" lon="-2.35639">
        <ele>51</ele>
        <time>2016-07-22T04:46:23Z</time>
      </trkpt>
      <trkpt lat="47.48417" lon="-2.35609">
        <ele>53</ele>
        <time>2016-07-22T04:46:28Z</time>
      </trkpt>
      <trkpt lat="47.48394" lon="-2.35568">
        <ele>49</ele>
        <time>2016-07-22T04:46:35Z</time>
      </trkpt>
      <trkpt lat="47.48379" lon="-2.35545">
        <ele>54</ele>
        <time>2016-07-22T04:46:40Z</time>
      </trkpt>
      <trkpt lat="47.4837" lon="-2.35528">
        <ele>56</ele>
        <time>2016-07-22T04:46:43Z</time>
      </trkpt>
      <trkpt lat="47.4834" lon="-2.35502">
        <ele>60</ele>
        <time>2016-07-22T04:46:51Z</time>
      </trkpt>
      <trkpt lat="47.48334" lon="-2.35494">
        <ele>59</ele>
        <time>2016-07-22T04:46:53Z</time>
      </trkpt>
      <trkpt lat="47.48309" lon="-2.35471">
        <ele>57</ele>
        <time>2016-07-22T04:46:59Z</time>
      </trkpt>
      <trkpt lat="47.48283" lon="-2.35441">
        <ele>56</ele>
        <time>2016-07-22T04:47:06Z</time>
      </trkpt>
      <trkpt lat="47.48266" lon="-2.35422">
        <ele>57</ele>
        <time>2016-07-22T04:47:11Z</time>
      </trkpt>
      <trkpt lat="47.4826" lon="-2.35417">
        <ele>57</ele>
        <time>2016-07-22T04:47:13Z</time>
      </trkpt>
      <trkpt lat="47.48254" lon="-2.35392">
        <ele>57</ele>
        <time>2016-07-22T04:47:18Z</time>
      </trkpt>
      <trkpt lat="47.48255" lon="-2.35344">
        <ele>58</ele>
        <time>2016-07-22T04:47:24Z</time>
      </trkpt>
      <trkpt lat="47.48257" lon="-2.35296">
        <ele>59</ele>
        <time>2016-07-22T04:47:30Z</time>
      </trkpt>
      <trkpt lat="47.48257" lon="-2.35273">
        <ele>59</ele>
        <time>2016-07-22T04:47:33Z</time>
      </trkpt>
      <trkpt lat="47.48257" lon="-2.35241">
        <ele>56</ele>
        <time>2016-07-22T04:47:38Z</time>
      </trkpt>
      <trkpt lat="47.48254" lon="-2.35209">
        <ele>53</ele>
        <time>2016-07-22T04:47:43Z</time>
      </trkpt>
      <trkpt lat="47.48247" lon="-2.35173">
        <ele>52</ele>
        <time>2016-07-22T04:47:48Z</time>
      </trkpt>
      <trkpt lat="47.48236" lon="-2.35125">
        <ele>53</ele>
        <time>2016-07-22T04:47:55Z</time>
      </trkpt>
      <trkpt lat="47.48232" lon="-2.35102">
        <ele>54</ele>
        <time>2016-07-22T04:47:58Z</time>
      </trkpt>
      <trkpt lat="47.48225" lon="-2.35069">
        <ele>54</ele>
        <time>2016-07-22T04:48:03Z</time>
      </trkpt>
      <trkpt lat="47.48218" lon="-2.35031">
        <ele>57</ele>
        <time>2016-07-22T04:48:08Z</time>
      </trkpt>
      <trkpt lat="47.48209" lon="-2.34985">
        <ele>60</ele>
        <time>2016-07-22T04:48:14Z</time>
      </trkpt>
      <trkpt lat="47.48203" lon="-2.34957">
        <ele>59</ele>
        <time>2016-07-22T04:48:18Z</time>
      </trkpt>
      <trkpt lat="47.48191" lon="-2.34899">
        <ele>57</ele>
        <time>2016-07-22T04:48:26Z</time>
      </trkpt>
      <trkpt lat="47.48189" lon="-2.34884">
        <ele>56</ele>
        <time>2016-07-22T04:48:28Z</time>
      </trkpt>
      <trkpt lat="47.48184" lon="-2.34849">
        <ele>55</ele>
        <time>2016-07-22T04:48:33Z</time>
      </trkpt>
      <trkpt lat="47.48182" lon="-2.34809">
        <ele>54</ele>
        <time>2016-07-22T04:48:38Z</time>
      </trkpt>
      <trkpt lat="47.48181" lon="-2.34769">
        <ele>54</ele>
        <time>2016-07-22T04:48:43Z</time>
      </trkpt>
      <trkpt lat="47.48184" lon="-2.34729">
        <ele>50</ele>
        <time>2016-07-22T04:48:48Z</time>
      </trkpt>
      <trkpt lat="47.48191" lon="-2.34688">
        <ele>47</ele>
        <time>2016-07-22T04:48:53Z</time>
      </trkpt>
      <trkpt lat="47.48199" lon="-2.34637">
        <ele>44</ele>
        <time>2016-07-22T04:48:59Z</time>
      </trkpt>
      <trkpt lat="47.48192" lon="-2.34602">
        <ele>44</ele>
        <time>2016-07-22T04:49:03Z</time>
      </trkpt>
      <trkpt lat="47.48189" lon="-2.34563">
        <ele>44</ele>
        <time>2016-07-22T04:49:08Z</time>
      </trkpt>
      <trkpt lat="47.48198" lon="-2.34526">
        <ele>41</ele>
        <time>2016-07-22T04:49:13Z</time>
      </trkpt>
      <trkpt lat="47.4821" lon="-2.34479">
        <ele>41</ele>
        <time>2016-07-22T04:49:18Z</time>
      </trkpt>
      <trkpt lat="47.48211" lon="-2.34442">
        <ele>41</ele>
        <time>2016-07-22T04:49:23Z</time>
      </trkpt>
      <trkpt lat="47.48207" lon="-2.344">
        <ele>39</ele>
        <time>2016-07-22T04:49:28Z</time>
      </trkpt>
      <trkpt lat="47.48199" lon="-2.3436">
        <ele>37</ele>
        <time>2016-07-22T04:49:33Z</time>
      </trkpt>
      <trkpt lat="47.48176" lon="-2.34314">
        <ele>36</ele>
        <time>2016-07-22T04:49:41Z</time>
      </trkpt>
      <trkpt lat="47.48174" lon="-2.34306">
        <ele>36</ele>
        <time>2016-07-22T04:49:43Z</time>
      </trkpt>
      <trkpt lat="47.48187" lon="-2.34268">
        <ele>37</ele>
        <time>2016-07-22T04:49:48Z</time>
      </trkpt>
      <trkpt lat="47.48177" lon="-2.34214">
        <ele>38</ele>
        <time>2016-07-22T04:49:55Z</time>
      </trkpt>
      <trkpt lat="47.48168" lon="-2.34188">
        <ele>37</ele>
        <time>2016-07-22T04:49:59Z</time>
      </trkpt>
      <trkpt lat="47.4816" lon="-2.3416">
        <ele>34</ele>
        <time>2016-07-22T04:50:03Z</time>
      </trkpt>
      <trkpt lat="47.48159" lon="-2.34155">
        <ele>37</ele>
        <time>2016-07-22T04:50:08Z</time>
      </trkpt>
    </trkseg>
  </trk>
  <trk>
    <name><![CDATA[Sequence 2]]></name>
    <trkseg>
      <trkpt lat="47.47995" lon="-2.34012">
        <ele>28</ele>
        <time>2016-07-22T04:53:22Z</time>
      </trkpt>
      <trkpt lat="47.47988" lon="-2.33988">
        <ele>36</ele>
        <time>2016-07-22T04:53:27Z</time>
      </trkpt>
      <trkpt lat="47.47972" lon="-2.33958">
        <ele>36</ele>
        <time>2016-07-22T04:53:31Z</time>
      </trkpt>
      <trkpt lat="47.47954" lon="-2.33926">
        <ele>39</ele>
        <time>2016-07-22T04:53:36Z</time>
      </trkpt>
      <trkpt lat="47.47937" lon="-2.33895">
        <ele>42</ele>
        <time>2016-07-22T04:53:41Z</time>
      </trkpt>
      <trkpt lat="47.47928" lon="-2.33874">
        <ele>39</ele>
        <time>2016-07-22T04:53:44Z</time>
      </trkpt>
      <trkpt lat="47.47912" lon="-2.33845">
        <ele>38</ele>
        <time>2016-07-22T04:53:48Z</time>
      </trkpt>
      <trkpt lat="47.47893" lon="-2.33815">
        <ele>38</ele>
        <time>2016-07-22T04:53:54Z</time>
      </trkpt>
      <trkpt lat="47.4787" lon="-2.33783">
        <ele>34</ele>
        <time>2016-07-22T04:54:00Z</time>
      </trkpt>
      <trkpt lat="47.47858" lon="-2.33761">
        <ele>34</ele>
        <time>2016-07-22T04:54:03Z</time>
      </trkpt>
      <trkpt lat="47.4784" lon="-2.33732">
        <ele>36</ele>
        <time>2016-07-22T04:54:08Z</time>
      </trkpt>
      <trkpt lat="47.47819" lon="-2.33711">
        <ele>35</ele>
        <time>2016-07-22T04:54:13Z</time>
      </trkpt>
      <trkpt lat="47.47794" lon="-2.3368">
        <ele>37</ele>
        <time>2016-07-22T04:54:19Z</time>
      </trkpt>
      <trkpt lat="47.47776" lon="-2.33665">
        <ele>37</ele>
        <time>2016-07-22T04:54:23Z</time>
      </trkpt>
      <trkpt lat="47.47753" lon="-2.33645">
        <ele>37</ele>
        <time>2016-07-22T04:54:28Z</time>
      </trkpt>
      <trkpt lat="47.47709" lon="-2.33618">
        <ele>38</ele>
        <time>2016-07-22T04:54:37Z</time>
      </trkpt>
      <trkpt lat="47.477" lon="-2.33611">
        <ele>37</ele>
        <time>2016-07-22T04:54:39Z</time>
      </trkpt>
      <trkpt lat="47.4768" lon="-2.336">
        <ele>37</ele>
        <time>2016-07-22T04:54:43Z</time>
      </trkpt>
      <trkpt lat="47.47652" lon="-2.33575">
        <ele>34</ele>
        <time>2016-07-22T04:54:49Z</time>
      </trkpt>
      <trkpt lat="47.4763" lon="-2.3356">
        <ele>34</ele>
        <time>2016-07-22T04:54:53Z</time>
      </trkpt>
      <trkpt lat="47.47602" lon="-2.33541">
        <ele>34</ele>
        <time>2016-07-22T04:54:58Z</time>
      </trkpt>
      <trkpt lat="47.47572" lon="-2.33522">
        <ele>35</ele>
        <time>2016-07-22T04:55:03Z</time>
      </trkpt>
      <trkpt lat="47.47532" lon="-2.3351">
        <ele>32</ele>
        <time>2016-07-22T04:55:09Z</time>
      </trkpt>
      <trkpt lat="47.47499" lon="-2.33492">
        <ele>35</ele>
        <time>2016-07-22T04:55:14Z</time>
      </trkpt>
      <trkpt lat="47.47477" lon="-2.33482">
        <ele>37</ele>
        <time>2016-07-22T04:55:18Z</time>
      </trkpt>
      <trkpt lat="47.47443" lon="-2.33469">
        <ele>38</ele>
        <time>2016-07-22T04:55:25Z</time>
      </trkpt>
      <trkpt lat="47.47415" lon="-2.33457">
        <ele>38</ele>
        <time>2016-07-22T04:55:31Z</time>
      </trkpt>
      <trkpt lat="47.47405" lon="-2.33453">
        <ele>38</ele>
        <time>2016-07-22T04:55:33Z</time>
      </trkpt>
      <trkpt lat="47.4738" lon="-2.33442">
        <ele>37</ele>
        <time>2016-07-22T04:55:38Z</time>
      </trkpt>
      <trkpt lat="47.47347" lon="-2.33431">
        <ele>36</ele>
        <time>2016-07-22T04:55:44Z</time>
      </trkpt>
      <trkpt lat="47.47324" lon="-2.33428">
        <ele>37</ele>
        <time>2016-07-22T04:55:48Z</time>
      </trkpt>
      <trkpt lat="47.47299" lon="-2.33428">
        <ele>37</ele>
        <time>2016-07-22T04:55:53Z</time>
      </trkpt>
      <trkpt lat="47.47258" lon="-2.33432">
        <ele>36</ele>
        <time>2016-07-22T04:56:00Z</time>
      </trkpt>
      <trkpt lat="47.47241" lon="-2.33439">
        <ele>36</ele>
        <time>2016-07-22T04:56:03Z</time>
      </trkpt>
      <trkpt lat="47.47213" lon="-2.33453">
        <ele>35</ele>
        <time>2016-07-22T04:56:08Z</time>
      </trkpt>
      <trkpt lat="47.47184" lon="-2.3347">
        <ele>33</ele>
        <time>2016-07-22T04:56:13Z</time>
      </trkpt>
      <trkpt lat="47.47153" lon="-2.33487">
        <ele>30</ele>
        <time>2016-07-22T04:56:18Z</time>
      </trkpt>
      <trkpt lat="47.47104" lon="-2.33506">
        <ele>30</ele>
        <time>2016-07-22T04:56:26Z</time>
      </trkpt>
      <trkpt lat="47.47093" lon="-2.33508">
        <ele>31</ele>
        <time>2016-07-22T04:56:28Z</time>
      </trkpt>
      <trkpt lat="47.47056" lon="-2.33479">
        <ele>35</ele>
        <time>2016-07-22T04:56:35Z</time>
      </trkpt>
      <trkpt lat="47.47031" lon="-2.33463">
        <ele>35</ele>
        <time>2016-07-22T04:56:40Z</time>
      </trkpt>
      <trkpt lat="47.47005" lon="-2.33449">
        <ele>36</ele>
        <time>2016-07-22T04:56:45Z</time>
      </trkpt>
      <trkpt lat="47.4698" lon="-2.33441">
        <ele>37</ele>
        <time>2016-07-22T04:56:50Z</time>
      </trkpt>
      <trkpt lat="47.46966" lon="-2.33435">
        <ele>37</ele>
        <time>2016-07-22T04:56:53Z</time>
      </trkpt>
      <trkpt lat="47.46922" lon="-2.33426">
        <ele>37</ele>
        <time>2016-07-22T04:57:02Z</time>
      </trkpt>
      <trkpt lat="47.46907" lon="-2.33422">
        <ele>38</ele>
        <time>2016-07-22T04:57:05Z</time>
      </trkpt>
      <trkpt lat="47.46892" lon="-2.33414">
        <ele>39</ele>
        <time>2016-07-22T04:57:08Z</time>
      </trkpt>
      <trkpt lat="47.46871" lon="-2.33387">
        <ele>41</ele>
        <time>2016-07-22T04:57:13Z</time>
      </trkpt>
      <trkpt lat="47.46835" lon="-2.33357">
        <ele>39</ele>
        <time>2016-07-22T04:57:21Z</time>
      </trkpt>
      <trkpt lat="47.46822" lon="-2.33351">
        <ele>37</ele>
        <time>2016-07-22T04:57:24Z</time>
      </trkpt>
      <trkpt lat="47.46778" lon="-2.33351">
        <ele>35</ele>
        <time>2016-07-22T04:57:32Z</time>
      </trkpt>
      <trkpt lat="47.46766" lon="-2.33348">
        <ele>36</ele>
        <time>2016-07-22T04:57:34Z</time>
      </trkpt>
      <trkpt lat="47.46734" lon="-2.3334">
        <ele>39</ele>
        <time>2016-07-22T04:57:40Z</time>
      </trkpt>
      <trkpt lat="47.46712" lon="-2.33328">
        <ele>38</ele>
        <time>2016-07-22T04:57:44Z</time>
      </trkpt>
      <trkpt lat="47.46689" lon="-2.33309">
        <ele>40</ele>
        <time>2016-07-22T04:57:48Z</time>
      </trkpt>
      <trkpt lat="47.46644" lon="-2.33275">
        <ele>37</ele>
        <time>2016-07-22T04:57:56Z</time>
      </trkpt>
      <trkpt lat="47.46633" lon="-2.33262">
        <ele>37</ele>
        <time>2016-07-22T04:57:58Z</time>
      </trkpt>
      <trkpt lat="47.46585" lon="-2.33211">
        <ele>40</ele>
        <time>2016-07-22T04:58:07Z</time>
      </trkpt>
      <trkpt lat="47.4658" lon="-2.33207">
        <ele>41</ele>
        <time>2016-07-22T04:58:08Z</time>
      </trkpt>
      <trkpt lat="47.46552" lon="-2.33188">
        <ele>42</ele>
        <time>2016-07-22T04:58:13Z</time>
      </trkpt>
      <trkpt lat="47.46506" lon="-2.33176">
        <ele>38</ele>
        <time>2016-07-22T04:58:22Z</time>
      </trkpt>
      <trkpt lat="47.46488" lon="-2.33169">
        <ele>39</ele>
        <time>2016-07-22T04:58:26Z</time>
      </trkpt>
      <trkpt lat="47.46469" lon="-2.33164">
        <ele>39</ele>
        <time>2016-07-22T04:58:30Z</time>
      </trkpt>
      <trkpt lat="47.46436" lon="-2.33155">
        <ele>37</ele>
        <time>2016-07-22T04:58:37Z</time>
      </trkpt>
      <trkpt lat="47.46411" lon="-2.33146">
        <ele>38</ele>
        <time>2016-07-22T04:58:42Z</time>
      </trkpt>
      <trkpt lat="47.46405" lon="-2.33144">
        <ele>37</ele>
        <time>2016-07-22T04:58:43Z</time>
      </trkpt>
      <trkpt lat="47.46368" lon="-2.33134">
        <ele>39</ele>
        <time>2016-07-22T04:58:50Z</time>
      </trkpt>
      <trkpt lat="47.46328" lon="-2.33107">
        <ele>35</ele>
        <time>2016-07-22T04:58:57Z</time>
      </trkpt>
      <trkpt lat="47.46323" lon="-2.33102">
        <ele>34</ele>
        <time>2016-07-22T04:58:58Z</time>
      </trkpt>
      <trkpt lat="47.46294" lon="-2.33074">
        <ele>32</ele>
        <time>2016-07-22T04:59:03Z</time>
      </trkpt>
      <trkpt lat="47.46265" lon="-2.33043">
        <ele>33</ele>
        <time>2016-07-22T04:59:08Z</time>
      </trkpt>
      <trkpt lat="47.46237" lon="-2.33011">
        <ele>34</ele>
        <time>2016-07-22T04:59:13Z</time>
      </trkpt>
      <trkpt lat="47.4621" lon="-2.32986">
        <ele>32</ele>
        <time>2016-07-22T04:59:18Z</time>
      </trkpt>
      <trkpt lat="47.46183" lon="-2.32951">
        <ele>33</ele>
        <time>2016-07-22T04:59:23Z</time>
      </trkpt>
      <trkpt lat="47.46154" lon="-2.32909">
        <ele>29</ele>
        <time>2016-07-22T04:59:28Z</time>
      </trkpt>
      <trkpt lat="47.46114" lon="-2.32881">
        <ele>25</ele>
        <time>2016-07-22T04:59:34Z</time>
      </trkpt>
      <trkpt lat="47.46072" lon="-2.32867">
        <ele>28</ele>
        <time>2016-07-22T04:59:41Z</time>
      </trkpt>
      <trkpt lat="47.46062" lon="-2.32862">
        <ele>31</ele>
        <time>2016-07-22T04:59:43Z</time>
      </trkpt>
      <trkpt lat="47.4602" lon="-2.32833">
        <ele>31</ele>
        <time>2016-07-22T04:59:50Z</time>
      </trkpt>
      <trkpt lat="47.45987" lon="-2.32817">
        <ele>30</ele>
        <time>2016-07-22T04:59:56Z</time>
      </trkpt>
      <trkpt lat="47.45959" lon="-2.32802">
        <ele>30</ele>
        <time>2016-07-22T05:00:01Z</time>
      </trkpt>
      <trkpt lat="47.45926" lon="-2.32773">
        <ele>32</ele>
        <time>2016-07-22T05:00:07Z</time>
      </trkpt>
      <trkpt lat="47.45915" lon="-2.32766">
        <ele>33</ele>
        <time>2016-07-22T05:00:09Z</time>
      </trkpt>
      <trkpt lat="47.45891" lon="-2.32741">
        <ele>35</ele>
        <time>2016-07-22T05:00:13Z</time>
      </trkpt>
      <trkpt lat="47.45863" lon="-2.3271">
        <ele>37</ele>
        <time>2016-07-22T05:00:18Z</time>
      </trkpt>
      <trkpt lat="47.4583" lon="-2.32669">
        <ele>39</ele>
        <time>2016-07-22T05:00:24Z</time>
      </trkpt>
      <trkpt lat="47.45792" lon="-2.32631">
        <ele>42</ele>
        <time>2016-07-22T05:00:32Z</time>
      </trkpt>
      <trkpt lat="47.45776" lon="-2.3262">
        <ele>40</ele>
        <time>2016-07-22T05:00:35Z</time>
      </trkpt>
      <trkpt lat="47.4576" lon="-2.32609">
        <ele>38</ele>
        <time>2016-07-22T05:00:38Z</time>
      </trkpt>
      <trkpt lat="47.4571" lon="-2.32574">
        <ele>33</ele>
        <time>2016-07-22T05:00:47Z</time>
      </trkpt>
      <trkpt lat="47.4569" lon="-2.32555">
        <ele>30</ele>
        <time>2016-07-22T05:00:51Z</time>
      </trkpt>
      <trkpt lat="47.45662" lon="-2.32523">
        <ele>27</ele>
        <time>2016-07-22T05:00:57Z</time>
      </trkpt>
      <trkpt lat="47.45658" lon="-2.32518">
        <ele>27</ele>
        <time>2016-07-22T05:00:58Z</time>
      </trkpt>
      <trkpt lat="47.45638" lon="-2.32475">
        <ele>27</ele>
        <time>2016-07-22T05:01:03Z</time>
      </trkpt>
      <trkpt lat="47.45619" lon="-2.32437">
        <ele>27</ele>
        <time>2016-07-22T05:01:08Z</time>
      </trkpt>
      <trkpt lat="47.45594" lon="-2.32389">
        <ele>26</ele>
        <time>2016-07-22T05:01:15Z</time>
      </trkpt>
      <trkpt lat="47.45584" lon="-2.32371">
        <ele>27</ele>
        <time>2016-07-22T05:01:18Z</time>
      </trkpt>
      <trkpt lat="47.45555" lon="-2.32322">
        <ele>25</ele>
        <time>2016-07-22T05:01:26Z</time>
      </trkpt>
      <trkpt lat="47.45547" lon="-2.32311">
        <ele>25</ele>
        <time>2016-07-22T05:01:28Z</time>
      </trkpt>
      <trkpt lat="47.45522" lon="-2.32273">
        <ele>21</ele>
        <time>2016-07-22T05:01:35Z</time>
      </trkpt>
      <trkpt lat="47.45511" lon="-2.32255">
        <ele>21</ele>
        <time>2016-07-22T05:01:38Z</time>
      </trkpt>
      <trkpt lat="47.45496" lon="-2.32212">
        <ele>21</ele>
        <time>2016-07-22T05:01:43Z</time>
      </trkpt>
      <trkpt lat="47.45477" lon="-2.32161">
        <ele>19</ele>
        <time>2016-07-22T05:01:50Z</time>
      </trkpt>
      <trkpt lat="47.4547" lon="-2.32136">
        <ele>19</ele>
        <time>2016-07-22T05:01:53Z</time>
      </trkpt>
      <trkpt lat="47.45453" lon="-2.32055">
        <ele>23</ele>
        <time>2016-07-22T05:02:02Z</time>
      </trkpt>
      <trkpt lat="47.45452" lon="-2.32045">
        <ele>19</ele>
        <time>2016-07-22T05:02:03Z</time>
      </trkpt>
      <trkpt lat="47.45448" lon="-2.31985">
        <ele>18</ele>
        <time>2016-07-22T05:02:08Z</time>
      </trkpt>
      <trkpt lat="47.45444" lon="-2.31921">
        <ele>16</ele>
        <time>2016-07-22T05:02:14Z</time>
      </trkpt>
      <trkpt lat="47.45441" lon="-2.31877">
        <ele>18</ele>
        <time>2016-07-22T05:02:18Z</time>
      </trkpt>
      <trkpt lat="47.45437" lon="-2.31829">
        <ele>17</ele>
        <time>2016-07-22T05:02:23Z</time>
      </trkpt>
      <trkpt lat="47.45434" lon="-2.31761">
        <ele>18</ele>
        <time>2016-07-22T05:02:30Z</time>
      </trkpt>
      <trkpt lat="47.45432" lon="-2.31735">
        <ele>17</ele>
        <time>2016-07-22T05:02:33Z</time>
      </trkpt>
      <trkpt lat="47.45429" lon="-2.31695">
        <ele>16</ele>
        <time>2016-07-22T05:02:38Z</time>
      </trkpt>
      <trkpt lat="47.45429" lon="-2.31638">
        <ele>16</ele>
        <time>2016-07-22T05:02:44Z</time>
      </trkpt>
      <trkpt lat="47.45428" lon="-2.31609">
        <ele>15</ele>
        <time>2016-07-22T05:02:48Z</time>
      </trkpt>
      <trkpt lat="47.45407" lon="-2.31575">
        <ele>13</ele>
        <time>2016-07-22T05:02:56Z</time>
      </trkpt>
      <trkpt lat="47.45372" lon="-2.31579">
        <ele>13</ele>
        <time>2016-07-22T05:03:02Z</time>
      </trkpt>
      <trkpt lat="47.45367" lon="-2.3158">
        <ele>12</ele>
        <time>2016-07-22T05:03:03Z</time>
      </trkpt>
      <trkpt lat="47.45336" lon="-2.31571">
        <ele>14</ele>
        <time>2016-07-22T05:03:08Z</time>
      </trkpt>
      <trkpt lat="47.4529" lon="-2.31553">
        <ele>11</ele>
        <time>2016-07-22T05:03:16Z</time>
      </trkpt>
      <trkpt lat="47.4528" lon="-2.31545">
        <ele>11</ele>
        <time>2016-07-22T05:03:18Z</time>
      </trkpt>
      <trkpt lat="47.45244" lon="-2.31509">
        <ele>12</ele>
        <time>2016-07-22T05:03:25Z</time>
      </trkpt>
      <trkpt lat="47.45215" lon="-2.31497">
        <ele>10</ele>
        <time>2016-07-22T05:03:31Z</time>
      </trkpt>
      <trkpt lat="47.45199" lon="-2.31491">
        <ele>9</ele>
        <time>2016-07-22T05:03:34Z</time>
      </trkpt>
      <trkpt lat="47.45178" lon="-2.3148">
        <ele>8</ele>
        <time>2016-07-22T05:03:38Z</time>
      </trkpt>
      <trkpt lat="47.45135" lon="-2.31458">
        <ele>7</ele>
        <time>2016-07-22T05:03:46Z</time>
      </trkpt>
      <trkpt lat="47.45104" lon="-2.31441">
        <ele>6</ele>
        <time>2016-07-22T05:03:52Z</time>
      </trkpt>
      <trkpt lat="47.45099" lon="-2.31436">
        <ele>6</ele>
        <time>2016-07-22T05:03:53Z</time>
      </trkpt>
      <trkpt lat="47.45073" lon="-2.3142">
        <ele>5</ele>
        <time>2016-07-22T05:03:58Z</time>
      </trkpt>
      <trkpt lat="47.4505" lon="-2.31406">
        <ele>4</ele>
        <time>2016-07-22T05:04:03Z</time>
      </trkpt>
      <trkpt lat="47.45027" lon="-2.31397">
        <ele>5</ele>
        <time>2016-07-22T05:04:08Z</time>
      </trkpt>
      <trkpt lat="47.45017" lon="-2.31392">
        <ele>5</ele>
        <time>2016-07-22T05:04:13Z</time>
      </trkpt>
    </trkseg>
  </trk>
  <trk>
    <name><![CDATA[Sequence 3]]></name>
    <trkseg>
      <trkpt lat="47.45017" lon="-2.31378">
        <ele>6</ele>
        <time>2016-07-22T05:04:53Z</time>
      </trkpt>
      <trkpt lat="47.45017" lon="-2.31378">
        <ele>6</ele>
        <time>2016-07-22T05:04:58Z</time>
      </trkpt>
      <trkpt lat="47.45017" lon="-2.31379">
        <ele>6</ele>
        <time>2016-07-22T05:05:03Z</time>
      </trkpt>
      <trkpt lat="47.45016" lon="-2.3138">
        <ele>6</ele>
        <time>2016-07-22T05:05:08Z</time>
      </trkpt>
      <trkpt lat="47.45001" lon="-2.31371">
        <ele>6</ele>
        <time>2016-07-22T05:05:13Z</time>
      </trkpt>
      <trkpt lat="47.44976" lon="-2.31362">
        <ele>6</ele>
        <time>2016-07-22T05:05:19Z</time>
      </trkpt>
      <trkpt lat="47.44957" lon="-2.31364">
        <ele>5</ele>
        <time>2016-07-22T05:05:23Z</time>
      </trkpt>
      <trkpt lat="47.44928" lon="-2.31374">
        <ele>6</ele>
        <time>2016-07-22T05:05:30Z</time>
      </trkpt>
      <trkpt lat="47.4492" lon="-2.31357">
        <ele>6</ele>
        <time>2016-07-22T05:05:33Z</time>
      </trkpt>
      <trkpt lat="47.44921" lon="-2.3132">
        <ele>6</ele>
        <time>2016-07-22T05:05:38Z</time>
      </trkpt>
      <trkpt lat="47.44923" lon="-2.31285">
        <ele>7</ele>
        <time>2016-07-22T05:05:43Z</time>
      </trkpt>
      <trkpt lat="47.44924" lon="-2.31217">
        <ele>9</ele>
        <time>2016-07-22T05:05:51Z</time>
      </trkpt>
      <trkpt lat="47.44923" lon="-2.31192">
        <ele>9</ele>
        <time>2016-07-22T05:05:54Z</time>
      </trkpt>
      <trkpt lat="47.44924" lon="-2.3115">
        <ele>11</ele>
        <time>2016-07-22T05:05:59Z</time>
      </trkpt>
      <trkpt lat="47.44924" lon="-2.31117">
        <ele>8</ele>
        <time>2016-07-22T05:06:03Z</time>
      </trkpt>
      <trkpt lat="47.44922" lon="-2.3108">
        <ele>10</ele>
        <time>2016-07-22T05:06:08Z</time>
      </trkpt>
      <trkpt lat="47.44921" lon="-2.31036">
        <ele>10</ele>
        <time>2016-07-22T05:06:14Z</time>
      </trkpt>
      <trkpt lat="47.44922" lon="-2.30978">
        <ele>8</ele>
        <time>2016-07-22T05:06:21Z</time>
      </trkpt>
      <trkpt lat="47.44921" lon="-2.3096">
        <ele>8</ele>
        <time>2016-07-22T05:06:23Z</time>
      </trkpt>
      <trkpt lat="47.4492" lon="-2.30918">
        <ele>8</ele>
        <time>2016-07-22T05:06:28Z</time>
      </trkpt>
      <trkpt lat="47.44918" lon="-2.30867">
        <ele>8</ele>
        <time>2016-07-22T05:06:34Z</time>
      </trkpt>
      <trkpt lat="47.44917" lon="-2.30814">
        <ele>9</ele>
        <time>2016-07-22T05:06:40Z</time>
      </trkpt>
      <trkpt lat="47.44916" lon="-2.30795">
        <ele>7</ele>
        <time>2016-07-22T05:06:43Z</time>
      </trkpt>
      <trkpt lat="47.44914" lon="-2.30756">
        <ele>5</ele>
        <time>2016-07-22T05:06:48Z</time>
      </trkpt>
      <trkpt lat="47.44913" lon="-2.30714">
        <ele>4</ele>
        <time>2016-07-22T05:06:53Z</time>
      </trkpt>
      <trkpt lat="47.44911" lon="-2.30674">
        <ele>3</ele>
        <time>2016-07-22T05:06:58Z</time>
      </trkpt>
      <trkpt lat="47.44909" lon="-2.30629">
        <ele>3</ele>
        <time>2016-07-22T05:07:04Z</time>
      </trkpt>
      <trkpt lat="47.44909" lon="-2.3059">
        <ele>5</ele>
        <time>2016-07-22T05:07:09Z</time>
      </trkpt>
      <trkpt lat="47.44906" lon="-2.30533">
        <ele>7</ele>
        <time>2016-07-22T05:07:16Z</time>
      </trkpt>
      <trkpt lat="47.44906" lon="-2.30517">
        <ele>6</ele>
        <time>2016-07-22T05:07:18Z</time>
      </trkpt>
      <trkpt lat="47.44905" lon="-2.30458">
        <ele>8</ele>
        <time>2016-07-22T05:07:25Z</time>
      </trkpt>
      <trkpt lat="47.44903" lon="-2.30422">
        <ele>8</ele>
        <time>2016-07-22T05:07:30Z</time>
      </trkpt>
      <trkpt lat="47.44901" lon="-2.30368">
        <ele>7</ele>
        <time>2016-07-22T05:07:37Z</time>
      </trkpt>
      <trkpt lat="47.44901" lon="-2.30359">
        <ele>6</ele>
        <time>2016-07-22T05:07:38Z</time>
      </trkpt>
      <trkpt lat="47.44901" lon="-2.30317">
        <ele>8</ele>
        <time>2016-07-22T05:07:43Z</time>
      </trkpt>
      <trkpt lat="47.449" lon="-2.30268">
        <ele>8</ele>
        <time>2016-07-22T05:07:49Z</time>
      </trkpt>
      <trkpt lat="47.449" lon="-2.30217">
        <ele>6</ele>
        <time>2016-07-22T05:07:55Z</time>
      </trkpt>
      <trkpt lat="47.44899" lon="-2.30192">
        <ele>3</ele>
        <time>2016-07-22T05:07:58Z</time>
      </trkpt>
      <trkpt lat="47.44898" lon="-2.30156">
        <ele>3</ele>
        <time>2016-07-22T05:08:03Z</time>
      </trkpt>
      <trkpt lat="47.44896" lon="-2.30122">
        <ele>5</ele>
        <time>2016-07-22T05:08:08Z</time>
      </trkpt>
      <trkpt lat="47.44893" lon="-2.30076">
        <ele>7</ele>
        <time>2016-07-22T05:08:14Z</time>
      </trkpt>
      <trkpt lat="47.44893" lon="-2.30042">
        <ele>5</ele>
        <time>2016-07-22T05:08:18Z</time>
      </trkpt>
      <trkpt lat="47.44891" lon="-2.29979">
        <ele>7</ele>
        <time>2016-07-22T05:08:26Z</time>
      </trkpt>
      <trkpt lat="47.44891" lon="-2.29963">
        <ele>6</ele>
        <time>2016-07-22T05:08:28Z</time>
      </trkpt>
      <trkpt lat="47.44891" lon="-2.29914">
        <ele>4</ele>
        <time>2016-07-22T05:08:34Z</time>
      </trkpt>
      <trkpt lat="47.4489" lon="-2.29863">
        <ele>2</ele>
        <time>2016-07-22T05:08:40Z</time>
      </trkpt>
      <trkpt lat="47.44888" lon="-2.29839">
        <ele>3</ele>
        <time>2016-07-22T05:08:43Z</time>
      </trkpt>
      <trkpt lat="47.44885" lon="-2.29767">
        <ele>2</ele>
        <time>2016-07-22T05:08:52Z</time>
      </trkpt>
      <trkpt lat="47.44884" lon="-2.29759">
        <ele>2</ele>
        <time>2016-07-22T05:08:53Z</time>
      </trkpt>
      <trkpt lat="47.44883" lon="-2.29717">
        <ele>2</ele>
        <time>2016-07-22T05:08:58Z</time>
      </trkpt>
      <trkpt lat="47.44879" lon="-2.29669">
        <ele>8</ele>
        <time>2016-07-22T05:09:04Z</time>
      </trkpt>
      <trkpt lat="47.44879" lon="-2.29624">
        <ele>9</ele>
        <time>2016-07-22T05:09:10Z</time>
      </trkpt>
      <trkpt lat="47.4488" lon="-2.29579">
        <ele>7</ele>
        <time>2016-07-22T05:09:16Z</time>
      </trkpt>
      <trkpt lat="47.4488" lon="-2.29563">
        <ele>5</ele>
        <time>2016-07-22T05:09:18Z</time>
      </trkpt>
      <trkpt lat="47.44878" lon="-2.29524">
        <ele>5</ele>
        <time>2016-07-22T05:09:23Z</time>
      </trkpt>
      <trkpt lat="47.44876" lon="-2.29486">
        <ele>6</ele>
        <time>2016-07-22T05:09:28Z</time>
      </trkpt>
      <trkpt lat="47.44874" lon="-2.29448">
        <ele>7</ele>
        <time>2016-07-22T05:09:33Z</time>
      </trkpt>
      <trkpt lat="47.44873" lon="-2.29411">
        <ele>7</ele>
        <time>2016-07-22T05:09:38Z</time>
      </trkpt>
      <trkpt lat="47.4487" lon="-2.29367">
        <ele>11</ele>
        <time>2016-07-22T05:09:44Z</time>
      </trkpt>
      <trkpt lat="47.4487" lon="-2.29334">
        <ele>14</ele>
        <time>2016-07-22T05:09:48Z</time>
      </trkpt>
      <trkpt lat="47.44869" lon="-2.29293">
        <ele>14</ele>
        <time>2016-07-22T05:09:53Z</time>
      </trkpt>
      <trkpt lat="47.44869" lon="-2.29252">
        <ele>17</ele>
        <time>2016-07-22T05:09:58Z</time>
      </trkpt>
      <trkpt lat="47.44867" lon="-2.29202">
        <ele>15</ele>
        <time>2016-07-22T05:10:05Z</time>
      </trkpt>
      <trkpt lat="47.44865" lon="-2.29178">
        <ele>15</ele>
        <time>2016-07-22T05:10:08Z</time>
      </trkpt>
      <trkpt lat="47.44864" lon="-2.29141">
        <ele>18</ele>
        <time>2016-07-22T05:10:13Z</time>
      </trkpt>
      <trkpt lat="47.44864" lon="-2.29102">
        <ele>17</ele>
        <time>2016-07-22T05:10:18Z</time>
      </trkpt>
      <trkpt lat="47.44862" lon="-2.29063">
        <ele>15</ele>
        <time>2016-07-22T05:10:23Z</time>
      </trkpt>
      <trkpt lat="47.44861" lon="-2.29023">
        <ele>13</ele>
        <time>2016-07-22T05:10:28Z</time>
      </trkpt>
      <trkpt lat="47.44854" lon="-2.28989">
        <ele>16</ele>
        <time>2016-07-22T05:10:33Z</time>
      </trkpt>
      <trkpt lat="47.44855" lon="-2.28946">
        <ele>16</ele>
        <time>2016-07-22T05:10:39Z</time>
      </trkpt>
      <trkpt lat="47.44856" lon="-2.28881">
        <ele>17</ele>
        <time>2016-07-22T05:10:47Z</time>
      </trkpt>
      <trkpt lat="47.44857" lon="-2.28836">
        <ele>13</ele>
        <time>2016-07-22T05:10:52Z</time>
      </trkpt>
      <trkpt lat="47.44856" lon="-2.28828">
        <ele>13</ele>
        <time>2016-07-22T05:10:53Z</time>
      </trkpt>
      <trkpt lat="47.44854" lon="-2.28769">
        <ele>9</ele>
        <time>2016-07-22T05:10:59Z</time>
      </trkpt>
      <trkpt lat="47.44853" lon="-2.28729">
        <ele>6</ele>
        <time>2016-07-22T05:11:03Z</time>
      </trkpt>
      <trkpt lat="47.4485" lon="-2.28675">
        <ele>6</ele>
        <time>2016-07-22T05:11:08Z</time>
      </trkpt>
      <trkpt lat="47.44848" lon="-2.28607">
        <ele>9</ele>
        <time>2016-07-22T05:11:15Z</time>
      </trkpt>
      <trkpt lat="47.44846" lon="-2.28553">
        <ele>6</ele>
        <time>2016-07-22T05:11:20Z</time>
      </trkpt>
      <trkpt lat="47.44847" lon="-2.28525">
        <ele>4</ele>
        <time>2016-07-22T05:11:23Z</time>
      </trkpt>
      <trkpt lat="47.44843" lon="-2.28476">
        <ele>5</ele>
        <time>2016-07-22T05:11:28Z</time>
      </trkpt>
      <trkpt lat="47.4484" lon="-2.28428">
        <ele>5</ele>
        <time>2016-07-22T05:11:33Z</time>
      </trkpt>
      <trkpt lat="47.44833" lon="-2.28375">
        <ele>7</ele>
        <time>2016-07-22T05:11:39Z</time>
      </trkpt>
      <trkpt lat="47.4483" lon="-2.2834">
        <ele>5</ele>
        <time>2016-07-22T05:11:43Z</time>
      </trkpt>
      <trkpt lat="47.44826" lon="-2.28301">
        <ele>7</ele>
        <time>2016-07-22T05:11:48Z</time>
      </trkpt>
      <trkpt lat="47.44818" lon="-2.28259">
        <ele>6</ele>
        <time>2016-07-22T05:11:53Z</time>
      </trkpt>
      <trkpt lat="47.44815" lon="-2.28213">
        <ele>3</ele>
        <time>2016-07-22T05:11:58Z</time>
      </trkpt>
      <trkpt lat="47.44807" lon="-2.28149">
        <ele>4</ele>
        <time>2016-07-22T05:12:06Z</time>
      </trkpt>
      <trkpt lat="47.44806" lon="-2.28133">
        <ele>7</ele>
        <time>2016-07-22T05:12:08Z</time>
      </trkpt>
      <trkpt lat="47.448" lon="-2.28097">
        <ele>5</ele>
        <time>2016-07-22T05:12:13Z</time>
      </trkpt>
      <trkpt lat="47.44796" lon="-2.28048">
        <ele>3</ele>
        <time>2016-07-22T05:12:19Z</time>
      </trkpt>
      <trkpt lat="47.44794" lon="-2.28014">
        <ele>4</ele>
        <time>2016-07-22T05:12:23Z</time>
      </trkpt>
      <trkpt lat="47.4479" lon="-2.27971">
        <ele>1</ele>
        <time>2016-07-22T05:12:28Z</time>
      </trkpt>
      <trkpt lat="47.44783" lon="-2.27927">
        <ele>3</ele>
        <time>2016-07-22T05:12:34Z</time>
      </trkpt>
      <trkpt lat="47.4478" lon="-2.27868">
        <ele>1</ele>
        <time>2016-07-22T05:12:41Z</time>
      </trkpt>
      <trkpt lat="47.44776" lon="-2.27819">
        <ele>3</ele>
        <time>2016-07-22T05:12:47Z</time>
      </trkpt>
      <trkpt lat="47.44775" lon="-2.27808">
        <ele>4</ele>
        <time>2016-07-22T05:12:48Z</time>
      </trkpt>
      <trkpt lat="47.44769" lon="-2.27772">
        <ele>6</ele>
        <time>2016-07-22T05:12:53Z</time>
      </trkpt>
      <trkpt lat="47.44767" lon="-2.27734">
        <ele>4</ele>
        <time>2016-07-22T05:12:58Z</time>
      </trkpt>
      <trkpt lat="47.44762" lon="-2.27699">
        <ele>5</ele>
        <time>2016-07-22T05:13:03Z</time>
      </trkpt>
      <trkpt lat="47.4476" lon="-2.27657">
        <ele>4</ele>
        <time>2016-07-22T05:13:08Z</time>
      </trkpt>
      <trkpt lat="47.44754" lon="-2.27621">
        <ele>9</ele>
        <time>2016-07-22T05:13:13Z</time>
      </trkpt>
      <trkpt lat="47.44749" lon="-2.27571">
        <ele>8</ele>
        <time>2016-07-22T05:13:19Z</time>
      </trkpt>
      <trkpt lat="47.44744" lon="-2.27516">
        <ele>3</ele>
        <time>2016-07-22T05:13:26Z</time>
      </trkpt>
      <trkpt lat="47.44743" lon="-2.27501">
        <ele>4</ele>
        <time>2016-07-22T05:13:28Z</time>
      </trkpt>
      <trkpt lat="47.44737" lon="-2.27453">
        <ele>4</ele>
        <time>2016-07-22T05:13:34Z</time>
      </trkpt>
      <trkpt lat="47.44735" lon="-2.2742">
        <ele>5</ele>
        <time>2016-07-22T05:13:38Z</time>
      </trkpt>
      <trkpt lat="47.4473" lon="-2.27374">
        <ele>2</ele>
        <time>2016-07-22T05:13:44Z</time>
      </trkpt>
      <trkpt lat="47.44723" lon="-2.27318">
        <ele>2</ele>
        <time>2016-07-22T05:13:51Z</time>
      </trkpt>
      <trkpt lat="47.44719" lon="-2.27296">
        <ele>2</ele>
        <time>2016-07-22T05:13:54Z</time>
      </trkpt>
      <trkpt lat="47.44716" lon="-2.27261">
        <ele>2</ele>
        <time>2016-07-22T05:13:59Z</time>
      </trkpt>
      <trkpt lat="47.44712" lon="-2.27225">
        <ele>2</ele>
        <time>2016-07-22T05:14:04Z</time>
      </trkpt>
      <trkpt lat="47.44711" lon="-2.27193">
        <ele>2</ele>
        <time>2016-07-22T05:14:08Z</time>
      </trkpt>
      <trkpt lat="47.44707" lon="-2.27146">
        <ele>1</ele>
        <time>2016-07-22T05:14:14Z</time>
      </trkpt>
      <trkpt lat="47.44703" lon="-2.27115">
        <ele>5</ele>
        <time>2016-07-22T05:14:18Z</time>
      </trkpt>
      <trkpt lat="47.44699" lon="-2.27076">
        <ele>4</ele>
        <time>2016-07-22T05:14:23Z</time>
      </trkpt>
      <trkpt lat="47.44694" lon="-2.27041">
        <ele>5</ele>
        <time>2016-07-22T05:14:28Z</time>
      </trkpt>
      <trkpt lat="47.4469" lon="-2.27004">
        <ele>6</ele>
        <time>2016-07-22T05:14:33Z</time>
      </trkpt>
      <trkpt lat="47.44687" lon="-2.2697">
        <ele>7</ele>
        <time>2016-07-22T05:14:38Z</time>
      </trkpt>
      <trkpt lat="47.44682" lon="-2.26932">
        <ele>6</ele>
        <time>2016-07-22T05:14:43Z</time>
      </trkpt>
      <trkpt lat="47.44679" lon="-2.26883">
        <ele>4</ele>
        <time>2016-07-22T05:14:49Z</time>
      </trkpt>
      <trkpt lat="47.44675" lon="-2.26855">
        <ele>6</ele>
        <time>2016-07-22T05:14:53Z</time>
      </trkpt>
      <trkpt lat="47.4467" lon="-2.26822">
        <ele>8</ele>
        <time>2016-07-22T05:14:58Z</time>
      </trkpt>
      <trkpt lat="47.44666" lon="-2.26784">
        <ele>7</ele>
        <time>2016-07-22T05:15:04Z</time>
      </trkpt>
      <trkpt lat="47.44664" lon="-2.26755">
        <ele>5</ele>
        <time>2016-07-22T05:15:08Z</time>
      </trkpt>
      <trkpt lat="47.44662" lon="-2.26718">
        <ele>4</ele>
        <time>2016-07-22T05:15:13Z</time>
      </trkpt>
      <trkpt lat="47.44658" lon="-2.2667">
        <ele>4</ele>
        <time>2016-07-22T05:15:20Z</time>
      </trkpt>
      <trkpt lat="47.44655" lon="-2.26621">
        <ele>3</ele>
        <time>2016-07-22T05:15:27Z</time>
      </trkpt>
      <trkpt lat="47.44654" lon="-2.26613">
        <ele>5</ele>
        <time>2016-07-22T05:15:28Z</time>
      </trkpt>
      <trkpt lat="47.44654" lon="-2.26567">
        <ele>3</ele>
        <time>2016-07-22T05:15:34Z</time>
      </trkpt>
      <trkpt lat="47.44652" lon="-2.26515">
        <ele>6</ele>
        <time>2016-07-22T05:15:42Z</time>
      </trkpt>
      <trkpt lat="47.44653" lon="-2.26486">
        <ele>4</ele>
        <time>2016-07-22T05:15:46Z</time>
      </trkpt>
      <trkpt lat="47.44653" lon="-2.26465">
        <ele>7</ele>
        <time>2016-07-22T05:15:49Z</time>
      </trkpt>
      <trkpt lat="47.44651" lon="-2.26422">
        <ele>5</ele>
        <time>2016-07-22T05:15:55Z</time>
      </trkpt>
      <trkpt lat="47.44651" lon="-2.26399">
        <ele>3</ele>
        <time>2016-07-22T05:15:58Z</time>
      </trkpt>
      <trkpt lat="47.4465" lon="-2.26363">
        <ele>5</ele>
        <time>2016-07-22T05:16:03Z</time>
      </trkpt>
      <trkpt lat="47.44647" lon="-2.2632">
        <ele>2</ele>
        <time>2016-07-22T05:16:09Z</time>
      </trkpt>
      <trkpt lat="47.44647" lon="-2.26293">
        <ele>2</ele>
        <time>2016-07-22T05:16:13Z</time>
      </trkpt>
      <trkpt lat="47.44645" lon="-2.26259">
        <ele>4</ele>
        <time>2016-07-22T05:16:18Z</time>
      </trkpt>
      <trkpt lat="47.44646" lon="-2.26219">
        <ele>1</ele>
        <time>2016-07-22T05:16:23Z</time>
      </trkpt>
      <trkpt lat="47.44644" lon="-2.26178">
        <ele>3</ele>
        <time>2016-07-22T05:16:28Z</time>
      </trkpt>
      <trkpt lat="47.44641" lon="-2.2614">
        <ele>3</ele>
        <time>2016-07-22T05:16:33Z</time>
      </trkpt>
      <trkpt lat="47.44638" lon="-2.26095">
        <ele>2</ele>
        <time>2016-07-22T05:16:39Z</time>
      </trkpt>
      <trkpt lat="47.44639" lon="-2.2603">
        <ele>5</ele>
        <time>2016-07-22T05:16:47Z</time>
      </trkpt>
      <trkpt lat="47.44639" lon="-2.26023">
        <ele>5</ele>
        <time>2016-07-22T05:16:48Z</time>
      </trkpt>
      <trkpt lat="47.44634" lon="-2.25955">
        <ele>8</ele>
        <time>2016-07-22T05:16:57Z</time>
      </trkpt>
      <trkpt lat="47.44634" lon="-2.25947">
        <ele>8</ele>
        <time>2016-07-22T05:16:58Z</time>
      </trkpt>
      <trkpt lat="47.44633" lon="-2.25876">
        <ele>6</ele>
        <time>2016-07-22T05:17:07Z</time>
      </trkpt>
      <trkpt lat="47.44633" lon="-2.25861">
        <ele>5</ele>
        <time>2016-07-22T05:17:09Z</time>
      </trkpt>
      <trkpt lat="47.44631" lon="-2.25831">
        <ele>5</ele>
        <time>2016-07-22T05:17:13Z</time>
      </trkpt>
      <trkpt lat="47.4463" lon="-2.25771">
        <ele>3</ele>
        <time>2016-07-22T05:17:21Z</time>
      </trkpt>
      <trkpt lat="47.4463" lon="-2.25756">
        <ele>3</ele>
        <time>2016-07-22T05:17:23Z</time>
      </trkpt>
      <trkpt lat="47.44627" lon="-2.25723">
        <ele>5</ele>
        <time>2016-07-22T05:17:28Z</time>
      </trkpt>
      <trkpt lat="47.44626" lon="-2.25659">
        <ele>7</ele>
        <time>2016-07-22T05:17:37Z</time>
      </trkpt>
      <trkpt lat="47.44625" lon="-2.25652">
        <ele>7</ele>
        <time>2016-07-22T05:17:38Z</time>
      </trkpt>
      <trkpt lat="47.44624" lon="-2.25616">
        <ele>7</ele>
        <time>2016-07-22T05:17:43Z</time>
      </trkpt>
      <trkpt lat="47.4462" lon="-2.2557">
        <ele>7</ele>
        <time>2016-07-22T05:17:49Z</time>
      </trkpt>
      <trkpt lat="47.4462" lon="-2.25538">
        <ele>7</ele>
        <time>2016-07-22T05:17:53Z</time>
      </trkpt>
      <trkpt lat="47.44617" lon="-2.25498">
        <ele>6</ele>
        <time>2016-07-22T05:17:58Z</time>
      </trkpt>
      <trkpt lat="47.44614" lon="-2.25461">
        <ele>5</ele>
        <time>2016-07-22T05:18:03Z</time>
      </trkpt>
      <trkpt lat="47.44611" lon="-2.25426">
        <ele>4</ele>
        <time>2016-07-22T05:18:08Z</time>
      </trkpt>
      <trkpt lat="47.44606" lon="-2.25394">
        <ele>5</ele>
        <time>2016-07-22T05:18:13Z</time>
      </trkpt>
      <trkpt lat="47.44603" lon="-2.25382">
        <ele>3</ele>
        <time>2016-07-22T05:18:18Z</time>
      </trkpt>
      <trkpt lat="47.44602" lon="-2.25384">
        <ele>4</ele>
        <time>2016-07-22T05:18:23Z</time>
      </trkpt>
    </trkseg>
  </trk>
  <trk>
    <name><![CDATA[Sequence 4]]></name>
    <trkseg>
      <trkpt lat="47.44592" lon="-2.25316">
        <ele>4</ele>
        <time>2016-07-22T05:19:35Z</time>
      </trkpt>
      <trkpt lat="47.44592" lon="-2.2531">
        <ele>3</ele>
        <time>2016-07-22T05:19:36Z</time>
      </trkpt>
      <trkpt lat="47.44589" lon="-2.25277">
        <ele>2</ele>
        <time>2016-07-22T05:19:41Z</time>
      </trkpt>
      <trkpt lat="47.44586" lon="-2.25245">
        <ele>1</ele>
        <time>2016-07-22T05:19:46Z</time>
      </trkpt>
      <trkpt lat="47.44583" lon="-2.25211">
        <ele>1</ele>
        <time>2016-07-22T05:19:51Z</time>
      </trkpt>
      <trkpt lat="47.44578" lon="-2.25177">
        <ele>3</ele>
        <time>2016-07-22T05:19:56Z</time>
      </trkpt>
      <trkpt lat="47.44572" lon="-2.25142">
        <ele>3</ele>
        <time>2016-07-22T05:20:01Z</time>
      </trkpt>
      <trkpt lat="47.44562" lon="-2.25088">
        <ele>4</ele>
        <time>2016-07-22T05:20:08Z</time>
      </trkpt>
      <trkpt lat="47.44555" lon="-2.25043">
        <ele>5</ele>
        <time>2016-07-22T05:20:14Z</time>
      </trkpt>
      <trkpt lat="47.44552" lon="-2.25028">
        <ele>5</ele>
        <time>2016-07-22T05:20:16Z</time>
      </trkpt>
      <trkpt lat="47.44547" lon="-2.24987">
        <ele>3</ele>
        <time>2016-07-22T05:20:21Z</time>
      </trkpt>
      <trkpt lat="47.44543" lon="-2.24949">
        <ele>2</ele>
        <time>2016-07-22T05:20:26Z</time>
      </trkpt>
      <trkpt lat="47.44538" lon="-2.24914">
        <ele>4</ele>
        <time>2016-07-22T05:20:31Z</time>
      </trkpt>
      <trkpt lat="47.44531" lon="-2.24885">
        <ele>5</ele>
        <time>2016-07-22T05:20:36Z</time>
      </trkpt>
      <trkpt lat="47.44522" lon="-2.24861">
        <ele>7</ele>
        <time>2016-07-22T05:20:41Z</time>
      </trkpt>
      <trkpt lat="47.44523" lon="-2.24817">
        <ele>6</ele>
        <time>2016-07-22T05:20:48Z</time>
      </trkpt>
      <trkpt lat="47.44518" lon="-2.24782">
        <ele>6</ele>
        <time>2016-07-22T05:20:53Z</time>
      </trkpt>
      <trkpt lat="47.44515" lon="-2.2476">
        <ele>6</ele>
        <time>2016-07-22T05:20:56Z</time>
      </trkpt>
      <trkpt lat="47.44508" lon="-2.2472">
        <ele>6</ele>
        <time>2016-07-22T05:21:01Z</time>
      </trkpt>
      <trkpt lat="47.44496" lon="-2.24649">
        <ele>5</ele>
        <time>2016-07-22T05:21:10Z</time>
      </trkpt>
      <trkpt lat="47.44491" lon="-2.24619">
        <ele>4</ele>
        <time>2016-07-22T05:21:14Z</time>
      </trkpt>
      <trkpt lat="47.44487" lon="-2.24605">
        <ele>5</ele>
        <time>2016-07-22T05:21:16Z</time>
      </trkpt>
      <trkpt lat="47.4447" lon="-2.24578">
        <ele>5</ele>
        <time>2016-07-22T05:21:21Z</time>
      </trkpt>
      <trkpt lat="47.44463" lon="-2.24545">
        <ele>5</ele>
        <time>2016-07-22T05:21:26Z</time>
      </trkpt>
      <trkpt lat="47.4448" lon="-2.2452">
        <ele>4</ele>
        <time>2016-07-22T05:21:31Z</time>
      </trkpt>
      <trkpt lat="47.44507" lon="-2.2451">
        <ele>3</ele>
        <time>2016-07-22T05:21:37Z</time>
      </trkpt>
      <trkpt lat="47.44519" lon="-2.24493">
        <ele>4</ele>
        <time>2016-07-22T05:21:41Z</time>
      </trkpt>
      <trkpt lat="47.44523" lon="-2.24482">
        <ele>4</ele>
        <time>2016-07-22T05:21:46Z</time>
      </trkpt>
    </trkseg>
  </trk>
  <trk>
    <name><![CDATA[Sequence 5]]></name>
    <trkseg>
      <trkpt lat="47.44528" lon="-2.24495">
        <ele>3</ele>
        <time>2016-07-22T05:22:31Z</time>
      </trkpt>
      <trkpt lat="47.44518" lon="-2.24509">
        <ele>2</ele>
        <time>2016-07-22T05:22:36Z</time>
      </trkpt>
      <trkpt lat="47.44507" lon="-2.24529">
        <ele>2</ele>
        <time>2016-07-22T05:22:41Z</time>
      </trkpt>
      <trkpt lat="47.44502" lon="-2.24553">
        <ele>3</ele>
        <time>2016-07-22T05:22:46Z</time>
      </trkpt>
      <trkpt lat="47.44486" lon="-2.24575">
        <ele>2</ele>
        <time>2016-07-22T05:22:51Z</time>
      </trkpt>
      <trkpt lat="47.44464" lon="-2.24586">
        <ele>2</ele>
        <time>2016-07-22T05:22:56Z</time>
      </trkpt>
      <trkpt lat="47.44444" lon="-2.24604">
        <ele>1</ele>
        <time>2016-07-22T05:23:01Z</time>
      </trkpt>
      <trkpt lat="47.44422" lon="-2.24625">
        <ele>1</ele>
        <time>2016-07-22T05:23:06Z</time>
      </trkpt>
      <trkpt lat="47.44397" lon="-2.24651">
        <ele>1</ele>
        <time>2016-07-22T05:23:12Z</time>
      </trkpt>
      <trkpt lat="47.44372" lon="-2.24671">
        <ele>1</ele>
        <time>2016-07-22T05:23:17Z</time>
      </trkpt>
      <trkpt lat="47.44339" lon="-2.24689">
        <ele>2</ele>
        <time>2016-07-22T05:23:23Z</time>
      </trkpt>
      <trkpt lat="47.44326" lon="-2.24694">
        <ele>3</ele>
        <time>2016-07-22T05:23:26Z</time>
      </trkpt>
      <trkpt lat="47.44291" lon="-2.24699">
        <ele>-1</ele>
        <time>2016-07-22T05:23:31Z</time>
      </trkpt>
      <trkpt lat="47.44241" lon="-2.24703">
        <ele>-4</ele>
        <time>2016-07-22T05:23:40Z</time>
      </trkpt>
      <trkpt lat="47.44233" lon="-2.24705">
        <ele>-1</ele>
        <time>2016-07-22T05:23:42Z</time>
      </trkpt>
      <trkpt lat="47.44215" lon="-2.24705">
        <ele>2</ele>
        <time>2016-07-22T05:23:46Z</time>
      </trkpt>
      <trkpt lat="47.44179" lon="-2.2471">
        <ele>2</ele>
        <time>2016-07-22T05:23:53Z</time>
      </trkpt>
      <trkpt lat="47.44164" lon="-2.24714">
        <ele>4</ele>
        <time>2016-07-22T05:23:56Z</time>
      </trkpt>
      <trkpt lat="47.44138" lon="-2.24715">
        <ele>5</ele>
        <time>2016-07-22T05:24:01Z</time>
      </trkpt>
      <trkpt lat="47.44108" lon="-2.24718">
        <ele>4</ele>
        <time>2016-07-22T05:24:07Z</time>
      </trkpt>
      <trkpt lat="47.44079" lon="-2.24724">
        <ele>5</ele>
        <time>2016-07-22T05:24:12Z</time>
      </trkpt>
      <trkpt lat="47.44058" lon="-2.24725">
        <ele>4</ele>
        <time>2016-07-22T05:24:16Z</time>
      </trkpt>
      <trkpt lat="47.44014" lon="-2.24732">
        <ele>3</ele>
        <time>2016-07-22T05:24:23Z</time>
      </trkpt>
      <trkpt lat="47.43981" lon="-2.24731">
        <ele>1</ele>
        <time>2016-07-22T05:24:29Z</time>
      </trkpt>
      <trkpt lat="47.4397" lon="-2.24733">
        <ele>2</ele>
        <time>2016-07-22T05:24:31Z</time>
      </trkpt>
      <trkpt lat="47.43927" lon="-2.24736">
        <ele>2</ele>
        <time>2016-07-22T05:24:39Z</time>
      </trkpt>
      <trkpt lat="47.43902" lon="-2.24739">
        <ele>3</ele>
        <time>2016-07-22T05:24:43Z</time>
      </trkpt>
      <trkpt lat="47.43879" lon="-2.24741">
        <ele>2</ele>
        <time>2016-07-22T05:24:47Z</time>
      </trkpt>
      <trkpt lat="47.43857" lon="-2.24743">
        <ele>2</ele>
        <time>2016-07-22T05:24:51Z</time>
      </trkpt>
      <trkpt lat="47.43826" lon="-2.24745">
        <ele>4</ele>
        <time>2016-07-22T05:24:57Z</time>
      </trkpt>
      <trkpt lat="47.43804" lon="-2.24748">
        <ele>4</ele>
        <time>2016-07-22T05:25:01Z</time>
      </trkpt>
      <trkpt lat="47.43759" lon="-2.24755">
        <ele>10</ele>
        <time>2016-07-22T05:25:10Z</time>
      </trkpt>
      <trkpt lat="47.43755" lon="-2.24756">
        <ele>10</ele>
        <time>2016-07-22T05:25:11Z</time>
      </trkpt>
      <trkpt lat="47.43726" lon="-2.2476">
        <ele>11</ele>
        <time>2016-07-22T05:25:16Z</time>
      </trkpt>
      <trkpt lat="47.43698" lon="-2.24763">
        <ele>10</ele>
        <time>2016-07-22T05:25:21Z</time>
      </trkpt>
      <trkpt lat="47.43667" lon="-2.24765">
        <ele>10</ele>
        <time>2016-07-22T05:25:26Z</time>
      </trkpt>
      <trkpt lat="47.43637" lon="-2.24765">
        <ele>8</ele>
        <time>2016-07-22T05:25:31Z</time>
      </trkpt>
      <trkpt lat="47.43606" lon="-2.24768">
        <ele>8</ele>
        <time>2016-07-22T05:25:36Z</time>
      </trkpt>
      <trkpt lat="47.43573" lon="-2.24771">
        <ele>8</ele>
        <time>2016-07-22T05:25:42Z</time>
      </trkpt>
      <trkpt lat="47.43549" lon="-2.24775">
        <ele>5</ele>
        <time>2016-07-22T05:25:46Z</time>
      </trkpt>
      <trkpt lat="47.43519" lon="-2.2478">
        <ele>7</ele>
        <time>2016-07-22T05:25:52Z</time>
      </trkpt>
      <trkpt lat="47.43492" lon="-2.24781">
        <ele>9</ele>
        <time>2016-07-22T05:25:57Z</time>
      </trkpt>
      <trkpt lat="47.43468" lon="-2.24779">
        <ele>8</ele>
        <time>2016-07-22T05:26:01Z</time>
      </trkpt>
      <trkpt lat="47.43441" lon="-2.2478">
        <ele>9</ele>
        <time>2016-07-22T05:26:06Z</time>
      </trkpt>
      <trkpt lat="47.43405" lon="-2.24778">
        <ele>6</ele>
        <time>2016-07-22T05:26:12Z</time>
      </trkpt>
      <trkpt lat="47.43388" lon="-2.24777">
        <ele>10</ele>
        <time>2016-07-22T05:26:16Z</time>
      </trkpt>
      <trkpt lat="47.43344" lon="-2.2477">
        <ele>5</ele>
        <time>2016-07-22T05:26:24Z</time>
      </trkpt>
      <trkpt lat="47.43333" lon="-2.24768">
        <ele>4</ele>
        <time>2016-07-22T05:26:26Z</time>
      </trkpt>
      <trkpt lat="47.43288" lon="-2.24751">
        <ele>-1</ele>
        <time>2016-07-22T05:26:34Z</time>
      </trkpt>
      <trkpt lat="47.43277" lon="-2.24748">
        <ele>-1</ele>
        <time>2016-07-22T05:26:36Z</time>
      </trkpt>
      <trkpt lat="47.43233" lon="-2.24739">
        <ele>9</ele>
        <time>2016-07-22T05:26:45Z</time>
      </trkpt>
      <trkpt lat="47.43215" lon="-2.24727">
        <ele>9</ele>
        <time>2016-07-22T05:26:50Z</time>
      </trkpt>
      <trkpt lat="47.43208" lon="-2.24723">
        <ele>9</ele>
        <time>2016-07-22T05:26:51Z</time>
      </trkpt>
      <trkpt lat="47.4318" lon="-2.24708">
        <ele>7</ele>
        <time>2016-07-22T05:26:56Z</time>
      </trkpt>
      <trkpt lat="47.43143" lon="-2.24688">
        <ele>10</ele>
        <time>2016-07-22T05:27:04Z</time>
      </trkpt>
      <trkpt lat="47.43133" lon="-2.24683">
        <ele>9</ele>
        <time>2016-07-22T05:27:06Z</time>
      </trkpt>
      <trkpt lat="47.43097" lon="-2.24659">
        <ele>12</ele>
        <time>2016-07-22T05:27:13Z</time>
      </trkpt>
      <trkpt lat="47.43073" lon="-2.24634">
        <ele>11</ele>
        <time>2016-07-22T05:27:18Z</time>
      </trkpt>
      <trkpt lat="47.43061" lon="-2.24624">
        <ele>13</ele>
        <time>2016-07-22T05:27:21Z</time>
      </trkpt>
      <trkpt lat="47.43038" lon="-2.24603">
        <ele>6</ele>
        <time>2016-07-22T05:27:27Z</time>
      </trkpt>
      <trkpt lat="47.43024" lon="-2.24584">
        <ele>10</ele>
        <time>2016-07-22T05:27:31Z</time>
      </trkpt>
      <trkpt lat="47.42981" lon="-2.24528">
        <ele>11</ele>
        <time>2016-07-22T05:27:40Z</time>
      </trkpt>
      <trkpt lat="47.42964" lon="-2.24499">
        <ele>6</ele>
        <time>2016-07-22T05:27:44Z</time>
      </trkpt>
      <trkpt lat="47.42949" lon="-2.24477">
        <ele>5</ele>
        <time>2016-07-22T05:27:48Z</time>
      </trkpt>
      <trkpt lat="47.42931" lon="-2.24444">
        <ele>5</ele>
        <time>2016-07-22T05:27:53Z</time>
      </trkpt>
      <trkpt lat="47.42906" lon="-2.24395">
        <ele>5</ele>
        <time>2016-07-22T05:28:00Z</time>
      </trkpt>
      <trkpt lat="47.42898" lon="-2.24362">
        <ele>7</ele>
        <time>2016-07-22T05:28:04Z</time>
      </trkpt>
      <trkpt lat="47.42887" lon="-2.24352">
        <ele>5</ele>
        <time>2016-07-22T05:28:06Z</time>
      </trkpt>
      <trkpt lat="47.42859" lon="-2.24296">
        <ele>2</ele>
        <time>2016-07-22T05:28:14Z</time>
      </trkpt>
      <trkpt lat="47.4285" lon="-2.24276">
        <ele>2</ele>
        <time>2016-07-22T05:28:17Z</time>
      </trkpt>
      <trkpt lat="47.42837" lon="-2.24251">
        <ele>4</ele>
        <time>2016-07-22T05:28:21Z</time>
      </trkpt>
      <trkpt lat="47.42822" lon="-2.24221">
        <ele>3</ele>
        <time>2016-07-22T05:28:26Z</time>
      </trkpt>
      <trkpt lat="47.42804" lon="-2.2419">
        <ele>2</ele>
        <time>2016-07-22T05:28:31Z</time>
      </trkpt>
      <trkpt lat="47.42776" lon="-2.24133">
        <ele>3</ele>
        <time>2016-07-22T05:28:40Z</time>
      </trkpt>
      <trkpt lat="47.42766" lon="-2.24112">
        <ele>2</ele>
        <time>2016-07-22T05:28:43Z</time>
      </trkpt>
      <trkpt lat="47.42754" lon="-2.24092">
        <ele>2</ele>
        <time>2016-07-22T05:28:46Z</time>
      </trkpt>
      <trkpt lat="47.42729" lon="-2.24039">
        <ele>3</ele>
        <time>2016-07-22T05:28:54Z</time>
      </trkpt>
      <trkpt lat="47.42719" lon="-2.24018">
        <ele>6</ele>
        <time>2016-07-22T05:28:57Z</time>
      </trkpt>
      <trkpt lat="47.42708" lon="-2.23995">
        <ele>5</ele>
        <time>2016-07-22T05:29:01Z</time>
      </trkpt>
      <trkpt lat="47.42692" lon="-2.23959">
        <ele>3</ele>
        <time>2016-07-22T05:29:06Z</time>
      </trkpt>
      <trkpt lat="47.42674" lon="-2.23933">
        <ele>5</ele>
        <time>2016-07-22T05:29:11Z</time>
      </trkpt>
      <trkpt lat="47.42642" lon="-2.23884">
        <ele>3</ele>
        <time>2016-07-22T05:29:19Z</time>
      </trkpt>
      <trkpt lat="47.42634" lon="-2.23873">
        <ele>2</ele>
        <time>2016-07-22T05:29:21Z</time>
      </trkpt>
      <trkpt lat="47.42613" lon="-2.2385">
        <ele>1</ele>
        <time>2016-07-22T05:29:26Z</time>
      </trkpt>
      <trkpt lat="47.42585" lon="-2.23825">
        <ele>-1</ele>
        <time>2016-07-22T05:29:32Z</time>
      </trkpt>
      <trkpt lat="47.42553" lon="-2.23797">
        <ele>-1</ele>
        <time>2016-07-22T05:29:39Z</time>
      </trkpt>
      <trkpt lat="47.42527" lon="-2.23781">
        <ele>4</ele>
        <time>2016-07-22T05:29:45Z</time>
      </trkpt>
      <trkpt lat="47.42524" lon="-2.23776">
        <ele>5</ele>
        <time>2016-07-22T05:29:46Z</time>
      </trkpt>
      <trkpt lat="47.42481" lon="-2.23747">
        <ele>1</ele>
        <time>2016-07-22T05:29:54Z</time>
      </trkpt>
      <trkpt lat="47.4247" lon="-2.23744">
        <ele>3</ele>
        <time>2016-07-22T05:29:56Z</time>
      </trkpt>
      <trkpt lat="47.42444" lon="-2.23723">
        <ele>-4</ele>
        <time>2016-07-22T05:30:01Z</time>
      </trkpt>
      <trkpt lat="47.42397" lon="-2.23692">
        <ele>-5</ele>
        <time>2016-07-22T05:30:10Z</time>
      </trkpt>
      <trkpt lat="47.42387" lon="-2.23685">
        <ele>-5</ele>
        <time>2016-07-22T05:30:12Z</time>
      </trkpt>
      <trkpt lat="47.4236" lon="-2.23672">
        <ele>-1</ele>
        <time>2016-07-22T05:30:19Z</time>
      </trkpt>
      <trkpt lat="47.42353" lon="-2.23666">
        <ele>2</ele>
        <time>2016-07-22T05:30:21Z</time>
      </trkpt>
      <trkpt lat="47.42325" lon="-2.23651">
        <ele>1</ele>
        <time>2016-07-22T05:30:26Z</time>
      </trkpt>
      <trkpt lat="47.4229" lon="-2.23626">
        <ele>1</ele>
        <time>2016-07-22T05:30:33Z</time>
      </trkpt>
      <trkpt lat="47.42276" lon="-2.23619">
        <ele>5</ele>
        <time>2016-07-22T05:30:36Z</time>
      </trkpt>
      <trkpt lat="47.42239" lon="-2.23596">
        <ele>7</ele>
        <time>2016-07-22T05:30:44Z</time>
      </trkpt>
      <trkpt lat="47.42207" lon="-2.23566">
        <ele>1.7</ele>
        <time>2016-07-22T05:30:50Z</time>
      </trkpt>
      <trkpt lat="47.42196" lon="-2.2356">
        <ele>1</ele>
        <time>2016-07-22T05:30:52Z</time>
      </trkpt>
      <trkpt lat="47.42172" lon="-2.23544">
        <ele>-1</ele>
        <time>2016-07-22T05:30:57Z</time>
      </trkpt>
      <trkpt lat="47.42154" lon="-2.23533">
        <ele>2</ele>
        <time>2016-07-22T05:31:01Z</time>
      </trkpt>
      <trkpt lat="47.42116" lon="-2.23508">
        <ele>4</ele>
        <time>2016-07-22T05:31:09Z</time>
      </trkpt>
      <trkpt lat="47.42105" lon="-2.23502">
        <ele>3</ele>
        <time>2016-07-22T05:31:11Z</time>
      </trkpt>
      <trkpt lat="47.42076" lon="-2.23484">
        <ele>5</ele>
        <time>2016-07-22T05:31:17Z</time>
      </trkpt>
      <trkpt lat="47.4206" lon="-2.23478">
        <ele>9</ele>
        <time>2016-07-22T05:31:21Z</time>
      </trkpt>
      <trkpt lat="47.42035" lon="-2.23459">
        <ele>6</ele>
        <time>2016-07-22T05:31:26Z</time>
      </trkpt>
      <trkpt lat="47.41992" lon="-2.23429">
        <ele>5</ele>
        <time>2016-07-22T05:31:35Z</time>
      </trkpt>
      <trkpt lat="47.41985" lon="-2.23426">
        <ele>4</ele>
        <time>2016-07-22T05:31:36Z</time>
      </trkpt>
      <trkpt lat="47.41946" lon="-2.23405">
        <ele>3</ele>
        <time>2016-07-22T05:31:44Z</time>
      </trkpt>
      <trkpt lat="47.41928" lon="-2.23399">
        <ele>4</ele>
        <time>2016-07-22T05:31:47Z</time>
      </trkpt>
      <trkpt lat="47.41902" lon="-2.23392">
        <ele>2.1</ele>
        <time>2016-07-22T05:31:51Z</time>
      </trkpt>
      <trkpt lat="47.41864" lon="-2.23384">
        <ele>2</ele>
        <time>2016-07-22T05:31:58Z</time>
      </trkpt>
      <trkpt lat="47.4184" lon="-2.23381">
        <ele>3</ele>
        <time>2016-07-22T05:32:02Z</time>
      </trkpt>
      <trkpt lat="47.41821" lon="-2.23381">
        <ele>6</ele>
        <time>2016-07-22T05:32:06Z</time>
      </trkpt>
      <trkpt lat="47.41791" lon="-2.23386">
        <ele>8</ele>
        <time>2016-07-22T05:32:11Z</time>
      </trkpt>
      <trkpt lat="47.41747" lon="-2.23391">
        <ele>3</ele>
        <time>2016-07-22T05:32:18Z</time>
      </trkpt>
      <trkpt lat="47.41734" lon="-2.23382">
        <ele>2</ele>
        <time>2016-07-22T05:32:21Z</time>
      </trkpt>
      <trkpt lat="47.41706" lon="-2.23368">
        <ele>1</ele>
        <time>2016-07-22T05:32:27Z</time>
      </trkpt>
      <trkpt lat="47.41681" lon="-2.23369">
        <ele>1</ele>
        <time>2016-07-22T05:32:32Z</time>
      </trkpt>
      <trkpt lat="47.41641" lon="-2.23369">
        <ele>1</ele>
        <time>2016-07-22T05:32:39Z</time>
      </trkpt>
      <trkpt lat="47.41629" lon="-2.23366">
        <ele>1.9</ele>
        <time>2016-07-22T05:32:41Z</time>
      </trkpt>
      <trkpt lat="47.41601" lon="-2.23367">
        <ele>1</ele>
        <time>2016-07-22T05:32:46Z</time>
      </trkpt>
      <trkpt lat="47.4155" lon="-2.2335">
        <ele>-1</ele>
        <time>2016-07-22T05:32:55Z</time>
      </trkpt>
      <trkpt lat="47.41544" lon="-2.2335">
        <ele>-1</ele>
        <time>2016-07-22T05:32:56Z</time>
      </trkpt>
      <trkpt lat="47.41506" lon="-2.2335">
        <ele>1</ele>
        <time>2016-07-22T05:33:03Z</time>
      </trkpt>
      <trkpt lat="47.41491" lon="-2.23349">
        <ele>1</ele>
        <time>2016-07-22T05:33:06Z</time>
      </trkpt>
      <trkpt lat="47.41465" lon="-2.23346">
        <ele>2</ele>
        <time>2016-07-22T05:33:11Z</time>
      </trkpt>
      <trkpt lat="47.4144" lon="-2.23344">
        <ele>3</ele>
        <time>2016-07-22T05:33:16Z</time>
      </trkpt>
      <trkpt lat="47.41392" lon="-2.23339">
        <ele>5</ele>
        <time>2016-07-22T05:33:25Z</time>
      </trkpt>
      <trkpt lat="47.41382" lon="-2.23337">
        <ele>3</ele>
        <time>2016-07-22T05:33:27Z</time>
      </trkpt>
      <trkpt lat="47.41353" lon="-2.23332">
        <ele>3</ele>
        <time>2016-07-22T05:33:32Z</time>
      </trkpt>
      <trkpt lat="47.41316" lon="-2.23317">
        <ele>2.5</ele>
        <time>2016-07-22T05:33:39Z</time>
      </trkpt>
      <trkpt lat="47.41289" lon="-2.23304">
        <ele>-3</ele>
        <time>2016-07-22T05:33:44Z</time>
      </trkpt>
      <trkpt lat="47.41263" lon="-2.23288">
        <ele>-3</ele>
        <time>2016-07-22T05:33:49Z</time>
      </trkpt>
      <trkpt lat="47.4124" lon="-2.23275">
        <ele>-4</ele>
        <time>2016-07-22T05:33:54Z</time>
      </trkpt>
      <trkpt lat="47.41231" lon="-2.2327">
        <ele>-4</ele>
        <time>2016-07-22T05:33:56Z</time>
      </trkpt>
      <trkpt lat="47.41197" lon="-2.23243">
        <ele>-5</ele>
        <time>2016-07-22T05:34:03Z</time>
      </trkpt>
      <trkpt lat="47.41182" lon="-2.23231">
        <ele>-5</ele>
        <time>2016-07-22T05:34:06Z</time>
      </trkpt>
      <trkpt lat="47.4116" lon="-2.23208">
        <ele>-4</ele>
        <time>2016-07-22T05:34:11Z</time>
      </trkpt>
      <trkpt lat="47.4113" lon="-2.23183">
        <ele>-7</ele>
        <time>2016-07-22T05:34:17Z</time>
      </trkpt>
      <trkpt lat="47.411" lon="-2.23161">
        <ele>-2</ele>
        <time>2016-07-22T05:34:25Z</time>
      </trkpt>
      <trkpt lat="47.41097" lon="-2.2316">
        <ele>2.5</ele>
        <time>2016-07-22T05:34:26Z</time>
      </trkpt>
      <trkpt lat="47.41076" lon="-2.23142">
        <ele>4</ele>
        <time>2016-07-22T05:34:31Z</time>
      </trkpt>
      <trkpt lat="47.41038" lon="-2.23111">
        <ele>3</ele>
        <time>2016-07-22T05:34:40Z</time>
      </trkpt>
      <trkpt lat="47.41028" lon="-2.23109">
        <ele>5</ele>
        <time>2016-07-22T05:34:42Z</time>
      </trkpt>
      <trkpt lat="47.41012" lon="-2.23087">
        <ele>4</ele>
        <time>2016-07-22T05:34:46Z</time>
      </trkpt>
      <trkpt lat="47.40987" lon="-2.2306">
        <ele>3</ele>
        <time>2016-07-22T05:34:51Z</time>
      </trkpt>
      <trkpt lat="47.40956" lon="-2.2303">
        <ele>4</ele>
        <time>2016-07-22T05:34:58Z</time>
      </trkpt>
      <trkpt lat="47.4093" lon="-2.22996">
        <ele>2</ele>
        <time>2016-07-22T05:35:04Z</time>
      </trkpt>
      <trkpt lat="47.40923" lon="-2.22985">
        <ele>2</ele>
        <time>2016-07-22T05:35:06Z</time>
      </trkpt>
      <trkpt lat="47.409" lon="-2.22954">
        <ele>1</ele>
        <time>2016-07-22T05:35:11Z</time>
      </trkpt>
      <trkpt lat="47.40863" lon="-2.22896">
        <ele>-5</ele>
        <time>2016-07-22T05:35:20Z</time>
      </trkpt>
      <trkpt lat="47.40859" lon="-2.22893">
        <ele>-3</ele>
        <time>2016-07-22T05:35:21Z</time>
      </trkpt>
      <trkpt lat="47.4084" lon="-2.22858">
        <ele>-1</ele>
        <time>2016-07-22T05:35:26Z</time>
      </trkpt>
      <trkpt lat="47.40821" lon="-2.22828">
        <ele>4</ele>
        <time>2016-07-22T05:35:31Z</time>
      </trkpt>
      <trkpt lat="47.40802" lon="-2.22793">
        <ele>5</ele>
        <time>2016-07-22T05:35:36Z</time>
      </trkpt>
      <trkpt lat="47.40782" lon="-2.22763">
        <ele>2</ele>
        <time>2016-07-22T05:35:41Z</time>
      </trkpt>
      <trkpt lat="47.40751" lon="-2.22714">
        <ele>2</ele>
        <time>2016-07-22T05:35:49Z</time>
      </trkpt>
      <trkpt lat="47.40743" lon="-2.22701">
        <ele>2</ele>
        <time>2016-07-22T05:35:51Z</time>
      </trkpt>
      <trkpt lat="47.40714" lon="-2.22655">
        <ele>2</ele>
        <time>2016-07-22T05:35:59Z</time>
      </trkpt>
      <trkpt lat="47.40706" lon="-2.22643">
        <ele>1</ele>
        <time>2016-07-22T05:36:01Z</time>
      </trkpt>
      <trkpt lat="47.40686" lon="-2.22613">
        <ele>1</ele>
        <time>2016-07-22T05:36:06Z</time>
      </trkpt>
      <trkpt lat="47.40656" lon="-2.22563">
        <ele>-2</ele>
        <time>2016-07-22T05:36:14Z</time>
      </trkpt>
      <trkpt lat="47.40632" lon="-2.22533">
        <ele>1</ele>
        <time>2016-07-22T05:36:20Z</time>
      </trkpt>
      <trkpt lat="47.40628" lon="-2.22529">
        <ele>1</ele>
        <time>2016-07-22T05:36:21Z</time>
      </trkpt>
      <trkpt lat="47.40598" lon="-2.22492">
        <ele>-1</ele>
        <time>2016-07-22T05:36:29Z</time>
      </trkpt>
      <trkpt lat="47.40583" lon="-2.22468">
        <ele>1.8</ele>
        <time>2016-07-22T05:36:33Z</time>
      </trkpt>
      <trkpt lat="47.40571" lon="-2.22453">
        <ele>2</ele>
        <time>2016-07-22T05:36:36Z</time>
      </trkpt>
      <trkpt lat="47.4055" lon="-2.22416">
        <ele>1</ele>
        <time>2016-07-22T05:36:42Z</time>
      </trkpt>
      <trkpt lat="47.40536" lon="-2.22394">
        <ele>-1</ele>
        <time>2016-07-22T05:36:46Z</time>
      </trkpt>
      <trkpt lat="47.40516" lon="-2.22366">
        <ele>-3</ele>
        <time>2016-07-22T05:36:51Z</time>
      </trkpt>
      <trkpt lat="47.40488" lon="-2.22328">
        <ele>-3</ele>
        <time>2016-07-22T05:36:58Z</time>
      </trkpt>
      <trkpt lat="47.40462" lon="-2.22298">
        <ele>3</ele>
        <time>2016-07-22T05:37:05Z</time>
      </trkpt>
      <trkpt lat="47.4045" lon="-2.2228">
        <ele>5</ele>
        <time>2016-07-22T05:37:08Z</time>
      </trkpt>
      <trkpt lat="47.40437" lon="-2.22262">
        <ele>4</ele>
        <time>2016-07-22T05:37:11Z</time>
      </trkpt>
      <trkpt lat="47.40416" lon="-2.22229">
        <ele>2</ele>
        <time>2016-07-22T05:37:16Z</time>
      </trkpt>
      <trkpt lat="47.40388" lon="-2.22183">
        <ele>3</ele>
        <time>2016-07-22T05:37:24Z</time>
      </trkpt>
      <trkpt lat="47.40376" lon="-2.22164">
        <ele>3</ele>
        <time>2016-07-22T05:37:27Z</time>
      </trkpt>
      <trkpt lat="47.40362" lon="-2.22144">
        <ele>4</ele>
        <time>2016-07-22T05:37:31Z</time>
      </trkpt>
      <trkpt lat="47.40342" lon="-2.22117">
        <ele>3</ele>
        <time>2016-07-22T05:37:36Z</time>
      </trkpt>
      <trkpt lat="47.40323" lon="-2.22092">
        <ele>4</ele>
        <time>2016-07-22T05:37:41Z</time>
      </trkpt>
      <trkpt lat="47.4029" lon="-2.22049">
        <ele>3</ele>
        <time>2016-07-22T05:37:49Z</time>
      </trkpt>
      <trkpt lat="47.40274" lon="-2.22026">
        <ele>3</ele>
        <time>2016-07-22T05:37:53Z</time>
      </trkpt>
      <trkpt lat="47.40262" lon="-2.22013">
        <ele>2</ele>
        <time>2016-07-22T05:37:56Z</time>
      </trkpt>
      <trkpt lat="47.40239" lon="-2.21993">
        <ele>2</ele>
        <time>2016-07-22T05:38:01Z</time>
      </trkpt>
      <trkpt lat="47.40195" lon="-2.21969">
        <ele>2</ele>
        <time>2016-07-22T05:38:10Z</time>
      </trkpt>
      <trkpt lat="47.40185" lon="-2.21965">
        <ele>2</ele>
        <time>2016-07-22T05:38:12Z</time>
      </trkpt>
      <trkpt lat="47.40165" lon="-2.21957">
        <ele>3</ele>
        <time>2016-07-22T05:38:16Z</time>
      </trkpt>
      <trkpt lat="47.40136" lon="-2.21946">
        <ele>5</ele>
        <time>2016-07-22T05:38:23Z</time>
      </trkpt>
      <trkpt lat="47.4012" lon="-2.21941">
        <ele>3</ele>
        <time>2016-07-22T05:38:26Z</time>
      </trkpt>
      <trkpt lat="47.40093" lon="-2.21935">
        <ele>4</ele>
        <time>2016-07-22T05:38:31Z</time>
      </trkpt>
      <trkpt lat="47.4005" lon="-2.21927">
        <ele>9</ele>
        <time>2016-07-22T05:38:40Z</time>
      </trkpt>
      <trkpt lat="47.40038" lon="-2.21919">
        <ele>6</ele>
        <time>2016-07-22T05:38:42Z</time>
      </trkpt>
      <trkpt lat="47.40013" lon="-2.2191">
        <ele>6</ele>
        <time>2016-07-22T05:38:47Z</time>
      </trkpt>
      <trkpt lat="47.39969" lon="-2.21898">
        <ele>5</ele>
        <time>2016-07-22T05:38:55Z</time>
      </trkpt>
      <trkpt lat="47.39949" lon="-2.2189">
        <ele>-1</ele>
        <time>2016-07-22T05:38:59Z</time>
      </trkpt>
      <trkpt lat="47.39923" lon="-2.21881">
        <ele>-1</ele>
        <time>2016-07-22T05:39:04Z</time>
      </trkpt>
      <trkpt lat="47.39913" lon="-2.21878">
        <ele>-1</ele>
        <time>2016-07-22T05:39:06Z</time>
      </trkpt>
      <trkpt lat="47.39888" lon="-2.21871">
        <ele>-1</ele>
        <time>2016-07-22T05:39:11Z</time>
      </trkpt>
      <trkpt lat="47.39863" lon="-2.21863">
        <ele>2.8</ele>
        <time>2016-07-22T05:39:16Z</time>
      </trkpt>
      <trkpt lat="47.39838" lon="-2.21859">
        <ele>3</ele>
        <time>2016-07-22T05:39:21Z</time>
      </trkpt>
      <trkpt lat="47.39796" lon="-2.21844">
        <ele>4</ele>
        <time>2016-07-22T05:39:29Z</time>
      </trkpt>
      <trkpt lat="47.39785" lon="-2.2184">
        <ele>5</ele>
        <time>2016-07-22T05:39:31Z</time>
      </trkpt>
      <trkpt lat="47.39758" lon="-2.21832">
        <ele>4</ele>
        <time>2016-07-22T05:39:36Z</time>
      </trkpt>
      <trkpt lat="47.39731" lon="-2.21825">
        <ele>5</ele>
        <time>2016-07-22T05:39:41Z</time>
      </trkpt>
      <trkpt lat="47.39695" lon="-2.2181">
        <ele>6</ele>
        <time>2016-07-22T05:39:48Z</time>
      </trkpt>
      <trkpt lat="47.39663" lon="-2.21779">
        <ele>6</ele>
        <time>2016-07-22T05:39:55Z</time>
      </trkpt>
      <trkpt lat="47.39658" lon="-2.21774">
        <ele>6</ele>
        <time>2016-07-22T05:39:56Z</time>
      </trkpt>
      <trkpt lat="47.39635" lon="-2.21748">
        <ele>6</ele>
        <time>2016-07-22T05:40:01Z</time>
      </trkpt>
      <trkpt lat="47.39614" lon="-2.21722">
        <ele>6</ele>
        <time>2016-07-22T05:40:06Z</time>
      </trkpt>
      <trkpt lat="47.39592" lon="-2.21695">
        <ele>6</ele>
        <time>2016-07-22T05:40:11Z</time>
      </trkpt>
      <trkpt lat="47.3957" lon="-2.2167">
        <ele>5</ele>
        <time>2016-07-22T05:40:16Z</time>
      </trkpt>
      <trkpt lat="47.39548" lon="-2.21645">
        <ele>5</ele>
        <time>2016-07-22T05:40:21Z</time>
      </trkpt>
      <trkpt lat="47.39526" lon="-2.21619">
        <ele>6</ele>
        <time>2016-07-22T05:40:26Z</time>
      </trkpt>
      <trkpt lat="47.39504" lon="-2.21592">
        <ele>5</ele>
        <time>2016-07-22T05:40:31Z</time>
      </trkpt>
      <trkpt lat="47.39483" lon="-2.21566">
        <ele>4</ele>
        <time>2016-07-22T05:40:36Z</time>
      </trkpt>
      <trkpt lat="47.39462" lon="-2.21541">
        <ele>4</ele>
        <time>2016-07-22T05:40:41Z</time>
      </trkpt>
      <trkpt lat="47.39444" lon="-2.21518">
        <ele>3</ele>
        <time>2016-07-22T05:40:46Z</time>
      </trkpt>
      <trkpt lat="47.39424" lon="-2.21486">
        <ele>1</ele>
        <time>2016-07-22T05:40:51Z</time>
      </trkpt>
      <trkpt lat="47.39402" lon="-2.2146">
        <ele>2</ele>
        <time>2016-07-22T05:40:56Z</time>
      </trkpt>
      <trkpt lat="47.39375" lon="-2.21426">
        <ele>2</ele>
        <time>2016-07-22T05:41:02Z</time>
      </trkpt>
      <trkpt lat="47.39351" lon="-2.21399">
        <ele>1</ele>
        <time>2016-07-22T05:41:07Z</time>
      </trkpt>
      <trkpt lat="47.39333" lon="-2.21378">
        <ele>1</ele>
        <time>2016-07-22T05:41:11Z</time>
      </trkpt>
      <trkpt lat="47.39308" lon="-2.21348">
        <ele>1</ele>
        <time>2016-07-22T05:41:17Z</time>
      </trkpt>
      <trkpt lat="47.39292" lon="-2.21326">
        <ele>1</ele>
        <time>2016-07-22T05:41:21Z</time>
      </trkpt>
      <trkpt lat="47.39273" lon="-2.21275">
        <ele>1</ele>
        <time>2016-07-22T05:41:28Z</time>
      </trkpt>
      <trkpt lat="47.39261" lon="-2.21219">
        <ele>4</ele>
        <time>2016-07-22T05:41:35Z</time>
      </trkpt>
      <trkpt lat="47.3926" lon="-2.21211">
        <ele>2</ele>
        <time>2016-07-22T05:41:36Z</time>
      </trkpt>
      <trkpt lat="47.39252" lon="-2.21173">
        <ele>3</ele>
        <time>2016-07-22T05:41:41Z</time>
      </trkpt>
      <trkpt lat="47.39242" lon="-2.21136">
        <ele>2</ele>
        <time>2016-07-22T05:41:46Z</time>
      </trkpt>
      <trkpt lat="47.39231" lon="-2.21102">
        <ele>5</ele>
        <time>2016-07-22T05:41:51Z</time>
      </trkpt>
      <trkpt lat="47.39219" lon="-2.21068">
        <ele>5</ele>
        <time>2016-07-22T05:41:56Z</time>
      </trkpt>
      <trkpt lat="47.39208" lon="-2.21034">
        <ele>4</ele>
        <time>2016-07-22T05:42:01Z</time>
      </trkpt>
      <trkpt lat="47.39196" lon="-2.20999">
        <ele>5</ele>
        <time>2016-07-22T05:42:06Z</time>
      </trkpt>
      <trkpt lat="47.39177" lon="-2.20952">
        <ele>6</ele>
        <time>2016-07-22T05:42:13Z</time>
      </trkpt>
      <trkpt lat="47.39166" lon="-2.20919">
        <ele>5</ele>
        <time>2016-07-22T05:42:17Z</time>
      </trkpt>
      <trkpt lat="47.39157" lon="-2.20891">
        <ele>8</ele>
        <time>2016-07-22T05:42:21Z</time>
      </trkpt>
      <trkpt lat="47.39131" lon="-2.20825">
        <ele>6</ele>
        <time>2016-07-22T05:42:30Z</time>
      </trkpt>
      <trkpt lat="47.39128" lon="-2.20818">
        <ele>6</ele>
        <time>2016-07-22T05:42:31Z</time>
      </trkpt>
      <trkpt lat="47.39106" lon="-2.20791">
        <ele>7</ele>
        <time>2016-07-22T05:42:36Z</time>
      </trkpt>
      <trkpt lat="47.39082" lon="-2.20769">
        <ele>5</ele>
        <time>2016-07-22T05:42:41Z</time>
      </trkpt>
      <trkpt lat="47.39063" lon="-2.20743">
        <ele>4</ele>
        <time>2016-07-22T05:42:46Z</time>
      </trkpt>
      <trkpt lat="47.39025" lon="-2.20705">
        <ele>1</ele>
        <time>2016-07-22T05:42:54Z</time>
      </trkpt>
      <trkpt lat="47.39016" lon="-2.20697">
        <ele>1</ele>
        <time>2016-07-22T05:42:56Z</time>
      </trkpt>
      <trkpt lat="47.38992" lon="-2.20676">
        <ele>3</ele>
        <time>2016-07-22T05:43:01Z</time>
      </trkpt>
      <trkpt lat="47.38964" lon="-2.2065">
        <ele>5</ele>
        <time>2016-07-22T05:43:07Z</time>
      </trkpt>
      <trkpt lat="47.38946" lon="-2.20632">
        <ele>4</ele>
        <time>2016-07-22T05:43:11Z</time>
      </trkpt>
      <trkpt lat="47.38921" lon="-2.2061">
        <ele>5</ele>
        <time>2016-07-22T05:43:16Z</time>
      </trkpt>
      <trkpt lat="47.38897" lon="-2.20587">
        <ele>5</ele>
        <time>2016-07-22T05:43:21Z</time>
      </trkpt>
      <trkpt lat="47.38874" lon="-2.20565">
        <ele>6</ele>
        <time>2016-07-22T05:43:26Z</time>
      </trkpt>
      <trkpt lat="47.38852" lon="-2.20544">
        <ele>7</ele>
        <time>2016-07-22T05:43:31Z</time>
      </trkpt>
      <trkpt lat="47.38829" lon="-2.20524">
        <ele>7</ele>
        <time>2016-07-22T05:43:36Z</time>
      </trkpt>
      <trkpt lat="47.38807" lon="-2.20501">
        <ele>5</ele>
        <time>2016-07-22T05:43:41Z</time>
      </trkpt>
      <trkpt lat="47.38783" lon="-2.20479">
        <ele>5</ele>
        <time>2016-07-22T05:43:46Z</time>
      </trkpt>
      <trkpt lat="47.38747" lon="-2.2044">
        <ele>7</ele>
        <time>2016-07-22T05:43:55Z</time>
      </trkpt>
      <trkpt lat="47.38739" lon="-2.20431">
        <ele>6</ele>
        <time>2016-07-22T05:43:57Z</time>
      </trkpt>
      <trkpt lat="47.38721" lon="-2.20416">
        <ele>6</ele>
        <time>2016-07-22T05:44:01Z</time>
      </trkpt>
      <trkpt lat="47.38685" lon="-2.20385">
        <ele>8</ele>
        <time>2016-07-22T05:44:09Z</time>
      </trkpt>
      <trkpt lat="47.38676" lon="-2.20379">
        <ele>8</ele>
        <time>2016-07-22T05:44:11Z</time>
      </trkpt>
      <trkpt lat="47.38653" lon="-2.20361">
        <ele>8</ele>
        <time>2016-07-22T05:44:16Z</time>
      </trkpt>
      <trkpt lat="47.38613" lon="-2.20331">
        <ele>8</ele>
        <time>2016-07-22T05:44:25Z</time>
      </trkpt>
      <trkpt lat="47.3861" lon="-2.20328">
        <ele>8</ele>
        <time>2016-07-22T05:44:26Z</time>
      </trkpt>
      <trkpt lat="47.38594" lon="-2.2032">
        <ele>7</ele>
        <time>2016-07-22T05:44:31Z</time>
      </trkpt>
      <trkpt lat="47.3859" lon="-2.20319">
        <ele>6</ele>
        <time>2016-07-22T05:44:40Z</time>
      </trkpt>
      <trkpt lat="47.3859" lon="-2.20319">
        <ele>6</ele>
        <time>2016-07-22T05:44:41Z</time>
      </trkpt>
    </trkseg>
  </trk>
  <trk>
    <name><![CDATA[Sequence 6]]></name>
    <trkseg>
      <trkpt lat="47.3859" lon="-2.20319">
        <ele>4</ele>
        <time>2016-07-22T05:45:06Z</time>
      </trkpt>
      <trkpt lat="47.3859" lon="-2.20319">
        <ele>4</ele>
        <time>2016-07-22T05:45:11Z</time>
      </trkpt>
      <trkpt lat="47.3859" lon="-2.2032">
        <ele>4.4</ele>
        <time>2016-07-22T05:45:16Z</time>
      </trkpt>
      <trkpt lat="47.38587" lon="-2.20317">
        <ele>1</ele>
        <time>2016-07-22T05:45:21Z</time>
      </trkpt>
      <trkpt lat="47.38574" lon="-2.20307">
        <ele>1</ele>
        <time>2016-07-22T05:45:26Z</time>
      </trkpt>
      <trkpt lat="47.38552" lon="-2.20293">
        <ele>4</ele>
        <time>2016-07-22T05:45:31Z</time>
      </trkpt>
      <trkpt lat="47.38529" lon="-2.20282">
        <ele>6</ele>
        <time>2016-07-22T05:45:36Z</time>
      </trkpt>
      <trkpt lat="47.38506" lon="-2.20265">
        <ele>7</ele>
        <time>2016-07-22T05:45:41Z</time>
      </trkpt>
      <trkpt lat="47.3848" lon="-2.20249">
        <ele>6</ele>
        <time>2016-07-22T05:45:47Z</time>
      </trkpt>
      <trkpt lat="47.38455" lon="-2.20235">
        <ele>5</ele>
        <time>2016-07-22T05:45:52Z</time>
      </trkpt>
      <trkpt lat="47.38436" lon="-2.20223">
        <ele>7</ele>
        <time>2016-07-22T05:45:56Z</time>
      </trkpt>
      <trkpt lat="47.38404" lon="-2.20201">
        <ele>9</ele>
        <time>2016-07-22T05:46:03Z</time>
      </trkpt>
      <trkpt lat="47.3838" lon="-2.20175">
        <ele>11</ele>
        <time>2016-07-22T05:46:09Z</time>
      </trkpt>
      <trkpt lat="47.38369" lon="-2.20162">
        <ele>11</ele>
        <time>2016-07-22T05:46:12Z</time>
      </trkpt>
      <trkpt lat="47.38351" lon="-2.20147">
        <ele>12</ele>
        <time>2016-07-22T05:46:16Z</time>
      </trkpt>
      <trkpt lat="47.38325" lon="-2.20114">
        <ele>12</ele>
        <time>2016-07-22T05:46:22Z</time>
      </trkpt>
      <trkpt lat="47.38304" lon="-2.20102">
        <ele>12</ele>
        <time>2016-07-22T05:46:26Z</time>
      </trkpt>
      <trkpt lat="47.38284" lon="-2.20074">
        <ele>11</ele>
        <time>2016-07-22T05:46:31Z</time>
      </trkpt>
      <trkpt lat="47.38236" lon="-2.20048">
        <ele>14</ele>
        <time>2016-07-22T05:46:40Z</time>
      </trkpt>
      <trkpt lat="47.38207" lon="-2.20037">
        <ele>17</ele>
        <time>2016-07-22T05:46:45Z</time>
      </trkpt>
      <trkpt lat="47.38203" lon="-2.20031">
        <ele>15</ele>
        <time>2016-07-22T05:46:46Z</time>
      </trkpt>
      <trkpt lat="47.38177" lon="-2.2001">
        <ele>12</ele>
        <time>2016-07-22T05:46:51Z</time>
      </trkpt>
      <trkpt lat="47.38136" lon="-2.19988">
        <ele>10</ele>
        <time>2016-07-22T05:46:59Z</time>
      </trkpt>
      <trkpt lat="47.38124" lon="-2.19978">
        <ele>10</ele>
        <time>2016-07-22T05:47:01Z</time>
      </trkpt>
      <trkpt lat="47.38086" lon="-2.1995">
        <ele>13</ele>
        <time>2016-07-22T05:47:09Z</time>
      </trkpt>
      <trkpt lat="47.38079" lon="-2.19951">
        <ele>12</ele>
        <time>2016-07-22T05:47:11Z</time>
      </trkpt>
      <trkpt lat="47.38081" lon="-2.19947">
        <ele>9</ele>
        <time>2016-07-22T05:47:18Z</time>
      </trkpt>
    </trkseg>
  </trk>
  <trk>
    <name><![CDATA[Sequence 7]]></name>
    <trkseg>
      <trkpt lat="47.38087" lon="-2.19954">
        <ele>4</ele>
        <time>2016-07-22T05:49:27Z</time>
      </trkpt>
      <trkpt lat="47.38087" lon="-2.19953">
        <ele>6</ele>
        <time>2016-07-22T05:49:32Z</time>
      </trkpt>
      <trkpt lat="47.38082" lon="-2.19949">
        <ele>12</ele>
        <time>2016-07-22T05:49:39Z</time>
      </trkpt>
      <trkpt lat="47.38075" lon="-2.19945">
        <ele>13</ele>
        <time>2016-07-22T05:49:42Z</time>
      </trkpt>
      <trkpt lat="47.38054" lon="-2.19938">
        <ele>14</ele>
        <time>2016-07-22T05:49:47Z</time>
      </trkpt>
      <trkpt lat="47.38032" lon="-2.19924">
        <ele>7</ele>
        <time>2016-07-22T05:49:52Z</time>
      </trkpt>
      <trkpt lat="47.38001" lon="-2.19901">
        <ele>4</ele>
        <time>2016-07-22T05:49:59Z</time>
      </trkpt>
      <trkpt lat="47.37982" lon="-2.19886">
        <ele>3</ele>
        <time>2016-07-22T05:50:03Z</time>
      </trkpt>
      <trkpt lat="47.37962" lon="-2.19874">
        <ele>2</ele>
        <time>2016-07-22T05:50:07Z</time>
      </trkpt>
      <trkpt lat="47.37931" lon="-2.19853">
        <ele>1</ele>
        <time>2016-07-22T05:50:14Z</time>
      </trkpt>
      <trkpt lat="47.37916" lon="-2.19843">
        <ele>2</ele>
        <time>2016-07-22T05:50:17Z</time>
      </trkpt>
      <trkpt lat="47.37889" lon="-2.19826">
        <ele>2</ele>
        <time>2016-07-22T05:50:22Z</time>
      </trkpt>
      <trkpt lat="47.37864" lon="-2.1981">
        <ele>2.1</ele>
        <time>2016-07-22T05:50:27Z</time>
      </trkpt>
      <trkpt lat="47.37827" lon="-2.19786">
        <ele>-2</ele>
        <time>2016-07-22T05:50:34Z</time>
      </trkpt>
      <trkpt lat="47.37801" lon="-2.19767">
        <ele>-2</ele>
        <time>2016-07-22T05:50:39Z</time>
      </trkpt>
      <trkpt lat="47.37781" lon="-2.19768">
        <ele>-3</ele>
        <time>2016-07-22T05:50:42Z</time>
      </trkpt>
      <trkpt lat="47.37741" lon="-2.19786">
        <ele>3</ele>
        <time>2016-07-22T05:50:50Z</time>
      </trkpt>
      <trkpt lat="47.37727" lon="-2.19784">
        <ele>1</ele>
        <time>2016-07-22T05:50:53Z</time>
      </trkpt>
      <trkpt lat="47.37709" lon="-2.1978">
        <ele>2</ele>
        <time>2016-07-22T05:50:57Z</time>
      </trkpt>
      <trkpt lat="47.37683" lon="-2.19766">
        <ele>3</ele>
        <time>2016-07-22T05:51:02Z</time>
      </trkpt>
      <trkpt lat="47.37658" lon="-2.1975">
        <ele>2.7</ele>
        <time>2016-07-22T05:51:07Z</time>
      </trkpt>
      <trkpt lat="47.37631" lon="-2.19733">
        <ele>-1</ele>
        <time>2016-07-22T05:51:12Z</time>
      </trkpt>
      <trkpt lat="47.37582" lon="-2.197">
        <ele>-3</ele>
        <time>2016-07-22T05:51:20Z</time>
      </trkpt>
      <trkpt lat="47.37569" lon="-2.19691">
        <ele>-3</ele>
        <time>2016-07-22T05:51:22Z</time>
      </trkpt>
      <trkpt lat="47.37539" lon="-2.19672">
        <ele>-2</ele>
        <time>2016-07-22T05:51:27Z</time>
      </trkpt>
      <trkpt lat="47.3751" lon="-2.1965">
        <ele>-3</ele>
        <time>2016-07-22T05:51:32Z</time>
      </trkpt>
      <trkpt lat="47.37483" lon="-2.19628">
        <ele>1.5</ele>
        <time>2016-07-22T05:51:37Z</time>
      </trkpt>
      <trkpt lat="47.37456" lon="-2.19603">
        <ele>1</ele>
        <time>2016-07-22T05:51:42Z</time>
      </trkpt>
      <trkpt lat="47.3743" lon="-2.19579">
        <ele>2</ele>
        <time>2016-07-22T05:51:47Z</time>
      </trkpt>
      <trkpt lat="47.37404" lon="-2.19556">
        <ele>4</ele>
        <time>2016-07-22T05:51:52Z</time>
      </trkpt>
      <trkpt lat="47.37379" lon="-2.19532">
        <ele>3</ele>
        <time>2016-07-22T05:51:57Z</time>
      </trkpt>
      <trkpt lat="47.37354" lon="-2.19508">
        <ele>3</ele>
        <time>2016-07-22T05:52:02Z</time>
      </trkpt>
      <trkpt lat="47.37328" lon="-2.19486">
        <ele>4</ele>
        <time>2016-07-22T05:52:07Z</time>
      </trkpt>
      <trkpt lat="47.37304" lon="-2.19466">
        <ele>4</ele>
        <time>2016-07-22T05:52:12Z</time>
      </trkpt>
      <trkpt lat="47.37281" lon="-2.19444">
        <ele>3</ele>
        <time>2016-07-22T05:52:17Z</time>
      </trkpt>
      <trkpt lat="47.37257" lon="-2.19423">
        <ele>2</ele>
        <time>2016-07-22T05:52:22Z</time>
      </trkpt>
      <trkpt lat="47.37223" lon="-2.19393">
        <ele>-1</ele>
        <time>2016-07-22T05:52:29Z</time>
      </trkpt>
      <trkpt lat="47.3721" lon="-2.19379">
        <ele>-3</ele>
        <time>2016-07-22T05:52:32Z</time>
      </trkpt>
      <trkpt lat="47.37186" lon="-2.1936">
        <ele>-3</ele>
        <time>2016-07-22T05:52:37Z</time>
      </trkpt>
      <trkpt lat="47.3716" lon="-2.19344">
        <ele>-1</ele>
        <time>2016-07-22T05:52:42Z</time>
      </trkpt>
      <trkpt lat="47.37127" lon="-2.19317">
        <ele>3.2</ele>
        <time>2016-07-22T05:52:49Z</time>
      </trkpt>
      <trkpt lat="47.37113" lon="-2.19305">
        <ele>1</ele>
        <time>2016-07-22T05:52:52Z</time>
      </trkpt>
      <trkpt lat="47.37091" lon="-2.19283">
        <ele>-1</ele>
        <time>2016-07-22T05:52:57Z</time>
      </trkpt>
      <trkpt lat="47.37067" lon="-2.1926">
        <ele>-4</ele>
        <time>2016-07-22T05:53:02Z</time>
      </trkpt>
      <trkpt lat="47.37045" lon="-2.19236">
        <ele>-4</ele>
        <time>2016-07-22T05:53:07Z</time>
      </trkpt>
      <trkpt lat="47.37023" lon="-2.19216">
        <ele>-2</ele>
        <time>2016-07-22T05:53:12Z</time>
      </trkpt>
      <trkpt lat="47.37001" lon="-2.19195">
        <ele>-1</ele>
        <time>2016-07-22T05:53:17Z</time>
      </trkpt>
      <trkpt lat="47.36979" lon="-2.19171">
        <ele>-2</ele>
        <time>2016-07-22T05:53:22Z</time>
      </trkpt>
      <trkpt lat="47.36957" lon="-2.19147">
        <ele>-2</ele>
        <time>2016-07-22T05:53:27Z</time>
      </trkpt>
      <trkpt lat="47.36935" lon="-2.19123">
        <ele>-2</ele>
        <time>2016-07-22T05:53:32Z</time>
      </trkpt>
      <trkpt lat="47.36912" lon="-2.19097">
        <ele>-3</ele>
        <time>2016-07-22T05:53:37Z</time>
      </trkpt>
      <trkpt lat="47.3689" lon="-2.19073">
        <ele>-3</ele>
        <time>2016-07-22T05:53:42Z</time>
      </trkpt>
      <trkpt lat="47.36868" lon="-2.1905">
        <ele>-3</ele>
        <time>2016-07-22T05:53:47Z</time>
      </trkpt>
      <trkpt lat="47.36846" lon="-2.19028">
        <ele>-3</ele>
        <time>2016-07-22T05:53:52Z</time>
      </trkpt>
      <trkpt lat="47.36824" lon="-2.19007">
        <ele>-2</ele>
        <time>2016-07-22T05:53:57Z</time>
      </trkpt>
      <trkpt lat="47.36803" lon="-2.18985">
        <ele>5</ele>
        <time>2016-07-22T05:54:02Z</time>
      </trkpt>
      <trkpt lat="47.3678" lon="-2.18964">
        <ele>5</ele>
        <time>2016-07-22T05:54:07Z</time>
      </trkpt>
      <trkpt lat="47.36756" lon="-2.18947">
        <ele>2</ele>
        <time>2016-07-22T05:54:12Z</time>
      </trkpt>
      <trkpt lat="47.36731" lon="-2.18929">
        <ele>2</ele>
        <time>2016-07-22T05:54:17Z</time>
      </trkpt>
      <trkpt lat="47.36704" lon="-2.18914">
        <ele>2</ele>
        <time>2016-07-22T05:54:22Z</time>
      </trkpt>
      <trkpt lat="47.36678" lon="-2.189">
        <ele>2</ele>
        <time>2016-07-22T05:54:27Z</time>
      </trkpt>
      <trkpt lat="47.36652" lon="-2.18884">
        <ele>1</ele>
        <time>2016-07-22T05:54:32Z</time>
      </trkpt>
      <trkpt lat="47.36625" lon="-2.18869">
        <ele>4.8</ele>
        <time>2016-07-22T05:54:37Z</time>
      </trkpt>
      <trkpt lat="47.36597" lon="-2.18853">
        <ele>-2</ele>
        <time>2016-07-22T05:54:42Z</time>
      </trkpt>
      <trkpt lat="47.36569" lon="-2.18836">
        <ele>-3</ele>
        <time>2016-07-22T05:54:47Z</time>
      </trkpt>
      <trkpt lat="47.36543" lon="-2.18819">
        <ele>-3</ele>
        <time>2016-07-22T05:54:52Z</time>
      </trkpt>
      <trkpt lat="47.36518" lon="-2.18799">
        <ele>-1</ele>
        <time>2016-07-22T05:54:57Z</time>
      </trkpt>
      <trkpt lat="47.36496" lon="-2.18774">
        <ele>-2</ele>
        <time>2016-07-22T05:55:02Z</time>
      </trkpt>
      <trkpt lat="47.3647" lon="-2.18743">
        <ele>-3</ele>
        <time>2016-07-22T05:55:08Z</time>
      </trkpt>
      <trkpt lat="47.36449" lon="-2.18724">
        <ele>-1</ele>
        <time>2016-07-22T05:55:13Z</time>
      </trkpt>
      <trkpt lat="47.36432" lon="-2.18704">
        <ele>-2</ele>
        <time>2016-07-22T05:55:17Z</time>
      </trkpt>
      <trkpt lat="47.36411" lon="-2.18681">
        <ele>-2</ele>
        <time>2016-07-22T05:55:22Z</time>
      </trkpt>
      <trkpt lat="47.3639" lon="-2.18658">
        <ele>-3</ele>
        <time>2016-07-22T05:55:27Z</time>
      </trkpt>
      <trkpt lat="47.3637" lon="-2.18642">
        <ele>1</ele>
        <time>2016-07-22T05:55:32Z</time>
      </trkpt>
      <trkpt lat="47.36353" lon="-2.18612">
        <ele>2</ele>
        <time>2016-07-22T05:55:37Z</time>
      </trkpt>
      <trkpt lat="47.36331" lon="-2.18586">
        <ele>1</ele>
        <time>2016-07-22T05:55:42Z</time>
      </trkpt>
      <trkpt lat="47.36309" lon="-2.18562">
        <ele>1.8</ele>
        <time>2016-07-22T05:55:47Z</time>
      </trkpt>
      <trkpt lat="47.36284" lon="-2.18544">
        <ele>1</ele>
        <time>2016-07-22T05:55:52Z</time>
      </trkpt>
      <trkpt lat="47.36257" lon="-2.18531">
        <ele>3</ele>
        <time>2016-07-22T05:55:57Z</time>
      </trkpt>
      <trkpt lat="47.36233" lon="-2.18524">
        <ele>1</ele>
        <time>2016-07-22T05:56:02Z</time>
      </trkpt>
      <trkpt lat="47.36205" lon="-2.18523">
        <ele>2</ele>
        <time>2016-07-22T05:56:08Z</time>
      </trkpt>
      <trkpt lat="47.36183" lon="-2.18525">
        <ele>2</ele>
        <time>2016-07-22T05:56:12Z</time>
      </trkpt>
      <trkpt lat="47.36152" lon="-2.18534">
        <ele>1</ele>
        <time>2016-07-22T05:56:17Z</time>
      </trkpt>
      <trkpt lat="47.36125" lon="-2.18545">
        <ele>2</ele>
        <time>2016-07-22T05:56:22Z</time>
      </trkpt>
      <trkpt lat="47.36099" lon="-2.18557">
        <ele>2</ele>
        <time>2016-07-22T05:56:27Z</time>
      </trkpt>
      <trkpt lat="47.36073" lon="-2.18569">
        <ele>2</ele>
        <time>2016-07-22T05:56:32Z</time>
      </trkpt>
      <trkpt lat="47.3604" lon="-2.18585">
        <ele>4</ele>
        <time>2016-07-22T05:56:39Z</time>
      </trkpt>
      <trkpt lat="47.36024" lon="-2.1859">
        <ele>6</ele>
        <time>2016-07-22T05:56:42Z</time>
      </trkpt>
      <trkpt lat="47.35995" lon="-2.18596">
        <ele>4</ele>
        <time>2016-07-22T05:56:47Z</time>
      </trkpt>
      <trkpt lat="47.35946" lon="-2.18591">
        <ele>3</ele>
        <time>2016-07-22T05:56:56Z</time>
      </trkpt>
      <trkpt lat="47.35941" lon="-2.18587">
        <ele>4</ele>
        <time>2016-07-22T05:56:57Z</time>
      </trkpt>
      <trkpt lat="47.35915" lon="-2.18572">
        <ele>4</ele>
        <time>2016-07-22T05:57:02Z</time>
      </trkpt>
      <trkpt lat="47.35874" lon="-2.1855">
        <ele>4</ele>
        <time>2016-07-22T05:57:10Z</time>
      </trkpt>
      <trkpt lat="47.35852" lon="-2.18541">
        <ele>3</ele>
        <time>2016-07-22T05:57:14Z</time>
      </trkpt>
      <trkpt lat="47.35837" lon="-2.18532">
        <ele>3</ele>
        <time>2016-07-22T05:57:17Z</time>
      </trkpt>
      <trkpt lat="47.35811" lon="-2.18518">
        <ele>4</ele>
        <time>2016-07-22T05:57:22Z</time>
      </trkpt>
      <trkpt lat="47.35785" lon="-2.18504">
        <ele>4</ele>
        <time>2016-07-22T05:57:27Z</time>
      </trkpt>
      <trkpt lat="47.35745" lon="-2.18481">
        <ele>2</ele>
        <time>2016-07-22T05:57:35Z</time>
      </trkpt>
      <trkpt lat="47.35736" lon="-2.18476">
        <ele>2</ele>
        <time>2016-07-22T05:57:37Z</time>
      </trkpt>
      <trkpt lat="47.35711" lon="-2.18464">
        <ele>6</ele>
        <time>2016-07-22T05:57:42Z</time>
      </trkpt>
      <trkpt lat="47.35677" lon="-2.18453">
        <ele>-3</ele>
        <time>2016-07-22T05:57:49Z</time>
      </trkpt>
      <trkpt lat="47.35654" lon="-2.18449">
        <ele>-2</ele>
        <time>2016-07-22T05:57:54Z</time>
      </trkpt>
      <trkpt lat="47.35641" lon="-2.18446">
        <ele>-2</ele>
        <time>2016-07-22T05:57:57Z</time>
      </trkpt>
      <trkpt lat="47.35621" lon="-2.18437">
        <ele>-3</ele>
        <time>2016-07-22T05:58:02Z</time>
      </trkpt>
      <trkpt lat="47.356" lon="-2.18428">
        <ele>-3</ele>
        <time>2016-07-22T05:58:07Z</time>
      </trkpt>
      <trkpt lat="47.35566" lon="-2.18398">
        <ele>-3</ele>
        <time>2016-07-22T05:58:16Z</time>
      </trkpt>
      <trkpt lat="47.35563" lon="-2.18395">
        <ele>-2</ele>
        <time>2016-07-22T05:58:17Z</time>
      </trkpt>
      <trkpt lat="47.35543" lon="-2.18374">
        <ele>8.5</ele>
        <time>2016-07-22T05:58:22Z</time>
      </trkpt>
      <trkpt lat="47.35519" lon="-2.18348">
        <ele>2</ele>
        <time>2016-07-22T05:58:28Z</time>
      </trkpt>
      <trkpt lat="47.355" lon="-2.18331">
        <ele>1</ele>
        <time>2016-07-22T05:58:32Z</time>
      </trkpt>
      <trkpt lat="47.35479" lon="-2.1831">
        <ele>2</ele>
        <time>2016-07-22T05:58:37Z</time>
      </trkpt>
      <trkpt lat="47.35455" lon="-2.18288">
        <ele>4</ele>
        <time>2016-07-22T05:58:42Z</time>
      </trkpt>
      <trkpt lat="47.3542" lon="-2.18263">
        <ele>3</ele>
        <time>2016-07-22T05:58:49Z</time>
      </trkpt>
      <trkpt lat="47.35404" lon="-2.18257">
        <ele>4</ele>
        <time>2016-07-22T05:58:52Z</time>
      </trkpt>
      <trkpt lat="47.35376" lon="-2.18252">
        <ele>2</ele>
        <time>2016-07-22T05:58:57Z</time>
      </trkpt>
      <trkpt lat="47.3535" lon="-2.18246">
        <ele>3</ele>
        <time>2016-07-22T05:59:02Z</time>
      </trkpt>
      <trkpt lat="47.35325" lon="-2.18242">
        <ele>4</ele>
        <time>2016-07-22T05:59:07Z</time>
      </trkpt>
      <trkpt lat="47.35299" lon="-2.18238">
        <ele>5</ele>
        <time>2016-07-22T05:59:12Z</time>
      </trkpt>
      <trkpt lat="47.35272" lon="-2.18232">
        <ele>5</ele>
        <time>2016-07-22T05:59:17Z</time>
      </trkpt>
      <trkpt lat="47.35245" lon="-2.18222">
        <ele>6</ele>
        <time>2016-07-22T05:59:22Z</time>
      </trkpt>
      <trkpt lat="47.35205" lon="-2.18194">
        <ele>5</ele>
        <time>2016-07-22T05:59:31Z</time>
      </trkpt>
      <trkpt lat="47.35201" lon="-2.1819">
        <ele>5</ele>
        <time>2016-07-22T05:59:32Z</time>
      </trkpt>
      <trkpt lat="47.35182" lon="-2.1817">
        <ele>7</ele>
        <time>2016-07-22T05:59:37Z</time>
      </trkpt>
      <trkpt lat="47.35159" lon="-2.18149">
        <ele>7</ele>
        <time>2016-07-22T05:59:42Z</time>
      </trkpt>
      <trkpt lat="47.35136" lon="-2.1813">
        <ele>7</ele>
        <time>2016-07-22T05:59:47Z</time>
      </trkpt>
      <trkpt lat="47.35115" lon="-2.1811">
        <ele>5</ele>
        <time>2016-07-22T05:59:52Z</time>
      </trkpt>
      <trkpt lat="47.35094" lon="-2.18092">
        <ele>3</ele>
        <time>2016-07-22T05:59:57Z</time>
      </trkpt>
      <trkpt lat="47.35074" lon="-2.18071">
        <ele>2</ele>
        <time>2016-07-22T06:00:02Z</time>
      </trkpt>
      <trkpt lat="47.35054" lon="-2.18053">
        <ele>4</ele>
        <time>2016-07-22T06:00:07Z</time>
      </trkpt>
      <trkpt lat="47.35034" lon="-2.1803">
        <ele>3</ele>
        <time>2016-07-22T06:00:12Z</time>
      </trkpt>
      <trkpt lat="47.35015" lon="-2.1801">
        <ele>6</ele>
        <time>2016-07-22T06:00:17Z</time>
      </trkpt>
      <trkpt lat="47.34997" lon="-2.17993">
        <ele>8</ele>
        <time>2016-07-22T06:00:22Z</time>
      </trkpt>
      <trkpt lat="47.34979" lon="-2.17976">
        <ele>7</ele>
        <time>2016-07-22T06:00:27Z</time>
      </trkpt>
      <trkpt lat="47.34958" lon="-2.17954">
        <ele>6</ele>
        <time>2016-07-22T06:00:32Z</time>
      </trkpt>
      <trkpt lat="47.34938" lon="-2.17932">
        <ele>8</ele>
        <time>2016-07-22T06:00:37Z</time>
      </trkpt>
      <trkpt lat="47.34917" lon="-2.1791">
        <ele>8</ele>
        <time>2016-07-22T06:00:42Z</time>
      </trkpt>
      <trkpt lat="47.3488" lon="-2.17864">
        <ele>9</ele>
        <time>2016-07-22T06:00:51Z</time>
      </trkpt>
      <trkpt lat="47.34875" lon="-2.17859">
        <ele>9</ele>
        <time>2016-07-22T06:00:52Z</time>
      </trkpt>
      <trkpt lat="47.34854" lon="-2.17835">
        <ele>9</ele>
        <time>2016-07-22T06:00:57Z</time>
      </trkpt>
      <trkpt lat="47.34819" lon="-2.1779">
        <ele>8</ele>
        <time>2016-07-22T06:01:05Z</time>
      </trkpt>
      <trkpt lat="47.34808" lon="-2.17779">
        <ele>9</ele>
        <time>2016-07-22T06:01:07Z</time>
      </trkpt>
      <trkpt lat="47.34765" lon="-2.17723">
        <ele>4</ele>
        <time>2016-07-22T06:01:16Z</time>
      </trkpt>
      <trkpt lat="47.34761" lon="-2.17717">
        <ele>4</ele>
        <time>2016-07-22T06:01:17Z</time>
      </trkpt>
      <trkpt lat="47.34739" lon="-2.17688">
        <ele>3</ele>
        <time>2016-07-22T06:01:22Z</time>
      </trkpt>
      <trkpt lat="47.34701" lon="-2.1763">
        <ele>-1</ele>
        <time>2016-07-22T06:01:31Z</time>
      </trkpt>
      <trkpt lat="47.34697" lon="-2.17623">
        <ele>-1</ele>
        <time>2016-07-22T06:01:32Z</time>
      </trkpt>
      <trkpt lat="47.34676" lon="-2.1759">
        <ele>-1</ele>
        <time>2016-07-22T06:01:37Z</time>
      </trkpt>
      <trkpt lat="47.34656" lon="-2.17557">
        <ele>-1</ele>
        <time>2016-07-22T06:01:42Z</time>
      </trkpt>
      <trkpt lat="47.34634" lon="-2.17522">
        <ele>-2</ele>
        <time>2016-07-22T06:01:47Z</time>
      </trkpt>
      <trkpt lat="47.34613" lon="-2.1749">
        <ele>-1</ele>
        <time>2016-07-22T06:01:52Z</time>
      </trkpt>
      <trkpt lat="47.34591" lon="-2.17462">
        <ele>-2</ele>
        <time>2016-07-22T06:01:57Z</time>
      </trkpt>
      <trkpt lat="47.34562" lon="-2.17438">
        <ele>-4</ele>
        <time>2016-07-22T06:02:03Z</time>
      </trkpt>
      <trkpt lat="47.34537" lon="-2.17418">
        <ele>-2</ele>
        <time>2016-07-22T06:02:09Z</time>
      </trkpt>
      <trkpt lat="47.34525" lon="-2.17405">
        <ele>-3</ele>
        <time>2016-07-22T06:02:12Z</time>
      </trkpt>
      <trkpt lat="47.34506" lon="-2.17385">
        <ele>5.8</ele>
        <time>2016-07-22T06:02:17Z</time>
      </trkpt>
      <trkpt lat="47.34488" lon="-2.17366">
        <ele>1</ele>
        <time>2016-07-22T06:02:22Z</time>
      </trkpt>
      <trkpt lat="47.34468" lon="-2.17347">
        <ele>1</ele>
        <time>2016-07-22T06:02:27Z</time>
      </trkpt>
      <trkpt lat="47.34452" lon="-2.17322">
        <ele>6.9</ele>
        <time>2016-07-22T06:02:32Z</time>
      </trkpt>
      <trkpt lat="47.34431" lon="-2.17297">
        <ele>-1</ele>
        <time>2016-07-22T06:02:37Z</time>
      </trkpt>
      <trkpt lat="47.3441" lon="-2.17273">
        <ele>-1</ele>
        <time>2016-07-22T06:02:42Z</time>
      </trkpt>
      <trkpt lat="47.34391" lon="-2.17252">
        <ele>-2</ele>
        <time>2016-07-22T06:02:47Z</time>
      </trkpt>
      <trkpt lat="47.34369" lon="-2.17233">
        <ele>-3</ele>
        <time>2016-07-22T06:02:52Z</time>
      </trkpt>
      <trkpt lat="47.34348" lon="-2.17217">
        <ele>-4</ele>
        <time>2016-07-22T06:02:57Z</time>
      </trkpt>
      <trkpt lat="47.34327" lon="-2.172">
        <ele>-4</ele>
        <time>2016-07-22T06:03:02Z</time>
      </trkpt>
      <trkpt lat="47.34307" lon="-2.17179">
        <ele>-5</ele>
        <time>2016-07-22T06:03:07Z</time>
      </trkpt>
      <trkpt lat="47.34287" lon="-2.17157">
        <ele>-6</ele>
        <time>2016-07-22T06:03:12Z</time>
      </trkpt>
      <trkpt lat="47.34268" lon="-2.17132">
        <ele>-6</ele>
        <time>2016-07-22T06:03:17Z</time>
      </trkpt>
      <trkpt lat="47.34249" lon="-2.17106">
        <ele>-6</ele>
        <time>2016-07-22T06:03:22Z</time>
      </trkpt>
      <trkpt lat="47.34229" lon="-2.17082">
        <ele>-8</ele>
        <time>2016-07-22T06:03:27Z</time>
      </trkpt>
      <trkpt lat="47.34207" lon="-2.17056">
        <ele>-8</ele>
        <time>2016-07-22T06:03:32Z</time>
      </trkpt>
      <trkpt lat="47.34187" lon="-2.17029">
        <ele>-7</ele>
        <time>2016-07-22T06:03:37Z</time>
      </trkpt>
      <trkpt lat="47.34163" lon="-2.17001">
        <ele>-8</ele>
        <time>2016-07-22T06:03:42Z</time>
      </trkpt>
      <trkpt lat="47.34136" lon="-2.16976">
        <ele>-9</ele>
        <time>2016-07-22T06:03:47Z</time>
      </trkpt>
      <trkpt lat="47.34095" lon="-2.16933">
        <ele>-5</ele>
        <time>2016-07-22T06:03:55Z</time>
      </trkpt>
      <trkpt lat="47.34062" lon="-2.16901">
        <ele>-7</ele>
        <time>2016-07-22T06:04:01Z</time>
      </trkpt>
      <trkpt lat="47.34057" lon="-2.16895">
        <ele>-6</ele>
        <time>2016-07-22T06:04:02Z</time>
      </trkpt>
      <trkpt lat="47.34019" lon="-2.16863">
        <ele>3</ele>
        <time>2016-07-22T06:04:10Z</time>
      </trkpt>
      <trkpt lat="47.33997" lon="-2.16846">
        <ele>-1</ele>
        <time>2016-07-22T06:04:14Z</time>
      </trkpt>
      <trkpt lat="47.33982" lon="-2.16838">
        <ele>3</ele>
        <time>2016-07-22T06:04:17Z</time>
      </trkpt>
      <trkpt lat="47.33954" lon="-2.16807">
        <ele>1</ele>
        <time>2016-07-22T06:04:23Z</time>
      </trkpt>
      <trkpt lat="47.33926" lon="-2.16763">
        <ele>2</ele>
        <time>2016-07-22T06:04:29Z</time>
      </trkpt>
      <trkpt lat="47.33909" lon="-2.16746">
        <ele>1</ele>
        <time>2016-07-22T06:04:32Z</time>
      </trkpt>
      <trkpt lat="47.33883" lon="-2.16718">
        <ele>-2</ele>
        <time>2016-07-22T06:04:37Z</time>
      </trkpt>
      <trkpt lat="47.33857" lon="-2.16692">
        <ele>-3</ele>
        <time>2016-07-22T06:04:42Z</time>
      </trkpt>
      <trkpt lat="47.33836" lon="-2.1667">
        <ele>-1</ele>
        <time>2016-07-22T06:04:47Z</time>
      </trkpt>
      <trkpt lat="47.33813" lon="-2.16646">
        <ele>-2</ele>
        <time>2016-07-22T06:04:52Z</time>
      </trkpt>
      <trkpt lat="47.33791" lon="-2.1662">
        <ele>-1</ele>
        <time>2016-07-22T06:04:57Z</time>
      </trkpt>
      <trkpt lat="47.33769" lon="-2.16597">
        <ele>2.5</ele>
        <time>2016-07-22T06:05:02Z</time>
      </trkpt>
      <trkpt lat="47.33748" lon="-2.16573">
        <ele>-1</ele>
        <time>2016-07-22T06:05:07Z</time>
      </trkpt>
      <trkpt lat="47.33724" lon="-2.16549">
        <ele>-1</ele>
        <time>2016-07-22T06:05:12Z</time>
      </trkpt>
      <trkpt lat="47.33701" lon="-2.16525">
        <ele>-2</ele>
        <time>2016-07-22T06:05:17Z</time>
      </trkpt>
      <trkpt lat="47.33679" lon="-2.16502">
        <ele>-4</ele>
        <time>2016-07-22T06:05:22Z</time>
      </trkpt>
      <trkpt lat="47.33658" lon="-2.16479">
        <ele>-4</ele>
        <time>2016-07-22T06:05:27Z</time>
      </trkpt>
      <trkpt lat="47.33636" lon="-2.16455">
        <ele>-4</ele>
        <time>2016-07-22T06:05:32Z</time>
      </trkpt>
      <trkpt lat="47.33613" lon="-2.1643">
        <ele>-5</ele>
        <time>2016-07-22T06:05:37Z</time>
      </trkpt>
      <trkpt lat="47.33591" lon="-2.16408">
        <ele>-6</ele>
        <time>2016-07-22T06:05:42Z</time>
      </trkpt>
      <trkpt lat="47.33569" lon="-2.16388">
        <ele>-7</ele>
        <time>2016-07-22T06:05:47Z</time>
      </trkpt>
      <trkpt lat="47.33549" lon="-2.16365">
        <ele>-6</ele>
        <time>2016-07-22T06:05:52Z</time>
      </trkpt>
      <trkpt lat="47.33527" lon="-2.16343">
        <ele>-6</ele>
        <time>2016-07-22T06:05:57Z</time>
      </trkpt>
      <trkpt lat="47.33505" lon="-2.16319">
        <ele>-7</ele>
        <time>2016-07-22T06:06:02Z</time>
      </trkpt>
      <trkpt lat="47.33484" lon="-2.16297">
        <ele>-6</ele>
        <time>2016-07-22T06:06:07Z</time>
      </trkpt>
      <trkpt lat="47.33461" lon="-2.16275">
        <ele>-5</ele>
        <time>2016-07-22T06:06:12Z</time>
      </trkpt>
      <trkpt lat="47.33441" lon="-2.16255">
        <ele>-3</ele>
        <time>2016-07-22T06:06:17Z</time>
      </trkpt>
      <trkpt lat="47.33417" lon="-2.16234">
        <ele>-2</ele>
        <time>2016-07-22T06:06:22Z</time>
      </trkpt>
      <trkpt lat="47.33395" lon="-2.16215">
        <ele>-2</ele>
        <time>2016-07-22T06:06:27Z</time>
      </trkpt>
      <trkpt lat="47.33375" lon="-2.16197">
        <ele>-2</ele>
        <time>2016-07-22T06:06:32Z</time>
      </trkpt>
      <trkpt lat="47.33353" lon="-2.16177">
        <ele>-3</ele>
        <time>2016-07-22T06:06:37Z</time>
      </trkpt>
      <trkpt lat="47.33328" lon="-2.16158">
        <ele>-4</ele>
        <time>2016-07-22T06:06:42Z</time>
      </trkpt>
      <trkpt lat="47.33303" lon="-2.16139">
        <ele>-6</ele>
        <time>2016-07-22T06:06:47Z</time>
      </trkpt>
      <trkpt lat="47.3328" lon="-2.16117">
        <ele>-5</ele>
        <time>2016-07-22T06:06:52Z</time>
      </trkpt>
      <trkpt lat="47.33259" lon="-2.16098">
        <ele>-4</ele>
        <time>2016-07-22T06:06:57Z</time>
      </trkpt>
      <trkpt lat="47.33238" lon="-2.16079">
        <ele>-3</ele>
        <time>2016-07-22T06:07:02Z</time>
      </trkpt>
      <trkpt lat="47.33217" lon="-2.16059">
        <ele>-3</ele>
        <time>2016-07-22T06:07:07Z</time>
      </trkpt>
      <trkpt lat="47.33196" lon="-2.16037">
        <ele>-3</ele>
        <time>2016-07-22T06:07:12Z</time>
      </trkpt>
      <trkpt lat="47.33184" lon="-2.16009">
        <ele>-3</ele>
        <time>2016-07-22T06:07:17Z</time>
      </trkpt>
      <trkpt lat="47.33185" lon="-2.15992">
        <ele>-3</ele>
        <time>2016-07-22T06:07:22Z</time>
      </trkpt>
      <trkpt lat="47.33186" lon="-2.15993">
        <ele>-3</ele>
        <time>2016-07-22T06:07:27Z</time>
      </trkpt>
    </trkseg>
  </trk>
  <trk>
    <name><![CDATA[Sequence 8]]></name>
    <trkseg>
      <trkpt lat="47.33187" lon="-2.15976">
        <ele>-2</ele>
        <time>2016-07-22T06:08:11Z</time>
      </trkpt>
      <trkpt lat="47.33193" lon="-2.15988">
        <ele>4.5</ele>
        <time>2016-07-22T06:08:16Z</time>
      </trkpt>
      <trkpt lat="47.33199" lon="-2.16006">
        <ele>-1</ele>
        <time>2016-07-22T06:08:21Z</time>
      </trkpt>
      <trkpt lat="47.33205" lon="-2.16027">
        <ele>-1</ele>
        <time>2016-07-22T06:08:26Z</time>
      </trkpt>
      <trkpt lat="47.33189" lon="-2.16038">
        <ele>-2</ele>
        <time>2016-07-22T06:08:31Z</time>
      </trkpt>
      <trkpt lat="47.33163" lon="-2.16021">
        <ele>-2</ele>
        <time>2016-07-22T06:08:36Z</time>
      </trkpt>
      <trkpt lat="47.33135" lon="-2.16002">
        <ele>-3</ele>
        <time>2016-07-22T06:08:41Z</time>
      </trkpt>
      <trkpt lat="47.33107" lon="-2.15983">
        <ele>-4</ele>
        <time>2016-07-22T06:08:46Z</time>
      </trkpt>
      <trkpt lat="47.33078" lon="-2.15966">
        <ele>-4</ele>
        <time>2016-07-22T06:08:51Z</time>
      </trkpt>
      <trkpt lat="47.33049" lon="-2.15953">
        <ele>-3</ele>
        <time>2016-07-22T06:08:56Z</time>
      </trkpt>
      <trkpt lat="47.3302" lon="-2.15938">
        <ele>-3</ele>
        <time>2016-07-22T06:09:01Z</time>
      </trkpt>
      <trkpt lat="47.32993" lon="-2.15929">
        <ele>-3</ele>
        <time>2016-07-22T06:09:06Z</time>
      </trkpt>
      <trkpt lat="47.32965" lon="-2.15919">
        <ele>-3</ele>
        <time>2016-07-22T06:09:11Z</time>
      </trkpt>
      <trkpt lat="47.32936" lon="-2.1591">
        <ele>-3</ele>
        <time>2016-07-22T06:09:16Z</time>
      </trkpt>
      <trkpt lat="47.32907" lon="-2.15901">
        <ele>-3</ele>
        <time>2016-07-22T06:09:21Z</time>
      </trkpt>
      <trkpt lat="47.32877" lon="-2.15893">
        <ele>-3</ele>
        <time>2016-07-22T06:09:26Z</time>
      </trkpt>
      <trkpt lat="47.32848" lon="-2.15889">
        <ele>-3</ele>
        <time>2016-07-22T06:09:31Z</time>
      </trkpt>
      <trkpt lat="47.32819" lon="-2.15883">
        <ele>-3</ele>
        <time>2016-07-22T06:09:36Z</time>
      </trkpt>
      <trkpt lat="47.32791" lon="-2.15881">
        <ele>-3</ele>
        <time>2016-07-22T06:09:41Z</time>
      </trkpt>
      <trkpt lat="47.32763" lon="-2.15877">
        <ele>3</ele>
        <time>2016-07-22T06:09:46Z</time>
      </trkpt>
      <trkpt lat="47.32737" lon="-2.15876">
        <ele>3</ele>
        <time>2016-07-22T06:09:51Z</time>
      </trkpt>
      <trkpt lat="47.32689" lon="-2.15867">
        <ele>1</ele>
        <time>2016-07-22T06:10:00Z</time>
      </trkpt>
      <trkpt lat="47.32684" lon="-2.15866">
        <ele>1</ele>
        <time>2016-07-22T06:10:01Z</time>
      </trkpt>
      <trkpt lat="47.32661" lon="-2.15894">
        <ele>1</ele>
        <time>2016-07-22T06:10:07Z</time>
      </trkpt>
      <trkpt lat="47.32657" lon="-2.1593">
        <ele>1</ele>
        <time>2016-07-22T06:10:11Z</time>
      </trkpt>
      <trkpt lat="47.32654" lon="-2.16008">
        <ele>-3</ele>
        <time>2016-07-22T06:10:20Z</time>
      </trkpt>
      <trkpt lat="47.32654" lon="-2.16025">
        <ele>-2</ele>
        <time>2016-07-22T06:10:22Z</time>
      </trkpt>
      <trkpt lat="47.32653" lon="-2.16063">
        <ele>2</ele>
        <time>2016-07-22T06:10:26Z</time>
      </trkpt>
      <trkpt lat="47.3265" lon="-2.16108">
        <ele>2</ele>
        <time>2016-07-22T06:10:31Z</time>
      </trkpt>
      <trkpt lat="47.32649" lon="-2.16186">
        <ele>1</ele>
        <time>2016-07-22T06:10:40Z</time>
      </trkpt>
      <trkpt lat="47.3265" lon="-2.16203">
        <ele>2</ele>
        <time>2016-07-22T06:10:42Z</time>
      </trkpt>
      <trkpt lat="47.3266" lon="-2.16227">
        <ele>3.4</ele>
        <time>2016-07-22T06:10:46Z</time>
      </trkpt>
      <trkpt lat="47.32673" lon="-2.16237">
        <ele>-1</ele>
        <time>2016-07-22T06:10:54Z</time>
      </trkpt>
      <trkpt lat="47.32672" lon="-2.16238">
        <ele>-1</ele>
        <time>2016-07-22T06:10:56Z</time>
      </trkpt>
    </trkseg>
  </trk>
  <trk>
    <name><![CDATA[Sequence 9]]></name>
    <trkseg>
      <trkpt lat="47.32555" lon="-2.16349">
        <ele>5</ele>
        <time>2016-07-22T06:13:51Z</time>
      </trkpt>
      <trkpt lat="47.3254" lon="-2.16363">
        <ele>5</ele>
        <time>2016-07-22T06:13:56Z</time>
      </trkpt>
      <trkpt lat="47.32523" lon="-2.16376">
        <ele>4</ele>
        <time>2016-07-22T06:14:01Z</time>
      </trkpt>
      <trkpt lat="47.32505" lon="-2.16387">
        <ele>5</ele>
        <time>2016-07-22T06:14:06Z</time>
      </trkpt>
      <trkpt lat="47.32487" lon="-2.16399">
        <ele>5</ele>
        <time>2016-07-22T06:14:11Z</time>
      </trkpt>
      <trkpt lat="47.32469" lon="-2.16411">
        <ele>4</ele>
        <time>2016-07-22T06:14:16Z</time>
      </trkpt>
      <trkpt lat="47.3245" lon="-2.16424">
        <ele>3</ele>
        <time>2016-07-22T06:14:22Z</time>
      </trkpt>
      <trkpt lat="47.32436" lon="-2.16434">
        <ele>2</ele>
        <time>2016-07-22T06:14:26Z</time>
      </trkpt>
      <trkpt lat="47.32433" lon="-2.16436">
        <ele>2</ele>
        <time>2016-07-22T06:14:31Z</time>
      </trkpt>
      <trkpt lat="47.32421" lon="-2.16444">
        <ele>3</ele>
        <time>2016-07-22T06:14:36Z</time>
      </trkpt>
      <trkpt lat="47.32401" lon="-2.16457">
        <ele>2</ele>
        <time>2016-07-22T06:14:41Z</time>
      </trkpt>
      <trkpt lat="47.32377" lon="-2.16471">
        <ele>7.8</ele>
        <time>2016-07-22T06:14:46Z</time>
      </trkpt>
      <trkpt lat="47.32351" lon="-2.16487">
        <ele>-1</ele>
        <time>2016-07-22T06:14:51Z</time>
      </trkpt>
      <trkpt lat="47.32327" lon="-2.16501">
        <ele>6.9</ele>
        <time>2016-07-22T06:14:56Z</time>
      </trkpt>
      <trkpt lat="47.32298" lon="-2.16513">
        <ele>-3</ele>
        <time>2016-07-22T06:15:01Z</time>
      </trkpt>
      <trkpt lat="47.32271" lon="-2.16537">
        <ele>-5</ele>
        <time>2016-07-22T06:15:06Z</time>
      </trkpt>
      <trkpt lat="47.32255" lon="-2.16574">
        <ele>-3</ele>
        <time>2016-07-22T06:15:11Z</time>
      </trkpt>
      <trkpt lat="47.32226" lon="-2.16582">
        <ele>-2</ele>
        <time>2016-07-22T06:15:16Z</time>
      </trkpt>
      <trkpt lat="47.322" lon="-2.16555">
        <ele>-2</ele>
        <time>2016-07-22T06:15:21Z</time>
      </trkpt>
      <trkpt lat="47.3219" lon="-2.16513">
        <ele>-2</ele>
        <time>2016-07-22T06:15:26Z</time>
      </trkpt>
      <trkpt lat="47.32166" lon="-2.16485">
        <ele>-2</ele>
        <time>2016-07-22T06:15:31Z</time>
      </trkpt>
      <trkpt lat="47.32144" lon="-2.16461">
        <ele>-1</ele>
        <time>2016-07-22T06:15:36Z</time>
      </trkpt>
      <trkpt lat="47.32123" lon="-2.16437">
        <ele>-1</ele>
        <time>2016-07-22T06:15:41Z</time>
      </trkpt>
      <trkpt lat="47.32104" lon="-2.16408">
        <ele>1</ele>
        <time>2016-07-22T06:15:46Z</time>
      </trkpt>
      <trkpt lat="47.32086" lon="-2.16386">
        <ele>3</ele>
        <time>2016-07-22T06:15:51Z</time>
      </trkpt>
      <trkpt lat="47.32071" lon="-2.16366">
        <ele>6</ele>
        <time>2016-07-22T06:15:56Z</time>
      </trkpt>
      <trkpt lat="47.32055" lon="-2.16349">
        <ele>4</ele>
        <time>2016-07-22T06:16:01Z</time>
      </trkpt>
      <trkpt lat="47.32033" lon="-2.16318">
        <ele>7</ele>
        <time>2016-07-22T06:16:09Z</time>
      </trkpt>
      <trkpt lat="47.32026" lon="-2.1631">
        <ele>6</ele>
        <time>2016-07-22T06:16:11Z</time>
      </trkpt>
      <trkpt lat="47.32008" lon="-2.16288">
        <ele>5</ele>
        <time>2016-07-22T06:16:16Z</time>
      </trkpt>
      <trkpt lat="47.31962" lon="-2.16248">
        <ele>6.8</ele>
        <time>2016-07-22T06:16:25Z</time>
      </trkpt>
      <trkpt lat="47.31955" lon="-2.16244">
        <ele>-1</ele>
        <time>2016-07-22T06:16:26Z</time>
      </trkpt>
      <trkpt lat="47.31919" lon="-2.16233">
        <ele>-2</ele>
        <time>2016-07-22T06:16:31Z</time>
      </trkpt>
      <trkpt lat="47.31863" lon="-2.1624">
        <ele>-4</ele>
        <time>2016-07-22T06:16:39Z</time>
      </trkpt>
      <trkpt lat="47.3185" lon="-2.16245">
        <ele>-4</ele>
        <time>2016-07-22T06:16:41Z</time>
      </trkpt>
      <trkpt lat="47.31828" lon="-2.16257">
        <ele>-4</ele>
        <time>2016-07-22T06:16:45Z</time>
      </trkpt>
      <trkpt lat="47.31812" lon="-2.16302">
        <ele>-6</ele>
        <time>2016-07-22T06:16:52Z</time>
      </trkpt>
      <trkpt lat="47.31805" lon="-2.16317">
        <ele>-5</ele>
        <time>2016-07-22T06:16:55Z</time>
      </trkpt>
      <trkpt lat="47.31787" lon="-2.16346">
        <ele>-6</ele>
        <time>2016-07-22T06:17:01Z</time>
      </trkpt>
      <trkpt lat="47.31783" lon="-2.16374">
        <ele>-7</ele>
        <time>2016-07-22T06:17:05Z</time>
      </trkpt>
      <trkpt lat="47.3178" lon="-2.16421">
        <ele>-8</ele>
        <time>2016-07-22T06:17:14Z</time>
      </trkpt>
      <trkpt lat="47.3178" lon="-2.16422">
        <ele>-9</ele>
        <time>2016-07-22T06:17:15Z</time>
      </trkpt>
      <trkpt lat="47.31779" lon="-2.16422">
        <ele>-7</ele>
        <time>2016-07-22T06:17:20Z</time>
      </trkpt>
      <trkpt lat="47.31779" lon="-2.16418">
        <ele>-6</ele>
        <time>2016-07-22T06:17:25Z</time>
      </trkpt>
      <trkpt lat="47.3178" lon="-2.16418">
        <ele>-6</ele>
        <time>2016-07-22T06:17:30Z</time>
      </trkpt>
      <trkpt lat="47.3178" lon="-2.16417">
        <ele>-6</ele>
        <time>2016-07-22T06:17:35Z</time>
      </trkpt>
    </trkseg>
  </trk>
  <trk>
    <name><![CDATA[Sequence 10]]></name>
    <trkseg>
      <trkpt lat="47.31777" lon="-2.16432">
        <ele>2</ele>
        <time>2016-07-22T06:19:42Z</time>
      </trkpt>
      <trkpt lat="47.31776" lon="-2.1644">
        <ele>1</ele>
        <time>2016-07-22T06:19:51Z</time>
      </trkpt>
      <trkpt lat="47.31776" lon="-2.16444">
        <ele>1</ele>
        <time>2016-07-22T06:19:53Z</time>
      </trkpt>
      <trkpt lat="47.31774" lon="-2.1646">
        <ele>1</ele>
        <time>2016-07-22T06:19:57Z</time>
      </trkpt>
      <trkpt lat="47.31771" lon="-2.16489">
        <ele>1</ele>
        <time>2016-07-22T06:20:02Z</time>
      </trkpt>
      <trkpt lat="47.31767" lon="-2.1652">
        <ele>-1</ele>
        <time>2016-07-22T06:20:07Z</time>
      </trkpt>
      <trkpt lat="47.31761" lon="-2.16569">
        <ele>2</ele>
        <time>2016-07-22T06:20:14Z</time>
      </trkpt>
      <trkpt lat="47.3175" lon="-2.16618">
        <ele>2</ele>
        <time>2016-07-22T06:20:21Z</time>
      </trkpt>
      <trkpt lat="47.31746" lon="-2.16623">
        <ele>3</ele>
        <time>2016-07-22T06:20:22Z</time>
      </trkpt>
      <trkpt lat="47.31732" lon="-2.16656">
        <ele>4</ele>
        <time>2016-07-22T06:20:27Z</time>
      </trkpt>
      <trkpt lat="47.31719" lon="-2.1669">
        <ele>2</ele>
        <time>2016-07-22T06:20:32Z</time>
      </trkpt>
      <trkpt lat="47.31701" lon="-2.16727">
        <ele>-1</ele>
        <time>2016-07-22T06:20:38Z</time>
      </trkpt>
      <trkpt lat="47.31687" lon="-2.1675">
        <ele>1</ele>
        <time>2016-07-22T06:20:42Z</time>
      </trkpt>
      <trkpt lat="47.31671" lon="-2.16776">
        <ele>3</ele>
        <time>2016-07-22T06:20:47Z</time>
      </trkpt>
      <trkpt lat="47.31643" lon="-2.1681">
        <ele>3</ele>
        <time>2016-07-22T06:20:54Z</time>
      </trkpt>
      <trkpt lat="47.31632" lon="-2.16824">
        <ele>4</ele>
        <time>2016-07-22T06:20:57Z</time>
      </trkpt>
      <trkpt lat="47.31615" lon="-2.16851">
        <ele>8</ele>
        <time>2016-07-22T06:21:02Z</time>
      </trkpt>
      <trkpt lat="47.31592" lon="-2.16874">
        <ele>10</ele>
        <time>2016-07-22T06:21:07Z</time>
      </trkpt>
      <trkpt lat="47.31554" lon="-2.16923">
        <ele>17</ele>
        <time>2016-07-22T06:21:16Z</time>
      </trkpt>
      <trkpt lat="47.31541" lon="-2.16939">
        <ele>16</ele>
        <time>2016-07-22T06:21:19Z</time>
      </trkpt>
      <trkpt lat="47.31515" lon="-2.16972">
        <ele>16</ele>
        <time>2016-07-22T06:21:25Z</time>
      </trkpt>
      <trkpt lat="47.3149" lon="-2.17001">
        <ele>11</ele>
        <time>2016-07-22T06:21:31Z</time>
      </trkpt>
      <trkpt lat="47.31485" lon="-2.17006">
        <ele>11</ele>
        <time>2016-07-22T06:21:32Z</time>
      </trkpt>
      <trkpt lat="47.31465" lon="-2.17029">
        <ele>13</ele>
        <time>2016-07-22T06:21:37Z</time>
      </trkpt>
      <trkpt lat="47.31445" lon="-2.17051">
        <ele>11</ele>
        <time>2016-07-22T06:21:42Z</time>
      </trkpt>
      <trkpt lat="47.31427" lon="-2.17076">
        <ele>13</ele>
        <time>2016-07-22T06:21:47Z</time>
      </trkpt>
      <trkpt lat="47.31407" lon="-2.17098">
        <ele>13</ele>
        <time>2016-07-22T06:21:52Z</time>
      </trkpt>
      <trkpt lat="47.31386" lon="-2.17122">
        <ele>12</ele>
        <time>2016-07-22T06:21:57Z</time>
      </trkpt>
      <trkpt lat="47.31363" lon="-2.17153">
        <ele>13</ele>
        <time>2016-07-22T06:22:03Z</time>
      </trkpt>
      <trkpt lat="47.31338" lon="-2.17183">
        <ele>24</ele>
        <time>2016-07-22T06:22:09Z</time>
      </trkpt>
      <trkpt lat="47.3132" lon="-2.17203">
        <ele>25</ele>
        <time>2016-07-22T06:22:13Z</time>
      </trkpt>
      <trkpt lat="47.31305" lon="-2.17223">
        <ele>20</ele>
        <time>2016-07-22T06:22:17Z</time>
      </trkpt>
      <trkpt lat="47.31282" lon="-2.17247">
        <ele>16</ele>
        <time>2016-07-22T06:22:22Z</time>
      </trkpt>
      <trkpt lat="47.31265" lon="-2.17273">
        <ele>15</ele>
        <time>2016-07-22T06:22:27Z</time>
      </trkpt>
      <trkpt lat="47.31227" lon="-2.17316">
        <ele>5</ele>
        <time>2016-07-22T06:22:36Z</time>
      </trkpt>
      <trkpt lat="47.31223" lon="-2.17322">
        <ele>5</ele>
        <time>2016-07-22T06:22:37Z</time>
      </trkpt>
      <trkpt lat="47.31202" lon="-2.17344">
        <ele>1</ele>
        <time>2016-07-22T06:22:42Z</time>
      </trkpt>
      <trkpt lat="47.31174" lon="-2.17376">
        <ele>7</ele>
        <time>2016-07-22T06:22:49Z</time>
      </trkpt>
      <trkpt lat="47.31162" lon="-2.17388">
        <ele>4</ele>
        <time>2016-07-22T06:22:52Z</time>
      </trkpt>
      <trkpt lat="47.31138" lon="-2.17416">
        <ele>5</ele>
        <time>2016-07-22T06:22:58Z</time>
      </trkpt>
      <trkpt lat="47.3112" lon="-2.1743">
        <ele>-1</ele>
        <time>2016-07-22T06:23:02Z</time>
      </trkpt>
      <trkpt lat="47.31104" lon="-2.17454">
        <ele>3</ele>
        <time>2016-07-22T06:23:07Z</time>
      </trkpt>
      <trkpt lat="47.3109" lon="-2.17475">
        <ele>2</ele>
        <time>2016-07-22T06:23:12Z</time>
      </trkpt>
      <trkpt lat="47.31079" lon="-2.17491">
        <ele>-1</ele>
        <time>2016-07-22T06:23:17Z</time>
      </trkpt>
      <trkpt lat="47.31079" lon="-2.17493">
        <ele>1</ele>
        <time>2016-07-22T06:23:26Z</time>
      </trkpt>
      <trkpt lat="47.31079" lon="-2.17493">
        <ele>1</ele>
        <time>2016-07-22T06:23:27Z</time>
      </trkpt>
    </trkseg>
  </trk>
  <trk>
    <name><![CDATA[Sequence 11]]></name>
    <trkseg>
      <trkpt lat="47.31075" lon="-2.17493">
        <ele>1</ele>
        <time>2016-07-22T06:24:48Z</time>
      </trkpt>
      <trkpt lat="47.31073" lon="-2.17494">
        <ele>1</ele>
        <time>2016-07-22T06:24:54Z</time>
      </trkpt>
      <trkpt lat="47.31064" lon="-2.175">
        <ele>2</ele>
        <time>2016-07-22T06:24:58Z</time>
      </trkpt>
      <trkpt lat="47.31046" lon="-2.17516">
        <ele>3</ele>
        <time>2016-07-22T06:25:04Z</time>
      </trkpt>
      <trkpt lat="47.31032" lon="-2.17531">
        <ele>2</ele>
        <time>2016-07-22T06:25:08Z</time>
      </trkpt>
      <trkpt lat="47.31021" lon="-2.17554">
        <ele>4</ele>
        <time>2016-07-22T06:25:13Z</time>
      </trkpt>
      <trkpt lat="47.31003" lon="-2.17574">
        <ele>9</ele>
        <time>2016-07-22T06:25:18Z</time>
      </trkpt>
      <trkpt lat="47.30972" lon="-2.17612">
        <ele>15</ele>
        <time>2016-07-22T06:25:26Z</time>
      </trkpt>
      <trkpt lat="47.30953" lon="-2.1764">
        <ele>15</ele>
        <time>2016-07-22T06:25:32Z</time>
      </trkpt>
      <trkpt lat="47.30938" lon="-2.17666">
        <ele>16</ele>
        <time>2016-07-22T06:25:37Z</time>
      </trkpt>
      <trkpt lat="47.30934" lon="-2.17671">
        <ele>16</ele>
        <time>2016-07-22T06:25:38Z</time>
      </trkpt>
      <trkpt lat="47.30915" lon="-2.17688">
        <ele>17</ele>
        <time>2016-07-22T06:25:43Z</time>
      </trkpt>
      <trkpt lat="47.30893" lon="-2.17713">
        <ele>14</ele>
        <time>2016-07-22T06:25:48Z</time>
      </trkpt>
      <trkpt lat="47.30855" lon="-2.17754">
        <ele>11</ele>
        <time>2016-07-22T06:25:57Z</time>
      </trkpt>
      <trkpt lat="47.30845" lon="-2.17767">
        <ele>12</ele>
        <time>2016-07-22T06:26:00Z</time>
      </trkpt>
      <trkpt lat="47.30832" lon="-2.1778">
        <ele>10</ele>
        <time>2016-07-22T06:26:03Z</time>
      </trkpt>
      <trkpt lat="47.30815" lon="-2.17801">
        <ele>11</ele>
        <time>2016-07-22T06:26:08Z</time>
      </trkpt>
      <trkpt lat="47.30781" lon="-2.17836">
        <ele>13</ele>
        <time>2016-07-22T06:26:16Z</time>
      </trkpt>
      <trkpt lat="47.30774" lon="-2.17844">
        <ele>12</ele>
        <time>2016-07-22T06:26:18Z</time>
      </trkpt>
      <trkpt lat="47.3076" lon="-2.17856">
        <ele>9</ele>
        <time>2016-07-22T06:26:23Z</time>
      </trkpt>
      <trkpt lat="47.30752" lon="-2.17866">
        <ele>6</ele>
        <time>2016-07-22T06:26:29Z</time>
      </trkpt>
      <trkpt lat="47.3075" lon="-2.17862">
        <ele>5</ele>
        <time>2016-07-22T06:26:33Z</time>
      </trkpt>
      <trkpt lat="47.30751" lon="-2.17858">
        <ele>6</ele>
        <time>2016-07-22T06:26:38Z</time>
      </trkpt>
      <trkpt lat="47.30756" lon="-2.1785">
        <ele>6</ele>
        <time>2016-07-22T06:26:43Z</time>
      </trkpt>
      <trkpt lat="47.30774" lon="-2.17824">
        <ele>5</ele>
        <time>2016-07-22T06:26:52Z</time>
      </trkpt>
      <trkpt lat="47.30778" lon="-2.1782">
        <ele>4</ele>
        <time>2016-07-22T06:26:53Z</time>
      </trkpt>
      <trkpt lat="47.30811" lon="-2.1778">
        <ele>2</ele>
        <time>2016-07-22T06:27:01Z</time>
      </trkpt>
      <trkpt lat="47.30836" lon="-2.17751">
        <ele>2</ele>
        <time>2016-07-22T06:27:06Z</time>
      </trkpt>
      <trkpt lat="47.30846" lon="-2.17739">
        <ele>2</ele>
        <time>2016-07-22T06:27:08Z</time>
      </trkpt>
      <trkpt lat="47.30879" lon="-2.177">
        <ele>3</ele>
        <time>2016-07-22T06:27:15Z</time>
      </trkpt>
      <trkpt lat="47.30884" lon="-2.17697">
        <ele>4</ele>
        <time>2016-07-22T06:27:20Z</time>
      </trkpt>
      <trkpt lat="47.30883" lon="-2.17697">
        <ele>6</ele>
        <time>2016-07-22T06:27:24Z</time>
      </trkpt>
      <trkpt lat="47.30884" lon="-2.17697">
        <ele>5</ele>
        <time>2016-07-22T06:27:28Z</time>
      </trkpt>
      <trkpt lat="47.30884" lon="-2.17697">
        <ele>5</ele>
        <time>2016-07-22T06:27:33Z</time>
      </trkpt>
      <trkpt lat="47.30887" lon="-2.17694">
        <ele>6</ele>
        <time>2016-07-22T06:27:38Z</time>
      </trkpt>
      <trkpt lat="47.30881" lon="-2.17706">
        <ele>8</ele>
        <time>2016-07-22T06:27:43Z</time>
      </trkpt>
      <trkpt lat="47.30863" lon="-2.17729">
        <ele>5</ele>
        <time>2016-07-22T06:27:48Z</time>
      </trkpt>
      <trkpt lat="47.30835" lon="-2.17773">
        <ele>15</ele>
        <time>2016-07-22T06:27:56Z</time>
      </trkpt>
      <trkpt lat="47.30827" lon="-2.17801">
        <ele>13</ele>
        <time>2016-07-22T06:28:02Z</time>
      </trkpt>
      <trkpt lat="47.30837" lon="-2.17818">
        <ele>7</ele>
        <time>2016-07-22T06:28:06Z</time>
      </trkpt>
      <trkpt lat="47.30844" lon="-2.17835">
        <ele>12</ele>
        <time>2016-07-22T06:28:10Z</time>
      </trkpt>
      <trkpt lat="47.30857" lon="-2.17855">
        <ele>10</ele>
        <time>2016-07-22T06:28:14Z</time>
      </trkpt>
      <trkpt lat="47.3087" lon="-2.17881">
        <ele>9</ele>
        <time>2016-07-22T06:28:18Z</time>
      </trkpt>
      <trkpt lat="47.30882" lon="-2.179">
        <ele>5</ele>
        <time>2016-07-22T06:28:23Z</time>
      </trkpt>
      <trkpt lat="47.3089" lon="-2.17923">
        <ele>6</ele>
        <time>2016-07-22T06:28:28Z</time>
      </trkpt>
      <trkpt lat="47.30876" lon="-2.17943">
        <ele>7</ele>
        <time>2016-07-22T06:28:33Z</time>
      </trkpt>
      <trkpt lat="47.30856" lon="-2.17969">
        <ele>6</ele>
        <time>2016-07-22T06:28:38Z</time>
      </trkpt>
      <trkpt lat="47.30833" lon="-2.17998">
        <ele>7</ele>
        <time>2016-07-22T06:28:44Z</time>
      </trkpt>
      <trkpt lat="47.3082" lon="-2.18011">
        <ele>6</ele>
        <time>2016-07-22T06:28:48Z</time>
      </trkpt>
      <trkpt lat="47.30802" lon="-2.18038">
        <ele>6</ele>
        <time>2016-07-22T06:28:54Z</time>
      </trkpt>
      <trkpt lat="47.30772" lon="-2.18074">
        <ele>4</ele>
        <time>2016-07-22T06:29:02Z</time>
      </trkpt>
      <trkpt lat="47.30761" lon="-2.18085">
        <ele>6</ele>
        <time>2016-07-22T06:29:06Z</time>
      </trkpt>
      <trkpt lat="47.30754" lon="-2.18087">
        <ele>7</ele>
        <time>2016-07-22T06:29:08Z</time>
      </trkpt>
      <trkpt lat="47.30745" lon="-2.18085">
        <ele>5</ele>
        <time>2016-07-22T06:29:13Z</time>
      </trkpt>
      <trkpt lat="47.30744" lon="-2.18085">
        <ele>3</ele>
        <time>2016-07-22T06:29:22Z</time>
      </trkpt>
    </trkseg>
  </trk>
  <trk>
    <name><![CDATA[Sequence 12]]></name>
    <trkseg>
      <trkpt lat="47.30745" lon="-2.18085">
        <ele>-2</ele>
        <time>2016-07-22T06:29:53Z</time>
      </trkpt>
      <trkpt lat="47.30744" lon="-2.18084">
        <ele>-1</ele>
        <time>2016-07-22T06:29:58Z</time>
      </trkpt>
      <trkpt lat="47.30738" lon="-2.18072">
        <ele>-2</ele>
        <time>2016-07-22T06:30:05Z</time>
      </trkpt>
      <trkpt lat="47.30734" lon="-2.1806">
        <ele>-1</ele>
        <time>2016-07-22T06:30:08Z</time>
      </trkpt>
      <trkpt lat="47.30721" lon="-2.18057">
        <ele>4</ele>
        <time>2016-07-22T06:30:13Z</time>
      </trkpt>
      <trkpt lat="47.30706" lon="-2.18056">
        <ele>3</ele>
        <time>2016-07-22T06:30:18Z</time>
      </trkpt>
      <trkpt lat="47.30686" lon="-2.18062">
        <ele>1</ele>
        <time>2016-07-22T06:30:24Z</time>
      </trkpt>
      <trkpt lat="47.30663" lon="-2.18095">
        <ele>-1</ele>
        <time>2016-07-22T06:30:31Z</time>
      </trkpt>
      <trkpt lat="47.30657" lon="-2.18105">
        <ele>4</ele>
        <time>2016-07-22T06:30:33Z</time>
      </trkpt>
      <trkpt lat="47.30648" lon="-2.18128">
        <ele>4</ele>
        <time>2016-07-22T06:30:38Z</time>
      </trkpt>
      <trkpt lat="47.30637" lon="-2.18137">
        <ele>5</ele>
        <time>2016-07-22T06:30:43Z</time>
      </trkpt>
      <trkpt lat="47.30625" lon="-2.18124">
        <ele>9</ele>
        <time>2016-07-22T06:30:48Z</time>
      </trkpt>
      <trkpt lat="47.30614" lon="-2.18107">
        <ele>10</ele>
        <time>2016-07-22T06:30:53Z</time>
      </trkpt>
      <trkpt lat="47.30611" lon="-2.18101">
        <ele>9</ele>
        <time>2016-07-22T06:30:58Z</time>
      </trkpt>
      <trkpt lat="47.30609" lon="-2.18101">
        <ele>7</ele>
        <time>2016-07-22T06:31:03Z</time>
      </trkpt>
      <trkpt lat="47.30608" lon="-2.18097">
        <ele>10</ele>
        <time>2016-07-22T06:31:08Z</time>
      </trkpt>
      <trkpt lat="47.30598" lon="-2.1808">
        <ele>10</ele>
        <time>2016-07-22T06:31:13Z</time>
      </trkpt>
      <trkpt lat="47.30586" lon="-2.18069">
        <ele>9</ele>
        <time>2016-07-22T06:31:18Z</time>
      </trkpt>
      <trkpt lat="47.3058" lon="-2.18074">
        <ele>9</ele>
        <time>2016-07-22T06:31:24Z</time>
      </trkpt>
      <trkpt lat="47.30573" lon="-2.18084">
        <ele>9</ele>
        <time>2016-07-22T06:31:28Z</time>
      </trkpt>
      <trkpt lat="47.30556" lon="-2.18104">
        <ele>9</ele>
        <time>2016-07-22T06:31:33Z</time>
      </trkpt>
      <trkpt lat="47.3053" lon="-2.1813">
        <ele>6</ele>
        <time>2016-07-22T06:31:39Z</time>
      </trkpt>
      <trkpt lat="47.30521" lon="-2.1814">
        <ele>16</ele>
        <time>2016-07-22T06:31:43Z</time>
      </trkpt>
      <trkpt lat="47.30488" lon="-2.18181">
        <ele>13</ele>
        <time>2016-07-22T06:31:52Z</time>
      </trkpt>
      <trkpt lat="47.30482" lon="-2.18195">
        <ele>11</ele>
        <time>2016-07-22T06:31:54Z</time>
      </trkpt>
      <trkpt lat="47.30467" lon="-2.1822">
        <ele>13</ele>
        <time>2016-07-22T06:31:58Z</time>
      </trkpt>
      <trkpt lat="47.30436" lon="-2.18272">
        <ele>9</ele>
        <time>2016-07-22T06:32:07Z</time>
      </trkpt>
      <trkpt lat="47.30426" lon="-2.18287">
        <ele>8</ele>
        <time>2016-07-22T06:32:10Z</time>
      </trkpt>
      <trkpt lat="47.30414" lon="-2.18308">
        <ele>7</ele>
        <time>2016-07-22T06:32:14Z</time>
      </trkpt>
      <trkpt lat="47.30404" lon="-2.18328">
        <ele>5</ele>
        <time>2016-07-22T06:32:18Z</time>
      </trkpt>
      <trkpt lat="47.30389" lon="-2.1835">
        <ele>2</ele>
        <time>2016-07-22T06:32:23Z</time>
      </trkpt>
      <trkpt lat="47.30386" lon="-2.18363">
        <ele>2</ele>
        <time>2016-07-22T06:32:30Z</time>
      </trkpt>
      <trkpt lat="47.30386" lon="-2.18364">
        <ele>4.3</ele>
        <time>2016-07-22T06:32:33Z</time>
      </trkpt>
    </trkseg>
  </trk>
  <trk>
    <name><![CDATA[Sequence 13]]></name>
    <trkseg>
      <trkpt lat="47.30238" lon="-2.18638">
        <ele>-2</ele>
        <time>2016-07-22T06:38:52Z</time>
      </trkpt>
      <trkpt lat="47.30229" lon="-2.18657">
        <ele>-2</ele>
        <time>2016-07-22T06:38:55Z</time>
      </trkpt>
      <trkpt lat="47.3022" lon="-2.18675">
        <ele>-3</ele>
        <time>2016-07-22T06:38:58Z</time>
      </trkpt>
      <trkpt lat="47.30204" lon="-2.18706">
        <ele>-2</ele>
        <time>2016-07-22T06:39:03Z</time>
      </trkpt>
      <trkpt lat="47.3019" lon="-2.18737">
        <ele>5</ele>
        <time>2016-07-22T06:39:08Z</time>
      </trkpt>
      <trkpt lat="47.30175" lon="-2.18765">
        <ele>1</ele>
        <time>2016-07-22T06:39:13Z</time>
      </trkpt>
      <trkpt lat="47.30162" lon="-2.18791">
        <ele>3</ele>
        <time>2016-07-22T06:39:18Z</time>
      </trkpt>
      <trkpt lat="47.30149" lon="-2.18821">
        <ele>5</ele>
        <time>2016-07-22T06:39:23Z</time>
      </trkpt>
      <trkpt lat="47.30137" lon="-2.18848">
        <ele>9</ele>
        <time>2016-07-22T06:39:28Z</time>
      </trkpt>
      <trkpt lat="47.30123" lon="-2.18877">
        <ele>9</ele>
        <time>2016-07-22T06:39:33Z</time>
      </trkpt>
      <trkpt lat="47.30108" lon="-2.1891">
        <ele>11</ele>
        <time>2016-07-22T06:39:38Z</time>
      </trkpt>
      <trkpt lat="47.30092" lon="-2.18937">
        <ele>11</ele>
        <time>2016-07-22T06:39:43Z</time>
      </trkpt>
      <trkpt lat="47.30075" lon="-2.18965">
        <ele>11</ele>
        <time>2016-07-22T06:39:48Z</time>
      </trkpt>
      <trkpt lat="47.30053" lon="-2.19">
        <ele>10</ele>
        <time>2016-07-22T06:39:55Z</time>
      </trkpt>
      <trkpt lat="47.30036" lon="-2.19026">
        <ele>10</ele>
        <time>2016-07-22T06:40:00Z</time>
      </trkpt>
      <trkpt lat="47.30019" lon="-2.19052">
        <ele>10</ele>
        <time>2016-07-22T06:40:05Z</time>
      </trkpt>
      <trkpt lat="47.3001" lon="-2.1907">
        <ele>12</ele>
        <time>2016-07-22T06:40:08Z</time>
      </trkpt>
      <trkpt lat="47.29989" lon="-2.19102">
        <ele>6</ele>
        <time>2016-07-22T06:40:13Z</time>
      </trkpt>
      <trkpt lat="47.29967" lon="-2.19134">
        <ele>7</ele>
        <time>2016-07-22T06:40:19Z</time>
      </trkpt>
      <trkpt lat="47.29952" lon="-2.19159">
        <ele>7</ele>
        <time>2016-07-22T06:40:23Z</time>
      </trkpt>
      <trkpt lat="47.29923" lon="-2.19205">
        <ele>6</ele>
        <time>2016-07-22T06:40:30Z</time>
      </trkpt>
      <trkpt lat="47.29907" lon="-2.19229">
        <ele>5</ele>
        <time>2016-07-22T06:40:34Z</time>
      </trkpt>
      <trkpt lat="47.29895" lon="-2.19257">
        <ele>7</ele>
        <time>2016-07-22T06:40:38Z</time>
      </trkpt>
      <trkpt lat="47.29873" lon="-2.1929">
        <ele>5</ele>
        <time>2016-07-22T06:40:43Z</time>
      </trkpt>
      <trkpt lat="47.29851" lon="-2.19323">
        <ele>5</ele>
        <time>2016-07-22T06:40:48Z</time>
      </trkpt>
      <trkpt lat="47.29832" lon="-2.19355">
        <ele>5</ele>
        <time>2016-07-22T06:40:53Z</time>
      </trkpt>
      <trkpt lat="47.29819" lon="-2.19374">
        <ele>4</ele>
        <time>2016-07-22T06:40:58Z</time>
      </trkpt>
      <trkpt lat="47.29819" lon="-2.19377">
        <ele>2</ele>
        <time>2016-07-22T06:41:03Z</time>
      </trkpt>
      <trkpt lat="47.2982" lon="-2.19378">
        <ele>3</ele>
        <time>2016-07-22T06:41:08Z</time>
      </trkpt>
      <trkpt lat="47.2982" lon="-2.19379">
        <ele>3</ele>
        <time>2016-07-22T06:41:13Z</time>
      </trkpt>
      <trkpt lat="47.2982" lon="-2.19379">
        <ele>2</ele>
        <time>2016-07-22T06:41:18Z</time>
      </trkpt>
      <trkpt lat="47.2982" lon="-2.19379">
        <ele>2</ele>
        <time>2016-07-22T06:41:23Z</time>
      </trkpt>
      <trkpt lat="47.2982" lon="-2.19379">
        <ele>2</ele>
        <time>2016-07-22T06:41:28Z</time>
      </trkpt>
      <trkpt lat="47.2982" lon="-2.19379">
        <ele>2</ele>
        <time>2016-07-22T06:41:33Z</time>
      </trkpt>
      <trkpt lat="47.2982" lon="-2.19379">
        <ele>2</ele>
        <time>2016-07-22T06:41:39Z</time>
      </trkpt>
      <trkpt lat="47.2982" lon="-2.19379">
        <ele>2</ele>
        <time>2016-07-22T06:41:43Z</time>
      </trkpt>
      <trkpt lat="47.29818" lon="-2.19381">
        <ele>4</ele>
        <time>2016-07-22T06:41:49Z</time>
      </trkpt>
      <trkpt lat="47.2981" lon="-2.19394">
        <ele>7</ele>
        <time>2016-07-22T06:41:53Z</time>
      </trkpt>
      <trkpt lat="47.29785" lon="-2.19434">
        <ele>7</ele>
        <time>2016-07-22T06:42:01Z</time>
      </trkpt>
      <trkpt lat="47.29773" lon="-2.19451">
        <ele>4</ele>
        <time>2016-07-22T06:42:04Z</time>
      </trkpt>
      <trkpt lat="47.29754" lon="-2.19474">
        <ele>3</ele>
        <time>2016-07-22T06:42:08Z</time>
      </trkpt>
      <trkpt lat="47.29728" lon="-2.19519">
        <ele>14</ele>
        <time>2016-07-22T06:42:17Z</time>
      </trkpt>
      <trkpt lat="47.29725" lon="-2.19523">
        <ele>15</ele>
        <time>2016-07-22T06:42:18Z</time>
      </trkpt>
      <trkpt lat="47.29696" lon="-2.19551">
        <ele>18</ele>
        <time>2016-07-22T06:42:24Z</time>
      </trkpt>
      <trkpt lat="47.29671" lon="-2.19571">
        <ele>16</ele>
        <time>2016-07-22T06:42:29Z</time>
      </trkpt>
      <trkpt lat="47.29646" lon="-2.19594">
        <ele>16</ele>
        <time>2016-07-22T06:42:35Z</time>
      </trkpt>
      <trkpt lat="47.29628" lon="-2.19603">
        <ele>11</ele>
        <time>2016-07-22T06:42:38Z</time>
      </trkpt>
      <trkpt lat="47.29605" lon="-2.19626">
        <ele>11</ele>
        <time>2016-07-22T06:42:44Z</time>
      </trkpt>
      <trkpt lat="47.29581" lon="-2.19647">
        <ele>10</ele>
        <time>2016-07-22T06:42:49Z</time>
      </trkpt>
      <trkpt lat="47.29563" lon="-2.19664">
        <ele>10</ele>
        <time>2016-07-22T06:42:53Z</time>
      </trkpt>
      <trkpt lat="47.29541" lon="-2.19682">
        <ele>9</ele>
        <time>2016-07-22T06:42:58Z</time>
      </trkpt>
      <trkpt lat="47.29502" lon="-2.19713">
        <ele>8</ele>
        <time>2016-07-22T06:43:06Z</time>
      </trkpt>
      <trkpt lat="47.29476" lon="-2.19737">
        <ele>8</ele>
        <time>2016-07-22T06:43:12Z</time>
      </trkpt>
      <trkpt lat="47.29459" lon="-2.19754">
        <ele>11</ele>
        <time>2016-07-22T06:43:16Z</time>
      </trkpt>
      <trkpt lat="47.29449" lon="-2.1976">
        <ele>10</ele>
        <time>2016-07-22T06:43:18Z</time>
      </trkpt>
      <trkpt lat="47.29429" lon="-2.1978">
        <ele>9</ele>
        <time>2016-07-22T06:43:23Z</time>
      </trkpt>
      <trkpt lat="47.29389" lon="-2.19814">
        <ele>8</ele>
        <time>2016-07-22T06:43:32Z</time>
      </trkpt>
      <trkpt lat="47.29374" lon="-2.1983">
        <ele>6</ele>
        <time>2016-07-22T06:43:36Z</time>
      </trkpt>
      <trkpt lat="47.29361" lon="-2.1984">
        <ele>10</ele>
        <time>2016-07-22T06:43:39Z</time>
      </trkpt>
      <trkpt lat="47.29339" lon="-2.19854">
        <ele>9</ele>
        <time>2016-07-22T06:43:44Z</time>
      </trkpt>
      <trkpt lat="47.2932" lon="-2.19866">
        <ele>8</ele>
        <time>2016-07-22T06:43:48Z</time>
      </trkpt>
      <trkpt lat="47.29298" lon="-2.19878">
        <ele>11</ele>
        <time>2016-07-22T06:43:53Z</time>
      </trkpt>
      <trkpt lat="47.29275" lon="-2.19891">
        <ele>11</ele>
        <time>2016-07-22T06:43:58Z</time>
      </trkpt>
      <trkpt lat="47.29253" lon="-2.199">
        <ele>12</ele>
        <time>2016-07-22T06:44:03Z</time>
      </trkpt>
      <trkpt lat="47.29232" lon="-2.19907">
        <ele>10</ele>
        <time>2016-07-22T06:44:08Z</time>
      </trkpt>
      <trkpt lat="47.29209" lon="-2.19912">
        <ele>11</ele>
        <time>2016-07-22T06:44:13Z</time>
      </trkpt>
      <trkpt lat="47.29185" lon="-2.19918">
        <ele>8</ele>
        <time>2016-07-22T06:44:18Z</time>
      </trkpt>
      <trkpt lat="47.29162" lon="-2.19927">
        <ele>6</ele>
        <time>2016-07-22T06:44:23Z</time>
      </trkpt>
      <trkpt lat="47.29146" lon="-2.19933">
        <ele>5</ele>
        <time>2016-07-22T06:44:29Z</time>
      </trkpt>
      <trkpt lat="47.29133" lon="-2.19938">
        <ele>3</ele>
        <time>2016-07-22T06:44:33Z</time>
      </trkpt>
      <trkpt lat="47.29105" lon="-2.19948">
        <ele>4</ele>
        <time>2016-07-22T06:44:40Z</time>
      </trkpt>
      <trkpt lat="47.2909" lon="-2.19954">
        <ele>3</ele>
        <time>2016-07-22T06:44:44Z</time>
      </trkpt>
      <trkpt lat="47.29074" lon="-2.1996">
        <ele>2</ele>
        <time>2016-07-22T06:44:48Z</time>
      </trkpt>
      <trkpt lat="47.29053" lon="-2.19967">
        <ele>3</ele>
        <time>2016-07-22T06:44:53Z</time>
      </trkpt>
      <trkpt lat="47.29029" lon="-2.19976">
        <ele>4</ele>
        <time>2016-07-22T06:44:58Z</time>
      </trkpt>
      <trkpt lat="47.29004" lon="-2.1998">
        <ele>4</ele>
        <time>2016-07-22T06:45:03Z</time>
      </trkpt>
      <trkpt lat="47.28969" lon="-2.19992">
        <ele>4</ele>
        <time>2016-07-22T06:45:09Z</time>
      </trkpt>
      <trkpt lat="47.28948" lon="-2.2">
        <ele>4</ele>
        <time>2016-07-22T06:45:13Z</time>
      </trkpt>
      <trkpt lat="47.28922" lon="-2.20008">
        <ele>-1</ele>
        <time>2016-07-22T06:45:18Z</time>
      </trkpt>
      <trkpt lat="47.28895" lon="-2.20017">
        <ele>3.9</ele>
        <time>2016-07-22T06:45:23Z</time>
      </trkpt>
      <trkpt lat="47.28868" lon="-2.20025">
        <ele>-1</ele>
        <time>2016-07-22T06:45:28Z</time>
      </trkpt>
      <trkpt lat="47.28841" lon="-2.20032">
        <ele>1</ele>
        <time>2016-07-22T06:45:33Z</time>
      </trkpt>
      <trkpt lat="47.28816" lon="-2.20042">
        <ele>2</ele>
        <time>2016-07-22T06:45:38Z</time>
      </trkpt>
      <trkpt lat="47.2879" lon="-2.20049">
        <ele>2</ele>
        <time>2016-07-22T06:45:43Z</time>
      </trkpt>
      <trkpt lat="47.2875" lon="-2.20061">
        <ele>2</ele>
        <time>2016-07-22T06:45:50Z</time>
      </trkpt>
      <trkpt lat="47.28733" lon="-2.20067">
        <ele>2</ele>
        <time>2016-07-22T06:45:53Z</time>
      </trkpt>
      <trkpt lat="47.28703" lon="-2.20076">
        <ele>4</ele>
        <time>2016-07-22T06:45:58Z</time>
      </trkpt>
      <trkpt lat="47.28674" lon="-2.20081">
        <ele>3.3</ele>
        <time>2016-07-22T06:46:03Z</time>
      </trkpt>
      <trkpt lat="47.28646" lon="-2.20088">
        <ele>3</ele>
        <time>2016-07-22T06:46:08Z</time>
      </trkpt>
      <trkpt lat="47.28612" lon="-2.20096">
        <ele>3</ele>
        <time>2016-07-22T06:46:14Z</time>
      </trkpt>
      <trkpt lat="47.28592" lon="-2.20102">
        <ele>3.5</ele>
        <time>2016-07-22T06:46:18Z</time>
      </trkpt>
      <trkpt lat="47.28563" lon="-2.20106">
        <ele>3.4</ele>
        <time>2016-07-22T06:46:23Z</time>
      </trkpt>
      <trkpt lat="47.28529" lon="-2.20117">
        <ele>1</ele>
        <time>2016-07-22T06:46:29Z</time>
      </trkpt>
      <trkpt lat="47.28489" lon="-2.20127">
        <ele>4</ele>
        <time>2016-07-22T06:46:36Z</time>
      </trkpt>
      <trkpt lat="47.2848" lon="-2.2013">
        <ele>4</ele>
        <time>2016-07-22T06:46:38Z</time>
      </trkpt>
      <trkpt lat="47.28449" lon="-2.20136">
        <ele>2</ele>
        <time>2016-07-22T06:46:43Z</time>
      </trkpt>
      <trkpt lat="47.2842" lon="-2.20143">
        <ele>2</ele>
        <time>2016-07-22T06:46:48Z</time>
      </trkpt>
      <trkpt lat="47.28394" lon="-2.20152">
        <ele>5</ele>
        <time>2016-07-22T06:46:53Z</time>
      </trkpt>
      <trkpt lat="47.28347" lon="-2.20163">
        <ele>10</ele>
        <time>2016-07-22T06:47:01Z</time>
      </trkpt>
      <trkpt lat="47.28316" lon="-2.20171">
        <ele>13</ele>
        <time>2016-07-22T06:47:07Z</time>
      </trkpt>
      <trkpt lat="47.28287" lon="-2.2018">
        <ele>7</ele>
        <time>2016-07-22T06:47:12Z</time>
      </trkpt>
      <trkpt lat="47.28282" lon="-2.20181">
        <ele>9</ele>
        <time>2016-07-22T06:47:13Z</time>
      </trkpt>
      <trkpt lat="47.28255" lon="-2.2019">
        <ele>7</ele>
        <time>2016-07-22T06:47:18Z</time>
      </trkpt>
      <trkpt lat="47.28229" lon="-2.20194">
        <ele>6</ele>
        <time>2016-07-22T06:47:23Z</time>
      </trkpt>
      <trkpt lat="47.28202" lon="-2.20203">
        <ele>13</ele>
        <time>2016-07-22T06:47:28Z</time>
      </trkpt>
      <trkpt lat="47.2818" lon="-2.20214">
        <ele>14</ele>
        <time>2016-07-22T06:47:33Z</time>
      </trkpt>
      <trkpt lat="47.28154" lon="-2.20222">
        <ele>10</ele>
        <time>2016-07-22T06:47:38Z</time>
      </trkpt>
      <trkpt lat="47.28129" lon="-2.20228">
        <ele>11</ele>
        <time>2016-07-22T06:47:43Z</time>
      </trkpt>
      <trkpt lat="47.28104" lon="-2.20234">
        <ele>12</ele>
        <time>2016-07-22T06:47:48Z</time>
      </trkpt>
      <trkpt lat="47.28078" lon="-2.20241">
        <ele>12</ele>
        <time>2016-07-22T06:47:53Z</time>
      </trkpt>
      <trkpt lat="47.28038" lon="-2.20251">
        <ele>11</ele>
        <time>2016-07-22T06:48:01Z</time>
      </trkpt>
      <trkpt lat="47.28026" lon="-2.20253">
        <ele>10</ele>
        <time>2016-07-22T06:48:03Z</time>
      </trkpt>
      <trkpt lat="47.27983" lon="-2.20264">
        <ele>9</ele>
        <time>2016-07-22T06:48:12Z</time>
      </trkpt>
      <trkpt lat="47.27967" lon="-2.20268">
        <ele>9</ele>
        <time>2016-07-22T06:48:16Z</time>
      </trkpt>
      <trkpt lat="47.27954" lon="-2.20272">
        <ele>8</ele>
        <time>2016-07-22T06:48:19Z</time>
      </trkpt>
      <trkpt lat="47.27942" lon="-2.20279">
        <ele>7</ele>
        <time>2016-07-22T06:48:25Z</time>
      </trkpt>
      <trkpt lat="47.27942" lon="-2.2028">
        <ele>7</ele>
        <time>2016-07-22T06:48:30Z</time>
      </trkpt>
      <trkpt lat="47.27941" lon="-2.2028">
        <ele>6</ele>
        <time>2016-07-22T06:48:33Z</time>
      </trkpt>
      <trkpt lat="47.27937" lon="-2.20279">
        <ele>5</ele>
        <time>2016-07-22T06:48:40Z</time>
      </trkpt>
    </trkseg>
  </trk>
  <trk>
    <name><![CDATA[Sequence 14]]></name>
    <trkseg>
      <trkpt lat="47.27934" lon="-2.20278">
        <ele>6</ele>
        <time>2016-07-22T06:49:16Z</time>
      </trkpt>
      <trkpt lat="47.27926" lon="-2.20275">
        <ele>8</ele>
        <time>2016-07-22T06:49:21Z</time>
      </trkpt>
      <trkpt lat="47.27908" lon="-2.20279">
        <ele>8</ele>
        <time>2016-07-22T06:49:27Z</time>
      </trkpt>
      <trkpt lat="47.27901" lon="-2.20281">
        <ele>8</ele>
        <time>2016-07-22T06:49:29Z</time>
      </trkpt>
      <trkpt lat="47.27881" lon="-2.20287">
        <ele>8</ele>
        <time>2016-07-22T06:49:34Z</time>
      </trkpt>
      <trkpt lat="47.2786" lon="-2.20294">
        <ele>7</ele>
        <time>2016-07-22T06:49:39Z</time>
      </trkpt>
      <trkpt lat="47.27829" lon="-2.20305">
        <ele>7</ele>
        <time>2016-07-22T06:49:46Z</time>
      </trkpt>
      <trkpt lat="47.27815" lon="-2.20309">
        <ele>6</ele>
        <time>2016-07-22T06:49:49Z</time>
      </trkpt>
      <trkpt lat="47.2778" lon="-2.20319">
        <ele>9</ele>
        <time>2016-07-22T06:49:57Z</time>
      </trkpt>
      <trkpt lat="47.27776" lon="-2.2032">
        <ele>7</ele>
        <time>2016-07-22T06:49:59Z</time>
      </trkpt>
      <trkpt lat="47.27776" lon="-2.20319">
        <ele>7</ele>
        <time>2016-07-22T06:50:08Z</time>
      </trkpt>
      <trkpt lat="47.27775" lon="-2.20319">
        <ele>7</ele>
        <time>2016-07-22T06:50:09Z</time>
      </trkpt>
      <trkpt lat="47.27777" lon="-2.20316">
        <ele>6</ele>
        <time>2016-07-22T06:50:14Z</time>
      </trkpt>
      <trkpt lat="47.27781" lon="-2.20317">
        <ele>7</ele>
        <time>2016-07-22T06:50:21Z</time>
      </trkpt>
      <trkpt lat="47.27779" lon="-2.20315">
        <ele>6</ele>
        <time>2016-07-22T06:50:27Z</time>
      </trkpt>
      <trkpt lat="47.27778" lon="-2.20319">
        <ele>6</ele>
        <time>2016-07-22T06:50:29Z</time>
      </trkpt>
      <trkpt lat="47.27775" lon="-2.20322">
        <ele>6</ele>
        <time>2016-07-22T06:50:38Z</time>
      </trkpt>
      <trkpt lat="47.27775" lon="-2.20321">
        <ele>6</ele>
        <time>2016-07-22T06:50:39Z</time>
      </trkpt>
      <trkpt lat="47.27773" lon="-2.20321">
        <ele>5</ele>
        <time>2016-07-22T06:50:44Z</time>
      </trkpt>
      <trkpt lat="47.27771" lon="-2.20321">
        <ele>6</ele>
        <time>2016-07-22T06:50:52Z</time>
      </trkpt>
      <trkpt lat="47.27771" lon="-2.20324">
        <ele>7</ele>
        <time>2016-07-22T06:50:54Z</time>
      </trkpt>
      <trkpt lat="47.27752" lon="-2.2034">
        <ele>6</ele>
        <time>2016-07-22T06:51:03Z</time>
      </trkpt>
      <trkpt lat="47.27749" lon="-2.20339">
        <ele>6</ele>
        <time>2016-07-22T06:51:04Z</time>
      </trkpt>
      <trkpt lat="47.27741" lon="-2.20333">
        <ele>5</ele>
        <time>2016-07-22T06:51:09Z</time>
      </trkpt>
      <trkpt lat="47.2774" lon="-2.20332">
        <ele>4</ele>
        <time>2016-07-22T06:51:14Z</time>
      </trkpt>
      <trkpt lat="47.27738" lon="-2.2033">
        <ele>4</ele>
        <time>2016-07-22T06:51:19Z</time>
      </trkpt>
      <trkpt lat="47.27723" lon="-2.20335">
        <ele>8</ele>
        <time>2016-07-22T06:51:25Z</time>
      </trkpt>
      <trkpt lat="47.27704" lon="-2.2034">
        <ele>9</ele>
        <time>2016-07-22T06:51:29Z</time>
      </trkpt>
      <trkpt lat="47.27675" lon="-2.20346">
        <ele>7</ele>
        <time>2016-07-22T06:51:35Z</time>
      </trkpt>
      <trkpt lat="47.27635" lon="-2.20356">
        <ele>7</ele>
        <time>2016-07-22T06:51:43Z</time>
      </trkpt>
      <trkpt lat="47.27627" lon="-2.2036">
        <ele>7</ele>
        <time>2016-07-22T06:51:45Z</time>
      </trkpt>
      <trkpt lat="47.2761" lon="-2.20364">
        <ele>7</ele>
        <time>2016-07-22T06:51:49Z</time>
      </trkpt>
      <trkpt lat="47.2757" lon="-2.20378">
        <ele>7</ele>
        <time>2016-07-22T06:51:58Z</time>
      </trkpt>
      <trkpt lat="47.27555" lon="-2.20382">
        <ele>6</ele>
        <time>2016-07-22T06:52:01Z</time>
      </trkpt>
      <trkpt lat="47.2754" lon="-2.20385">
        <ele>5</ele>
        <time>2016-07-22T06:52:04Z</time>
      </trkpt>
      <trkpt lat="47.27516" lon="-2.20391">
        <ele>5</ele>
        <time>2016-07-22T06:52:09Z</time>
      </trkpt>
      <trkpt lat="47.27486" lon="-2.20402">
        <ele>8</ele>
        <time>2016-07-22T06:52:15Z</time>
      </trkpt>
      <trkpt lat="47.27449" lon="-2.20413">
        <ele>10</ele>
        <time>2016-07-22T06:52:23Z</time>
      </trkpt>
      <trkpt lat="47.27438" lon="-2.20416">
        <ele>9</ele>
        <time>2016-07-22T06:52:25Z</time>
      </trkpt>
      <trkpt lat="47.2742" lon="-2.20421">
        <ele>10</ele>
        <time>2016-07-22T06:52:29Z</time>
      </trkpt>
      <trkpt lat="47.27399" lon="-2.20429">
        <ele>10</ele>
        <time>2016-07-22T06:52:34Z</time>
      </trkpt>
      <trkpt lat="47.27379" lon="-2.20434">
        <ele>12</ele>
        <time>2016-07-22T06:52:39Z</time>
      </trkpt>
      <trkpt lat="47.2736" lon="-2.20437">
        <ele>12</ele>
        <time>2016-07-22T06:52:44Z</time>
      </trkpt>
      <trkpt lat="47.27335" lon="-2.20445">
        <ele>10</ele>
        <time>2016-07-22T06:52:52Z</time>
      </trkpt>
      <trkpt lat="47.27331" lon="-2.20449">
        <ele>15</ele>
        <time>2016-07-22T06:52:55Z</time>
      </trkpt>
      <trkpt lat="47.27304" lon="-2.20452">
        <ele>23</ele>
        <time>2016-07-22T06:53:03Z</time>
      </trkpt>
      <trkpt lat="47.273" lon="-2.20453">
        <ele>21</ele>
        <time>2016-07-22T06:53:04Z</time>
      </trkpt>
      <trkpt lat="47.27269" lon="-2.20463">
        <ele>20</ele>
        <time>2016-07-22T06:53:12Z</time>
      </trkpt>
      <trkpt lat="47.2726" lon="-2.20464">
        <ele>21</ele>
        <time>2016-07-22T06:53:14Z</time>
      </trkpt>
      <trkpt lat="47.27237" lon="-2.20468">
        <ele>20</ele>
        <time>2016-07-22T06:53:20Z</time>
      </trkpt>
      <trkpt lat="47.27216" lon="-2.20474">
        <ele>18</ele>
        <time>2016-07-22T06:53:28Z</time>
      </trkpt>
      <trkpt lat="47.27204" lon="-2.20476">
        <ele>17</ele>
        <time>2016-07-22T06:53:32Z</time>
      </trkpt>
      <trkpt lat="47.27197" lon="-2.20475">
        <ele>15</ele>
        <time>2016-07-22T06:53:34Z</time>
      </trkpt>
      <trkpt lat="47.27181" lon="-2.20476">
        <ele>13</ele>
        <time>2016-07-22T06:53:39Z</time>
      </trkpt>
      <trkpt lat="47.27167" lon="-2.20477">
        <ele>11</ele>
        <time>2016-07-22T06:53:44Z</time>
      </trkpt>
      <trkpt lat="47.27159" lon="-2.20477">
        <ele>10</ele>
        <time>2016-07-22T06:53:49Z</time>
      </trkpt>
      <trkpt lat="47.27155" lon="-2.20477">
        <ele>5</ele>
        <time>2016-07-22T06:53:54Z</time>
      </trkpt>
    </trkseg>
  </trk>
  <trk>
    <name><![CDATA[Sequence 15]]></name>
    <trkseg>
      <trkpt lat="47.27154" lon="-2.20477">
        <ele>6</ele>
        <time>2016-07-22T06:54:28Z</time>
      </trkpt>
      <trkpt lat="47.27152" lon="-2.20474">
        <ele>7</ele>
        <time>2016-07-22T06:54:32Z</time>
      </trkpt>
      <trkpt lat="47.27149" lon="-2.20465">
        <ele>8</ele>
        <time>2016-07-22T06:54:36Z</time>
      </trkpt>
      <trkpt lat="47.27143" lon="-2.20442">
        <ele>9</ele>
        <time>2016-07-22T06:54:41Z</time>
      </trkpt>
      <trkpt lat="47.27136" lon="-2.20416">
        <ele>11</ele>
        <time>2016-07-22T06:54:46Z</time>
      </trkpt>
      <trkpt lat="47.27131" lon="-2.2039">
        <ele>8</ele>
        <time>2016-07-22T06:54:51Z</time>
      </trkpt>
      <trkpt lat="47.27124" lon="-2.20361">
        <ele>16</ele>
        <time>2016-07-22T06:54:57Z</time>
      </trkpt>
      <trkpt lat="47.27118" lon="-2.20328">
        <ele>17</ele>
        <time>2016-07-22T06:55:03Z</time>
      </trkpt>
      <trkpt lat="47.27116" lon="-2.20313">
        <ele>15</ele>
        <time>2016-07-22T06:55:06Z</time>
      </trkpt>
      <trkpt lat="47.2711" lon="-2.20285">
        <ele>13</ele>
        <time>2016-07-22T06:55:11Z</time>
      </trkpt>
      <trkpt lat="47.27114" lon="-2.20267">
        <ele>11</ele>
        <time>2016-07-22T06:55:16Z</time>
      </trkpt>
      <trkpt lat="47.27125" lon="-2.20265">
        <ele>14</ele>
        <time>2016-07-22T06:55:22Z</time>
      </trkpt>
      <trkpt lat="47.27141" lon="-2.20262">
        <ele>14</ele>
        <time>2016-07-22T06:55:26Z</time>
      </trkpt>
      <trkpt lat="47.27179" lon="-2.20246">
        <ele>19</ele>
        <time>2016-07-22T06:55:35Z</time>
      </trkpt>
      <trkpt lat="47.27191" lon="-2.20244">
        <ele>23</ele>
        <time>2016-07-22T06:55:38Z</time>
      </trkpt>
      <trkpt lat="47.27208" lon="-2.20239">
        <ele>21</ele>
        <time>2016-07-22T06:55:42Z</time>
      </trkpt>
      <trkpt lat="47.27217" lon="-2.20234">
        <ele>25</ele>
        <time>2016-07-22T06:55:46Z</time>
      </trkpt>
      <trkpt lat="47.27229" lon="-2.20223">
        <ele>29</ele>
        <time>2016-07-22T06:55:51Z</time>
      </trkpt>
      <trkpt lat="47.27262" lon="-2.20232">
        <ele>20</ele>
        <time>2016-07-22T06:56:00Z</time>
      </trkpt>
      <trkpt lat="47.27264" lon="-2.20233">
        <ele>17</ele>
        <time>2016-07-22T06:56:03Z</time>
      </trkpt>
      <trkpt lat="47.27264" lon="-2.20232">
        <ele>16</ele>
        <time>2016-07-22T06:56:08Z</time>
      </trkpt>
      <trkpt lat="47.27265" lon="-2.20236">
        <ele>13</ele>
        <time>2016-07-22T06:56:11Z</time>
      </trkpt>
      <trkpt lat="47.27265" lon="-2.20237">
        <ele>13</ele>
        <time>2016-07-22T06:56:16Z</time>
      </trkpt>
      <trkpt lat="47.27266" lon="-2.20236">
        <ele>14</ele>
        <time>2016-07-22T06:56:21Z</time>
      </trkpt>
      <trkpt lat="47.27268" lon="-2.20218">
        <ele>14</ele>
        <time>2016-07-22T06:56:28Z</time>
      </trkpt>
      <trkpt lat="47.27266" lon="-2.20195">
        <ele>15</ele>
        <time>2016-07-22T06:56:35Z</time>
      </trkpt>
      <trkpt lat="47.27264" lon="-2.20187">
        <ele>15</ele>
        <time>2016-07-22T06:56:38Z</time>
      </trkpt>
      <trkpt lat="47.27263" lon="-2.20178">
        <ele>17</ele>
        <time>2016-07-22T06:56:41Z</time>
      </trkpt>
      <trkpt lat="47.27268" lon="-2.20145">
        <ele>15</ele>
        <time>2016-07-22T06:56:49Z</time>
      </trkpt>
      <trkpt lat="47.27276" lon="-2.2013">
        <ele>13</ele>
        <time>2016-07-22T06:56:54Z</time>
      </trkpt>
      <trkpt lat="47.27277" lon="-2.20125">
        <ele>12</ele>
        <time>2016-07-22T06:56:58Z</time>
      </trkpt>
      <trkpt lat="47.27277" lon="-2.20117">
        <ele>14</ele>
        <time>2016-07-22T06:57:02Z</time>
      </trkpt>
      <trkpt lat="47.27276" lon="-2.20102">
        <ele>15</ele>
        <time>2016-07-22T06:57:06Z</time>
      </trkpt>
      <trkpt lat="47.27268" lon="-2.20066">
        <ele>14</ele>
        <time>2016-07-22T06:57:14Z</time>
      </trkpt>
      <trkpt lat="47.27267" lon="-2.20059">
        <ele>14</ele>
        <time>2016-07-22T06:57:16Z</time>
      </trkpt>
      <trkpt lat="47.2726" lon="-2.20045">
        <ele>14</ele>
        <time>2016-07-22T06:57:21Z</time>
      </trkpt>
      <trkpt lat="47.27258" lon="-2.20039">
        <ele>16</ele>
        <time>2016-07-22T06:57:26Z</time>
      </trkpt>
      <trkpt lat="47.27259" lon="-2.20039">
        <ele>18</ele>
        <time>2016-07-22T06:57:31Z</time>
      </trkpt>
      <trkpt lat="47.2725" lon="-2.20013">
        <ele>17</ele>
        <time>2016-07-22T06:57:39Z</time>
      </trkpt>
      <trkpt lat="47.27248" lon="-2.20004">
        <ele>18</ele>
        <time>2016-07-22T06:57:41Z</time>
      </trkpt>
      <trkpt lat="47.27243" lon="-2.19966">
        <ele>14</ele>
        <time>2016-07-22T06:57:48Z</time>
      </trkpt>
      <trkpt lat="47.27239" lon="-2.19951">
        <ele>13</ele>
        <time>2016-07-22T06:57:51Z</time>
      </trkpt>
      <trkpt lat="47.27236" lon="-2.19916">
        <ele>12</ele>
        <time>2016-07-22T06:57:57Z</time>
      </trkpt>
      <trkpt lat="47.27241" lon="-2.1988">
        <ele>11</ele>
        <time>2016-07-22T06:58:03Z</time>
      </trkpt>
      <trkpt lat="47.27253" lon="-2.19862">
        <ele>11</ele>
        <time>2016-07-22T06:58:08Z</time>
      </trkpt>
      <trkpt lat="47.2726" lon="-2.19857">
        <ele>10</ele>
        <time>2016-07-22T06:58:11Z</time>
      </trkpt>
      <trkpt lat="47.27274" lon="-2.19855">
        <ele>9</ele>
        <time>2016-07-22T06:58:16Z</time>
      </trkpt>
      <trkpt lat="47.27288" lon="-2.19844">
        <ele>9</ele>
        <time>2016-07-22T06:58:24Z</time>
      </trkpt>
      <trkpt lat="47.27289" lon="-2.19836">
        <ele>8</ele>
        <time>2016-07-22T06:58:27Z</time>
      </trkpt>
      <trkpt lat="47.27288" lon="-2.19823">
        <ele>7</ele>
        <time>2016-07-22T06:58:31Z</time>
      </trkpt>
      <trkpt lat="47.27283" lon="-2.19812">
        <ele>3</ele>
        <time>2016-07-22T06:58:36Z</time>
      </trkpt>
      <trkpt lat="47.27266" lon="-2.19802">
        <ele>6</ele>
        <time>2016-07-22T06:58:45Z</time>
      </trkpt>
      <trkpt lat="47.27264" lon="-2.198">
        <ele>3</ele>
        <time>2016-07-22T06:58:47Z</time>
      </trkpt>
      <trkpt lat="47.27265" lon="-2.198">
        <ele>4</ele>
        <time>2016-07-22T06:58:52Z</time>
      </trkpt>
    </trkseg>
  </trk>
  <trk>
    <name><![CDATA[Sequence 16]]></name>
    <trkseg>
      <trkpt lat="47.2729" lon="-2.19838">
        <ele>14</ele>
        <time>2016-07-22T07:36:29Z</time>
      </trkpt>
      <trkpt lat="47.2729" lon="-2.1984">
        <ele>13</ele>
        <time>2016-07-22T07:36:33Z</time>
      </trkpt>
      <trkpt lat="47.27289" lon="-2.19845">
        <ele>13</ele>
        <time>2016-07-22T07:36:35Z</time>
      </trkpt>
      <trkpt lat="47.27278" lon="-2.19855">
        <ele>11</ele>
        <time>2016-07-22T07:36:40Z</time>
      </trkpt>
      <trkpt lat="47.27261" lon="-2.19861">
        <ele>10</ele>
        <time>2016-07-22T07:36:45Z</time>
      </trkpt>
      <trkpt lat="47.27243" lon="-2.19871">
        <ele>11</ele>
        <time>2016-07-22T07:36:50Z</time>
      </trkpt>
      <trkpt lat="47.27235" lon="-2.19893">
        <ele>9</ele>
        <time>2016-07-22T07:36:55Z</time>
      </trkpt>
      <trkpt lat="47.27238" lon="-2.19922">
        <ele>10</ele>
        <time>2016-07-22T07:37:00Z</time>
      </trkpt>
      <trkpt lat="47.27245" lon="-2.19958">
        <ele>12</ele>
        <time>2016-07-22T07:37:05Z</time>
      </trkpt>
      <trkpt lat="47.2725" lon="-2.19991">
        <ele>13</ele>
        <time>2016-07-22T07:37:10Z</time>
      </trkpt>
      <trkpt lat="47.27254" lon="-2.20026">
        <ele>12</ele>
        <time>2016-07-22T07:37:15Z</time>
      </trkpt>
      <trkpt lat="47.27258" lon="-2.2006">
        <ele>12</ele>
        <time>2016-07-22T07:37:20Z</time>
      </trkpt>
      <trkpt lat="47.27263" lon="-2.20096">
        <ele>12</ele>
        <time>2016-07-22T07:37:25Z</time>
      </trkpt>
      <trkpt lat="47.27269" lon="-2.20134">
        <ele>12</ele>
        <time>2016-07-22T07:37:30Z</time>
      </trkpt>
      <trkpt lat="47.27272" lon="-2.2017">
        <ele>11</ele>
        <time>2016-07-22T07:37:35Z</time>
      </trkpt>
      <trkpt lat="47.27277" lon="-2.20214">
        <ele>9</ele>
        <time>2016-07-22T07:37:41Z</time>
      </trkpt>
      <trkpt lat="47.27286" lon="-2.20237">
        <ele>10</ele>
        <time>2016-07-22T07:37:45Z</time>
      </trkpt>
      <trkpt lat="47.27295" lon="-2.2027">
        <ele>11</ele>
        <time>2016-07-22T07:37:50Z</time>
      </trkpt>
      <trkpt lat="47.273" lon="-2.20307">
        <ele>11</ele>
        <time>2016-07-22T07:37:55Z</time>
      </trkpt>
      <trkpt lat="47.27306" lon="-2.20355">
        <ele>12</ele>
        <time>2016-07-22T07:38:03Z</time>
      </trkpt>
      <trkpt lat="47.27308" lon="-2.20365">
        <ele>12</ele>
        <time>2016-07-22T07:38:05Z</time>
      </trkpt>
      <trkpt lat="47.27312" lon="-2.2039">
        <ele>13</ele>
        <time>2016-07-22T07:38:10Z</time>
      </trkpt>
      <trkpt lat="47.27316" lon="-2.20414">
        <ele>14</ele>
        <time>2016-07-22T07:38:15Z</time>
      </trkpt>
      <trkpt lat="47.27322" lon="-2.20437">
        <ele>15</ele>
        <time>2016-07-22T07:38:20Z</time>
      </trkpt>
      <trkpt lat="47.27324" lon="-2.20461">
        <ele>18</ele>
        <time>2016-07-22T07:38:25Z</time>
      </trkpt>
      <trkpt lat="47.27329" lon="-2.20498">
        <ele>19</ele>
        <time>2016-07-22T07:38:30Z</time>
      </trkpt>
      <trkpt lat="47.27333" lon="-2.20544">
        <ele>19</ele>
        <time>2016-07-22T07:38:36Z</time>
      </trkpt>
      <trkpt lat="47.27343" lon="-2.20601">
        <ele>25</ele>
        <time>2016-07-22T07:38:44Z</time>
      </trkpt>
      <trkpt lat="47.27342" lon="-2.20606">
        <ele>27</ele>
        <time>2016-07-22T07:38:45Z</time>
      </trkpt>
      <trkpt lat="47.27348" lon="-2.20642">
        <ele>35</ele>
        <time>2016-07-22T07:38:51Z</time>
      </trkpt>
      <trkpt lat="47.27352" lon="-2.20679">
        <ele>30</ele>
        <time>2016-07-22T07:38:56Z</time>
      </trkpt>
      <trkpt lat="47.27357" lon="-2.20708">
        <ele>29</ele>
        <time>2016-07-22T07:39:00Z</time>
      </trkpt>
      <trkpt lat="47.27364" lon="-2.20768">
        <ele>28</ele>
        <time>2016-07-22T07:39:09Z</time>
      </trkpt>
      <trkpt lat="47.27368" lon="-2.20804">
        <ele>26</ele>
        <time>2016-07-22T07:39:14Z</time>
      </trkpt>
      <trkpt lat="47.27368" lon="-2.20812">
        <ele>25</ele>
        <time>2016-07-22T07:39:15Z</time>
      </trkpt>
      <trkpt lat="47.27371" lon="-2.20866">
        <ele>21</ele>
        <time>2016-07-22T07:39:23Z</time>
      </trkpt>
      <trkpt lat="47.27371" lon="-2.20877">
        <ele>21</ele>
        <time>2016-07-22T07:39:25Z</time>
      </trkpt>
      <trkpt lat="47.27376" lon="-2.20909">
        <ele>25</ele>
        <time>2016-07-22T07:39:30Z</time>
      </trkpt>
      <trkpt lat="47.2738" lon="-2.2095">
        <ele>28</ele>
        <time>2016-07-22T07:39:36Z</time>
      </trkpt>
      <trkpt lat="47.27386" lon="-2.20978">
        <ele>29</ele>
        <time>2016-07-22T07:39:40Z</time>
      </trkpt>
      <trkpt lat="47.27395" lon="-2.21021">
        <ele>32</ele>
        <time>2016-07-22T07:39:46Z</time>
      </trkpt>
      <trkpt lat="47.27399" lon="-2.21053">
        <ele>32</ele>
        <time>2016-07-22T07:39:51Z</time>
      </trkpt>
      <trkpt lat="47.27403" lon="-2.21102">
        <ele>31</ele>
        <time>2016-07-22T07:39:58Z</time>
      </trkpt>
      <trkpt lat="47.27406" lon="-2.21116">
        <ele>30</ele>
        <time>2016-07-22T07:40:00Z</time>
      </trkpt>
      <trkpt lat="47.27405" lon="-2.21154">
        <ele>30</ele>
        <time>2016-07-22T07:40:05Z</time>
      </trkpt>
      <trkpt lat="47.27412" lon="-2.2119">
        <ele>30</ele>
        <time>2016-07-22T07:40:10Z</time>
      </trkpt>
      <trkpt lat="47.27422" lon="-2.21241">
        <ele>25</ele>
        <time>2016-07-22T07:40:17Z</time>
      </trkpt>
      <trkpt lat="47.27425" lon="-2.21262">
        <ele>24</ele>
        <time>2016-07-22T07:40:20Z</time>
      </trkpt>
      <trkpt lat="47.27431" lon="-2.21296">
        <ele>26</ele>
        <time>2016-07-22T07:40:25Z</time>
      </trkpt>
      <trkpt lat="47.27429" lon="-2.21327">
        <ele>25</ele>
        <time>2016-07-22T07:40:30Z</time>
      </trkpt>
      <trkpt lat="47.27433" lon="-2.21364">
        <ele>25</ele>
        <time>2016-07-22T07:40:38Z</time>
      </trkpt>
      <trkpt lat="47.27435" lon="-2.21379">
        <ele>23</ele>
        <time>2016-07-22T07:40:40Z</time>
      </trkpt>
      <trkpt lat="47.27437" lon="-2.21405">
        <ele>24</ele>
        <time>2016-07-22T07:40:45Z</time>
      </trkpt>
      <trkpt lat="47.27446" lon="-2.21446">
        <ele>22</ele>
        <time>2016-07-22T07:40:54Z</time>
      </trkpt>
      <trkpt lat="47.27447" lon="-2.21453">
        <ele>21</ele>
        <time>2016-07-22T07:40:55Z</time>
      </trkpt>
      <trkpt lat="47.27454" lon="-2.21495">
        <ele>20</ele>
        <time>2016-07-22T07:41:01Z</time>
      </trkpt>
      <trkpt lat="47.27457" lon="-2.21539">
        <ele>24</ele>
        <time>2016-07-22T07:41:07Z</time>
      </trkpt>
      <trkpt lat="47.2746" lon="-2.2156">
        <ele>26</ele>
        <time>2016-07-22T07:41:10Z</time>
      </trkpt>
      <trkpt lat="47.27466" lon="-2.21589">
        <ele>24</ele>
        <time>2016-07-22T07:41:15Z</time>
      </trkpt>
      <trkpt lat="47.27471" lon="-2.21643">
        <ele>19</ele>
        <time>2016-07-22T07:41:24Z</time>
      </trkpt>
      <trkpt lat="47.27473" lon="-2.21661">
        <ele>18</ele>
        <time>2016-07-22T07:41:27Z</time>
      </trkpt>
      <trkpt lat="47.27476" lon="-2.21678">
        <ele>17</ele>
        <time>2016-07-22T07:41:30Z</time>
      </trkpt>
      <trkpt lat="47.27485" lon="-2.21723">
        <ele>20</ele>
        <time>2016-07-22T07:41:37Z</time>
      </trkpt>
      <trkpt lat="47.2749" lon="-2.21753">
        <ele>22</ele>
        <time>2016-07-22T07:41:42Z</time>
      </trkpt>
      <trkpt lat="47.27494" lon="-2.2177">
        <ele>24</ele>
        <time>2016-07-22T07:41:45Z</time>
      </trkpt>
      <trkpt lat="47.27493" lon="-2.21774">
        <ele>27</ele>
        <time>2016-07-22T07:41:52Z</time>
      </trkpt>
      <trkpt lat="47.27494" lon="-2.21774">
        <ele>27</ele>
        <time>2016-07-22T07:41:55Z</time>
      </trkpt>
      <trkpt lat="47.27494" lon="-2.21778">
        <ele>27</ele>
        <time>2016-07-22T07:42:00Z</time>
      </trkpt>
      <trkpt lat="47.27497" lon="-2.21787">
        <ele>23</ele>
        <time>2016-07-22T07:42:05Z</time>
      </trkpt>
      <trkpt lat="47.2751" lon="-2.21784">
        <ele>23</ele>
        <time>2016-07-22T07:42:11Z</time>
      </trkpt>
      <trkpt lat="47.27525" lon="-2.21781">
        <ele>21</ele>
        <time>2016-07-22T07:42:15Z</time>
      </trkpt>
      <trkpt lat="47.27547" lon="-2.21776">
        <ele>19</ele>
        <time>2016-07-22T07:42:20Z</time>
      </trkpt>
      <trkpt lat="47.27577" lon="-2.21766">
        <ele>13</ele>
        <time>2016-07-22T07:42:26Z</time>
      </trkpt>
      <trkpt lat="47.27598" lon="-2.21761">
        <ele>10</ele>
        <time>2016-07-22T07:42:30Z</time>
      </trkpt>
      <trkpt lat="47.27622" lon="-2.21756">
        <ele>11</ele>
        <time>2016-07-22T07:42:35Z</time>
      </trkpt>
      <trkpt lat="47.27659" lon="-2.21746">
        <ele>5</ele>
        <time>2016-07-22T07:42:44Z</time>
      </trkpt>
      <trkpt lat="47.27662" lon="-2.21745">
        <ele>6</ele>
        <time>2016-07-22T07:42:45Z</time>
      </trkpt>
      <trkpt lat="47.27667" lon="-2.21742">
        <ele>7</ele>
        <time>2016-07-22T07:42:50Z</time>
      </trkpt>
    </trkseg>
  </trk>
  <trk>
    <name><![CDATA[Sequence 17]]></name>
    <trkseg>
      <trkpt lat="47.27666" lon="-2.21759">
        <ele>9</ele>
        <time>2016-07-22T07:49:42Z</time>
      </trkpt>
      <trkpt lat="47.27666" lon="-2.21758">
        <ele>9</ele>
        <time>2016-07-22T07:49:47Z</time>
      </trkpt>
      <trkpt lat="47.2767" lon="-2.21745">
        <ele>12</ele>
        <time>2016-07-22T07:49:52Z</time>
      </trkpt>
      <trkpt lat="47.27683" lon="-2.2174">
        <ele>12</ele>
        <time>2016-07-22T07:49:57Z</time>
      </trkpt>
      <trkpt lat="47.27701" lon="-2.21735">
        <ele>14</ele>
        <time>2016-07-22T07:50:03Z</time>
      </trkpt>
      <trkpt lat="47.27716" lon="-2.21731">
        <ele>18</ele>
        <time>2016-07-22T07:50:07Z</time>
      </trkpt>
      <trkpt lat="47.2774" lon="-2.21723">
        <ele>14</ele>
        <time>2016-07-22T07:50:12Z</time>
      </trkpt>
      <trkpt lat="47.27773" lon="-2.21713">
        <ele>18</ele>
        <time>2016-07-22T07:50:20Z</time>
      </trkpt>
      <trkpt lat="47.27778" lon="-2.21711">
        <ele>20</ele>
        <time>2016-07-22T07:50:22Z</time>
      </trkpt>
      <trkpt lat="47.27811" lon="-2.21707">
        <ele>24</ele>
        <time>2016-07-22T07:50:30Z</time>
      </trkpt>
      <trkpt lat="47.27829" lon="-2.21701">
        <ele>22</ele>
        <time>2016-07-22T07:50:34Z</time>
      </trkpt>
      <trkpt lat="47.27841" lon="-2.21699">
        <ele>22</ele>
        <time>2016-07-22T07:50:37Z</time>
      </trkpt>
      <trkpt lat="47.27865" lon="-2.21693">
        <ele>22</ele>
        <time>2016-07-22T07:50:46Z</time>
      </trkpt>
      <trkpt lat="47.27865" lon="-2.21693">
        <ele>22</ele>
        <time>2016-07-22T07:50:47Z</time>
      </trkpt>
      <trkpt lat="47.27869" lon="-2.21689">
        <ele>17</ele>
        <time>2016-07-22T07:50:53Z</time>
      </trkpt>
      <trkpt lat="47.27869" lon="-2.21693">
        <ele>14</ele>
        <time>2016-07-22T07:50:57Z</time>
      </trkpt>
      <trkpt lat="47.27869" lon="-2.21696">
        <ele>13</ele>
        <time>2016-07-22T07:51:02Z</time>
      </trkpt>
      <trkpt lat="47.2787" lon="-2.21694">
        <ele>15</ele>
        <time>2016-07-22T07:51:08Z</time>
      </trkpt>
      <trkpt lat="47.27884" lon="-2.21686">
        <ele>13</ele>
        <time>2016-07-22T07:51:13Z</time>
      </trkpt>
      <trkpt lat="47.27905" lon="-2.21676">
        <ele>12</ele>
        <time>2016-07-22T07:51:18Z</time>
      </trkpt>
      <trkpt lat="47.27948" lon="-2.21667">
        <ele>16</ele>
        <time>2016-07-22T07:51:26Z</time>
      </trkpt>
      <trkpt lat="47.27955" lon="-2.21664">
        <ele>14</ele>
        <time>2016-07-22T07:51:27Z</time>
      </trkpt>
      <trkpt lat="47.27999" lon="-2.21655">
        <ele>16</ele>
        <time>2016-07-22T07:51:35Z</time>
      </trkpt>
      <trkpt lat="47.28031" lon="-2.21647">
        <ele>16</ele>
        <time>2016-07-22T07:51:41Z</time>
      </trkpt>
      <trkpt lat="47.28056" lon="-2.2164">
        <ele>14</ele>
        <time>2016-07-22T07:51:46Z</time>
      </trkpt>
      <trkpt lat="47.28065" lon="-2.21637">
        <ele>15</ele>
        <time>2016-07-22T07:51:48Z</time>
      </trkpt>
      <trkpt lat="47.28085" lon="-2.21632">
        <ele>15</ele>
        <time>2016-07-22T07:51:52Z</time>
      </trkpt>
      <trkpt lat="47.28117" lon="-2.21623">
        <ele>13</ele>
        <time>2016-07-22T07:51:58Z</time>
      </trkpt>
      <trkpt lat="47.28137" lon="-2.21617">
        <ele>12</ele>
        <time>2016-07-22T07:52:02Z</time>
      </trkpt>
      <trkpt lat="47.28161" lon="-2.2161">
        <ele>10</ele>
        <time>2016-07-22T07:52:07Z</time>
      </trkpt>
      <trkpt lat="47.28208" lon="-2.216">
        <ele>11</ele>
        <time>2016-07-22T07:52:16Z</time>
      </trkpt>
      <trkpt lat="47.28214" lon="-2.21599">
        <ele>10</ele>
        <time>2016-07-22T07:52:17Z</time>
      </trkpt>
      <trkpt lat="47.28238" lon="-2.21589">
        <ele>14</ele>
        <time>2016-07-22T07:52:22Z</time>
      </trkpt>
      <trkpt lat="47.28269" lon="-2.21586">
        <ele>11</ele>
        <time>2016-07-22T07:52:28Z</time>
      </trkpt>
      <trkpt lat="47.28297" lon="-2.21577">
        <ele>14</ele>
        <time>2016-07-22T07:52:36Z</time>
      </trkpt>
      <trkpt lat="47.28297" lon="-2.21575">
        <ele>15</ele>
        <time>2016-07-22T07:52:39Z</time>
      </trkpt>
      <trkpt lat="47.28306" lon="-2.21573">
        <ele>16</ele>
        <time>2016-07-22T07:52:46Z</time>
      </trkpt>
      <trkpt lat="47.28317" lon="-2.21574">
        <ele>15</ele>
        <time>2016-07-22T07:52:49Z</time>
      </trkpt>
      <trkpt lat="47.28339" lon="-2.21563">
        <ele>13</ele>
        <time>2016-07-22T07:52:53Z</time>
      </trkpt>
      <trkpt lat="47.28363" lon="-2.21555">
        <ele>14</ele>
        <time>2016-07-22T07:52:57Z</time>
      </trkpt>
      <trkpt lat="47.28401" lon="-2.21545">
        <ele>11</ele>
        <time>2016-07-22T07:53:02Z</time>
      </trkpt>
      <trkpt lat="47.2843" lon="-2.21549">
        <ele>10</ele>
        <time>2016-07-22T07:53:07Z</time>
      </trkpt>
      <trkpt lat="47.28466" lon="-2.2153">
        <ele>10</ele>
        <time>2016-07-22T07:53:13Z</time>
      </trkpt>
      <trkpt lat="47.2851" lon="-2.21512">
        <ele>8</ele>
        <time>2016-07-22T07:53:21Z</time>
      </trkpt>
      <trkpt lat="47.28519" lon="-2.21513">
        <ele>7</ele>
        <time>2016-07-22T07:53:23Z</time>
      </trkpt>
      <trkpt lat="47.28546" lon="-2.21505">
        <ele>11</ele>
        <time>2016-07-22T07:53:30Z</time>
      </trkpt>
      <trkpt lat="47.2856" lon="-2.21502">
        <ele>10</ele>
        <time>2016-07-22T07:53:33Z</time>
      </trkpt>
      <trkpt lat="47.28578" lon="-2.21493">
        <ele>6</ele>
        <time>2016-07-22T07:53:37Z</time>
      </trkpt>
      <trkpt lat="47.28598" lon="-2.2149">
        <ele>7</ele>
        <time>2016-07-22T07:53:42Z</time>
      </trkpt>
      <trkpt lat="47.28618" lon="-2.21484">
        <ele>6</ele>
        <time>2016-07-22T07:53:47Z</time>
      </trkpt>
      <trkpt lat="47.28623" lon="-2.2148">
        <ele>9</ele>
        <time>2016-07-22T07:53:52Z</time>
      </trkpt>
      <trkpt lat="47.28626" lon="-2.21475">
        <ele>9</ele>
        <time>2016-07-22T07:53:57Z</time>
      </trkpt>
      <trkpt lat="47.28626" lon="-2.21435">
        <ele>4</ele>
        <time>2016-07-22T07:54:05Z</time>
      </trkpt>
      <trkpt lat="47.28625" lon="-2.21423">
        <ele>2</ele>
        <time>2016-07-22T07:54:07Z</time>
      </trkpt>
      <trkpt lat="47.2862" lon="-2.21392">
        <ele>2</ele>
        <time>2016-07-22T07:54:12Z</time>
      </trkpt>
      <trkpt lat="47.28614" lon="-2.21366">
        <ele>1</ele>
        <time>2016-07-22T07:54:17Z</time>
      </trkpt>
      <trkpt lat="47.28616" lon="-2.21338">
        <ele>1</ele>
        <time>2016-07-22T07:54:22Z</time>
      </trkpt>
      <trkpt lat="47.28624" lon="-2.21302">
        <ele>2</ele>
        <time>2016-07-22T07:54:27Z</time>
      </trkpt>
      <trkpt lat="47.2863" lon="-2.2126">
        <ele>3</ele>
        <time>2016-07-22T07:54:32Z</time>
      </trkpt>
      <trkpt lat="47.28627" lon="-2.21206">
        <ele>1</ele>
        <time>2016-07-22T07:54:41Z</time>
      </trkpt>
      <trkpt lat="47.28626" lon="-2.21187">
        <ele>6.4</ele>
        <time>2016-07-22T07:54:44Z</time>
      </trkpt>
      <trkpt lat="47.28623" lon="-2.2117">
        <ele>1</ele>
        <time>2016-07-22T07:54:47Z</time>
      </trkpt>
      <trkpt lat="47.28619" lon="-2.21147">
        <ele>3</ele>
        <time>2016-07-22T07:54:52Z</time>
      </trkpt>
      <trkpt lat="47.2861" lon="-2.21127">
        <ele>4</ele>
        <time>2016-07-22T07:55:01Z</time>
      </trkpt>
      <trkpt lat="47.28615" lon="-2.21127">
        <ele>6</ele>
        <time>2016-07-22T07:55:03Z</time>
      </trkpt>
      <trkpt lat="47.28617" lon="-2.21131">
        <ele>8</ele>
        <time>2016-07-22T07:55:07Z</time>
      </trkpt>
      <trkpt lat="47.28621" lon="-2.21138">
        <ele>14</ele>
        <time>2016-07-22T07:55:14Z</time>
      </trkpt>
      <trkpt lat="47.28621" lon="-2.21139">
        <ele>14</ele>
        <time>2016-07-22T07:55:17Z</time>
      </trkpt>
      <trkpt lat="47.28618" lon="-2.21142">
        <ele>14</ele>
        <time>2016-07-22T07:55:23Z</time>
      </trkpt>
      <trkpt lat="47.28619" lon="-2.21141">
        <ele>13</ele>
        <time>2016-07-22T07:55:27Z</time>
      </trkpt>
      <trkpt lat="47.28617" lon="-2.21129">
        <ele>13</ele>
        <time>2016-07-22T07:55:32Z</time>
      </trkpt>
      <trkpt lat="47.28614" lon="-2.21123">
        <ele>11</ele>
        <time>2016-07-22T07:55:40Z</time>
      </trkpt>
      <trkpt lat="47.28614" lon="-2.21124">
        <ele>10</ele>
        <time>2016-07-22T07:55:42Z</time>
      </trkpt>
      <trkpt lat="47.28615" lon="-2.21124">
        <ele>10</ele>
        <time>2016-07-22T07:55:51Z</time>
      </trkpt>
      <trkpt lat="47.28615" lon="-2.21124">
        <ele>10</ele>
        <time>2016-07-22T07:55:52Z</time>
      </trkpt>
      <trkpt lat="47.28615" lon="-2.21124">
        <ele>10</ele>
        <time>2016-07-22T07:55:57Z</time>
      </trkpt>
      <trkpt lat="47.28611" lon="-2.21117">
        <ele>12</ele>
        <time>2016-07-22T07:56:02Z</time>
      </trkpt>
      <trkpt lat="47.28606" lon="-2.21067">
        <ele>14</ele>
        <time>2016-07-22T07:56:11Z</time>
      </trkpt>
      <trkpt lat="47.28606" lon="-2.21061">
        <ele>14</ele>
        <time>2016-07-22T07:56:12Z</time>
      </trkpt>
      <trkpt lat="47.28601" lon="-2.2102">
        <ele>16</ele>
        <time>2016-07-22T07:56:18Z</time>
      </trkpt>
      <trkpt lat="47.28596" lon="-2.2099">
        <ele>11</ele>
        <time>2016-07-22T07:56:22Z</time>
      </trkpt>
      <trkpt lat="47.28596" lon="-2.20958">
        <ele>10</ele>
        <time>2016-07-22T07:56:27Z</time>
      </trkpt>
      <trkpt lat="47.2859" lon="-2.20952">
        <ele>4</ele>
        <time>2016-07-22T07:56:32Z</time>
      </trkpt>
      <trkpt lat="47.28587" lon="-2.20934">
        <ele>4</ele>
        <time>2016-07-22T07:56:40Z</time>
      </trkpt>
      <trkpt lat="47.28588" lon="-2.20932">
        <ele>5</ele>
        <time>2016-07-22T07:56:42Z</time>
      </trkpt>
    </trkseg>
  </trk>
  <trk>
    <name><![CDATA[Sequence 18]]></name>
    <trkseg>
      <trkpt lat="47.2466" lon="-2.16298">
        <ele>-7</ele>
        <time>2016-07-22T11:38:31Z</time>
      </trkpt>
      <trkpt lat="47.2465" lon="-2.16298">
        <ele>-8</ele>
        <time>2016-07-22T11:38:36Z</time>
      </trkpt>
      <trkpt lat="47.24647" lon="-2.16298">
        <ele>-8</ele>
        <time>2016-07-22T11:38:37Z</time>
      </trkpt>
      <trkpt lat="47.24618" lon="-2.16294">
        <ele>-5</ele>
        <time>2016-07-22T11:38:44Z</time>
      </trkpt>
      <trkpt lat="47.24599" lon="-2.16291">
        <ele>-2</ele>
        <time>2016-07-22T11:38:50Z</time>
      </trkpt>
      <trkpt lat="47.2459" lon="-2.16288">
        <ele>10.4</ele>
        <time>2016-07-22T11:38:52Z</time>
      </trkpt>
      <trkpt lat="47.24566" lon="-2.16287">
        <ele>-2</ele>
        <time>2016-07-22T11:38:57Z</time>
      </trkpt>
      <trkpt lat="47.24545" lon="-2.16302">
        <ele>-13</ele>
        <time>2016-07-22T11:39:02Z</time>
      </trkpt>
      <trkpt lat="47.24516" lon="-2.16312">
        <ele>-28</ele>
        <time>2016-07-22T11:39:10Z</time>
      </trkpt>
      <trkpt lat="47.24509" lon="-2.16312">
        <ele>-28</ele>
        <time>2016-07-22T11:39:12Z</time>
      </trkpt>
      <trkpt lat="47.24491" lon="-2.16257">
        <ele>-38</ele>
        <time>2016-07-22T11:39:20Z</time>
      </trkpt>
      <trkpt lat="47.24499" lon="-2.16238">
        <ele>-38</ele>
        <time>2016-07-22T11:39:24Z</time>
      </trkpt>
      <trkpt lat="47.24498" lon="-2.16231">
        <ele>-38</ele>
        <time>2016-07-22T11:39:31Z</time>
      </trkpt>
    </trkseg>
  </trk>
  <trk>
    <name><![CDATA[Sequence 19]]></name>
    <trkseg>
      <trkpt lat="47.24436" lon="-2.1619">
        <ele>-38</ele>
        <time>2016-07-22T11:40:50Z</time>
      </trkpt>
      <trkpt lat="47.24422" lon="-2.16169">
        <ele>-38</ele>
        <time>2016-07-22T11:40:55Z</time>
      </trkpt>
      <trkpt lat="47.24409" lon="-2.16145">
        <ele>-39</ele>
        <time>2016-07-22T11:41:00Z</time>
      </trkpt>
      <trkpt lat="47.24396" lon="-2.16115">
        <ele>-42</ele>
        <time>2016-07-22T11:41:05Z</time>
      </trkpt>
      <trkpt lat="47.24389" lon="-2.16109">
        <ele>-39</ele>
        <time>2016-07-22T11:41:14Z</time>
      </trkpt>
      <trkpt lat="47.24387" lon="-2.16115">
        <ele>-40</ele>
        <time>2016-07-22T11:41:19Z</time>
      </trkpt>
      <trkpt lat="47.24386" lon="-2.16115">
        <ele>-40</ele>
        <time>2016-07-22T11:41:22Z</time>
      </trkpt>
    </trkseg>
  </trk>
  <trk>
    <name><![CDATA[Sequence 20]]></name>
    <trkseg>
      <trkpt lat="47.24537" lon="-2.1632">
        <ele>83</ele>
        <time>2016-07-22T11:43:01Z</time>
      </trkpt>
      <trkpt lat="47.24556" lon="-2.1634">
        <ele>77</ele>
        <time>2016-07-22T11:43:06Z</time>
      </trkpt>
      <trkpt lat="47.24573" lon="-2.16381">
        <ele>74</ele>
        <time>2016-07-22T11:43:12Z</time>
      </trkpt>
      <trkpt lat="47.24576" lon="-2.16386">
        <ele>73</ele>
        <time>2016-07-22T11:43:13Z</time>
      </trkpt>
      <trkpt lat="47.24592" lon="-2.16416">
        <ele>71</ele>
        <time>2016-07-22T11:43:18Z</time>
      </trkpt>
      <trkpt lat="47.24621" lon="-2.16464">
        <ele>65</ele>
        <time>2016-07-22T11:43:27Z</time>
      </trkpt>
      <trkpt lat="47.24624" lon="-2.16468">
        <ele>65</ele>
        <time>2016-07-22T11:43:28Z</time>
      </trkpt>
      <trkpt lat="47.24642" lon="-2.16491">
        <ele>62</ele>
        <time>2016-07-22T11:43:33Z</time>
      </trkpt>
      <trkpt lat="47.24651" lon="-2.16525">
        <ele>58</ele>
        <time>2016-07-22T11:43:38Z</time>
      </trkpt>
      <trkpt lat="47.24665" lon="-2.16556">
        <ele>53</ele>
        <time>2016-07-22T11:43:44Z</time>
      </trkpt>
      <trkpt lat="47.24674" lon="-2.16578">
        <ele>49</ele>
        <time>2016-07-22T11:43:48Z</time>
      </trkpt>
      <trkpt lat="47.24682" lon="-2.16616">
        <ele>45</ele>
        <time>2016-07-22T11:43:55Z</time>
      </trkpt>
      <trkpt lat="47.24694" lon="-2.16638">
        <ele>33</ele>
        <time>2016-07-22T11:44:01Z</time>
      </trkpt>
      <trkpt lat="47.24705" lon="-2.16645">
        <ele>28</ele>
        <time>2016-07-22T11:44:04Z</time>
      </trkpt>
      <trkpt lat="47.24708" lon="-2.16673">
        <ele>22</ele>
        <time>2016-07-22T11:44:09Z</time>
      </trkpt>
      <trkpt lat="47.24711" lon="-2.16718">
        <ele>10</ele>
        <time>2016-07-22T11:44:16Z</time>
      </trkpt>
      <trkpt lat="47.24713" lon="-2.16729">
        <ele>8</ele>
        <time>2016-07-22T11:44:18Z</time>
      </trkpt>
      <trkpt lat="47.24719" lon="-2.16767">
        <ele>-12</ele>
        <time>2016-07-22T11:44:23Z</time>
      </trkpt>
      <trkpt lat="47.24724" lon="-2.16802">
        <ele>-28</ele>
        <time>2016-07-22T11:44:28Z</time>
      </trkpt>
      <trkpt lat="47.2473" lon="-2.16837">
        <ele>-38</ele>
        <time>2016-07-22T11:44:33Z</time>
      </trkpt>
      <trkpt lat="47.24732" lon="-2.16861">
        <ele>-38</ele>
        <time>2016-07-22T11:44:38Z</time>
      </trkpt>
      <trkpt lat="47.24717" lon="-2.16871">
        <ele>-32</ele>
        <time>2016-07-22T11:44:47Z</time>
      </trkpt>
      <trkpt lat="47.24717" lon="-2.16871">
        <ele>-31</ele>
        <time>2016-07-22T11:44:50Z</time>
      </trkpt>
      <trkpt lat="47.24718" lon="-2.16871">
        <ele>-30</ele>
        <time>2016-07-22T11:44:53Z</time>
      </trkpt>
      <trkpt lat="47.24718" lon="-2.1687">
        <ele>-26</ele>
        <time>2016-07-22T11:44:58Z</time>
      </trkpt>
      <trkpt lat="47.24716" lon="-2.16871">
        <ele>-24</ele>
        <time>2016-07-22T11:45:07Z</time>
      </trkpt>
      <trkpt lat="47.24716" lon="-2.1687">
        <ele>-24</ele>
        <time>2016-07-22T11:45:08Z</time>
      </trkpt>
      <trkpt lat="47.24717" lon="-2.16867">
        <ele>-21</ele>
        <time>2016-07-22T11:45:13Z</time>
      </trkpt>
      <trkpt lat="47.2472" lon="-2.16868">
        <ele>-19</ele>
        <time>2016-07-22T11:45:18Z</time>
      </trkpt>
      <trkpt lat="47.24723" lon="-2.1687">
        <ele>-18</ele>
        <time>2016-07-22T11:45:23Z</time>
      </trkpt>
      <trkpt lat="47.24723" lon="-2.16868">
        <ele>-16</ele>
        <time>2016-07-22T11:45:28Z</time>
      </trkpt>
      <trkpt lat="47.24724" lon="-2.16868">
        <ele>-16</ele>
        <time>2016-07-22T11:45:33Z</time>
      </trkpt>
      <trkpt lat="47.24724" lon="-2.16873">
        <ele>-11</ele>
        <time>2016-07-22T11:45:38Z</time>
      </trkpt>
      <trkpt lat="47.24729" lon="-2.16889">
        <ele>-20</ele>
        <time>2016-07-22T11:45:45Z</time>
      </trkpt>
      <trkpt lat="47.24736" lon="-2.16895">
        <ele>-21</ele>
        <time>2016-07-22T11:45:52Z</time>
      </trkpt>
      <trkpt lat="47.24736" lon="-2.16895">
        <ele>-21</ele>
        <time>2016-07-22T11:45:53Z</time>
      </trkpt>
      <trkpt lat="47.24744" lon="-2.16904">
        <ele>-28</ele>
        <time>2016-07-22T11:46:00Z</time>
      </trkpt>
      <trkpt lat="47.24748" lon="-2.1691">
        <ele>-32</ele>
        <time>2016-07-22T11:46:03Z</time>
      </trkpt>
      <trkpt lat="47.24751" lon="-2.16925">
        <ele>-26</ele>
        <time>2016-07-22T11:46:11Z</time>
      </trkpt>
      <trkpt lat="47.24752" lon="-2.16929">
        <ele>-26</ele>
        <time>2016-07-22T11:46:13Z</time>
      </trkpt>
      <trkpt lat="47.2475" lon="-2.16939">
        <ele>-26</ele>
        <time>2016-07-22T11:46:18Z</time>
      </trkpt>
    </trkseg>
  </trk>
  <trk>
    <name><![CDATA[Sequence 21]]></name>
    <trkseg>
      <trkpt lat="47.24732" lon="-2.16859">
        <ele>3</ele>
        <time>2016-07-22T12:00:29Z</time>
      </trkpt>
      <trkpt lat="47.24737" lon="-2.16876">
        <ele>2</ele>
        <time>2016-07-22T12:00:33Z</time>
      </trkpt>
      <trkpt lat="47.24739" lon="-2.16897">
        <ele>4</ele>
        <time>2016-07-22T12:00:38Z</time>
      </trkpt>
      <trkpt lat="47.24749" lon="-2.16941">
        <ele>3</ele>
        <time>2016-07-22T12:00:46Z</time>
      </trkpt>
      <trkpt lat="47.24751" lon="-2.16951">
        <ele>4</ele>
        <time>2016-07-22T12:00:48Z</time>
      </trkpt>
      <trkpt lat="47.24724" lon="-2.16965">
        <ele>6</ele>
        <time>2016-07-22T12:00:56Z</time>
      </trkpt>
      <trkpt lat="47.24714" lon="-2.16965">
        <ele>7</ele>
        <time>2016-07-22T12:00:58Z</time>
      </trkpt>
      <trkpt lat="47.24681" lon="-2.16963">
        <ele>7</ele>
        <time>2016-07-22T12:01:05Z</time>
      </trkpt>
      <trkpt lat="47.24669" lon="-2.16964">
        <ele>8</ele>
        <time>2016-07-22T12:01:08Z</time>
      </trkpt>
      <trkpt lat="47.24648" lon="-2.16962">
        <ele>9</ele>
        <time>2016-07-22T12:01:13Z</time>
      </trkpt>
      <trkpt lat="47.24626" lon="-2.16961">
        <ele>9</ele>
        <time>2016-07-22T12:01:18Z</time>
      </trkpt>
      <trkpt lat="47.24602" lon="-2.16953">
        <ele>8</ele>
        <time>2016-07-22T12:01:23Z</time>
      </trkpt>
      <trkpt lat="47.24563" lon="-2.16958">
        <ele>10</ele>
        <time>2016-07-22T12:01:30Z</time>
      </trkpt>
      <trkpt lat="47.24541" lon="-2.16961">
        <ele>10</ele>
        <time>2016-07-22T12:01:34Z</time>
      </trkpt>
      <trkpt lat="47.24519" lon="-2.16961">
        <ele>12</ele>
        <time>2016-07-22T12:01:38Z</time>
      </trkpt>
      <trkpt lat="47.24479" lon="-2.16967">
        <ele>13</ele>
        <time>2016-07-22T12:01:46Z</time>
      </trkpt>
      <trkpt lat="47.24469" lon="-2.16972">
        <ele>13</ele>
        <time>2016-07-22T12:01:48Z</time>
      </trkpt>
      <trkpt lat="47.24448" lon="-2.16986">
        <ele>11</ele>
        <time>2016-07-22T12:01:53Z</time>
      </trkpt>
      <trkpt lat="47.24429" lon="-2.16998">
        <ele>10</ele>
        <time>2016-07-22T12:01:58Z</time>
      </trkpt>
      <trkpt lat="47.24422" lon="-2.17014">
        <ele>9</ele>
        <time>2016-07-22T12:02:03Z</time>
      </trkpt>
      <trkpt lat="47.2441" lon="-2.1703">
        <ele>6</ele>
        <time>2016-07-22T12:02:08Z</time>
      </trkpt>
      <trkpt lat="47.24393" lon="-2.17033">
        <ele>7</ele>
        <time>2016-07-22T12:02:13Z</time>
      </trkpt>
      <trkpt lat="47.24371" lon="-2.17035">
        <ele>5</ele>
        <time>2016-07-22T12:02:18Z</time>
      </trkpt>
      <trkpt lat="47.24339" lon="-2.17038">
        <ele>7</ele>
        <time>2016-07-22T12:02:25Z</time>
      </trkpt>
      <trkpt lat="47.24324" lon="-2.1704">
        <ele>8</ele>
        <time>2016-07-22T12:02:28Z</time>
      </trkpt>
      <trkpt lat="47.24301" lon="-2.17043">
        <ele>8</ele>
        <time>2016-07-22T12:02:33Z</time>
      </trkpt>
      <trkpt lat="47.24281" lon="-2.17046">
        <ele>8</ele>
        <time>2016-07-22T12:02:38Z</time>
      </trkpt>
      <trkpt lat="47.24259" lon="-2.1705">
        <ele>10</ele>
        <time>2016-07-22T12:02:43Z</time>
      </trkpt>
      <trkpt lat="47.24237" lon="-2.17053">
        <ele>10</ele>
        <time>2016-07-22T12:02:48Z</time>
      </trkpt>
      <trkpt lat="47.24215" lon="-2.17054">
        <ele>10</ele>
        <time>2016-07-22T12:02:53Z</time>
      </trkpt>
      <trkpt lat="47.24193" lon="-2.17056">
        <ele>9</ele>
        <time>2016-07-22T12:02:58Z</time>
      </trkpt>
      <trkpt lat="47.24177" lon="-2.17058">
        <ele>8</ele>
        <time>2016-07-22T12:03:03Z</time>
      </trkpt>
      <trkpt lat="47.24177" lon="-2.17058">
        <ele>9</ele>
        <time>2016-07-22T12:03:08Z</time>
      </trkpt>
    </trkseg>
  </trk>
  <trk>
    <name><![CDATA[Sequence 22]]></name>
    <trkseg>
      <trkpt lat="47.24177" lon="-2.17063">
        <ele>5</ele>
        <time>2016-07-22T12:04:17Z</time>
      </trkpt>
      <trkpt lat="47.24177" lon="-2.17063">
        <ele>5</ele>
        <time>2016-07-22T12:04:22Z</time>
      </trkpt>
      <trkpt lat="47.24177" lon="-2.17064">
        <ele>5</ele>
        <time>2016-07-22T12:04:27Z</time>
      </trkpt>
      <trkpt lat="47.24174" lon="-2.17065">
        <ele>4</ele>
        <time>2016-07-22T12:04:32Z</time>
      </trkpt>
      <trkpt lat="47.24159" lon="-2.17064">
        <ele>4</ele>
        <time>2016-07-22T12:04:37Z</time>
      </trkpt>
      <trkpt lat="47.24137" lon="-2.17067">
        <ele>3</ele>
        <time>2016-07-22T12:04:42Z</time>
      </trkpt>
      <trkpt lat="47.24115" lon="-2.17069">
        <ele>3</ele>
        <time>2016-07-22T12:04:47Z</time>
      </trkpt>
      <trkpt lat="47.24101" lon="-2.17067">
        <ele>4</ele>
        <time>2016-07-22T12:04:52Z</time>
      </trkpt>
      <trkpt lat="47.24104" lon="-2.17048">
        <ele>4</ele>
        <time>2016-07-22T12:04:57Z</time>
      </trkpt>
      <trkpt lat="47.241" lon="-2.17042">
        <ele>4</ele>
        <time>2016-07-22T12:05:02Z</time>
      </trkpt>
      <trkpt lat="47.24098" lon="-2.17063">
        <ele>6</ele>
        <time>2016-07-22T12:05:07Z</time>
      </trkpt>
      <trkpt lat="47.24084" lon="-2.17077">
        <ele>4</ele>
        <time>2016-07-22T12:05:12Z</time>
      </trkpt>
      <trkpt lat="47.24061" lon="-2.17083">
        <ele>5</ele>
        <time>2016-07-22T12:05:17Z</time>
      </trkpt>
      <trkpt lat="47.24038" lon="-2.17089">
        <ele>4</ele>
        <time>2016-07-22T12:05:22Z</time>
      </trkpt>
      <trkpt lat="47.24015" lon="-2.17095">
        <ele>4</ele>
        <time>2016-07-22T12:05:27Z</time>
      </trkpt>
      <trkpt lat="47.23992" lon="-2.17103">
        <ele>3</ele>
        <time>2016-07-22T12:05:32Z</time>
      </trkpt>
      <trkpt lat="47.23969" lon="-2.17111">
        <ele>4</ele>
        <time>2016-07-22T12:05:37Z</time>
      </trkpt>
      <trkpt lat="47.23949" lon="-2.17119">
        <ele>4</ele>
        <time>2016-07-22T12:05:42Z</time>
      </trkpt>
      <trkpt lat="47.2394" lon="-2.17105">
        <ele>5</ele>
        <time>2016-07-22T12:05:47Z</time>
      </trkpt>
      <trkpt lat="47.23933" lon="-2.17087">
        <ele>5</ele>
        <time>2016-07-22T12:05:52Z</time>
      </trkpt>
      <trkpt lat="47.23924" lon="-2.17059">
        <ele>3</ele>
        <time>2016-07-22T12:05:57Z</time>
      </trkpt>
      <trkpt lat="47.23916" lon="-2.17025">
        <ele>4</ele>
        <time>2016-07-22T12:06:02Z</time>
      </trkpt>
      <trkpt lat="47.23906" lon="-2.16984">
        <ele>2</ele>
        <time>2016-07-22T12:06:08Z</time>
      </trkpt>
      <trkpt lat="47.23894" lon="-2.16944">
        <ele>1</ele>
        <time>2016-07-22T12:06:16Z</time>
      </trkpt>
      <trkpt lat="47.23892" lon="-2.16943">
        <ele>4</ele>
        <time>2016-07-22T12:06:17Z</time>
      </trkpt>
      <trkpt lat="47.2388" lon="-2.16948">
        <ele>-2</ele>
        <time>2016-07-22T12:06:22Z</time>
      </trkpt>
      <trkpt lat="47.23862" lon="-2.16962">
        <ele>-5</ele>
        <time>2016-07-22T12:06:27Z</time>
      </trkpt>
      <trkpt lat="47.23845" lon="-2.1698">
        <ele>-2</ele>
        <time>2016-07-22T12:06:32Z</time>
      </trkpt>
      <trkpt lat="47.23829" lon="-2.17">
        <ele>2</ele>
        <time>2016-07-22T12:06:37Z</time>
      </trkpt>
      <trkpt lat="47.2382" lon="-2.17019">
        <ele>3</ele>
        <time>2016-07-22T12:06:42Z</time>
      </trkpt>
      <trkpt lat="47.23815" lon="-2.17033">
        <ele>1</ele>
        <time>2016-07-22T12:06:47Z</time>
      </trkpt>
      <trkpt lat="47.23803" lon="-2.17036">
        <ele>4</ele>
        <time>2016-07-22T12:06:52Z</time>
      </trkpt>
      <trkpt lat="47.23791" lon="-2.17042">
        <ele>5</ele>
        <time>2016-07-22T12:06:57Z</time>
      </trkpt>
      <trkpt lat="47.23777" lon="-2.17055">
        <ele>7</ele>
        <time>2016-07-22T12:07:02Z</time>
      </trkpt>
      <trkpt lat="47.23758" lon="-2.17079">
        <ele>7</ele>
        <time>2016-07-22T12:07:07Z</time>
      </trkpt>
      <trkpt lat="47.23743" lon="-2.17102">
        <ele>8</ele>
        <time>2016-07-22T12:07:12Z</time>
      </trkpt>
      <trkpt lat="47.23728" lon="-2.17122">
        <ele>6</ele>
        <time>2016-07-22T12:07:17Z</time>
      </trkpt>
      <trkpt lat="47.23711" lon="-2.17143">
        <ele>6</ele>
        <time>2016-07-22T12:07:22Z</time>
      </trkpt>
      <trkpt lat="47.23694" lon="-2.17169">
        <ele>6</ele>
        <time>2016-07-22T12:07:27Z</time>
      </trkpt>
      <trkpt lat="47.23674" lon="-2.17192">
        <ele>8</ele>
        <time>2016-07-22T12:07:32Z</time>
      </trkpt>
      <trkpt lat="47.23656" lon="-2.17217">
        <ele>7</ele>
        <time>2016-07-22T12:07:37Z</time>
      </trkpt>
      <trkpt lat="47.23641" lon="-2.17251">
        <ele>5</ele>
        <time>2016-07-22T12:07:42Z</time>
      </trkpt>
      <trkpt lat="47.23631" lon="-2.17286">
        <ele>5</ele>
        <time>2016-07-22T12:07:47Z</time>
      </trkpt>
      <trkpt lat="47.23622" lon="-2.17323">
        <ele>4</ele>
        <time>2016-07-22T12:07:52Z</time>
      </trkpt>
      <trkpt lat="47.23615" lon="-2.17359">
        <ele>3</ele>
        <time>2016-07-22T12:07:57Z</time>
      </trkpt>
      <trkpt lat="47.23602" lon="-2.17409">
        <ele>4</ele>
        <time>2016-07-22T12:08:04Z</time>
      </trkpt>
      <trkpt lat="47.23595" lon="-2.17429">
        <ele>2</ele>
        <time>2016-07-22T12:08:07Z</time>
      </trkpt>
      <trkpt lat="47.23584" lon="-2.17461">
        <ele>2</ele>
        <time>2016-07-22T12:08:12Z</time>
      </trkpt>
      <trkpt lat="47.23572" lon="-2.17494">
        <ele>2</ele>
        <time>2016-07-22T12:08:17Z</time>
      </trkpt>
      <trkpt lat="47.2356" lon="-2.17524">
        <ele>3</ele>
        <time>2016-07-22T12:08:22Z</time>
      </trkpt>
      <trkpt lat="47.23543" lon="-2.1755">
        <ele>4</ele>
        <time>2016-07-22T12:08:27Z</time>
      </trkpt>
      <trkpt lat="47.23521" lon="-2.17562">
        <ele>3</ele>
        <time>2016-07-22T12:08:32Z</time>
      </trkpt>
      <trkpt lat="47.23497" lon="-2.1756">
        <ele>6</ele>
        <time>2016-07-22T12:08:37Z</time>
      </trkpt>
      <trkpt lat="47.23481" lon="-2.17562">
        <ele>6</ele>
        <time>2016-07-22T12:08:42Z</time>
      </trkpt>
      <trkpt lat="47.23462" lon="-2.17554">
        <ele>6</ele>
        <time>2016-07-22T12:08:47Z</time>
      </trkpt>
      <trkpt lat="47.23441" lon="-2.17554">
        <ele>7</ele>
        <time>2016-07-22T12:08:52Z</time>
      </trkpt>
      <trkpt lat="47.23418" lon="-2.17547">
        <ele>6</ele>
        <time>2016-07-22T12:08:57Z</time>
      </trkpt>
      <trkpt lat="47.23393" lon="-2.17543">
        <ele>4</ele>
        <time>2016-07-22T12:09:02Z</time>
      </trkpt>
      <trkpt lat="47.2337" lon="-2.17544">
        <ele>4</ele>
        <time>2016-07-22T12:09:07Z</time>
      </trkpt>
      <trkpt lat="47.23354" lon="-2.17559">
        <ele>4</ele>
        <time>2016-07-22T12:09:12Z</time>
      </trkpt>
      <trkpt lat="47.23346" lon="-2.17582">
        <ele>4</ele>
        <time>2016-07-22T12:09:17Z</time>
      </trkpt>
      <trkpt lat="47.23346" lon="-2.17615">
        <ele>3</ele>
        <time>2016-07-22T12:09:22Z</time>
      </trkpt>
      <trkpt lat="47.23346" lon="-2.17656">
        <ele>1</ele>
        <time>2016-07-22T12:09:28Z</time>
      </trkpt>
      <trkpt lat="47.23347" lon="-2.17694">
        <ele>1</ele>
        <time>2016-07-22T12:09:34Z</time>
      </trkpt>
      <trkpt lat="47.23346" lon="-2.17728">
        <ele>2</ele>
        <time>2016-07-22T12:09:39Z</time>
      </trkpt>
      <trkpt lat="47.23344" lon="-2.17753">
        <ele>3</ele>
        <time>2016-07-22T12:09:43Z</time>
      </trkpt>
      <trkpt lat="47.23342" lon="-2.1778">
        <ele>2</ele>
        <time>2016-07-22T12:09:47Z</time>
      </trkpt>
      <trkpt lat="47.23333" lon="-2.17811">
        <ele>3</ele>
        <time>2016-07-22T12:09:52Z</time>
      </trkpt>
      <trkpt lat="47.23321" lon="-2.17841">
        <ele>4</ele>
        <time>2016-07-22T12:09:57Z</time>
      </trkpt>
      <trkpt lat="47.23306" lon="-2.17865">
        <ele>4</ele>
        <time>2016-07-22T12:10:02Z</time>
      </trkpt>
      <trkpt lat="47.23287" lon="-2.17884">
        <ele>8</ele>
        <time>2016-07-22T12:10:07Z</time>
      </trkpt>
      <trkpt lat="47.23266" lon="-2.17895">
        <ele>8</ele>
        <time>2016-07-22T12:10:12Z</time>
      </trkpt>
      <trkpt lat="47.23245" lon="-2.179">
        <ele>10</ele>
        <time>2016-07-22T12:10:17Z</time>
      </trkpt>
      <trkpt lat="47.23226" lon="-2.17905">
        <ele>11</ele>
        <time>2016-07-22T12:10:22Z</time>
      </trkpt>
      <trkpt lat="47.23206" lon="-2.17907">
        <ele>11</ele>
        <time>2016-07-22T12:10:27Z</time>
      </trkpt>
      <trkpt lat="47.23184" lon="-2.17904">
        <ele>11</ele>
        <time>2016-07-22T12:10:32Z</time>
      </trkpt>
      <trkpt lat="47.23158" lon="-2.17896">
        <ele>11</ele>
        <time>2016-07-22T12:10:37Z</time>
      </trkpt>
      <trkpt lat="47.23133" lon="-2.17879">
        <ele>10</ele>
        <time>2016-07-22T12:10:42Z</time>
      </trkpt>
      <trkpt lat="47.23108" lon="-2.17854">
        <ele>10</ele>
        <time>2016-07-22T12:10:47Z</time>
      </trkpt>
      <trkpt lat="47.23085" lon="-2.17827">
        <ele>9</ele>
        <time>2016-07-22T12:10:52Z</time>
      </trkpt>
      <trkpt lat="47.23063" lon="-2.17802">
        <ele>10</ele>
        <time>2016-07-22T12:10:57Z</time>
      </trkpt>
      <trkpt lat="47.23042" lon="-2.17778">
        <ele>10</ele>
        <time>2016-07-22T12:11:02Z</time>
      </trkpt>
      <trkpt lat="47.23021" lon="-2.17753">
        <ele>10</ele>
        <time>2016-07-22T12:11:07Z</time>
      </trkpt>
      <trkpt lat="47.22999" lon="-2.17728">
        <ele>9</ele>
        <time>2016-07-22T12:11:12Z</time>
      </trkpt>
      <trkpt lat="47.22977" lon="-2.17703">
        <ele>9</ele>
        <time>2016-07-22T12:11:17Z</time>
      </trkpt>
      <trkpt lat="47.22951" lon="-2.17685">
        <ele>10</ele>
        <time>2016-07-22T12:11:22Z</time>
      </trkpt>
      <trkpt lat="47.22927" lon="-2.17662">
        <ele>11</ele>
        <time>2016-07-22T12:11:27Z</time>
      </trkpt>
      <trkpt lat="47.22905" lon="-2.17636">
        <ele>11</ele>
        <time>2016-07-22T12:11:32Z</time>
      </trkpt>
      <trkpt lat="47.22884" lon="-2.17606">
        <ele>10</ele>
        <time>2016-07-22T12:11:37Z</time>
      </trkpt>
      <trkpt lat="47.22868" lon="-2.17575">
        <ele>11</ele>
        <time>2016-07-22T12:11:42Z</time>
      </trkpt>
      <trkpt lat="47.22857" lon="-2.17546">
        <ele>13</ele>
        <time>2016-07-22T12:11:47Z</time>
      </trkpt>
      <trkpt lat="47.22839" lon="-2.17529">
        <ele>13</ele>
        <time>2016-07-22T12:11:52Z</time>
      </trkpt>
      <trkpt lat="47.22821" lon="-2.1751">
        <ele>12</ele>
        <time>2016-07-22T12:11:57Z</time>
      </trkpt>
      <trkpt lat="47.228" lon="-2.17486">
        <ele>9</ele>
        <time>2016-07-22T12:12:02Z</time>
      </trkpt>
      <trkpt lat="47.22768" lon="-2.17442">
        <ele>8</ele>
        <time>2016-07-22T12:12:10Z</time>
      </trkpt>
      <trkpt lat="47.2276" lon="-2.17431">
        <ele>9</ele>
        <time>2016-07-22T12:12:12Z</time>
      </trkpt>
      <trkpt lat="47.22738" lon="-2.17402">
        <ele>8</ele>
        <time>2016-07-22T12:12:17Z</time>
      </trkpt>
      <trkpt lat="47.22718" lon="-2.17373">
        <ele>10</ele>
        <time>2016-07-22T12:12:22Z</time>
      </trkpt>
      <trkpt lat="47.22695" lon="-2.17345">
        <ele>9</ele>
        <time>2016-07-22T12:12:27Z</time>
      </trkpt>
      <trkpt lat="47.22674" lon="-2.17314">
        <ele>9</ele>
        <time>2016-07-22T12:12:32Z</time>
      </trkpt>
      <trkpt lat="47.2265" lon="-2.17281">
        <ele>8</ele>
        <time>2016-07-22T12:12:38Z</time>
      </trkpt>
      <trkpt lat="47.22631" lon="-2.1726">
        <ele>7</ele>
        <time>2016-07-22T12:12:42Z</time>
      </trkpt>
      <trkpt lat="47.2261" lon="-2.17232">
        <ele>6</ele>
        <time>2016-07-22T12:12:47Z</time>
      </trkpt>
      <trkpt lat="47.22589" lon="-2.17205">
        <ele>7</ele>
        <time>2016-07-22T12:12:52Z</time>
      </trkpt>
      <trkpt lat="47.22569" lon="-2.17179">
        <ele>8</ele>
        <time>2016-07-22T12:12:57Z</time>
      </trkpt>
      <trkpt lat="47.22549" lon="-2.17152">
        <ele>10</ele>
        <time>2016-07-22T12:13:02Z</time>
      </trkpt>
      <trkpt lat="47.22528" lon="-2.17126">
        <ele>12</ele>
        <time>2016-07-22T12:13:07Z</time>
      </trkpt>
      <trkpt lat="47.22507" lon="-2.17101">
        <ele>9</ele>
        <time>2016-07-22T12:13:12Z</time>
      </trkpt>
      <trkpt lat="47.22483" lon="-2.17077">
        <ele>9</ele>
        <time>2016-07-22T12:13:17Z</time>
      </trkpt>
      <trkpt lat="47.22463" lon="-2.17051">
        <ele>9</ele>
        <time>2016-07-22T12:13:22Z</time>
      </trkpt>
      <trkpt lat="47.22441" lon="-2.17025">
        <ele>8</ele>
        <time>2016-07-22T12:13:27Z</time>
      </trkpt>
      <trkpt lat="47.2242" lon="-2.16998">
        <ele>9</ele>
        <time>2016-07-22T12:13:32Z</time>
      </trkpt>
      <trkpt lat="47.22399" lon="-2.16971">
        <ele>9</ele>
        <time>2016-07-22T12:13:37Z</time>
      </trkpt>
      <trkpt lat="47.22376" lon="-2.16946">
        <ele>10</ele>
        <time>2016-07-22T12:13:42Z</time>
      </trkpt>
      <trkpt lat="47.22354" lon="-2.16918">
        <ele>9</ele>
        <time>2016-07-22T12:13:47Z</time>
      </trkpt>
      <trkpt lat="47.22328" lon="-2.1689">
        <ele>10</ele>
        <time>2016-07-22T12:13:52Z</time>
      </trkpt>
      <trkpt lat="47.22302" lon="-2.16861">
        <ele>10</ele>
        <time>2016-07-22T12:13:57Z</time>
      </trkpt>
      <trkpt lat="47.22277" lon="-2.16835">
        <ele>7</ele>
        <time>2016-07-22T12:14:02Z</time>
      </trkpt>
      <trkpt lat="47.22251" lon="-2.16803">
        <ele>8</ele>
        <time>2016-07-22T12:14:08Z</time>
      </trkpt>
      <trkpt lat="47.22236" lon="-2.16777">
        <ele>8</ele>
        <time>2016-07-22T12:14:12Z</time>
      </trkpt>
      <trkpt lat="47.22216" lon="-2.16746">
        <ele>7</ele>
        <time>2016-07-22T12:14:17Z</time>
      </trkpt>
      <trkpt lat="47.22196" lon="-2.16719">
        <ele>8</ele>
        <time>2016-07-22T12:14:22Z</time>
      </trkpt>
      <trkpt lat="47.22173" lon="-2.16696">
        <ele>8</ele>
        <time>2016-07-22T12:14:27Z</time>
      </trkpt>
      <trkpt lat="47.22151" lon="-2.16672">
        <ele>10</ele>
        <time>2016-07-22T12:14:32Z</time>
      </trkpt>
      <trkpt lat="47.22124" lon="-2.16641">
        <ele>12</ele>
        <time>2016-07-22T12:14:38Z</time>
      </trkpt>
      <trkpt lat="47.22088" lon="-2.16594">
        <ele>12</ele>
        <time>2016-07-22T12:14:46Z</time>
      </trkpt>
      <trkpt lat="47.22074" lon="-2.16576">
        <ele>10</ele>
        <time>2016-07-22T12:14:49Z</time>
      </trkpt>
      <trkpt lat="47.2205" lon="-2.16553">
        <ele>11</ele>
        <time>2016-07-22T12:14:54Z</time>
      </trkpt>
      <trkpt lat="47.22036" lon="-2.16538">
        <ele>11</ele>
        <time>2016-07-22T12:14:57Z</time>
      </trkpt>
      <trkpt lat="47.22012" lon="-2.1651">
        <ele>10</ele>
        <time>2016-07-22T12:15:02Z</time>
      </trkpt>
      <trkpt lat="47.2199" lon="-2.16483">
        <ele>11</ele>
        <time>2016-07-22T12:15:07Z</time>
      </trkpt>
      <trkpt lat="47.2197" lon="-2.16457">
        <ele>12</ele>
        <time>2016-07-22T12:15:12Z</time>
      </trkpt>
      <trkpt lat="47.21954" lon="-2.16424">
        <ele>16</ele>
        <time>2016-07-22T12:15:17Z</time>
      </trkpt>
      <trkpt lat="47.21935" lon="-2.16386">
        <ele>14</ele>
        <time>2016-07-22T12:15:23Z</time>
      </trkpt>
      <trkpt lat="47.21909" lon="-2.16344">
        <ele>12</ele>
        <time>2016-07-22T12:15:30Z</time>
      </trkpt>
      <trkpt lat="47.21892" lon="-2.1631">
        <ele>12</ele>
        <time>2016-07-22T12:15:35Z</time>
      </trkpt>
      <trkpt lat="47.21885" lon="-2.16298">
        <ele>12</ele>
        <time>2016-07-22T12:15:37Z</time>
      </trkpt>
      <trkpt lat="47.21867" lon="-2.1627">
        <ele>11</ele>
        <time>2016-07-22T12:15:42Z</time>
      </trkpt>
      <trkpt lat="47.21846" lon="-2.16244">
        <ele>6</ele>
        <time>2016-07-22T12:15:47Z</time>
      </trkpt>
      <trkpt lat="47.21822" lon="-2.16229">
        <ele>4</ele>
        <time>2016-07-22T12:15:52Z</time>
      </trkpt>
      <trkpt lat="47.21771" lon="-2.16201">
        <ele>8</ele>
        <time>2016-07-22T12:16:00Z</time>
      </trkpt>
      <trkpt lat="47.21756" lon="-2.16194">
        <ele>4</ele>
        <time>2016-07-22T12:16:02Z</time>
      </trkpt>
      <trkpt lat="47.21725" lon="-2.16178">
        <ele>7</ele>
        <time>2016-07-22T12:16:07Z</time>
      </trkpt>
      <trkpt lat="47.21695" lon="-2.16156">
        <ele>8</ele>
        <time>2016-07-22T12:16:12Z</time>
      </trkpt>
      <trkpt lat="47.21663" lon="-2.16137">
        <ele>6</ele>
        <time>2016-07-22T12:16:17Z</time>
      </trkpt>
      <trkpt lat="47.21609" lon="-2.16103">
        <ele>7</ele>
        <time>2016-07-22T12:16:26Z</time>
      </trkpt>
      <trkpt lat="47.21603" lon="-2.16099">
        <ele>8</ele>
        <time>2016-07-22T12:16:27Z</time>
      </trkpt>
      <trkpt lat="47.21574" lon="-2.16082">
        <ele>9</ele>
        <time>2016-07-22T12:16:32Z</time>
      </trkpt>
      <trkpt lat="47.21545" lon="-2.16065">
        <ele>9</ele>
        <time>2016-07-22T12:16:37Z</time>
      </trkpt>
      <trkpt lat="47.21517" lon="-2.16047">
        <ele>8</ele>
        <time>2016-07-22T12:16:42Z</time>
      </trkpt>
      <trkpt lat="47.21487" lon="-2.16029">
        <ele>9</ele>
        <time>2016-07-22T12:16:47Z</time>
      </trkpt>
      <trkpt lat="47.21457" lon="-2.16011">
        <ele>8</ele>
        <time>2016-07-22T12:16:52Z</time>
      </trkpt>
      <trkpt lat="47.21427" lon="-2.15992">
        <ele>8</ele>
        <time>2016-07-22T12:16:57Z</time>
      </trkpt>
      <trkpt lat="47.21396" lon="-2.15973">
        <ele>8</ele>
        <time>2016-07-22T12:17:02Z</time>
      </trkpt>
      <trkpt lat="47.21363" lon="-2.15955">
        <ele>10</ele>
        <time>2016-07-22T12:17:07Z</time>
      </trkpt>
      <trkpt lat="47.21331" lon="-2.15935">
        <ele>11</ele>
        <time>2016-07-22T12:17:12Z</time>
      </trkpt>
      <trkpt lat="47.21301" lon="-2.15917">
        <ele>13</ele>
        <time>2016-07-22T12:17:17Z</time>
      </trkpt>
      <trkpt lat="47.21272" lon="-2.15898">
        <ele>11</ele>
        <time>2016-07-22T12:17:22Z</time>
      </trkpt>
      <trkpt lat="47.21247" lon="-2.15878">
        <ele>9</ele>
        <time>2016-07-22T12:17:27Z</time>
      </trkpt>
      <trkpt lat="47.21215" lon="-2.15848">
        <ele>8</ele>
        <time>2016-07-22T12:17:33Z</time>
      </trkpt>
      <trkpt lat="47.21181" lon="-2.15799">
        <ele>8</ele>
        <time>2016-07-22T12:17:41Z</time>
      </trkpt>
      <trkpt lat="47.21177" lon="-2.15792">
        <ele>8</ele>
        <time>2016-07-22T12:17:42Z</time>
      </trkpt>
      <trkpt lat="47.21154" lon="-2.15755">
        <ele>8</ele>
        <time>2016-07-22T12:17:48Z</time>
      </trkpt>
      <trkpt lat="47.21142" lon="-2.15745">
        <ele>4</ele>
        <time>2016-07-22T12:17:52Z</time>
      </trkpt>
      <trkpt lat="47.21125" lon="-2.15739">
        <ele>7</ele>
        <time>2016-07-22T12:17:58Z</time>
      </trkpt>
      <trkpt lat="47.21109" lon="-2.15735">
        <ele>4</ele>
        <time>2016-07-22T12:18:02Z</time>
      </trkpt>
      <trkpt lat="47.21087" lon="-2.15731">
        <ele>5</ele>
        <time>2016-07-22T12:18:07Z</time>
      </trkpt>
      <trkpt lat="47.21057" lon="-2.15719">
        <ele>9</ele>
        <time>2016-07-22T12:18:13Z</time>
      </trkpt>
      <trkpt lat="47.21036" lon="-2.15711">
        <ele>6</ele>
        <time>2016-07-22T12:18:18Z</time>
      </trkpt>
      <trkpt lat="47.21017" lon="-2.15704">
        <ele>6</ele>
        <time>2016-07-22T12:18:22Z</time>
      </trkpt>
      <trkpt lat="47.20992" lon="-2.15696">
        <ele>4</ele>
        <time>2016-07-22T12:18:27Z</time>
      </trkpt>
      <trkpt lat="47.20966" lon="-2.15687">
        <ele>4</ele>
        <time>2016-07-22T12:18:32Z</time>
      </trkpt>
      <trkpt lat="47.20936" lon="-2.15676">
        <ele>8</ele>
        <time>2016-07-22T12:18:38Z</time>
      </trkpt>
      <trkpt lat="47.20905" lon="-2.15667">
        <ele>9</ele>
        <time>2016-07-22T12:18:44Z</time>
      </trkpt>
      <trkpt lat="47.20872" lon="-2.15655">
        <ele>10</ele>
        <time>2016-07-22T12:18:50Z</time>
      </trkpt>
      <trkpt lat="47.20861" lon="-2.15652">
        <ele>9</ele>
        <time>2016-07-22T12:18:52Z</time>
      </trkpt>
      <trkpt lat="47.20836" lon="-2.15645">
        <ele>10</ele>
        <time>2016-07-22T12:18:57Z</time>
      </trkpt>
      <trkpt lat="47.20811" lon="-2.15633">
        <ele>9</ele>
        <time>2016-07-22T12:19:02Z</time>
      </trkpt>
      <trkpt lat="47.20785" lon="-2.15624">
        <ele>12</ele>
        <time>2016-07-22T12:19:07Z</time>
      </trkpt>
      <trkpt lat="47.20759" lon="-2.15614">
        <ele>9</ele>
        <time>2016-07-22T12:19:12Z</time>
      </trkpt>
      <trkpt lat="47.20731" lon="-2.15606">
        <ele>9</ele>
        <time>2016-07-22T12:19:17Z</time>
      </trkpt>
      <trkpt lat="47.20701" lon="-2.15594">
        <ele>10</ele>
        <time>2016-07-22T12:19:23Z</time>
      </trkpt>
      <trkpt lat="47.20681" lon="-2.15586">
        <ele>13</ele>
        <time>2016-07-22T12:19:27Z</time>
      </trkpt>
      <trkpt lat="47.20658" lon="-2.15576">
        <ele>12</ele>
        <time>2016-07-22T12:19:33Z</time>
      </trkpt>
      <trkpt lat="47.20646" lon="-2.15585">
        <ele>9</ele>
        <time>2016-07-22T12:19:37Z</time>
      </trkpt>
      <trkpt lat="47.20627" lon="-2.15584">
        <ele>10</ele>
        <time>2016-07-22T12:19:42Z</time>
      </trkpt>
      <trkpt lat="47.20613" lon="-2.15562">
        <ele>9</ele>
        <time>2016-07-22T12:19:47Z</time>
      </trkpt>
      <trkpt lat="47.20584" lon="-2.15553">
        <ele>9</ele>
        <time>2016-07-22T12:19:53Z</time>
      </trkpt>
      <trkpt lat="47.2055" lon="-2.15539">
        <ele>12</ele>
        <time>2016-07-22T12:20:00Z</time>
      </trkpt>
      <trkpt lat="47.20538" lon="-2.15536">
        <ele>12</ele>
        <time>2016-07-22T12:20:02Z</time>
      </trkpt>
      <trkpt lat="47.20494" lon="-2.15518">
        <ele>12</ele>
        <time>2016-07-22T12:20:10Z</time>
      </trkpt>
      <trkpt lat="47.20485" lon="-2.15516">
        <ele>13</ele>
        <time>2016-07-22T12:20:12Z</time>
      </trkpt>
      <trkpt lat="47.20462" lon="-2.15502">
        <ele>17</ele>
        <time>2016-07-22T12:20:19Z</time>
      </trkpt>
      <trkpt lat="47.20449" lon="-2.15496">
        <ele>17</ele>
        <time>2016-07-22T12:20:22Z</time>
      </trkpt>
      <trkpt lat="47.20426" lon="-2.15479">
        <ele>16</ele>
        <time>2016-07-22T12:20:27Z</time>
      </trkpt>
      <trkpt lat="47.20408" lon="-2.15458">
        <ele>20</ele>
        <time>2016-07-22T12:20:32Z</time>
      </trkpt>
      <trkpt lat="47.20375" lon="-2.15414">
        <ele>21</ele>
        <time>2016-07-22T12:20:41Z</time>
      </trkpt>
      <trkpt lat="47.20374" lon="-2.15409">
        <ele>22</ele>
        <time>2016-07-22T12:20:42Z</time>
      </trkpt>
      <trkpt lat="47.2036" lon="-2.15381">
        <ele>21</ele>
        <time>2016-07-22T12:20:48Z</time>
      </trkpt>
      <trkpt lat="47.20349" lon="-2.15351">
        <ele>21</ele>
        <time>2016-07-22T12:20:53Z</time>
      </trkpt>
      <trkpt lat="47.20337" lon="-2.15324">
        <ele>20</ele>
        <time>2016-07-22T12:20:58Z</time>
      </trkpt>
      <trkpt lat="47.20328" lon="-2.15297">
        <ele>19</ele>
        <time>2016-07-22T12:21:02Z</time>
      </trkpt>
      <trkpt lat="47.20303" lon="-2.15266">
        <ele>19</ele>
        <time>2016-07-22T12:21:09Z</time>
      </trkpt>
      <trkpt lat="47.20296" lon="-2.15255">
        <ele>21</ele>
        <time>2016-07-22T12:21:12Z</time>
      </trkpt>
      <trkpt lat="47.20274" lon="-2.1524">
        <ele>17</ele>
        <time>2016-07-22T12:21:17Z</time>
      </trkpt>
      <trkpt lat="47.20232" lon="-2.1526">
        <ele>17</ele>
        <time>2016-07-22T12:21:26Z</time>
      </trkpt>
      <trkpt lat="47.20224" lon="-2.1526">
        <ele>16</ele>
        <time>2016-07-22T12:21:27Z</time>
      </trkpt>
      <trkpt lat="47.20198" lon="-2.15275">
        <ele>15</ele>
        <time>2016-07-22T12:21:32Z</time>
      </trkpt>
      <trkpt lat="47.20162" lon="-2.15299">
        <ele>17</ele>
        <time>2016-07-22T12:21:40Z</time>
      </trkpt>
      <trkpt lat="47.2015" lon="-2.15302">
        <ele>16</ele>
        <time>2016-07-22T12:21:42Z</time>
      </trkpt>
      <trkpt lat="47.20126" lon="-2.15313">
        <ele>15</ele>
        <time>2016-07-22T12:21:47Z</time>
      </trkpt>
      <trkpt lat="47.20095" lon="-2.15319">
        <ele>13</ele>
        <time>2016-07-22T12:21:52Z</time>
      </trkpt>
      <trkpt lat="47.20048" lon="-2.1532">
        <ele>12</ele>
        <time>2016-07-22T12:22:01Z</time>
      </trkpt>
      <trkpt lat="47.20043" lon="-2.1532">
        <ele>14</ele>
        <time>2016-07-22T12:22:02Z</time>
      </trkpt>
      <trkpt lat="47.20009" lon="-2.15313">
        <ele>21</ele>
        <time>2016-07-22T12:22:10Z</time>
      </trkpt>
      <trkpt lat="47.2" lon="-2.15312">
        <ele>22</ele>
        <time>2016-07-22T12:22:12Z</time>
      </trkpt>
      <trkpt lat="47.1995" lon="-2.15303">
        <ele>22</ele>
        <time>2016-07-22T12:22:21Z</time>
      </trkpt>
      <trkpt lat="47.19935" lon="-2.15302">
        <ele>21</ele>
        <time>2016-07-22T12:22:24Z</time>
      </trkpt>
      <trkpt lat="47.19924" lon="-2.15301">
        <ele>17</ele>
        <time>2016-07-22T12:22:27Z</time>
      </trkpt>
      <trkpt lat="47.19904" lon="-2.15301">
        <ele>20</ele>
        <time>2016-07-22T12:22:33Z</time>
      </trkpt>
      <trkpt lat="47.19884" lon="-2.15292">
        <ele>25</ele>
        <time>2016-07-22T12:22:38Z</time>
      </trkpt>
      <trkpt lat="47.19871" lon="-2.1529">
        <ele>26</ele>
        <time>2016-07-22T12:22:42Z</time>
      </trkpt>
      <trkpt lat="47.19839" lon="-2.15287">
        <ele>25</ele>
        <time>2016-07-22T12:22:51Z</time>
      </trkpt>
      <trkpt lat="47.19836" lon="-2.15287">
        <ele>25</ele>
        <time>2016-07-22T12:22:52Z</time>
      </trkpt>
      <trkpt lat="47.19809" lon="-2.15282">
        <ele>18</ele>
        <time>2016-07-22T12:22:58Z</time>
      </trkpt>
      <trkpt lat="47.19787" lon="-2.15278">
        <ele>15</ele>
        <time>2016-07-22T12:23:04Z</time>
      </trkpt>
      <trkpt lat="47.19776" lon="-2.1528">
        <ele>15</ele>
        <time>2016-07-22T12:23:08Z</time>
      </trkpt>
      <trkpt lat="47.19752" lon="-2.1528">
        <ele>19</ele>
        <time>2016-07-22T12:23:14Z</time>
      </trkpt>
      <trkpt lat="47.19736" lon="-2.15289">
        <ele>20</ele>
        <time>2016-07-22T12:23:18Z</time>
      </trkpt>
      <trkpt lat="47.19719" lon="-2.15304">
        <ele>18</ele>
        <time>2016-07-22T12:23:22Z</time>
      </trkpt>
      <trkpt lat="47.19689" lon="-2.15323">
        <ele>19</ele>
        <time>2016-07-22T12:23:28Z</time>
      </trkpt>
      <trkpt lat="47.19667" lon="-2.15333">
        <ele>18</ele>
        <time>2016-07-22T12:23:32Z</time>
      </trkpt>
      <trkpt lat="47.19632" lon="-2.15352">
        <ele>16</ele>
        <time>2016-07-22T12:23:38Z</time>
      </trkpt>
      <trkpt lat="47.19606" lon="-2.15367">
        <ele>15</ele>
        <time>2016-07-22T12:23:42Z</time>
      </trkpt>
      <trkpt lat="47.19572" lon="-2.15391">
        <ele>14</ele>
        <time>2016-07-22T12:23:47Z</time>
      </trkpt>
      <trkpt lat="47.19541" lon="-2.15416">
        <ele>14</ele>
        <time>2016-07-22T12:23:52Z</time>
      </trkpt>
      <trkpt lat="47.19514" lon="-2.15434">
        <ele>15</ele>
        <time>2016-07-22T12:23:57Z</time>
      </trkpt>
      <trkpt lat="47.1949" lon="-2.15449">
        <ele>15</ele>
        <time>2016-07-22T12:24:02Z</time>
      </trkpt>
      <trkpt lat="47.19468" lon="-2.15462">
        <ele>15</ele>
        <time>2016-07-22T12:24:07Z</time>
      </trkpt>
      <trkpt lat="47.19448" lon="-2.15471">
        <ele>16</ele>
        <time>2016-07-22T12:24:12Z</time>
      </trkpt>
      <trkpt lat="47.19429" lon="-2.15478">
        <ele>16</ele>
        <time>2016-07-22T12:24:17Z</time>
      </trkpt>
      <trkpt lat="47.19412" lon="-2.15485">
        <ele>19</ele>
        <time>2016-07-22T12:24:22Z</time>
      </trkpt>
      <trkpt lat="47.19393" lon="-2.15492">
        <ele>18</ele>
        <time>2016-07-22T12:24:27Z</time>
      </trkpt>
      <trkpt lat="47.19377" lon="-2.15499">
        <ele>17</ele>
        <time>2016-07-22T12:24:32Z</time>
      </trkpt>
      <trkpt lat="47.1936" lon="-2.15505">
        <ele>19</ele>
        <time>2016-07-22T12:24:37Z</time>
      </trkpt>
      <trkpt lat="47.19342" lon="-2.15512">
        <ele>21</ele>
        <time>2016-07-22T12:24:42Z</time>
      </trkpt>
      <trkpt lat="47.19325" lon="-2.15516">
        <ele>22</ele>
        <time>2016-07-22T12:24:47Z</time>
      </trkpt>
      <trkpt lat="47.19306" lon="-2.1552">
        <ele>23</ele>
        <time>2016-07-22T12:24:52Z</time>
      </trkpt>
      <trkpt lat="47.19289" lon="-2.15524">
        <ele>24</ele>
        <time>2016-07-22T12:24:57Z</time>
      </trkpt>
      <trkpt lat="47.19273" lon="-2.15528">
        <ele>25</ele>
        <time>2016-07-22T12:25:02Z</time>
      </trkpt>
      <trkpt lat="47.19259" lon="-2.15532">
        <ele>25</ele>
        <time>2016-07-22T12:25:07Z</time>
      </trkpt>
      <trkpt lat="47.19238" lon="-2.15536">
        <ele>26</ele>
        <time>2016-07-22T12:25:12Z</time>
      </trkpt>
      <trkpt lat="47.19217" lon="-2.15541">
        <ele>27</ele>
        <time>2016-07-22T12:25:17Z</time>
      </trkpt>
      <trkpt lat="47.19197" lon="-2.15545">
        <ele>28</ele>
        <time>2016-07-22T12:25:22Z</time>
      </trkpt>
      <trkpt lat="47.19178" lon="-2.15549">
        <ele>29</ele>
        <time>2016-07-22T12:25:27Z</time>
      </trkpt>
      <trkpt lat="47.19158" lon="-2.15554">
        <ele>30</ele>
        <time>2016-07-22T12:25:32Z</time>
      </trkpt>
      <trkpt lat="47.19139" lon="-2.1556">
        <ele>31</ele>
        <time>2016-07-22T12:25:37Z</time>
      </trkpt>
      <trkpt lat="47.19117" lon="-2.15565">
        <ele>32</ele>
        <time>2016-07-22T12:25:42Z</time>
      </trkpt>
      <trkpt lat="47.19097" lon="-2.15571">
        <ele>34</ele>
        <time>2016-07-22T12:25:47Z</time>
      </trkpt>
      <trkpt lat="47.19078" lon="-2.15577">
        <ele>35</ele>
        <time>2016-07-22T12:25:52Z</time>
      </trkpt>
      <trkpt lat="47.1906" lon="-2.15583">
        <ele>34</ele>
        <time>2016-07-22T12:25:57Z</time>
      </trkpt>
      <trkpt lat="47.19034" lon="-2.15592">
        <ele>33</ele>
        <time>2016-07-22T12:26:06Z</time>
      </trkpt>
      <trkpt lat="47.19019" lon="-2.15603">
        <ele>34</ele>
        <time>2016-07-22T12:26:11Z</time>
      </trkpt>
      <trkpt lat="47.19016" lon="-2.15606">
        <ele>35</ele>
        <time>2016-07-22T12:26:12Z</time>
      </trkpt>
      <trkpt lat="47.18999" lon="-2.15625">
        <ele>34</ele>
        <time>2016-07-22T12:26:17Z</time>
      </trkpt>
      <trkpt lat="47.1898" lon="-2.15645">
        <ele>36</ele>
        <time>2016-07-22T12:26:22Z</time>
      </trkpt>
      <trkpt lat="47.1895" lon="-2.15679">
        <ele>33</ele>
        <time>2016-07-22T12:26:30Z</time>
      </trkpt>
      <trkpt lat="47.18941" lon="-2.15689">
        <ele>33</ele>
        <time>2016-07-22T12:26:32Z</time>
      </trkpt>
      <trkpt lat="47.1892" lon="-2.15714">
        <ele>33</ele>
        <time>2016-07-22T12:26:37Z</time>
      </trkpt>
      <trkpt lat="47.18884" lon="-2.15768">
        <ele>30</ele>
        <time>2016-07-22T12:26:46Z</time>
      </trkpt>
      <trkpt lat="47.18871" lon="-2.15788">
        <ele>29</ele>
        <time>2016-07-22T12:26:49Z</time>
      </trkpt>
      <trkpt lat="47.18844" lon="-2.15834">
        <ele>28</ele>
        <time>2016-07-22T12:26:56Z</time>
      </trkpt>
      <trkpt lat="47.18828" lon="-2.15867">
        <ele>28</ele>
        <time>2016-07-22T12:27:01Z</time>
      </trkpt>
      <trkpt lat="47.18824" lon="-2.15872">
        <ele>28</ele>
        <time>2016-07-22T12:27:02Z</time>
      </trkpt>
      <trkpt lat="47.18807" lon="-2.15908">
        <ele>27</ele>
        <time>2016-07-22T12:27:07Z</time>
      </trkpt>
      <trkpt lat="47.18788" lon="-2.15942">
        <ele>26</ele>
        <time>2016-07-22T12:27:12Z</time>
      </trkpt>
      <trkpt lat="47.1876" lon="-2.15961">
        <ele>25</ele>
        <time>2016-07-22T12:27:17Z</time>
      </trkpt>
      <trkpt lat="47.18732" lon="-2.15969">
        <ele>24</ele>
        <time>2016-07-22T12:27:22Z</time>
      </trkpt>
      <trkpt lat="47.18706" lon="-2.15977">
        <ele>23</ele>
        <time>2016-07-22T12:27:27Z</time>
      </trkpt>
      <trkpt lat="47.1868" lon="-2.15985">
        <ele>22</ele>
        <time>2016-07-22T12:27:32Z</time>
      </trkpt>
      <trkpt lat="47.18656" lon="-2.15992">
        <ele>22</ele>
        <time>2016-07-22T12:27:37Z</time>
      </trkpt>
      <trkpt lat="47.18631" lon="-2.16002">
        <ele>21</ele>
        <time>2016-07-22T12:27:42Z</time>
      </trkpt>
      <trkpt lat="47.18606" lon="-2.16018">
        <ele>20</ele>
        <time>2016-07-22T12:27:47Z</time>
      </trkpt>
      <trkpt lat="47.1858" lon="-2.16035">
        <ele>18</ele>
        <time>2016-07-22T12:27:52Z</time>
      </trkpt>
      <trkpt lat="47.18556" lon="-2.1605">
        <ele>21</ele>
        <time>2016-07-22T12:27:57Z</time>
      </trkpt>
      <trkpt lat="47.18533" lon="-2.16069">
        <ele>19</ele>
        <time>2016-07-22T12:28:02Z</time>
      </trkpt>
      <trkpt lat="47.18504" lon="-2.16093">
        <ele>18</ele>
        <time>2016-07-22T12:28:08Z</time>
      </trkpt>
      <trkpt lat="47.18485" lon="-2.16111">
        <ele>19</ele>
        <time>2016-07-22T12:28:12Z</time>
      </trkpt>
      <trkpt lat="47.18457" lon="-2.16131">
        <ele>18</ele>
        <time>2016-07-22T12:28:17Z</time>
      </trkpt>
      <trkpt lat="47.18426" lon="-2.16147">
        <ele>17</ele>
        <time>2016-07-22T12:28:22Z</time>
      </trkpt>
      <trkpt lat="47.18396" lon="-2.16162">
        <ele>18</ele>
        <time>2016-07-22T12:28:27Z</time>
      </trkpt>
      <trkpt lat="47.18367" lon="-2.16173">
        <ele>19</ele>
        <time>2016-07-22T12:28:32Z</time>
      </trkpt>
      <trkpt lat="47.18341" lon="-2.16181">
        <ele>21</ele>
        <time>2016-07-22T12:28:37Z</time>
      </trkpt>
      <trkpt lat="47.18315" lon="-2.16198">
        <ele>21</ele>
        <time>2016-07-22T12:28:42Z</time>
      </trkpt>
      <trkpt lat="47.1829" lon="-2.16216">
        <ele>19</ele>
        <time>2016-07-22T12:28:47Z</time>
      </trkpt>
      <trkpt lat="47.18267" lon="-2.16221">
        <ele>17</ele>
        <time>2016-07-22T12:28:52Z</time>
      </trkpt>
      <trkpt lat="47.18234" lon="-2.16202">
        <ele>15</ele>
        <time>2016-07-22T12:28:58Z</time>
      </trkpt>
      <trkpt lat="47.18215" lon="-2.16192">
        <ele>15</ele>
        <time>2016-07-22T12:29:02Z</time>
      </trkpt>
      <trkpt lat="47.1819" lon="-2.16191">
        <ele>12</ele>
        <time>2016-07-22T12:29:07Z</time>
      </trkpt>
      <trkpt lat="47.18163" lon="-2.16203">
        <ele>12</ele>
        <time>2016-07-22T12:29:12Z</time>
      </trkpt>
      <trkpt lat="47.18139" lon="-2.16216">
        <ele>11</ele>
        <time>2016-07-22T12:29:17Z</time>
      </trkpt>
      <trkpt lat="47.18114" lon="-2.16228">
        <ele>12</ele>
        <time>2016-07-22T12:29:22Z</time>
      </trkpt>
      <trkpt lat="47.18091" lon="-2.16243">
        <ele>12</ele>
        <time>2016-07-22T12:29:27Z</time>
      </trkpt>
      <trkpt lat="47.18071" lon="-2.16254">
        <ele>12</ele>
        <time>2016-07-22T12:29:32Z</time>
      </trkpt>
      <trkpt lat="47.18049" lon="-2.16269">
        <ele>13</ele>
        <time>2016-07-22T12:29:37Z</time>
      </trkpt>
      <trkpt lat="47.18029" lon="-2.16284">
        <ele>13</ele>
        <time>2016-07-22T12:29:42Z</time>
      </trkpt>
      <trkpt lat="47.18012" lon="-2.16299">
        <ele>14</ele>
        <time>2016-07-22T12:29:47Z</time>
      </trkpt>
      <trkpt lat="47.17992" lon="-2.16315">
        <ele>14</ele>
        <time>2016-07-22T12:29:52Z</time>
      </trkpt>
      <trkpt lat="47.17968" lon="-2.16324">
        <ele>14</ele>
        <time>2016-07-22T12:29:57Z</time>
      </trkpt>
      <trkpt lat="47.17944" lon="-2.16329">
        <ele>14</ele>
        <time>2016-07-22T12:30:02Z</time>
      </trkpt>
      <trkpt lat="47.1792" lon="-2.16332">
        <ele>15</ele>
        <time>2016-07-22T12:30:07Z</time>
      </trkpt>
      <trkpt lat="47.17897" lon="-2.16333">
        <ele>16</ele>
        <time>2016-07-22T12:30:12Z</time>
      </trkpt>
      <trkpt lat="47.17872" lon="-2.16334">
        <ele>17</ele>
        <time>2016-07-22T12:30:17Z</time>
      </trkpt>
      <trkpt lat="47.17847" lon="-2.16339">
        <ele>17</ele>
        <time>2016-07-22T12:30:22Z</time>
      </trkpt>
      <trkpt lat="47.17821" lon="-2.16342">
        <ele>16</ele>
        <time>2016-07-22T12:30:27Z</time>
      </trkpt>
      <trkpt lat="47.17795" lon="-2.16346">
        <ele>17</ele>
        <time>2016-07-22T12:30:32Z</time>
      </trkpt>
      <trkpt lat="47.17769" lon="-2.16353">
        <ele>17</ele>
        <time>2016-07-22T12:30:37Z</time>
      </trkpt>
      <trkpt lat="47.17742" lon="-2.16361">
        <ele>17</ele>
        <time>2016-07-22T12:30:42Z</time>
      </trkpt>
      <trkpt lat="47.17716" lon="-2.16368">
        <ele>17</ele>
        <time>2016-07-22T12:30:47Z</time>
      </trkpt>
      <trkpt lat="47.17687" lon="-2.16368">
        <ele>17</ele>
        <time>2016-07-22T12:30:52Z</time>
      </trkpt>
      <trkpt lat="47.1766" lon="-2.16368">
        <ele>17</ele>
        <time>2016-07-22T12:30:57Z</time>
      </trkpt>
      <trkpt lat="47.17633" lon="-2.16377">
        <ele>16</ele>
        <time>2016-07-22T12:31:02Z</time>
      </trkpt>
      <trkpt lat="47.17607" lon="-2.16384">
        <ele>16</ele>
        <time>2016-07-22T12:31:07Z</time>
      </trkpt>
      <trkpt lat="47.17581" lon="-2.1639">
        <ele>16</ele>
        <time>2016-07-22T12:31:12Z</time>
      </trkpt>
      <trkpt lat="47.17556" lon="-2.16396">
        <ele>16</ele>
        <time>2016-07-22T12:31:17Z</time>
      </trkpt>
      <trkpt lat="47.1753" lon="-2.16403">
        <ele>16</ele>
        <time>2016-07-22T12:31:22Z</time>
      </trkpt>
      <trkpt lat="47.17504" lon="-2.16409">
        <ele>18</ele>
        <time>2016-07-22T12:31:27Z</time>
      </trkpt>
      <trkpt lat="47.17479" lon="-2.16413">
        <ele>18</ele>
        <time>2016-07-22T12:31:32Z</time>
      </trkpt>
      <trkpt lat="47.17454" lon="-2.16424">
        <ele>19</ele>
        <time>2016-07-22T12:31:37Z</time>
      </trkpt>
      <trkpt lat="47.1743" lon="-2.16437">
        <ele>17</ele>
        <time>2016-07-22T12:31:42Z</time>
      </trkpt>
      <trkpt lat="47.17405" lon="-2.16445">
        <ele>15</ele>
        <time>2016-07-22T12:31:47Z</time>
      </trkpt>
      <trkpt lat="47.1738" lon="-2.16452">
        <ele>15</ele>
        <time>2016-07-22T12:31:52Z</time>
      </trkpt>
      <trkpt lat="47.17354" lon="-2.16459">
        <ele>16</ele>
        <time>2016-07-22T12:31:57Z</time>
      </trkpt>
      <trkpt lat="47.17329" lon="-2.16466">
        <ele>16</ele>
        <time>2016-07-22T12:32:02Z</time>
      </trkpt>
      <trkpt lat="47.17306" lon="-2.16471">
        <ele>16</ele>
        <time>2016-07-22T12:32:07Z</time>
      </trkpt>
      <trkpt lat="47.1728" lon="-2.1648">
        <ele>15</ele>
        <time>2016-07-22T12:32:12Z</time>
      </trkpt>
      <trkpt lat="47.17255" lon="-2.16488">
        <ele>13</ele>
        <time>2016-07-22T12:32:17Z</time>
      </trkpt>
      <trkpt lat="47.17226" lon="-2.16493">
        <ele>16</ele>
        <time>2016-07-22T12:32:22Z</time>
      </trkpt>
      <trkpt lat="47.17196" lon="-2.16505">
        <ele>17</ele>
        <time>2016-07-22T12:32:27Z</time>
      </trkpt>
      <trkpt lat="47.17169" lon="-2.16517">
        <ele>17</ele>
        <time>2016-07-22T12:32:32Z</time>
      </trkpt>
      <trkpt lat="47.17142" lon="-2.16524">
        <ele>17</ele>
        <time>2016-07-22T12:32:37Z</time>
      </trkpt>
      <trkpt lat="47.17118" lon="-2.1653">
        <ele>15</ele>
        <time>2016-07-22T12:32:42Z</time>
      </trkpt>
      <trkpt lat="47.17095" lon="-2.16542">
        <ele>12</ele>
        <time>2016-07-22T12:32:47Z</time>
      </trkpt>
      <trkpt lat="47.17068" lon="-2.1655">
        <ele>11</ele>
        <time>2016-07-22T12:32:52Z</time>
      </trkpt>
      <trkpt lat="47.17042" lon="-2.16559">
        <ele>12</ele>
        <time>2016-07-22T12:32:57Z</time>
      </trkpt>
      <trkpt lat="47.17019" lon="-2.16567">
        <ele>10</ele>
        <time>2016-07-22T12:33:02Z</time>
      </trkpt>
      <trkpt lat="47.16995" lon="-2.16576">
        <ele>11</ele>
        <time>2016-07-22T12:33:07Z</time>
      </trkpt>
      <trkpt lat="47.1697" lon="-2.16584">
        <ele>12</ele>
        <time>2016-07-22T12:33:12Z</time>
      </trkpt>
      <trkpt lat="47.16946" lon="-2.16591">
        <ele>15</ele>
        <time>2016-07-22T12:33:17Z</time>
      </trkpt>
      <trkpt lat="47.16917" lon="-2.16599">
        <ele>15</ele>
        <time>2016-07-22T12:33:23Z</time>
      </trkpt>
      <trkpt lat="47.16898" lon="-2.16605">
        <ele>16</ele>
        <time>2016-07-22T12:33:27Z</time>
      </trkpt>
      <trkpt lat="47.16877" lon="-2.16613">
        <ele>17</ele>
        <time>2016-07-22T12:33:32Z</time>
      </trkpt>
      <trkpt lat="47.16856" lon="-2.16622">
        <ele>16</ele>
        <time>2016-07-22T12:33:39Z</time>
      </trkpt>
      <trkpt lat="47.1685" lon="-2.16624">
        <ele>17</ele>
        <time>2016-07-22T12:33:42Z</time>
      </trkpt>
      <trkpt lat="47.16831" lon="-2.16632">
        <ele>18</ele>
        <time>2016-07-22T12:33:47Z</time>
      </trkpt>
      <trkpt lat="47.16808" lon="-2.16639">
        <ele>17</ele>
        <time>2016-07-22T12:33:52Z</time>
      </trkpt>
      <trkpt lat="47.16786" lon="-2.16647">
        <ele>17</ele>
        <time>2016-07-22T12:33:57Z</time>
      </trkpt>
      <trkpt lat="47.16765" lon="-2.16654">
        <ele>16</ele>
        <time>2016-07-22T12:34:02Z</time>
      </trkpt>
      <trkpt lat="47.16738" lon="-2.16659">
        <ele>13</ele>
        <time>2016-07-22T12:34:07Z</time>
      </trkpt>
      <trkpt lat="47.16712" lon="-2.1667">
        <ele>16</ele>
        <time>2016-07-22T12:34:12Z</time>
      </trkpt>
      <trkpt lat="47.16686" lon="-2.1668">
        <ele>16</ele>
        <time>2016-07-22T12:34:17Z</time>
      </trkpt>
      <trkpt lat="47.16658" lon="-2.1669">
        <ele>16</ele>
        <time>2016-07-22T12:34:22Z</time>
      </trkpt>
      <trkpt lat="47.16631" lon="-2.16699">
        <ele>15</ele>
        <time>2016-07-22T12:34:27Z</time>
      </trkpt>
      <trkpt lat="47.166" lon="-2.1671">
        <ele>15</ele>
        <time>2016-07-22T12:34:33Z</time>
      </trkpt>
      <trkpt lat="47.16578" lon="-2.16718">
        <ele>16</ele>
        <time>2016-07-22T12:34:37Z</time>
      </trkpt>
      <trkpt lat="47.16555" lon="-2.16732">
        <ele>16</ele>
        <time>2016-07-22T12:34:42Z</time>
      </trkpt>
      <trkpt lat="47.16535" lon="-2.16748">
        <ele>17</ele>
        <time>2016-07-22T12:34:47Z</time>
      </trkpt>
      <trkpt lat="47.16516" lon="-2.16771">
        <ele>16</ele>
        <time>2016-07-22T12:34:52Z</time>
      </trkpt>
      <trkpt lat="47.16494" lon="-2.16793">
        <ele>16</ele>
        <time>2016-07-22T12:34:57Z</time>
      </trkpt>
      <trkpt lat="47.16472" lon="-2.16816">
        <ele>14</ele>
        <time>2016-07-22T12:35:02Z</time>
      </trkpt>
      <trkpt lat="47.16452" lon="-2.16836">
        <ele>14</ele>
        <time>2016-07-22T12:35:07Z</time>
      </trkpt>
      <trkpt lat="47.16441" lon="-2.16852">
        <ele>15</ele>
        <time>2016-07-22T12:35:12Z</time>
      </trkpt>
      <trkpt lat="47.16438" lon="-2.16861">
        <ele>14</ele>
        <time>2016-07-22T12:35:17Z</time>
      </trkpt>
      <trkpt lat="47.16439" lon="-2.16861">
        <ele>14</ele>
        <time>2016-07-22T12:35:22Z</time>
      </trkpt>
      <trkpt lat="47.16439" lon="-2.16861">
        <ele>14</ele>
        <time>2016-07-22T12:35:27Z</time>
      </trkpt>
    </trkseg>
  </trk>
  <trk>
    <name><![CDATA[Sequence 23]]></name>
    <trkseg>
      <trkpt lat="47.16426" lon="-2.16855">
        <ele>18</ele>
        <time>2016-07-22T12:39:30Z</time>
      </trkpt>
      <trkpt lat="47.16426" lon="-2.16855">
        <ele>17</ele>
        <time>2016-07-22T12:39:33Z</time>
      </trkpt>
      <trkpt lat="47.16426" lon="-2.16855">
        <ele>17</ele>
        <time>2016-07-22T12:39:38Z</time>
      </trkpt>
      <trkpt lat="47.16423" lon="-2.16857">
        <ele>16</ele>
        <time>2016-07-22T12:39:43Z</time>
      </trkpt>
      <trkpt lat="47.16412" lon="-2.16871">
        <ele>16</ele>
        <time>2016-07-22T12:39:48Z</time>
      </trkpt>
      <trkpt lat="47.16396" lon="-2.16886">
        <ele>16</ele>
        <time>2016-07-22T12:39:53Z</time>
      </trkpt>
      <trkpt lat="47.1638" lon="-2.16905">
        <ele>18</ele>
        <time>2016-07-22T12:39:58Z</time>
      </trkpt>
      <trkpt lat="47.16361" lon="-2.16927">
        <ele>18</ele>
        <time>2016-07-22T12:40:03Z</time>
      </trkpt>
      <trkpt lat="47.16342" lon="-2.16947">
        <ele>17</ele>
        <time>2016-07-22T12:40:08Z</time>
      </trkpt>
      <trkpt lat="47.16322" lon="-2.16969">
        <ele>17</ele>
        <time>2016-07-22T12:40:13Z</time>
      </trkpt>
      <trkpt lat="47.16303" lon="-2.1699">
        <ele>17</ele>
        <time>2016-07-22T12:40:18Z</time>
      </trkpt>
      <trkpt lat="47.16297" lon="-2.16998">
        <ele>17</ele>
        <time>2016-07-22T12:40:23Z</time>
      </trkpt>
      <trkpt lat="47.163" lon="-2.16994">
        <ele>17</ele>
        <time>2016-07-22T12:40:28Z</time>
      </trkpt>
      <trkpt lat="47.163" lon="-2.16993">
        <ele>17</ele>
        <time>2016-07-22T12:40:33Z</time>
      </trkpt>
      <trkpt lat="47.163" lon="-2.16994">
        <ele>15</ele>
        <time>2016-07-22T12:40:38Z</time>
      </trkpt>
      <trkpt lat="47.16296" lon="-2.17001">
        <ele>14</ele>
        <time>2016-07-22T12:40:43Z</time>
      </trkpt>
      <trkpt lat="47.16281" lon="-2.17015">
        <ele>14</ele>
        <time>2016-07-22T12:40:48Z</time>
      </trkpt>
      <trkpt lat="47.16264" lon="-2.17033">
        <ele>12</ele>
        <time>2016-07-22T12:40:53Z</time>
      </trkpt>
      <trkpt lat="47.16241" lon="-2.17055">
        <ele>11</ele>
        <time>2016-07-22T12:40:59Z</time>
      </trkpt>
      <trkpt lat="47.16224" lon="-2.17072">
        <ele>11</ele>
        <time>2016-07-22T12:41:03Z</time>
      </trkpt>
      <trkpt lat="47.16203" lon="-2.17096">
        <ele>12</ele>
        <time>2016-07-22T12:41:08Z</time>
      </trkpt>
      <trkpt lat="47.16178" lon="-2.17121">
        <ele>11</ele>
        <time>2016-07-22T12:41:14Z</time>
      </trkpt>
      <trkpt lat="47.16161" lon="-2.17135">
        <ele>10</ele>
        <time>2016-07-22T12:41:18Z</time>
      </trkpt>
      <trkpt lat="47.16142" lon="-2.17152">
        <ele>12</ele>
        <time>2016-07-22T12:41:23Z</time>
      </trkpt>
      <trkpt lat="47.16121" lon="-2.17182">
        <ele>10</ele>
        <time>2016-07-22T12:41:29Z</time>
      </trkpt>
      <trkpt lat="47.16106" lon="-2.17199">
        <ele>11</ele>
        <time>2016-07-22T12:41:33Z</time>
      </trkpt>
      <trkpt lat="47.16086" lon="-2.1722">
        <ele>10</ele>
        <time>2016-07-22T12:41:38Z</time>
      </trkpt>
      <trkpt lat="47.16066" lon="-2.17241">
        <ele>10</ele>
        <time>2016-07-22T12:41:43Z</time>
      </trkpt>
      <trkpt lat="47.16047" lon="-2.17263">
        <ele>9</ele>
        <time>2016-07-22T12:41:48Z</time>
      </trkpt>
      <trkpt lat="47.16025" lon="-2.17283">
        <ele>8</ele>
        <time>2016-07-22T12:41:53Z</time>
      </trkpt>
      <trkpt lat="47.16007" lon="-2.17302">
        <ele>9</ele>
        <time>2016-07-22T12:41:58Z</time>
      </trkpt>
      <trkpt lat="47.15987" lon="-2.17323">
        <ele>11</ele>
        <time>2016-07-22T12:42:03Z</time>
      </trkpt>
      <trkpt lat="47.15966" lon="-2.1734">
        <ele>13</ele>
        <time>2016-07-22T12:42:08Z</time>
      </trkpt>
      <trkpt lat="47.15945" lon="-2.1736">
        <ele>13</ele>
        <time>2016-07-22T12:42:13Z</time>
      </trkpt>
      <trkpt lat="47.15923" lon="-2.1738">
        <ele>12</ele>
        <time>2016-07-22T12:42:18Z</time>
      </trkpt>
      <trkpt lat="47.15901" lon="-2.17401">
        <ele>12</ele>
        <time>2016-07-22T12:42:23Z</time>
      </trkpt>
      <trkpt lat="47.15879" lon="-2.17421">
        <ele>13</ele>
        <time>2016-07-22T12:42:28Z</time>
      </trkpt>
      <trkpt lat="47.15858" lon="-2.17444">
        <ele>13</ele>
        <time>2016-07-22T12:42:33Z</time>
      </trkpt>
      <trkpt lat="47.15838" lon="-2.17463">
        <ele>14</ele>
        <time>2016-07-22T12:42:38Z</time>
      </trkpt>
      <trkpt lat="47.15817" lon="-2.17481">
        <ele>15</ele>
        <time>2016-07-22T12:42:43Z</time>
      </trkpt>
      <trkpt lat="47.158" lon="-2.17501">
        <ele>15</ele>
        <time>2016-07-22T12:42:48Z</time>
      </trkpt>
      <trkpt lat="47.15781" lon="-2.17513">
        <ele>15</ele>
        <time>2016-07-22T12:42:53Z</time>
      </trkpt>
      <trkpt lat="47.1575" lon="-2.1751">
        <ele>12</ele>
        <time>2016-07-22T12:43:01Z</time>
      </trkpt>
      <trkpt lat="47.15742" lon="-2.17501">
        <ele>13</ele>
        <time>2016-07-22T12:43:03Z</time>
      </trkpt>
      <trkpt lat="47.15722" lon="-2.17477">
        <ele>12</ele>
        <time>2016-07-22T12:43:08Z</time>
      </trkpt>
      <trkpt lat="47.15708" lon="-2.17454">
        <ele>12</ele>
        <time>2016-07-22T12:43:13Z</time>
      </trkpt>
      <trkpt lat="47.15699" lon="-2.17426">
        <ele>14</ele>
        <time>2016-07-22T12:43:18Z</time>
      </trkpt>
      <trkpt lat="47.15696" lon="-2.17396">
        <ele>12</ele>
        <time>2016-07-22T12:43:23Z</time>
      </trkpt>
      <trkpt lat="47.15683" lon="-2.17387">
        <ele>8</ele>
        <time>2016-07-22T12:43:28Z</time>
      </trkpt>
      <trkpt lat="47.15665" lon="-2.17397">
        <ele>10</ele>
        <time>2016-07-22T12:43:33Z</time>
      </trkpt>
      <trkpt lat="47.1564" lon="-2.17413">
        <ele>9</ele>
        <time>2016-07-22T12:43:38Z</time>
      </trkpt>
      <trkpt lat="47.15613" lon="-2.17427">
        <ele>10</ele>
        <time>2016-07-22T12:43:43Z</time>
      </trkpt>
      <trkpt lat="47.15586" lon="-2.17442">
        <ele>10</ele>
        <time>2016-07-22T12:43:48Z</time>
      </trkpt>
      <trkpt lat="47.15562" lon="-2.17457">
        <ele>9</ele>
        <time>2016-07-22T12:43:53Z</time>
      </trkpt>
      <trkpt lat="47.15541" lon="-2.17468">
        <ele>8</ele>
        <time>2016-07-22T12:43:58Z</time>
      </trkpt>
      <trkpt lat="47.15536" lon="-2.17471">
        <ele>10</ele>
        <time>2016-07-22T12:44:03Z</time>
      </trkpt>
      <trkpt lat="47.15535" lon="-2.17471">
        <ele>9</ele>
        <time>2016-07-22T12:44:08Z</time>
      </trkpt>
    </trkseg>
  </trk>
  <trk>
    <name><![CDATA[Sequence 24]]></name>
    <trkseg>
      <trkpt lat="47.15709" lon="-2.17308">
        <ele>7</ele>
        <time>2016-07-22T12:49:00Z</time>
      </trkpt>
      <trkpt lat="47.1571" lon="-2.17279">
        <ele>4</ele>
        <time>2016-07-22T12:49:05Z</time>
      </trkpt>
      <trkpt lat="47.15713" lon="-2.17242">
        <ele>3</ele>
        <time>2016-07-22T12:49:10Z</time>
      </trkpt>
      <trkpt lat="47.1572" lon="-2.172">
        <ele>1</ele>
        <time>2016-07-22T12:49:15Z</time>
      </trkpt>
      <trkpt lat="47.15726" lon="-2.17162">
        <ele>1</ele>
        <time>2016-07-22T12:49:20Z</time>
      </trkpt>
      <trkpt lat="47.15734" lon="-2.17109">
        <ele>5</ele>
        <time>2016-07-22T12:49:28Z</time>
      </trkpt>
      <trkpt lat="47.15735" lon="-2.17095">
        <ele>6</ele>
        <time>2016-07-22T12:49:30Z</time>
      </trkpt>
      <trkpt lat="47.1574" lon="-2.17063">
        <ele>7</ele>
        <time>2016-07-22T12:49:35Z</time>
      </trkpt>
      <trkpt lat="47.15744" lon="-2.17028">
        <ele>7</ele>
        <time>2016-07-22T12:49:40Z</time>
      </trkpt>
      <trkpt lat="47.1575" lon="-2.17007">
        <ele>8</ele>
        <time>2016-07-22T12:49:45Z</time>
      </trkpt>
      <trkpt lat="47.15751" lon="-2.16963">
        <ele>10</ele>
        <time>2016-07-22T12:49:53Z</time>
      </trkpt>
      <trkpt lat="47.15749" lon="-2.1695">
        <ele>9</ele>
        <time>2016-07-22T12:49:55Z</time>
      </trkpt>
      <trkpt lat="47.15737" lon="-2.16917">
        <ele>13</ele>
        <time>2016-07-22T12:50:00Z</time>
      </trkpt>
      <trkpt lat="47.15723" lon="-2.16885">
        <ele>11</ele>
        <time>2016-07-22T12:50:05Z</time>
      </trkpt>
      <trkpt lat="47.157" lon="-2.16834">
        <ele>12</ele>
        <time>2016-07-22T12:50:13Z</time>
      </trkpt>
      <trkpt lat="47.15695" lon="-2.1682">
        <ele>11</ele>
        <time>2016-07-22T12:50:15Z</time>
      </trkpt>
      <trkpt lat="47.15681" lon="-2.16788">
        <ele>11</ele>
        <time>2016-07-22T12:50:20Z</time>
      </trkpt>
      <trkpt lat="47.15666" lon="-2.16757">
        <ele>11</ele>
        <time>2016-07-22T12:50:25Z</time>
      </trkpt>
      <trkpt lat="47.15653" lon="-2.16725">
        <ele>13</ele>
        <time>2016-07-22T12:50:30Z</time>
      </trkpt>
      <trkpt lat="47.15638" lon="-2.16687">
        <ele>12</ele>
        <time>2016-07-22T12:50:36Z</time>
      </trkpt>
      <trkpt lat="47.15626" lon="-2.16662">
        <ele>15</ele>
        <time>2016-07-22T12:50:40Z</time>
      </trkpt>
      <trkpt lat="47.15615" lon="-2.16629">
        <ele>15</ele>
        <time>2016-07-22T12:50:45Z</time>
      </trkpt>
      <trkpt lat="47.15604" lon="-2.16601">
        <ele>14</ele>
        <time>2016-07-22T12:50:50Z</time>
      </trkpt>
      <trkpt lat="47.15595" lon="-2.16575">
        <ele>12</ele>
        <time>2016-07-22T12:50:55Z</time>
      </trkpt>
      <trkpt lat="47.15585" lon="-2.16544">
        <ele>12</ele>
        <time>2016-07-22T12:51:00Z</time>
      </trkpt>
      <trkpt lat="47.15572" lon="-2.16535">
        <ele>12</ele>
        <time>2016-07-22T12:51:08Z</time>
      </trkpt>
      <trkpt lat="47.1557" lon="-2.16537">
        <ele>12</ele>
        <time>2016-07-22T12:51:10Z</time>
      </trkpt>
    </trkseg>
  </trk>
  <trk>
    <name><![CDATA[Sequence 25]]></name>
    <trkseg>
      <trkpt lat="47.15538" lon="-2.16528">
        <ele>13</ele>
        <time>2016-07-22T12:53:00Z</time>
      </trkpt>
      <trkpt lat="47.15524" lon="-2.16528">
        <ele>13</ele>
        <time>2016-07-22T12:53:05Z</time>
      </trkpt>
      <trkpt lat="47.15503" lon="-2.16532">
        <ele>12</ele>
        <time>2016-07-22T12:53:11Z</time>
      </trkpt>
      <trkpt lat="47.15492" lon="-2.16534">
        <ele>15</ele>
        <time>2016-07-22T12:53:15Z</time>
      </trkpt>
      <trkpt lat="47.1547" lon="-2.16536">
        <ele>17</ele>
        <time>2016-07-22T12:53:22Z</time>
      </trkpt>
      <trkpt lat="47.15461" lon="-2.16536">
        <ele>20</ele>
        <time>2016-07-22T12:53:25Z</time>
      </trkpt>
      <trkpt lat="47.15441" lon="-2.16534">
        <ele>20</ele>
        <time>2016-07-22T12:53:30Z</time>
      </trkpt>
      <trkpt lat="47.15428" lon="-2.16529">
        <ele>18</ele>
        <time>2016-07-22T12:53:35Z</time>
      </trkpt>
      <trkpt lat="47.15414" lon="-2.16527">
        <ele>23</ele>
        <time>2016-07-22T12:53:40Z</time>
      </trkpt>
      <trkpt lat="47.15396" lon="-2.16533">
        <ele>20</ele>
        <time>2016-07-22T12:53:47Z</time>
      </trkpt>
      <trkpt lat="47.15385" lon="-2.16517">
        <ele>22</ele>
        <time>2016-07-22T12:53:54Z</time>
      </trkpt>
      <trkpt lat="47.15381" lon="-2.16505">
        <ele>21</ele>
        <time>2016-07-22T12:53:56Z</time>
      </trkpt>
      <trkpt lat="47.15375" lon="-2.16479">
        <ele>19</ele>
        <time>2016-07-22T12:54:00Z</time>
      </trkpt>
    </trkseg>
  </trk>
  <trk>
    <name><![CDATA[Sequence 26]]></name>
    <trkseg>
      <trkpt lat="47.15323" lon="-2.16317">
        <ele>20</ele>
        <time>2016-07-22T12:54:29Z</time>
      </trkpt>
      <trkpt lat="47.15304" lon="-2.1629">
        <ele>20</ele>
        <time>2016-07-22T12:54:34Z</time>
      </trkpt>
      <trkpt lat="47.15288" lon="-2.16257">
        <ele>19</ele>
        <time>2016-07-22T12:54:39Z</time>
      </trkpt>
      <trkpt lat="47.15268" lon="-2.16225">
        <ele>19</ele>
        <time>2016-07-22T12:54:44Z</time>
      </trkpt>
      <trkpt lat="47.1524" lon="-2.16176">
        <ele>19</ele>
        <time>2016-07-22T12:54:52Z</time>
      </trkpt>
      <trkpt lat="47.15222" lon="-2.16139">
        <ele>19</ele>
        <time>2016-07-22T12:54:57Z</time>
      </trkpt>
      <trkpt lat="47.15215" lon="-2.16122">
        <ele>19</ele>
        <time>2016-07-22T12:54:59Z</time>
      </trkpt>
      <trkpt lat="47.15198" lon="-2.16072">
        <ele>17</ele>
        <time>2016-07-22T12:55:04Z</time>
      </trkpt>
      <trkpt lat="47.15183" lon="-2.16011">
        <ele>15</ele>
        <time>2016-07-22T12:55:09Z</time>
      </trkpt>
      <trkpt lat="47.1517" lon="-2.15948">
        <ele>13</ele>
        <time>2016-07-22T12:55:14Z</time>
      </trkpt>
      <trkpt lat="47.15129" lon="-2.15859">
        <ele>17</ele>
        <time>2016-07-22T12:55:23Z</time>
      </trkpt>
      <trkpt lat="47.15124" lon="-2.15851">
        <ele>15</ele>
        <time>2016-07-22T12:55:24Z</time>
      </trkpt>
      <trkpt lat="47.15107" lon="-2.15816">
        <ele>14</ele>
        <time>2016-07-22T12:55:29Z</time>
      </trkpt>
      <trkpt lat="47.15107" lon="-2.15806">
        <ele>12</ele>
        <time>2016-07-22T12:55:34Z</time>
      </trkpt>
    </trkseg>
  </trk>
  <trk>
    <name><![CDATA[Sequence 27]]></name>
    <trkseg>
      <trkpt lat="47.15119" lon="-2.15702">
        <ele>11</ele>
        <time>2016-07-22T12:57:56Z</time>
      </trkpt>
      <trkpt lat="47.15119" lon="-2.15702">
        <ele>11</ele>
        <time>2016-07-22T12:58:01Z</time>
      </trkpt>
      <trkpt lat="47.1512" lon="-2.15692">
        <ele>14</ele>
        <time>2016-07-22T12:58:08Z</time>
      </trkpt>
      <trkpt lat="47.1512" lon="-2.15678">
        <ele>18</ele>
        <time>2016-07-22T12:58:12Z</time>
      </trkpt>
      <trkpt lat="47.15122" lon="-2.15663">
        <ele>19</ele>
        <time>2016-07-22T12:58:16Z</time>
      </trkpt>
      <trkpt lat="47.15128" lon="-2.15624">
        <ele>30</ele>
        <time>2016-07-22T12:58:25Z</time>
      </trkpt>
      <trkpt lat="47.15129" lon="-2.15618">
        <ele>30</ele>
        <time>2016-07-22T12:58:26Z</time>
      </trkpt>
      <trkpt lat="47.15137" lon="-2.156">
        <ele>33</ele>
        <time>2016-07-22T12:58:31Z</time>
      </trkpt>
      <trkpt lat="47.15147" lon="-2.15582">
        <ele>35</ele>
        <time>2016-07-22T12:58:36Z</time>
      </trkpt>
      <trkpt lat="47.15161" lon="-2.1556">
        <ele>33</ele>
        <time>2016-07-22T12:58:41Z</time>
      </trkpt>
      <trkpt lat="47.15173" lon="-2.15538">
        <ele>34</ele>
        <time>2016-07-22T12:58:46Z</time>
      </trkpt>
      <trkpt lat="47.15184" lon="-2.1552">
        <ele>38</ele>
        <time>2016-07-22T12:58:51Z</time>
      </trkpt>
      <trkpt lat="47.15198" lon="-2.15497">
        <ele>40</ele>
        <time>2016-07-22T12:58:56Z</time>
      </trkpt>
      <trkpt lat="47.1521" lon="-2.15473">
        <ele>40</ele>
        <time>2016-07-22T12:59:01Z</time>
      </trkpt>
      <trkpt lat="47.15217" lon="-2.15445">
        <ele>41</ele>
        <time>2016-07-22T12:59:06Z</time>
      </trkpt>
      <trkpt lat="47.1522" lon="-2.15397">
        <ele>42</ele>
        <time>2016-07-22T12:59:14Z</time>
      </trkpt>
      <trkpt lat="47.15216" lon="-2.15366">
        <ele>47</ele>
        <time>2016-07-22T12:59:20Z</time>
      </trkpt>
      <trkpt lat="47.15221" lon="-2.15354">
        <ele>37</ele>
        <time>2016-07-22T12:59:21Z</time>
      </trkpt>
      <trkpt lat="47.15218" lon="-2.15317">
        <ele>37</ele>
        <time>2016-07-22T12:59:27Z</time>
      </trkpt>
      <trkpt lat="47.15216" lon="-2.15273">
        <ele>32</ele>
        <time>2016-07-22T12:59:33Z</time>
      </trkpt>
      <trkpt lat="47.15214" lon="-2.15253">
        <ele>32</ele>
        <time>2016-07-22T12:59:36Z</time>
      </trkpt>
      <trkpt lat="47.15209" lon="-2.15224">
        <ele>31</ele>
        <time>2016-07-22T12:59:41Z</time>
      </trkpt>
      <trkpt lat="47.15205" lon="-2.15187">
        <ele>30</ele>
        <time>2016-07-22T12:59:47Z</time>
      </trkpt>
      <trkpt lat="47.15199" lon="-2.15165">
        <ele>33</ele>
        <time>2016-07-22T12:59:51Z</time>
      </trkpt>
      <trkpt lat="47.152" lon="-2.15101">
        <ele>18</ele>
        <time>2016-07-22T12:59:59Z</time>
      </trkpt>
      <trkpt lat="47.15199" lon="-2.15089">
        <ele>18</ele>
        <time>2016-07-22T13:00:01Z</time>
      </trkpt>
      <trkpt lat="47.15196" lon="-2.15036">
        <ele>26</ele>
        <time>2016-07-22T13:00:10Z</time>
      </trkpt>
      <trkpt lat="47.15195" lon="-2.1503">
        <ele>27</ele>
        <time>2016-07-22T13:00:11Z</time>
      </trkpt>
      <trkpt lat="47.15192" lon="-2.14987">
        <ele>33</ele>
        <time>2016-07-22T13:00:19Z</time>
      </trkpt>
      <trkpt lat="47.15195" lon="-2.14958">
        <ele>38</ele>
        <time>2016-07-22T13:00:25Z</time>
      </trkpt>
      <trkpt lat="47.15197" lon="-2.14932">
        <ele>36</ele>
        <time>2016-07-22T13:00:29Z</time>
      </trkpt>
      <trkpt lat="47.15196" lon="-2.14921">
        <ele>42</ele>
        <time>2016-07-22T13:00:31Z</time>
      </trkpt>
      <trkpt lat="47.15198" lon="-2.14891">
        <ele>41</ele>
        <time>2016-07-22T13:00:36Z</time>
      </trkpt>
      <trkpt lat="47.152" lon="-2.14863">
        <ele>42</ele>
        <time>2016-07-22T13:00:41Z</time>
      </trkpt>
      <trkpt lat="47.15207" lon="-2.14825">
        <ele>22</ele>
        <time>2016-07-22T13:00:48Z</time>
      </trkpt>
      <trkpt lat="47.152" lon="-2.14827">
        <ele>25</ele>
        <time>2016-07-22T13:00:51Z</time>
      </trkpt>
      <trkpt lat="47.15182" lon="-2.14832">
        <ele>20</ele>
        <time>2016-07-22T13:00:56Z</time>
      </trkpt>
      <trkpt lat="47.15159" lon="-2.14838">
        <ele>20</ele>
        <time>2016-07-22T13:01:01Z</time>
      </trkpt>
      <trkpt lat="47.15137" lon="-2.14845">
        <ele>21</ele>
        <time>2016-07-22T13:01:06Z</time>
      </trkpt>
      <trkpt lat="47.15117" lon="-2.14849">
        <ele>20</ele>
        <time>2016-07-22T13:01:11Z</time>
      </trkpt>
      <trkpt lat="47.15102" lon="-2.14853">
        <ele>21</ele>
        <time>2016-07-22T13:01:16Z</time>
      </trkpt>
      <trkpt lat="47.15083" lon="-2.14858">
        <ele>19</ele>
        <time>2016-07-22T13:01:21Z</time>
      </trkpt>
      <trkpt lat="47.15057" lon="-2.14863">
        <ele>16</ele>
        <time>2016-07-22T13:01:26Z</time>
      </trkpt>
      <trkpt lat="47.15032" lon="-2.14866">
        <ele>15</ele>
        <time>2016-07-22T13:01:31Z</time>
      </trkpt>
      <trkpt lat="47.14999" lon="-2.14868">
        <ele>17</ele>
        <time>2016-07-22T13:01:38Z</time>
      </trkpt>
      <trkpt lat="47.14973" lon="-2.14866">
        <ele>18</ele>
        <time>2016-07-22T13:01:43Z</time>
      </trkpt>
      <trkpt lat="47.14939" lon="-2.14863">
        <ele>19</ele>
        <time>2016-07-22T13:01:50Z</time>
      </trkpt>
      <trkpt lat="47.14935" lon="-2.14864">
        <ele>19</ele>
        <time>2016-07-22T13:01:51Z</time>
      </trkpt>
      <trkpt lat="47.14896" lon="-2.14861">
        <ele>20</ele>
        <time>2016-07-22T13:02:00Z</time>
      </trkpt>
      <trkpt lat="47.14886" lon="-2.1486">
        <ele>20</ele>
        <time>2016-07-22T13:02:02Z</time>
      </trkpt>
      <trkpt lat="47.1487" lon="-2.1486">
        <ele>20</ele>
        <time>2016-07-22T13:02:06Z</time>
      </trkpt>
      <trkpt lat="47.14845" lon="-2.14858">
        <ele>19</ele>
        <time>2016-07-22T13:02:11Z</time>
      </trkpt>
      <trkpt lat="47.14821" lon="-2.14856">
        <ele>19</ele>
        <time>2016-07-22T13:02:16Z</time>
      </trkpt>
      <trkpt lat="47.14796" lon="-2.14852">
        <ele>20</ele>
        <time>2016-07-22T13:02:21Z</time>
      </trkpt>
      <trkpt lat="47.14774" lon="-2.14848">
        <ele>21</ele>
        <time>2016-07-22T13:02:26Z</time>
      </trkpt>
      <trkpt lat="47.14735" lon="-2.14833">
        <ele>22</ele>
        <time>2016-07-22T13:02:35Z</time>
      </trkpt>
      <trkpt lat="47.14731" lon="-2.14831">
        <ele>23</ele>
        <time>2016-07-22T13:02:36Z</time>
      </trkpt>
      <trkpt lat="47.14719" lon="-2.14827">
        <ele>21</ele>
        <time>2016-07-22T13:02:45Z</time>
      </trkpt>
      <trkpt lat="47.14719" lon="-2.14827">
        <ele>21</ele>
        <time>2016-07-22T13:02:46Z</time>
      </trkpt>
      <trkpt lat="47.14718" lon="-2.14825">
        <ele>22</ele>
        <time>2016-07-22T13:02:51Z</time>
      </trkpt>
      <trkpt lat="47.147" lon="-2.14791">
        <ele>23</ele>
        <time>2016-07-22T13:02:57Z</time>
      </trkpt>
      <trkpt lat="47.14679" lon="-2.14756">
        <ele>23</ele>
        <time>2016-07-22T13:03:03Z</time>
      </trkpt>
      <trkpt lat="47.14654" lon="-2.14708">
        <ele>24</ele>
        <time>2016-07-22T13:03:10Z</time>
      </trkpt>
      <trkpt lat="47.14648" lon="-2.14695">
        <ele>24</ele>
        <time>2016-07-22T13:03:12Z</time>
      </trkpt>
      <trkpt lat="47.1464" lon="-2.14664">
        <ele>27</ele>
        <time>2016-07-22T13:03:16Z</time>
      </trkpt>
      <trkpt lat="47.14635" lon="-2.14622">
        <ele>27</ele>
        <time>2016-07-22T13:03:21Z</time>
      </trkpt>
      <trkpt lat="47.14636" lon="-2.14568">
        <ele>27</ele>
        <time>2016-07-22T13:03:27Z</time>
      </trkpt>
      <trkpt lat="47.14635" lon="-2.14532">
        <ele>29</ele>
        <time>2016-07-22T13:03:31Z</time>
      </trkpt>
      <trkpt lat="47.14635" lon="-2.14455">
        <ele>26</ele>
        <time>2016-07-22T13:03:40Z</time>
      </trkpt>
      <trkpt lat="47.14636" lon="-2.14445">
        <ele>23</ele>
        <time>2016-07-22T13:03:41Z</time>
      </trkpt>
      <trkpt lat="47.14631" lon="-2.14395">
        <ele>27</ele>
        <time>2016-07-22T13:03:47Z</time>
      </trkpt>
      <trkpt lat="47.14623" lon="-2.14355">
        <ele>31</ele>
        <time>2016-07-22T13:03:52Z</time>
      </trkpt>
      <trkpt lat="47.14619" lon="-2.14321">
        <ele>33</ele>
        <time>2016-07-22T13:03:56Z</time>
      </trkpt>
      <trkpt lat="47.14616" lon="-2.1428">
        <ele>33</ele>
        <time>2016-07-22T13:04:01Z</time>
      </trkpt>
      <trkpt lat="47.14617" lon="-2.14236">
        <ele>30</ele>
        <time>2016-07-22T13:04:06Z</time>
      </trkpt>
      <trkpt lat="47.14618" lon="-2.14193">
        <ele>29</ele>
        <time>2016-07-22T13:04:11Z</time>
      </trkpt>
      <trkpt lat="47.14614" lon="-2.14137">
        <ele>29</ele>
        <time>2016-07-22T13:04:18Z</time>
      </trkpt>
      <trkpt lat="47.14613" lon="-2.14111">
        <ele>30</ele>
        <time>2016-07-22T13:04:21Z</time>
      </trkpt>
      <trkpt lat="47.14609" lon="-2.1407">
        <ele>34</ele>
        <time>2016-07-22T13:04:26Z</time>
      </trkpt>
      <trkpt lat="47.14605" lon="-2.14026">
        <ele>34</ele>
        <time>2016-07-22T13:04:31Z</time>
      </trkpt>
      <trkpt lat="47.14594" lon="-2.13984">
        <ele>36</ele>
        <time>2016-07-22T13:04:36Z</time>
      </trkpt>
      <trkpt lat="47.14572" lon="-2.13932">
        <ele>37</ele>
        <time>2016-07-22T13:04:44Z</time>
      </trkpt>
      <trkpt lat="47.14566" lon="-2.13916">
        <ele>32</ele>
        <time>2016-07-22T13:04:46Z</time>
      </trkpt>
      <trkpt lat="47.14541" lon="-2.13869">
        <ele>36</ele>
        <time>2016-07-22T13:04:53Z</time>
      </trkpt>
      <trkpt lat="47.14532" lon="-2.13848">
        <ele>36</ele>
        <time>2016-07-22T13:04:56Z</time>
      </trkpt>
      <trkpt lat="47.14522" lon="-2.13814">
        <ele>36</ele>
        <time>2016-07-22T13:05:01Z</time>
      </trkpt>
      <trkpt lat="47.14495" lon="-2.13764">
        <ele>35</ele>
        <time>2016-07-22T13:05:09Z</time>
      </trkpt>
      <trkpt lat="47.1449" lon="-2.13748">
        <ele>35</ele>
        <time>2016-07-22T13:05:11Z</time>
      </trkpt>
      <trkpt lat="47.14478" lon="-2.13703">
        <ele>38</ele>
        <time>2016-07-22T13:05:17Z</time>
      </trkpt>
      <trkpt lat="47.14476" lon="-2.13672">
        <ele>34</ele>
        <time>2016-07-22T13:05:21Z</time>
      </trkpt>
      <trkpt lat="47.14474" lon="-2.13632">
        <ele>31</ele>
        <time>2016-07-22T13:05:26Z</time>
      </trkpt>
      <trkpt lat="47.14471" lon="-2.13576">
        <ele>28</ele>
        <time>2016-07-22T13:05:33Z</time>
      </trkpt>
      <trkpt lat="47.14462" lon="-2.13524">
        <ele>31</ele>
        <time>2016-07-22T13:05:40Z</time>
      </trkpt>
      <trkpt lat="47.14458" lon="-2.13506">
        <ele>33</ele>
        <time>2016-07-22T13:05:43Z</time>
      </trkpt>
      <trkpt lat="47.1445" lon="-2.13488">
        <ele>37</ele>
        <time>2016-07-22T13:05:46Z</time>
      </trkpt>
      <trkpt lat="47.14439" lon="-2.13451">
        <ele>39</ele>
        <time>2016-07-22T13:05:51Z</time>
      </trkpt>
      <trkpt lat="47.14427" lon="-2.1342">
        <ele>43</ele>
        <time>2016-07-22T13:05:57Z</time>
      </trkpt>
      <trkpt lat="47.14412" lon="-2.13383">
        <ele>44</ele>
        <time>2016-07-22T13:06:03Z</time>
      </trkpt>
      <trkpt lat="47.14402" lon="-2.13375">
        <ele>43</ele>
        <time>2016-07-22T13:06:06Z</time>
      </trkpt>
      <trkpt lat="47.14375" lon="-2.1335">
        <ele>44</ele>
        <time>2016-07-22T13:06:13Z</time>
      </trkpt>
      <trkpt lat="47.14365" lon="-2.13341">
        <ele>43</ele>
        <time>2016-07-22T13:06:16Z</time>
      </trkpt>
      <trkpt lat="47.14348" lon="-2.13327">
        <ele>43</ele>
        <time>2016-07-22T13:06:21Z</time>
      </trkpt>
      <trkpt lat="47.14338" lon="-2.13313">
        <ele>43</ele>
        <time>2016-07-22T13:06:26Z</time>
      </trkpt>
      <trkpt lat="47.14325" lon="-2.13287">
        <ele>42</ele>
        <time>2016-07-22T13:06:31Z</time>
      </trkpt>
      <trkpt lat="47.14308" lon="-2.13232">
        <ele>41</ele>
        <time>2016-07-22T13:06:39Z</time>
      </trkpt>
      <trkpt lat="47.14302" lon="-2.13219">
        <ele>42</ele>
        <time>2016-07-22T13:06:41Z</time>
      </trkpt>
      <trkpt lat="47.14278" lon="-2.13183">
        <ele>43</ele>
        <time>2016-07-22T13:06:48Z</time>
      </trkpt>
      <trkpt lat="47.14267" lon="-2.1317">
        <ele>42</ele>
        <time>2016-07-22T13:06:51Z</time>
      </trkpt>
      <trkpt lat="47.14247" lon="-2.13147">
        <ele>43</ele>
        <time>2016-07-22T13:06:56Z</time>
      </trkpt>
      <trkpt lat="47.14227" lon="-2.13125">
        <ele>42</ele>
        <time>2016-07-22T13:07:01Z</time>
      </trkpt>
      <trkpt lat="47.14196" lon="-2.13102">
        <ele>43</ele>
        <time>2016-07-22T13:07:08Z</time>
      </trkpt>
      <trkpt lat="47.14177" lon="-2.13093">
        <ele>43</ele>
        <time>2016-07-22T13:07:12Z</time>
      </trkpt>
      <trkpt lat="47.14159" lon="-2.13088">
        <ele>43</ele>
        <time>2016-07-22T13:07:16Z</time>
      </trkpt>
      <trkpt lat="47.14139" lon="-2.1307">
        <ele>44</ele>
        <time>2016-07-22T13:07:22Z</time>
      </trkpt>
      <trkpt lat="47.14156" lon="-2.1305">
        <ele>50</ele>
        <time>2016-07-22T13:07:29Z</time>
      </trkpt>
      <trkpt lat="47.1416" lon="-2.13041">
        <ele>49</ele>
        <time>2016-07-22T13:07:31Z</time>
      </trkpt>
      <trkpt lat="47.14178" lon="-2.13001">
        <ele>50</ele>
        <time>2016-07-22T13:07:40Z</time>
      </trkpt>
      <trkpt lat="47.1419" lon="-2.12978">
        <ele>54</ele>
        <time>2016-07-22T13:07:45Z</time>
      </trkpt>
      <trkpt lat="47.14194" lon="-2.12967">
        <ele>55</ele>
        <time>2016-07-22T13:07:48Z</time>
      </trkpt>
      <trkpt lat="47.14199" lon="-2.12957">
        <ele>54</ele>
        <time>2016-07-22T13:07:51Z</time>
      </trkpt>
      <trkpt lat="47.1421" lon="-2.12931">
        <ele>56</ele>
        <time>2016-07-22T13:07:59Z</time>
      </trkpt>
      <trkpt lat="47.14215" lon="-2.12919">
        <ele>53</ele>
        <time>2016-07-22T13:08:01Z</time>
      </trkpt>
      <trkpt lat="47.14224" lon="-2.1289">
        <ele>52</ele>
        <time>2016-07-22T13:08:06Z</time>
      </trkpt>
      <trkpt lat="47.14232" lon="-2.1286">
        <ele>52</ele>
        <time>2016-07-22T13:08:11Z</time>
      </trkpt>
      <trkpt lat="47.1424" lon="-2.1283">
        <ele>52</ele>
        <time>2016-07-22T13:08:16Z</time>
      </trkpt>
      <trkpt lat="47.14247" lon="-2.12801">
        <ele>54</ele>
        <time>2016-07-22T13:08:21Z</time>
      </trkpt>
      <trkpt lat="47.14258" lon="-2.1277">
        <ele>54</ele>
        <time>2016-07-22T13:08:26Z</time>
      </trkpt>
      <trkpt lat="47.14288" lon="-2.12732">
        <ele>56</ele>
        <time>2016-07-22T13:08:35Z</time>
      </trkpt>
      <trkpt lat="47.14303" lon="-2.12716">
        <ele>57</ele>
        <time>2016-07-22T13:08:39Z</time>
      </trkpt>
      <trkpt lat="47.14313" lon="-2.12706">
        <ele>53</ele>
        <time>2016-07-22T13:08:41Z</time>
      </trkpt>
      <trkpt lat="47.14334" lon="-2.12691">
        <ele>54</ele>
        <time>2016-07-22T13:08:46Z</time>
      </trkpt>
      <trkpt lat="47.14357" lon="-2.12678">
        <ele>55</ele>
        <time>2016-07-22T13:08:51Z</time>
      </trkpt>
      <trkpt lat="47.14386" lon="-2.12663">
        <ele>56</ele>
        <time>2016-07-22T13:08:57Z</time>
      </trkpt>
      <trkpt lat="47.14403" lon="-2.12652">
        <ele>55</ele>
        <time>2016-07-22T13:09:01Z</time>
      </trkpt>
      <trkpt lat="47.14434" lon="-2.12632">
        <ele>55</ele>
        <time>2016-07-22T13:09:10Z</time>
      </trkpt>
      <trkpt lat="47.14434" lon="-2.12627">
        <ele>55</ele>
        <time>2016-07-22T13:09:11Z</time>
      </trkpt>
      <trkpt lat="47.14435" lon="-2.12594">
        <ele>55</ele>
        <time>2016-07-22T13:09:16Z</time>
      </trkpt>
      <trkpt lat="47.14435" lon="-2.12558">
        <ele>55</ele>
        <time>2016-07-22T13:09:21Z</time>
      </trkpt>
      <trkpt lat="47.14432" lon="-2.12513">
        <ele>50</ele>
        <time>2016-07-22T13:09:26Z</time>
      </trkpt>
      <trkpt lat="47.14423" lon="-2.12455">
        <ele>47</ele>
        <time>2016-07-22T13:09:33Z</time>
      </trkpt>
      <trkpt lat="47.14397" lon="-2.12405">
        <ele>49</ele>
        <time>2016-07-22T13:09:40Z</time>
      </trkpt>
      <trkpt lat="47.14383" lon="-2.12368">
        <ele>48</ele>
        <time>2016-07-22T13:09:45Z</time>
      </trkpt>
      <trkpt lat="47.14372" lon="-2.12344">
        <ele>48</ele>
        <time>2016-07-22T13:09:48Z</time>
      </trkpt>
      <trkpt lat="47.14364" lon="-2.12319">
        <ele>48</ele>
        <time>2016-07-22T13:09:51Z</time>
      </trkpt>
      <trkpt lat="47.14351" lon="-2.12257">
        <ele>48</ele>
        <time>2016-07-22T13:09:58Z</time>
      </trkpt>
      <trkpt lat="47.14338" lon="-2.12205">
        <ele>46</ele>
        <time>2016-07-22T13:10:04Z</time>
      </trkpt>
      <trkpt lat="47.14331" lon="-2.12168">
        <ele>49</ele>
        <time>2016-07-22T13:10:08Z</time>
      </trkpt>
      <trkpt lat="47.14329" lon="-2.12143">
        <ele>48</ele>
        <time>2016-07-22T13:10:11Z</time>
      </trkpt>
      <trkpt lat="47.14329" lon="-2.12101">
        <ele>48</ele>
        <time>2016-07-22T13:10:16Z</time>
      </trkpt>
      <trkpt lat="47.14338" lon="-2.12024">
        <ele>48</ele>
        <time>2016-07-22T13:10:24Z</time>
      </trkpt>
      <trkpt lat="47.1434" lon="-2.12004">
        <ele>47</ele>
        <time>2016-07-22T13:10:26Z</time>
      </trkpt>
      <trkpt lat="47.14321" lon="-2.11938">
        <ele>44</ele>
        <time>2016-07-22T13:10:34Z</time>
      </trkpt>
      <trkpt lat="47.1431" lon="-2.11926">
        <ele>44</ele>
        <time>2016-07-22T13:10:36Z</time>
      </trkpt>
      <trkpt lat="47.14271" lon="-2.11883">
        <ele>44</ele>
        <time>2016-07-22T13:10:43Z</time>
      </trkpt>
      <trkpt lat="47.14257" lon="-2.11863">
        <ele>43</ele>
        <time>2016-07-22T13:10:46Z</time>
      </trkpt>
      <trkpt lat="47.14236" lon="-2.1183">
        <ele>42</ele>
        <time>2016-07-22T13:10:51Z</time>
      </trkpt>
      <trkpt lat="47.14217" lon="-2.11792">
        <ele>41</ele>
        <time>2016-07-22T13:10:56Z</time>
      </trkpt>
      <trkpt lat="47.14195" lon="-2.11742">
        <ele>39</ele>
        <time>2016-07-22T13:11:03Z</time>
      </trkpt>
      <trkpt lat="47.14189" lon="-2.1172">
        <ele>41</ele>
        <time>2016-07-22T13:11:06Z</time>
      </trkpt>
      <trkpt lat="47.14178" lon="-2.11679">
        <ele>41</ele>
        <time>2016-07-22T13:11:11Z</time>
      </trkpt>
      <trkpt lat="47.14157" lon="-2.11612">
        <ele>43</ele>
        <time>2016-07-22T13:11:19Z</time>
      </trkpt>
      <trkpt lat="47.14153" lon="-2.11593">
        <ele>43</ele>
        <time>2016-07-22T13:11:21Z</time>
      </trkpt>
      <trkpt lat="47.14157" lon="-2.11546">
        <ele>43</ele>
        <time>2016-07-22T13:11:26Z</time>
      </trkpt>
      <trkpt lat="47.14163" lon="-2.1151">
        <ele>41</ele>
        <time>2016-07-22T13:11:31Z</time>
      </trkpt>
      <trkpt lat="47.14161" lon="-2.11491">
        <ele>41</ele>
        <time>2016-07-22T13:11:36Z</time>
      </trkpt>
      <trkpt lat="47.14159" lon="-2.11459">
        <ele>41</ele>
        <time>2016-07-22T13:11:41Z</time>
      </trkpt>
      <trkpt lat="47.14158" lon="-2.11418">
        <ele>41</ele>
        <time>2016-07-22T13:11:46Z</time>
      </trkpt>
      <trkpt lat="47.14153" lon="-2.11374">
        <ele>42</ele>
        <time>2016-07-22T13:11:51Z</time>
      </trkpt>
      <trkpt lat="47.14142" lon="-2.11328">
        <ele>40</ele>
        <time>2016-07-22T13:11:56Z</time>
      </trkpt>
      <trkpt lat="47.14128" lon="-2.11284">
        <ele>41</ele>
        <time>2016-07-22T13:12:01Z</time>
      </trkpt>
      <trkpt lat="47.14118" lon="-2.11236">
        <ele>43</ele>
        <time>2016-07-22T13:12:06Z</time>
      </trkpt>
      <trkpt lat="47.14114" lon="-2.1119">
        <ele>44</ele>
        <time>2016-07-22T13:12:11Z</time>
      </trkpt>
      <trkpt lat="47.14104" lon="-2.11133">
        <ele>48</ele>
        <time>2016-07-22T13:12:17Z</time>
      </trkpt>
      <trkpt lat="47.1408" lon="-2.11066">
        <ele>53</ele>
        <time>2016-07-22T13:12:25Z</time>
      </trkpt>
      <trkpt lat="47.14077" lon="-2.11057">
        <ele>53</ele>
        <time>2016-07-22T13:12:26Z</time>
      </trkpt>
      <trkpt lat="47.14069" lon="-2.11002">
        <ele>51</ele>
        <time>2016-07-22T13:12:32Z</time>
      </trkpt>
      <trkpt lat="47.14061" lon="-2.10944">
        <ele>48</ele>
        <time>2016-07-22T13:12:38Z</time>
      </trkpt>
      <trkpt lat="47.14058" lon="-2.10913">
        <ele>46</ele>
        <time>2016-07-22T13:12:41Z</time>
      </trkpt>
      <trkpt lat="47.14051" lon="-2.10865">
        <ele>47</ele>
        <time>2016-07-22T13:12:46Z</time>
      </trkpt>
      <trkpt lat="47.14042" lon="-2.1082">
        <ele>50</ele>
        <time>2016-07-22T13:12:51Z</time>
      </trkpt>
      <trkpt lat="47.14031" lon="-2.10746">
        <ele>51</ele>
        <time>2016-07-22T13:12:59Z</time>
      </trkpt>
      <trkpt lat="47.14026" lon="-2.10705">
        <ele>53</ele>
        <time>2016-07-22T13:13:04Z</time>
      </trkpt>
      <trkpt lat="47.14025" lon="-2.10686">
        <ele>51</ele>
        <time>2016-07-22T13:13:06Z</time>
      </trkpt>
      <trkpt lat="47.14027" lon="-2.10639">
        <ele>48</ele>
        <time>2016-07-22T13:13:11Z</time>
      </trkpt>
      <trkpt lat="47.1403" lon="-2.10597">
        <ele>48</ele>
        <time>2016-07-22T13:13:16Z</time>
      </trkpt>
      <trkpt lat="47.14032" lon="-2.10555">
        <ele>48</ele>
        <time>2016-07-22T13:13:21Z</time>
      </trkpt>
      <trkpt lat="47.14036" lon="-2.10511">
        <ele>48</ele>
        <time>2016-07-22T13:13:26Z</time>
      </trkpt>
      <trkpt lat="47.1404" lon="-2.10461">
        <ele>46</ele>
        <time>2016-07-22T13:13:31Z</time>
      </trkpt>
      <trkpt lat="47.14044" lon="-2.10412">
        <ele>45</ele>
        <time>2016-07-22T13:13:36Z</time>
      </trkpt>
      <trkpt lat="47.14054" lon="-2.10365">
        <ele>44</ele>
        <time>2016-07-22T13:13:41Z</time>
      </trkpt>
      <trkpt lat="47.14064" lon="-2.10321">
        <ele>43</ele>
        <time>2016-07-22T13:13:46Z</time>
      </trkpt>
      <trkpt lat="47.14071" lon="-2.10269">
        <ele>44</ele>
        <time>2016-07-22T13:13:52Z</time>
      </trkpt>
      <trkpt lat="47.14064" lon="-2.10215">
        <ele>43</ele>
        <time>2016-07-22T13:13:59Z</time>
      </trkpt>
      <trkpt lat="47.14056" lon="-2.10203">
        <ele>42</ele>
        <time>2016-07-22T13:14:02Z</time>
      </trkpt>
      <trkpt lat="47.14035" lon="-2.10211">
        <ele>41</ele>
        <time>2016-07-22T13:14:06Z</time>
      </trkpt>
      <trkpt lat="47.13984" lon="-2.10231">
        <ele>39</ele>
        <time>2016-07-22T13:14:14Z</time>
      </trkpt>
      <trkpt lat="47.13969" lon="-2.10237">
        <ele>39</ele>
        <time>2016-07-22T13:14:16Z</time>
      </trkpt>
      <trkpt lat="47.13934" lon="-2.10246">
        <ele>39</ele>
        <time>2016-07-22T13:14:21Z</time>
      </trkpt>
      <trkpt lat="47.13904" lon="-2.10257">
        <ele>36</ele>
        <time>2016-07-22T13:14:26Z</time>
      </trkpt>
      <trkpt lat="47.13855" lon="-2.1027">
        <ele>33</ele>
        <time>2016-07-22T13:14:33Z</time>
      </trkpt>
      <trkpt lat="47.13835" lon="-2.10277">
        <ele>34</ele>
        <time>2016-07-22T13:14:36Z</time>
      </trkpt>
      <trkpt lat="47.1378" lon="-2.10298">
        <ele>36</ele>
        <time>2016-07-22T13:14:45Z</time>
      </trkpt>
      <trkpt lat="47.13763" lon="-2.103">
        <ele>32</ele>
        <time>2016-07-22T13:14:48Z</time>
      </trkpt>
      <trkpt lat="47.13748" lon="-2.10303">
        <ele>30</ele>
        <time>2016-07-22T13:14:51Z</time>
      </trkpt>
      <trkpt lat="47.13724" lon="-2.1031">
        <ele>31</ele>
        <time>2016-07-22T13:14:56Z</time>
      </trkpt>
      <trkpt lat="47.13685" lon="-2.10318">
        <ele>32</ele>
        <time>2016-07-22T13:15:03Z</time>
      </trkpt>
      <trkpt lat="47.13668" lon="-2.10322">
        <ele>32</ele>
        <time>2016-07-22T13:15:06Z</time>
      </trkpt>
      <trkpt lat="47.1364" lon="-2.10336">
        <ele>34</ele>
        <time>2016-07-22T13:15:12Z</time>
      </trkpt>
      <trkpt lat="47.13623" lon="-2.10348">
        <ele>34</ele>
        <time>2016-07-22T13:15:16Z</time>
      </trkpt>
      <trkpt lat="47.13603" lon="-2.1036">
        <ele>34</ele>
        <time>2016-07-22T13:15:21Z</time>
      </trkpt>
      <trkpt lat="47.13583" lon="-2.10375">
        <ele>34</ele>
        <time>2016-07-22T13:15:26Z</time>
      </trkpt>
      <trkpt lat="47.13563" lon="-2.10387">
        <ele>35</ele>
        <time>2016-07-22T13:15:31Z</time>
      </trkpt>
      <trkpt lat="47.13542" lon="-2.10401">
        <ele>36</ele>
        <time>2016-07-22T13:15:36Z</time>
      </trkpt>
      <trkpt lat="47.13522" lon="-2.10414">
        <ele>36</ele>
        <time>2016-07-22T13:15:41Z</time>
      </trkpt>
      <trkpt lat="47.13495" lon="-2.10428">
        <ele>36</ele>
        <time>2016-07-22T13:15:48Z</time>
      </trkpt>
      <trkpt lat="47.13485" lon="-2.10437">
        <ele>38</ele>
        <time>2016-07-22T13:15:51Z</time>
      </trkpt>
      <trkpt lat="47.13456" lon="-2.10457">
        <ele>39</ele>
        <time>2016-07-22T13:15:58Z</time>
      </trkpt>
      <trkpt lat="47.13427" lon="-2.10476">
        <ele>39</ele>
        <time>2016-07-22T13:16:04Z</time>
      </trkpt>
      <trkpt lat="47.13412" lon="-2.10486">
        <ele>38</ele>
        <time>2016-07-22T13:16:07Z</time>
      </trkpt>
      <trkpt lat="47.13391" lon="-2.10497">
        <ele>37</ele>
        <time>2016-07-22T13:16:11Z</time>
      </trkpt>
      <trkpt lat="47.13368" lon="-2.10515">
        <ele>40</ele>
        <time>2016-07-22T13:16:16Z</time>
      </trkpt>
      <trkpt lat="47.13317" lon="-2.10543">
        <ele>38</ele>
        <time>2016-07-22T13:16:25Z</time>
      </trkpt>
      <trkpt lat="47.13296" lon="-2.10552">
        <ele>37</ele>
        <time>2016-07-22T13:16:28Z</time>
      </trkpt>
      <trkpt lat="47.13274" lon="-2.10561">
        <ele>36</ele>
        <time>2016-07-22T13:16:31Z</time>
      </trkpt>
      <trkpt lat="47.13232" lon="-2.10579">
        <ele>35</ele>
        <time>2016-07-22T13:16:37Z</time>
      </trkpt>
      <trkpt lat="47.13175" lon="-2.10608">
        <ele>32</ele>
        <time>2016-07-22T13:16:45Z</time>
      </trkpt>
      <trkpt lat="47.13166" lon="-2.10612">
        <ele>32</ele>
        <time>2016-07-22T13:16:46Z</time>
      </trkpt>
      <trkpt lat="47.13125" lon="-2.10638">
        <ele>30</ele>
        <time>2016-07-22T13:16:52Z</time>
      </trkpt>
      <trkpt lat="47.13083" lon="-2.10662">
        <ele>28</ele>
        <time>2016-07-22T13:16:59Z</time>
      </trkpt>
      <trkpt lat="47.1305" lon="-2.10678">
        <ele>30</ele>
        <time>2016-07-22T13:17:04Z</time>
      </trkpt>
      <trkpt lat="47.13033" lon="-2.10689">
        <ele>30</ele>
        <time>2016-07-22T13:17:07Z</time>
      </trkpt>
      <trkpt lat="47.13002" lon="-2.10705">
        <ele>31</ele>
        <time>2016-07-22T13:17:13Z</time>
      </trkpt>
      <trkpt lat="47.12984" lon="-2.1071">
        <ele>30</ele>
        <time>2016-07-22T13:17:16Z</time>
      </trkpt>
      <trkpt lat="47.12945" lon="-2.10735">
        <ele>29</ele>
        <time>2016-07-22T13:17:24Z</time>
      </trkpt>
      <trkpt lat="47.12932" lon="-2.10738">
        <ele>30</ele>
        <time>2016-07-22T13:17:26Z</time>
      </trkpt>
      <trkpt lat="47.12911" lon="-2.10747">
        <ele>30</ele>
        <time>2016-07-22T13:17:31Z</time>
      </trkpt>
      <trkpt lat="47.12879" lon="-2.10759">
        <ele>32</ele>
        <time>2016-07-22T13:17:38Z</time>
      </trkpt>
      <trkpt lat="47.12865" lon="-2.10763">
        <ele>31</ele>
        <time>2016-07-22T13:17:41Z</time>
      </trkpt>
      <trkpt lat="47.12844" lon="-2.1077">
        <ele>34</ele>
        <time>2016-07-22T13:17:46Z</time>
      </trkpt>
      <trkpt lat="47.12819" lon="-2.10778">
        <ele>34</ele>
        <time>2016-07-22T13:17:51Z</time>
      </trkpt>
      <trkpt lat="47.12786" lon="-2.10787">
        <ele>33</ele>
        <time>2016-07-22T13:17:58Z</time>
      </trkpt>
      <trkpt lat="47.1278" lon="-2.10792">
        <ele>33</ele>
        <time>2016-07-22T13:18:01Z</time>
      </trkpt>
      <trkpt lat="47.12748" lon="-2.10789">
        <ele>33</ele>
        <time>2016-07-22T13:18:08Z</time>
      </trkpt>
      <trkpt lat="47.12734" lon="-2.10788">
        <ele>33</ele>
        <time>2016-07-22T13:18:11Z</time>
      </trkpt>
      <trkpt lat="47.12717" lon="-2.10791">
        <ele>34</ele>
        <time>2016-07-22T13:18:16Z</time>
      </trkpt>
      <trkpt lat="47.12695" lon="-2.10781">
        <ele>38</ele>
        <time>2016-07-22T13:18:22Z</time>
      </trkpt>
      <trkpt lat="47.12686" lon="-2.10748">
        <ele>38</ele>
        <time>2016-07-22T13:18:30Z</time>
      </trkpt>
      <trkpt lat="47.12685" lon="-2.10744">
        <ele>39</ele>
        <time>2016-07-22T13:18:31Z</time>
      </trkpt>
      <trkpt lat="47.1268" lon="-2.10708">
        <ele>38</ele>
        <time>2016-07-22T13:18:36Z</time>
      </trkpt>
      <trkpt lat="47.12673" lon="-2.1067">
        <ele>45</ele>
        <time>2016-07-22T13:18:43Z</time>
      </trkpt>
      <trkpt lat="47.12671" lon="-2.10623">
        <ele>40</ele>
        <time>2016-07-22T13:18:49Z</time>
      </trkpt>
      <trkpt lat="47.1267" lon="-2.1061">
        <ele>41</ele>
        <time>2016-07-22T13:18:51Z</time>
      </trkpt>
      <trkpt lat="47.12656" lon="-2.10538">
        <ele>37</ele>
        <time>2016-07-22T13:19:00Z</time>
      </trkpt>
      <trkpt lat="47.12655" lon="-2.10532">
        <ele>36</ele>
        <time>2016-07-22T13:19:01Z</time>
      </trkpt>
      <trkpt lat="47.12641" lon="-2.105">
        <ele>45</ele>
        <time>2016-07-22T13:19:08Z</time>
      </trkpt>
      <trkpt lat="47.12638" lon="-2.10488">
        <ele>48</ele>
        <time>2016-07-22T13:19:11Z</time>
      </trkpt>
      <trkpt lat="47.1264" lon="-2.10467">
        <ele>52</ele>
        <time>2016-07-22T13:19:16Z</time>
      </trkpt>
      <trkpt lat="47.12631" lon="-2.10423">
        <ele>55</ele>
        <time>2016-07-22T13:19:22Z</time>
      </trkpt>
      <trkpt lat="47.12624" lon="-2.10381">
        <ele>50</ele>
        <time>2016-07-22T13:19:27Z</time>
      </trkpt>
      <trkpt lat="47.12619" lon="-2.10336">
        <ele>50</ele>
        <time>2016-07-22T13:19:33Z</time>
      </trkpt>
      <trkpt lat="47.12617" lon="-2.1031">
        <ele>50</ele>
        <time>2016-07-22T13:19:36Z</time>
      </trkpt>
      <trkpt lat="47.12612" lon="-2.10268">
        <ele>52</ele>
        <time>2016-07-22T13:19:41Z</time>
      </trkpt>
      <trkpt lat="47.12603" lon="-2.10228">
        <ele>48</ele>
        <time>2016-07-22T13:19:46Z</time>
      </trkpt>
      <trkpt lat="47.1259" lon="-2.10169">
        <ele>44</ele>
        <time>2016-07-22T13:19:53Z</time>
      </trkpt>
      <trkpt lat="47.12587" lon="-2.10135">
        <ele>42</ele>
        <time>2016-07-22T13:19:57Z</time>
      </trkpt>
      <trkpt lat="47.12581" lon="-2.10083">
        <ele>36</ele>
        <time>2016-07-22T13:20:02Z</time>
      </trkpt>
      <trkpt lat="47.12571" lon="-2.10052">
        <ele>35</ele>
        <time>2016-07-22T13:20:06Z</time>
      </trkpt>
      <trkpt lat="47.12559" lon="-2.10008">
        <ele>32</ele>
        <time>2016-07-22T13:20:11Z</time>
      </trkpt>
      <trkpt lat="47.12543" lon="-2.09966">
        <ele>32</ele>
        <time>2016-07-22T13:20:16Z</time>
      </trkpt>
      <trkpt lat="47.12521" lon="-2.09912">
        <ele>32</ele>
        <time>2016-07-22T13:20:23Z</time>
      </trkpt>
      <trkpt lat="47.12505" lon="-2.0987">
        <ele>28</ele>
        <time>2016-07-22T13:20:28Z</time>
      </trkpt>
      <trkpt lat="47.12484" lon="-2.09826">
        <ele>29</ele>
        <time>2016-07-22T13:20:34Z</time>
      </trkpt>
      <trkpt lat="47.12476" lon="-2.09813">
        <ele>29</ele>
        <time>2016-07-22T13:20:36Z</time>
      </trkpt>
      <trkpt lat="47.12457" lon="-2.09787">
        <ele>31</ele>
        <time>2016-07-22T13:20:41Z</time>
      </trkpt>
      <trkpt lat="47.12447" lon="-2.09772">
        <ele>33</ele>
        <time>2016-07-22T13:20:46Z</time>
      </trkpt>
      <trkpt lat="47.12446" lon="-2.09747">
        <ele>31</ele>
        <time>2016-07-22T13:20:51Z</time>
      </trkpt>
      <trkpt lat="47.1245" lon="-2.09721">
        <ele>32</ele>
        <time>2016-07-22T13:20:56Z</time>
      </trkpt>
      <trkpt lat="47.1245" lon="-2.09683">
        <ele>30</ele>
        <time>2016-07-22T13:21:01Z</time>
      </trkpt>
      <trkpt lat="47.1245" lon="-2.09617">
        <ele>33</ele>
        <time>2016-07-22T13:21:09Z</time>
      </trkpt>
      <trkpt lat="47.1245" lon="-2.09599">
        <ele>33</ele>
        <time>2016-07-22T13:21:11Z</time>
      </trkpt>
      <trkpt lat="47.12448" lon="-2.09538">
        <ele>33</ele>
        <time>2016-07-22T13:21:18Z</time>
      </trkpt>
      <trkpt lat="47.12447" lon="-2.09507">
        <ele>33</ele>
        <time>2016-07-22T13:21:22Z</time>
      </trkpt>
      <trkpt lat="47.12447" lon="-2.09477">
        <ele>34</ele>
        <time>2016-07-22T13:21:26Z</time>
      </trkpt>
      <trkpt lat="47.12447" lon="-2.0941">
        <ele>34</ele>
        <time>2016-07-22T13:21:35Z</time>
      </trkpt>
      <trkpt lat="47.12449" lon="-2.09391">
        <ele>35</ele>
        <time>2016-07-22T13:21:39Z</time>
      </trkpt>
      <trkpt lat="47.1245" lon="-2.0938">
        <ele>36</ele>
        <time>2016-07-22T13:21:41Z</time>
      </trkpt>
      <trkpt lat="47.12449" lon="-2.09351">
        <ele>36</ele>
        <time>2016-07-22T13:21:46Z</time>
      </trkpt>
      <trkpt lat="47.12444" lon="-2.09312">
        <ele>39</ele>
        <time>2016-07-22T13:21:52Z</time>
      </trkpt>
      <trkpt lat="47.12444" lon="-2.09285">
        <ele>37</ele>
        <time>2016-07-22T13:21:56Z</time>
      </trkpt>
      <trkpt lat="47.12435" lon="-2.0923">
        <ele>37</ele>
        <time>2016-07-22T13:22:04Z</time>
      </trkpt>
      <trkpt lat="47.12432" lon="-2.09217">
        <ele>38</ele>
        <time>2016-07-22T13:22:06Z</time>
      </trkpt>
      <trkpt lat="47.12434" lon="-2.09172">
        <ele>32</ele>
        <time>2016-07-22T13:22:14Z</time>
      </trkpt>
      <trkpt lat="47.12435" lon="-2.09159">
        <ele>31</ele>
        <time>2016-07-22T13:22:17Z</time>
      </trkpt>
      <trkpt lat="47.12437" lon="-2.0915">
        <ele>32</ele>
        <time>2016-07-22T13:22:21Z</time>
      </trkpt>
      <trkpt lat="47.12435" lon="-2.09135">
        <ele>34</ele>
        <time>2016-07-22T13:22:26Z</time>
      </trkpt>
      <trkpt lat="47.12432" lon="-2.09123">
        <ele>35</ele>
        <time>2016-07-22T13:22:31Z</time>
      </trkpt>
      <trkpt lat="47.12435" lon="-2.09116">
        <ele>28</ele>
        <time>2016-07-22T13:22:36Z</time>
      </trkpt>
      <trkpt lat="47.1243" lon="-2.09112">
        <ele>29</ele>
        <time>2016-07-22T13:22:41Z</time>
      </trkpt>
    </trkseg>
  </trk>
  <trk>
    <name><![CDATA[Sequence 28]]></name>
    <trkseg>
      <trkpt lat="47.12427" lon="-2.09109">
        <ele>26</ele>
        <time>2016-07-22T13:23:28Z</time>
      </trkpt>
      <trkpt lat="47.12427" lon="-2.09109">
        <ele>26</ele>
        <time>2016-07-22T13:23:33Z</time>
      </trkpt>
      <trkpt lat="47.12422" lon="-2.09107">
        <ele>24</ele>
        <time>2016-07-22T13:23:38Z</time>
      </trkpt>
      <trkpt lat="47.12415" lon="-2.09102">
        <ele>23</ele>
        <time>2016-07-22T13:23:43Z</time>
      </trkpt>
      <trkpt lat="47.12407" lon="-2.09099">
        <ele>22</ele>
        <time>2016-07-22T13:23:50Z</time>
      </trkpt>
      <trkpt lat="47.12398" lon="-2.09093">
        <ele>21</ele>
        <time>2016-07-22T13:23:55Z</time>
      </trkpt>
      <trkpt lat="47.12393" lon="-2.09088">
        <ele>18</ele>
        <time>2016-07-22T13:23:58Z</time>
      </trkpt>
      <trkpt lat="47.1238" lon="-2.0908">
        <ele>18</ele>
        <time>2016-07-22T13:24:03Z</time>
      </trkpt>
      <trkpt lat="47.12368" lon="-2.09074">
        <ele>16</ele>
        <time>2016-07-22T13:24:08Z</time>
      </trkpt>
      <trkpt lat="47.12351" lon="-2.09072">
        <ele>15</ele>
        <time>2016-07-22T13:24:13Z</time>
      </trkpt>
      <trkpt lat="47.12339" lon="-2.09071">
        <ele>15</ele>
        <time>2016-07-22T13:24:18Z</time>
      </trkpt>
      <trkpt lat="47.12316" lon="-2.09065">
        <ele>17</ele>
        <time>2016-07-22T13:24:25Z</time>
      </trkpt>
      <trkpt lat="47.12305" lon="-2.09059">
        <ele>18</ele>
        <time>2016-07-22T13:24:28Z</time>
      </trkpt>
      <trkpt lat="47.12282" lon="-2.09051">
        <ele>17</ele>
        <time>2016-07-22T13:24:33Z</time>
      </trkpt>
      <trkpt lat="47.12257" lon="-2.09063">
        <ele>16</ele>
        <time>2016-07-22T13:24:40Z</time>
      </trkpt>
      <trkpt lat="47.12241" lon="-2.09068">
        <ele>16</ele>
        <time>2016-07-22T13:24:43Z</time>
      </trkpt>
      <trkpt lat="47.12213" lon="-2.09071">
        <ele>14</ele>
        <time>2016-07-22T13:24:48Z</time>
      </trkpt>
      <trkpt lat="47.12201" lon="-2.09075">
        <ele>16</ele>
        <time>2016-07-22T13:24:54Z</time>
      </trkpt>
      <trkpt lat="47.12191" lon="-2.09075">
        <ele>16</ele>
        <time>2016-07-22T13:24:58Z</time>
      </trkpt>
      <trkpt lat="47.1217" lon="-2.09072">
        <ele>13</ele>
        <time>2016-07-22T13:25:03Z</time>
      </trkpt>
      <trkpt lat="47.12139" lon="-2.09079">
        <ele>11</ele>
        <time>2016-07-22T13:25:08Z</time>
      </trkpt>
      <trkpt lat="47.12117" lon="-2.09085">
        <ele>10</ele>
        <time>2016-07-22T13:25:13Z</time>
      </trkpt>
      <trkpt lat="47.121" lon="-2.0906">
        <ele>16</ele>
        <time>2016-07-22T13:25:18Z</time>
      </trkpt>
      <trkpt lat="47.12079" lon="-2.09055">
        <ele>15</ele>
        <time>2016-07-22T13:25:27Z</time>
      </trkpt>
      <trkpt lat="47.12064" lon="-2.09069">
        <ele>16</ele>
        <time>2016-07-22T13:25:32Z</time>
      </trkpt>
      <trkpt lat="47.12062" lon="-2.09071">
        <ele>16</ele>
        <time>2016-07-22T13:25:33Z</time>
      </trkpt>
      <trkpt lat="47.1204" lon="-2.09076">
        <ele>14</ele>
        <time>2016-07-22T13:25:39Z</time>
      </trkpt>
      <trkpt lat="47.12027" lon="-2.09075">
        <ele>15</ele>
        <time>2016-07-22T13:25:43Z</time>
      </trkpt>
      <trkpt lat="47.12017" lon="-2.09075">
        <ele>15</ele>
        <time>2016-07-22T13:25:48Z</time>
      </trkpt>
      <trkpt lat="47.12005" lon="-2.09071">
        <ele>13</ele>
        <time>2016-07-22T13:25:53Z</time>
      </trkpt>
      <trkpt lat="47.11971" lon="-2.09076">
        <ele>10</ele>
        <time>2016-07-22T13:26:02Z</time>
      </trkpt>
      <trkpt lat="47.11969" lon="-2.09075">
        <ele>10</ele>
        <time>2016-07-22T13:26:03Z</time>
      </trkpt>
      <trkpt lat="47.11961" lon="-2.09054">
        <ele>8</ele>
        <time>2016-07-22T13:26:10Z</time>
      </trkpt>
      <trkpt lat="47.11956" lon="-2.09052">
        <ele>6</ele>
        <time>2016-07-22T13:26:16Z</time>
      </trkpt>
      <trkpt lat="47.11948" lon="-2.09051">
        <ele>9</ele>
        <time>2016-07-22T13:26:22Z</time>
      </trkpt>
      <trkpt lat="47.11947" lon="-2.0905">
        <ele>9</ele>
        <time>2016-07-22T13:26:23Z</time>
      </trkpt>
      <trkpt lat="47.11934" lon="-2.09042">
        <ele>8</ele>
        <time>2016-07-22T13:26:32Z</time>
      </trkpt>
      <trkpt lat="47.11934" lon="-2.09042">
        <ele>7</ele>
        <time>2016-07-22T13:26:33Z</time>
      </trkpt>
    </trkseg>
  </trk>
  <trk>
    <name><![CDATA[Sequence 29]]></name>
    <trkseg>
      <trkpt lat="47.11892" lon="-2.09148">
        <ele>7</ele>
        <time>2016-07-22T13:29:36Z</time>
      </trkpt>
      <trkpt lat="47.11896" lon="-2.09158">
        <ele>8</ele>
        <time>2016-07-22T13:29:40Z</time>
      </trkpt>
      <trkpt lat="47.11898" lon="-2.09163">
        <ele>8</ele>
        <time>2016-07-22T13:29:42Z</time>
      </trkpt>
      <trkpt lat="47.11896" lon="-2.09176">
        <ele>10</ele>
        <time>2016-07-22T13:29:47Z</time>
      </trkpt>
      <trkpt lat="47.11897" lon="-2.0919">
        <ele>11</ele>
        <time>2016-07-22T13:29:52Z</time>
      </trkpt>
      <trkpt lat="47.11897" lon="-2.09201">
        <ele>11</ele>
        <time>2016-07-22T13:29:57Z</time>
      </trkpt>
      <trkpt lat="47.11901" lon="-2.09206">
        <ele>11</ele>
        <time>2016-07-22T13:30:02Z</time>
      </trkpt>
      <trkpt lat="47.11902" lon="-2.09213">
        <ele>14</ele>
        <time>2016-07-22T13:30:07Z</time>
      </trkpt>
      <trkpt lat="47.11901" lon="-2.09229">
        <ele>14</ele>
        <time>2016-07-22T13:30:12Z</time>
      </trkpt>
      <trkpt lat="47.11897" lon="-2.09249">
        <ele>16</ele>
        <time>2016-07-22T13:30:17Z</time>
      </trkpt>
      <trkpt lat="47.11895" lon="-2.09266">
        <ele>17</ele>
        <time>2016-07-22T13:30:22Z</time>
      </trkpt>
      <trkpt lat="47.11891" lon="-2.09288">
        <ele>18</ele>
        <time>2016-07-22T13:30:27Z</time>
      </trkpt>
      <trkpt lat="47.11876" lon="-2.09288">
        <ele>17</ele>
        <time>2016-07-22T13:30:32Z</time>
      </trkpt>
      <trkpt lat="47.11859" lon="-2.09279">
        <ele>17</ele>
        <time>2016-07-22T13:30:37Z</time>
      </trkpt>
      <trkpt lat="47.11841" lon="-2.0927">
        <ele>17</ele>
        <time>2016-07-22T13:30:42Z</time>
      </trkpt>
      <trkpt lat="47.1182" lon="-2.09258">
        <ele>13</ele>
        <time>2016-07-22T13:30:48Z</time>
      </trkpt>
      <trkpt lat="47.118" lon="-2.0925">
        <ele>14</ele>
        <time>2016-07-22T13:30:53Z</time>
      </trkpt>
      <trkpt lat="47.11789" lon="-2.09251">
        <ele>12</ele>
        <time>2016-07-22T13:30:59Z</time>
      </trkpt>
      <trkpt lat="47.11783" lon="-2.09248">
        <ele>12</ele>
        <time>2016-07-22T13:31:02Z</time>
      </trkpt>
      <trkpt lat="47.11778" lon="-2.0923">
        <ele>14</ele>
        <time>2016-07-22T13:31:07Z</time>
      </trkpt>
      <trkpt lat="47.11792" lon="-2.09226">
        <ele>15</ele>
        <time>2016-07-22T13:31:12Z</time>
      </trkpt>
      <trkpt lat="47.11794" lon="-2.0925">
        <ele>15</ele>
        <time>2016-07-22T13:31:17Z</time>
      </trkpt>
      <trkpt lat="47.11792" lon="-2.0927">
        <ele>13</ele>
        <time>2016-07-22T13:31:22Z</time>
      </trkpt>
      <trkpt lat="47.11791" lon="-2.09278">
        <ele>11</ele>
        <time>2016-07-22T13:31:27Z</time>
      </trkpt>
      <trkpt lat="47.11774" lon="-2.09275">
        <ele>11</ele>
        <time>2016-07-22T13:31:32Z</time>
      </trkpt>
      <trkpt lat="47.11751" lon="-2.09266">
        <ele>10</ele>
        <time>2016-07-22T13:31:37Z</time>
      </trkpt>
      <trkpt lat="47.11724" lon="-2.09258">
        <ele>10</ele>
        <time>2016-07-22T13:31:42Z</time>
      </trkpt>
      <trkpt lat="47.11694" lon="-2.0925">
        <ele>10</ele>
        <time>2016-07-22T13:31:47Z</time>
      </trkpt>
      <trkpt lat="47.11659" lon="-2.09252">
        <ele>5</ele>
        <time>2016-07-22T13:31:53Z</time>
      </trkpt>
      <trkpt lat="47.11634" lon="-2.09264">
        <ele>5</ele>
        <time>2016-07-22T13:31:58Z</time>
      </trkpt>
      <trkpt lat="47.11615" lon="-2.09279">
        <ele>5</ele>
        <time>2016-07-22T13:32:02Z</time>
      </trkpt>
      <trkpt lat="47.11601" lon="-2.09307">
        <ele>3</ele>
        <time>2016-07-22T13:32:07Z</time>
      </trkpt>
      <trkpt lat="47.11591" lon="-2.09341">
        <ele>3.5</ele>
        <time>2016-07-22T13:32:12Z</time>
      </trkpt>
      <trkpt lat="47.11574" lon="-2.09378">
        <ele>3.1</ele>
        <time>2016-07-22T13:32:17Z</time>
      </trkpt>
      <trkpt lat="47.11564" lon="-2.0941">
        <ele>1</ele>
        <time>2016-07-22T13:32:22Z</time>
      </trkpt>
      <trkpt lat="47.11557" lon="-2.09437">
        <ele>4</ele>
        <time>2016-07-22T13:32:27Z</time>
      </trkpt>
      <trkpt lat="47.1155" lon="-2.09467">
        <ele>5</ele>
        <time>2016-07-22T13:32:32Z</time>
      </trkpt>
      <trkpt lat="47.11548" lon="-2.09506">
        <ele>7</ele>
        <time>2016-07-22T13:32:38Z</time>
      </trkpt>
      <trkpt lat="47.11544" lon="-2.09549">
        <ele>3.2</ele>
        <time>2016-07-22T13:32:44Z</time>
      </trkpt>
      <trkpt lat="47.11543" lon="-2.09562">
        <ele>3.2</ele>
        <time>2016-07-22T13:32:47Z</time>
      </trkpt>
      <trkpt lat="47.11541" lon="-2.09591">
        <ele>3.6</ele>
        <time>2016-07-22T13:32:56Z</time>
      </trkpt>
      <trkpt lat="47.1154" lon="-2.09596">
        <ele>3.6</ele>
        <time>2016-07-22T13:32:57Z</time>
      </trkpt>
      <trkpt lat="47.1154" lon="-2.0962">
        <ele>1</ele>
        <time>2016-07-22T13:33:02Z</time>
      </trkpt>
      <trkpt lat="47.11541" lon="-2.09646">
        <ele>7</ele>
        <time>2016-07-22T13:33:07Z</time>
      </trkpt>
      <trkpt lat="47.11539" lon="-2.09683">
        <ele>10</ele>
        <time>2016-07-22T13:33:14Z</time>
      </trkpt>
      <trkpt lat="47.11538" lon="-2.09699">
        <ele>14</ele>
        <time>2016-07-22T13:33:17Z</time>
      </trkpt>
      <trkpt lat="47.11537" lon="-2.0973">
        <ele>11</ele>
        <time>2016-07-22T13:33:22Z</time>
      </trkpt>
      <trkpt lat="47.11541" lon="-2.09748">
        <ele>7</ele>
        <time>2016-07-22T13:33:28Z</time>
      </trkpt>
      <trkpt lat="47.1154" lon="-2.09761">
        <ele>8</ele>
        <time>2016-07-22T13:33:32Z</time>
      </trkpt>
      <trkpt lat="47.11542" lon="-2.09776">
        <ele>11</ele>
        <time>2016-07-22T13:33:37Z</time>
      </trkpt>
      <trkpt lat="47.1154" lon="-2.098">
        <ele>13</ele>
        <time>2016-07-22T13:33:44Z</time>
      </trkpt>
      <trkpt lat="47.11538" lon="-2.09811">
        <ele>13</ele>
        <time>2016-07-22T13:33:47Z</time>
      </trkpt>
      <trkpt lat="47.11532" lon="-2.09834">
        <ele>16</ele>
        <time>2016-07-22T13:33:52Z</time>
      </trkpt>
      <trkpt lat="47.11536" lon="-2.09861">
        <ele>14</ele>
        <time>2016-07-22T13:34:01Z</time>
      </trkpt>
    </trkseg>
  </trk>
  <trk>
    <name><![CDATA[Sequence 30]]></name>
    <trkseg>
      <trkpt lat="47.1143" lon="-2.0996">
        <ele>-2</ele>
        <time>2016-07-22T14:09:19Z</time>
      </trkpt>
      <trkpt lat="47.11427" lon="-2.0998">
        <ele>11</ele>
        <time>2016-07-22T14:09:25Z</time>
      </trkpt>
      <trkpt lat="47.11447" lon="-2.09996">
        <ele>20</ele>
        <time>2016-07-22T14:09:31Z</time>
      </trkpt>
      <trkpt lat="47.11438" lon="-2.10036">
        <ele>19</ele>
        <time>2016-07-22T14:09:38Z</time>
      </trkpt>
      <trkpt lat="47.11436" lon="-2.10042">
        <ele>19</ele>
        <time>2016-07-22T14:09:39Z</time>
      </trkpt>
      <trkpt lat="47.1143" lon="-2.10077">
        <ele>19</ele>
        <time>2016-07-22T14:09:44Z</time>
      </trkpt>
      <trkpt lat="47.11429" lon="-2.10107">
        <ele>18</ele>
        <time>2016-07-22T14:09:50Z</time>
      </trkpt>
      <trkpt lat="47.11425" lon="-2.10129">
        <ele>18</ele>
        <time>2016-07-22T14:09:54Z</time>
      </trkpt>
      <trkpt lat="47.11419" lon="-2.10162">
        <ele>21</ele>
        <time>2016-07-22T14:10:00Z</time>
      </trkpt>
      <trkpt lat="47.11415" lon="-2.10181">
        <ele>22</ele>
        <time>2016-07-22T14:10:04Z</time>
      </trkpt>
      <trkpt lat="47.11408" lon="-2.10206">
        <ele>22</ele>
        <time>2016-07-22T14:10:09Z</time>
      </trkpt>
      <trkpt lat="47.11395" lon="-2.10231">
        <ele>17</ele>
        <time>2016-07-22T14:10:14Z</time>
      </trkpt>
      <trkpt lat="47.11377" lon="-2.10252">
        <ele>11</ele>
        <time>2016-07-22T14:10:19Z</time>
      </trkpt>
      <trkpt lat="47.11358" lon="-2.10275">
        <ele>7</ele>
        <time>2016-07-22T14:10:24Z</time>
      </trkpt>
      <trkpt lat="47.11336" lon="-2.10311">
        <ele>3</ele>
        <time>2016-07-22T14:10:32Z</time>
      </trkpt>
      <trkpt lat="47.11322" lon="-2.10332">
        <ele>3</ele>
        <time>2016-07-22T14:10:37Z</time>
      </trkpt>
      <trkpt lat="47.11315" lon="-2.10338">
        <ele>3</ele>
        <time>2016-07-22T14:10:39Z</time>
      </trkpt>
      <trkpt lat="47.113" lon="-2.10351">
        <ele>3</ele>
        <time>2016-07-22T14:10:44Z</time>
      </trkpt>
      <trkpt lat="47.11289" lon="-2.10361">
        <ele>4</ele>
        <time>2016-07-22T14:10:49Z</time>
      </trkpt>
      <trkpt lat="47.11266" lon="-2.10373">
        <ele>5</ele>
        <time>2016-07-22T14:10:57Z</time>
      </trkpt>
      <trkpt lat="47.11255" lon="-2.10377">
        <ele>5</ele>
        <time>2016-07-22T14:11:01Z</time>
      </trkpt>
      <trkpt lat="47.11248" lon="-2.1038">
        <ele>5</ele>
        <time>2016-07-22T14:11:04Z</time>
      </trkpt>
      <trkpt lat="47.11234" lon="-2.10385">
        <ele>5</ele>
        <time>2016-07-22T14:11:09Z</time>
      </trkpt>
      <trkpt lat="47.11218" lon="-2.10411">
        <ele>6</ele>
        <time>2016-07-22T14:11:16Z</time>
      </trkpt>
      <trkpt lat="47.11212" lon="-2.10424">
        <ele>7</ele>
        <time>2016-07-22T14:11:19Z</time>
      </trkpt>
      <trkpt lat="47.11201" lon="-2.1044">
        <ele>8</ele>
        <time>2016-07-22T14:11:24Z</time>
      </trkpt>
      <trkpt lat="47.11184" lon="-2.10448">
        <ele>9</ele>
        <time>2016-07-22T14:11:29Z</time>
      </trkpt>
      <trkpt lat="47.11166" lon="-2.10451">
        <ele>8</ele>
        <time>2016-07-22T14:11:34Z</time>
      </trkpt>
      <trkpt lat="47.11147" lon="-2.10442">
        <ele>9</ele>
        <time>2016-07-22T14:11:39Z</time>
      </trkpt>
      <trkpt lat="47.11129" lon="-2.10426">
        <ele>8</ele>
        <time>2016-07-22T14:11:44Z</time>
      </trkpt>
      <trkpt lat="47.11104" lon="-2.1042">
        <ele>6</ele>
        <time>2016-07-22T14:11:49Z</time>
      </trkpt>
      <trkpt lat="47.11088" lon="-2.10442">
        <ele>7</ele>
        <time>2016-07-22T14:11:54Z</time>
      </trkpt>
      <trkpt lat="47.1108" lon="-2.1047">
        <ele>9</ele>
        <time>2016-07-22T14:11:59Z</time>
      </trkpt>
      <trkpt lat="47.11072" lon="-2.10492">
        <ele>11</ele>
        <time>2016-07-22T14:12:04Z</time>
      </trkpt>
      <trkpt lat="47.11066" lon="-2.10509">
        <ele>15</ele>
        <time>2016-07-22T14:12:09Z</time>
      </trkpt>
      <trkpt lat="47.11054" lon="-2.10525">
        <ele>15</ele>
        <time>2016-07-22T14:12:14Z</time>
      </trkpt>
      <trkpt lat="47.11043" lon="-2.1054">
        <ele>14</ele>
        <time>2016-07-22T14:12:19Z</time>
      </trkpt>
      <trkpt lat="47.11026" lon="-2.10559">
        <ele>14</ele>
        <time>2016-07-22T14:12:24Z</time>
      </trkpt>
      <trkpt lat="47.11003" lon="-2.10586">
        <ele>13</ele>
        <time>2016-07-22T14:12:29Z</time>
      </trkpt>
      <trkpt lat="47.10989" lon="-2.10617">
        <ele>13</ele>
        <time>2016-07-22T14:12:34Z</time>
      </trkpt>
      <trkpt lat="47.10992" lon="-2.10645">
        <ele>13</ele>
        <time>2016-07-22T14:12:39Z</time>
      </trkpt>
      <trkpt lat="47.10982" lon="-2.10687">
        <ele>13</ele>
        <time>2016-07-22T14:12:46Z</time>
      </trkpt>
      <trkpt lat="47.10972" lon="-2.10699">
        <ele>13</ele>
        <time>2016-07-22T14:12:49Z</time>
      </trkpt>
      <trkpt lat="47.10957" lon="-2.10721">
        <ele>12</ele>
        <time>2016-07-22T14:12:54Z</time>
      </trkpt>
      <trkpt lat="47.10939" lon="-2.10743">
        <ele>11</ele>
        <time>2016-07-22T14:12:59Z</time>
      </trkpt>
      <trkpt lat="47.1091" lon="-2.10733">
        <ele>12</ele>
        <time>2016-07-22T14:13:06Z</time>
      </trkpt>
      <trkpt lat="47.10883" lon="-2.10728">
        <ele>7</ele>
        <time>2016-07-22T14:13:12Z</time>
      </trkpt>
      <trkpt lat="47.10875" lon="-2.10731">
        <ele>6</ele>
        <time>2016-07-22T14:13:14Z</time>
      </trkpt>
      <trkpt lat="47.10852" lon="-2.10737">
        <ele>5</ele>
        <time>2016-07-22T14:13:19Z</time>
      </trkpt>
      <trkpt lat="47.10835" lon="-2.10714">
        <ele>4</ele>
        <time>2016-07-22T14:13:24Z</time>
      </trkpt>
      <trkpt lat="47.10817" lon="-2.10694">
        <ele>6</ele>
        <time>2016-07-22T14:13:29Z</time>
      </trkpt>
      <trkpt lat="47.10803" lon="-2.10666">
        <ele>6</ele>
        <time>2016-07-22T14:13:34Z</time>
      </trkpt>
      <trkpt lat="47.1078" lon="-2.1064">
        <ele>7</ele>
        <time>2016-07-22T14:13:40Z</time>
      </trkpt>
      <trkpt lat="47.10753" lon="-2.10613">
        <ele>5</ele>
        <time>2016-07-22T14:13:47Z</time>
      </trkpt>
      <trkpt lat="47.10746" lon="-2.10603">
        <ele>3</ele>
        <time>2016-07-22T14:13:49Z</time>
      </trkpt>
      <trkpt lat="47.1073" lon="-2.10591">
        <ele>4</ele>
        <time>2016-07-22T14:13:54Z</time>
      </trkpt>
      <trkpt lat="47.10712" lon="-2.10586">
        <ele>5</ele>
        <time>2016-07-22T14:13:59Z</time>
      </trkpt>
      <trkpt lat="47.10708" lon="-2.10581">
        <ele>5</ele>
        <time>2016-07-22T14:14:04Z</time>
      </trkpt>
      <trkpt lat="47.10719" lon="-2.10584">
        <ele>7</ele>
        <time>2016-07-22T14:14:09Z</time>
      </trkpt>
      <trkpt lat="47.10733" lon="-2.10574">
        <ele>19</ele>
        <time>2016-07-22T14:14:16Z</time>
      </trkpt>
      <trkpt lat="47.10733" lon="-2.10571">
        <ele>19</ele>
        <time>2016-07-22T14:14:19Z</time>
      </trkpt>
      <trkpt lat="47.10737" lon="-2.10554">
        <ele>19</ele>
        <time>2016-07-22T14:14:24Z</time>
      </trkpt>
      <trkpt lat="47.10746" lon="-2.10538">
        <ele>16</ele>
        <time>2016-07-22T14:14:29Z</time>
      </trkpt>
      <trkpt lat="47.10757" lon="-2.10511">
        <ele>18</ele>
        <time>2016-07-22T14:14:38Z</time>
      </trkpt>
      <trkpt lat="47.10761" lon="-2.10503">
        <ele>19</ele>
        <time>2016-07-22T14:14:40Z</time>
      </trkpt>
      <trkpt lat="47.10769" lon="-2.10489">
        <ele>21</ele>
        <time>2016-07-22T14:14:45Z</time>
      </trkpt>
      <trkpt lat="47.10777" lon="-2.10466">
        <ele>20</ele>
        <time>2016-07-22T14:14:52Z</time>
      </trkpt>
      <trkpt lat="47.10788" lon="-2.10441">
        <ele>22</ele>
        <time>2016-07-22T14:14:58Z</time>
      </trkpt>
      <trkpt lat="47.10794" lon="-2.1043">
        <ele>19</ele>
        <time>2016-07-22T14:15:01Z</time>
      </trkpt>
      <trkpt lat="47.10798" lon="-2.10423">
        <ele>17</ele>
        <time>2016-07-22T14:15:04Z</time>
      </trkpt>
      <trkpt lat="47.10805" lon="-2.10403">
        <ele>18</ele>
        <time>2016-07-22T14:15:10Z</time>
      </trkpt>
      <trkpt lat="47.10811" lon="-2.10389">
        <ele>18</ele>
        <time>2016-07-22T14:15:14Z</time>
      </trkpt>
      <trkpt lat="47.10824" lon="-2.10362">
        <ele>20</ele>
        <time>2016-07-22T14:15:23Z</time>
      </trkpt>
      <trkpt lat="47.10826" lon="-2.10358">
        <ele>19</ele>
        <time>2016-07-22T14:15:24Z</time>
      </trkpt>
      <trkpt lat="47.10832" lon="-2.10344">
        <ele>15</ele>
        <time>2016-07-22T14:15:29Z</time>
      </trkpt>
      <trkpt lat="47.1084" lon="-2.10327">
        <ele>16</ele>
        <time>2016-07-22T14:15:34Z</time>
      </trkpt>
      <trkpt lat="47.1085" lon="-2.10305">
        <ele>16</ele>
        <time>2016-07-22T14:15:39Z</time>
      </trkpt>
      <trkpt lat="47.10863" lon="-2.10279">
        <ele>19</ele>
        <time>2016-07-22T14:15:46Z</time>
      </trkpt>
      <trkpt lat="47.1087" lon="-2.10262">
        <ele>20</ele>
        <time>2016-07-22T14:15:49Z</time>
      </trkpt>
      <trkpt lat="47.10887" lon="-2.1022">
        <ele>20</ele>
        <time>2016-07-22T14:15:57Z</time>
      </trkpt>
      <trkpt lat="47.10893" lon="-2.1021">
        <ele>20</ele>
        <time>2016-07-22T14:15:59Z</time>
      </trkpt>
      <trkpt lat="47.10903" lon="-2.10185">
        <ele>23</ele>
        <time>2016-07-22T14:16:04Z</time>
      </trkpt>
      <trkpt lat="47.10915" lon="-2.10161">
        <ele>23</ele>
        <time>2016-07-22T14:16:09Z</time>
      </trkpt>
      <trkpt lat="47.1093" lon="-2.10128">
        <ele>24</ele>
        <time>2016-07-22T14:16:16Z</time>
      </trkpt>
      <trkpt lat="47.10936" lon="-2.10115">
        <ele>26</ele>
        <time>2016-07-22T14:16:19Z</time>
      </trkpt>
      <trkpt lat="47.10946" lon="-2.10091">
        <ele>28</ele>
        <time>2016-07-22T14:16:24Z</time>
      </trkpt>
      <trkpt lat="47.10963" lon="-2.10053">
        <ele>31</ele>
        <time>2016-07-22T14:16:32Z</time>
      </trkpt>
      <trkpt lat="47.10967" lon="-2.10044">
        <ele>31</ele>
        <time>2016-07-22T14:16:34Z</time>
      </trkpt>
      <trkpt lat="47.10978" lon="-2.10018">
        <ele>30</ele>
        <time>2016-07-22T14:16:42Z</time>
      </trkpt>
      <trkpt lat="47.1099" lon="-2.10001">
        <ele>27</ele>
        <time>2016-07-22T14:16:47Z</time>
      </trkpt>
    </trkseg>
  </trk>
  <trk>
    <name><![CDATA[Sequence 31]]></name>
    <trkseg>
      <trkpt lat="47.11038" lon="-2.09895">
        <ele>29</ele>
        <time>2016-07-22T14:17:16Z</time>
      </trkpt>
      <trkpt lat="47.11044" lon="-2.09867">
        <ele>29</ele>
        <time>2016-07-22T14:17:21Z</time>
      </trkpt>
      <trkpt lat="47.11043" lon="-2.09835">
        <ele>30</ele>
        <time>2016-07-22T14:17:26Z</time>
      </trkpt>
      <trkpt lat="47.11037" lon="-2.09803">
        <ele>29</ele>
        <time>2016-07-22T14:17:31Z</time>
      </trkpt>
      <trkpt lat="47.11026" lon="-2.09774">
        <ele>29</ele>
        <time>2016-07-22T14:17:36Z</time>
      </trkpt>
      <trkpt lat="47.11013" lon="-2.09723">
        <ele>29</ele>
        <time>2016-07-22T14:17:43Z</time>
      </trkpt>
      <trkpt lat="47.10995" lon="-2.09677">
        <ele>26</ele>
        <time>2016-07-22T14:17:50Z</time>
      </trkpt>
      <trkpt lat="47.10991" lon="-2.09661">
        <ele>25</ele>
        <time>2016-07-22T14:17:52Z</time>
      </trkpt>
      <trkpt lat="47.1098" lon="-2.09619">
        <ele>25</ele>
        <time>2016-07-22T14:17:58Z</time>
      </trkpt>
      <trkpt lat="47.10974" lon="-2.09595">
        <ele>24</ele>
        <time>2016-07-22T14:18:01Z</time>
      </trkpt>
      <trkpt lat="47.1096" lon="-2.09543">
        <ele>23</ele>
        <time>2016-07-22T14:18:07Z</time>
      </trkpt>
      <trkpt lat="47.10952" lon="-2.09523">
        <ele>23</ele>
        <time>2016-07-22T14:18:11Z</time>
      </trkpt>
      <trkpt lat="47.10939" lon="-2.09499">
        <ele>24</ele>
        <time>2016-07-22T14:18:16Z</time>
      </trkpt>
      <trkpt lat="47.10929" lon="-2.09469">
        <ele>25</ele>
        <time>2016-07-22T14:18:21Z</time>
      </trkpt>
      <trkpt lat="47.10914" lon="-2.09438">
        <ele>24</ele>
        <time>2016-07-22T14:18:26Z</time>
      </trkpt>
      <trkpt lat="47.10903" lon="-2.09404">
        <ele>20</ele>
        <time>2016-07-22T14:18:31Z</time>
      </trkpt>
      <trkpt lat="47.10885" lon="-2.09376">
        <ele>20</ele>
        <time>2016-07-22T14:18:36Z</time>
      </trkpt>
      <trkpt lat="47.10868" lon="-2.09347">
        <ele>20</ele>
        <time>2016-07-22T14:18:41Z</time>
      </trkpt>
      <trkpt lat="47.10854" lon="-2.09316">
        <ele>21</ele>
        <time>2016-07-22T14:18:46Z</time>
      </trkpt>
      <trkpt lat="47.1084" lon="-2.09281">
        <ele>21</ele>
        <time>2016-07-22T14:18:51Z</time>
      </trkpt>
      <trkpt lat="47.10831" lon="-2.09243">
        <ele>21</ele>
        <time>2016-07-22T14:18:56Z</time>
      </trkpt>
      <trkpt lat="47.10826" lon="-2.09204">
        <ele>21</ele>
        <time>2016-07-22T14:19:01Z</time>
      </trkpt>
      <trkpt lat="47.10821" lon="-2.09165">
        <ele>23</ele>
        <time>2016-07-22T14:19:06Z</time>
      </trkpt>
      <trkpt lat="47.10815" lon="-2.09131">
        <ele>22</ele>
        <time>2016-07-22T14:19:11Z</time>
      </trkpt>
      <trkpt lat="47.10797" lon="-2.09096">
        <ele>23</ele>
        <time>2016-07-22T14:19:18Z</time>
      </trkpt>
      <trkpt lat="47.10785" lon="-2.09083">
        <ele>22</ele>
        <time>2016-07-22T14:19:21Z</time>
      </trkpt>
      <trkpt lat="47.10764" lon="-2.0907">
        <ele>21</ele>
        <time>2016-07-22T14:19:26Z</time>
      </trkpt>
      <trkpt lat="47.10752" lon="-2.09068">
        <ele>22</ele>
        <time>2016-07-22T14:19:31Z</time>
      </trkpt>
      <trkpt lat="47.10748" lon="-2.09049">
        <ele>25</ele>
        <time>2016-07-22T14:19:36Z</time>
      </trkpt>
      <trkpt lat="47.10739" lon="-2.09006">
        <ele>22</ele>
        <time>2016-07-22T14:19:42Z</time>
      </trkpt>
      <trkpt lat="47.10732" lon="-2.08968">
        <ele>21</ele>
        <time>2016-07-22T14:19:47Z</time>
      </trkpt>
      <trkpt lat="47.10739" lon="-2.08928">
        <ele>23</ele>
        <time>2016-07-22T14:19:53Z</time>
      </trkpt>
      <trkpt lat="47.10756" lon="-2.08893">
        <ele>24</ele>
        <time>2016-07-22T14:19:59Z</time>
      </trkpt>
      <trkpt lat="47.1076" lon="-2.08883">
        <ele>26</ele>
        <time>2016-07-22T14:20:01Z</time>
      </trkpt>
      <trkpt lat="47.10765" lon="-2.08852">
        <ele>25</ele>
        <time>2016-07-22T14:20:06Z</time>
      </trkpt>
      <trkpt lat="47.10766" lon="-2.0882">
        <ele>19</ele>
        <time>2016-07-22T14:20:11Z</time>
      </trkpt>
      <trkpt lat="47.10753" lon="-2.08782">
        <ele>24</ele>
        <time>2016-07-22T14:20:18Z</time>
      </trkpt>
      <trkpt lat="47.10749" lon="-2.08764">
        <ele>24</ele>
        <time>2016-07-22T14:20:21Z</time>
      </trkpt>
      <trkpt lat="47.10738" lon="-2.08727">
        <ele>23</ele>
        <time>2016-07-22T14:20:27Z</time>
      </trkpt>
      <trkpt lat="47.10733" lon="-2.08703">
        <ele>22</ele>
        <time>2016-07-22T14:20:31Z</time>
      </trkpt>
      <trkpt lat="47.10724" lon="-2.08666">
        <ele>23</ele>
        <time>2016-07-22T14:20:38Z</time>
      </trkpt>
      <trkpt lat="47.10717" lon="-2.0865">
        <ele>23</ele>
        <time>2016-07-22T14:20:41Z</time>
      </trkpt>
      <trkpt lat="47.10708" lon="-2.08621">
        <ele>25</ele>
        <time>2016-07-22T14:20:46Z</time>
      </trkpt>
      <trkpt lat="47.10706" lon="-2.08581">
        <ele>25</ele>
        <time>2016-07-22T14:20:51Z</time>
      </trkpt>
      <trkpt lat="47.10702" lon="-2.08528">
        <ele>25</ele>
        <time>2016-07-22T14:20:57Z</time>
      </trkpt>
      <trkpt lat="47.10683" lon="-2.08465">
        <ele>24</ele>
        <time>2016-07-22T14:21:05Z</time>
      </trkpt>
      <trkpt lat="47.10675" lon="-2.08451">
        <ele>24</ele>
        <time>2016-07-22T14:21:07Z</time>
      </trkpt>
      <trkpt lat="47.1066" lon="-2.08425">
        <ele>26</ele>
        <time>2016-07-22T14:21:11Z</time>
      </trkpt>
      <trkpt lat="47.10642" lon="-2.08392">
        <ele>25</ele>
        <time>2016-07-22T14:21:16Z</time>
      </trkpt>
      <trkpt lat="47.10625" lon="-2.08359">
        <ele>24</ele>
        <time>2016-07-22T14:21:21Z</time>
      </trkpt>
      <trkpt lat="47.10608" lon="-2.08331">
        <ele>23</ele>
        <time>2016-07-22T14:21:26Z</time>
      </trkpt>
      <trkpt lat="47.10596" lon="-2.08302">
        <ele>22</ele>
        <time>2016-07-22T14:21:31Z</time>
      </trkpt>
      <trkpt lat="47.10579" lon="-2.08277">
        <ele>23</ele>
        <time>2016-07-22T14:21:36Z</time>
      </trkpt>
      <trkpt lat="47.10563" lon="-2.08247">
        <ele>23</ele>
        <time>2016-07-22T14:21:41Z</time>
      </trkpt>
      <trkpt lat="47.10547" lon="-2.08214">
        <ele>23</ele>
        <time>2016-07-22T14:21:46Z</time>
      </trkpt>
      <trkpt lat="47.10529" lon="-2.08175">
        <ele>22</ele>
        <time>2016-07-22T14:21:51Z</time>
      </trkpt>
      <trkpt lat="47.1051" lon="-2.08134">
        <ele>20</ele>
        <time>2016-07-22T14:21:56Z</time>
      </trkpt>
      <trkpt lat="47.10492" lon="-2.08096">
        <ele>20</ele>
        <time>2016-07-22T14:22:01Z</time>
      </trkpt>
      <trkpt lat="47.10476" lon="-2.08062">
        <ele>21</ele>
        <time>2016-07-22T14:22:06Z</time>
      </trkpt>
      <trkpt lat="47.10456" lon="-2.08038">
        <ele>20</ele>
        <time>2016-07-22T14:22:11Z</time>
      </trkpt>
      <trkpt lat="47.10436" lon="-2.08015">
        <ele>20</ele>
        <time>2016-07-22T14:22:16Z</time>
      </trkpt>
      <trkpt lat="47.10423" lon="-2.08009">
        <ele>19</ele>
        <time>2016-07-22T14:22:21Z</time>
      </trkpt>
      <trkpt lat="47.10416" lon="-2.07984">
        <ele>21</ele>
        <time>2016-07-22T14:22:26Z</time>
      </trkpt>
      <trkpt lat="47.10409" lon="-2.0795">
        <ele>22</ele>
        <time>2016-07-22T14:22:31Z</time>
      </trkpt>
      <trkpt lat="47.10388" lon="-2.07891">
        <ele>21</ele>
        <time>2016-07-22T14:22:39Z</time>
      </trkpt>
      <trkpt lat="47.10386" lon="-2.07875">
        <ele>20</ele>
        <time>2016-07-22T14:22:41Z</time>
      </trkpt>
      <trkpt lat="47.10393" lon="-2.07829">
        <ele>19</ele>
        <time>2016-07-22T14:22:48Z</time>
      </trkpt>
      <trkpt lat="47.10414" lon="-2.07807">
        <ele>19</ele>
        <time>2016-07-22T14:22:53Z</time>
      </trkpt>
      <trkpt lat="47.10428" lon="-2.07791">
        <ele>20</ele>
        <time>2016-07-22T14:22:57Z</time>
      </trkpt>
      <trkpt lat="47.10443" lon="-2.07775">
        <ele>21</ele>
        <time>2016-07-22T14:23:01Z</time>
      </trkpt>
      <trkpt lat="47.10475" lon="-2.07742">
        <ele>24</ele>
        <time>2016-07-22T14:23:10Z</time>
      </trkpt>
      <trkpt lat="47.10478" lon="-2.0774">
        <ele>25</ele>
        <time>2016-07-22T14:23:11Z</time>
      </trkpt>
      <trkpt lat="47.10496" lon="-2.07723">
        <ele>26</ele>
        <time>2016-07-22T14:23:16Z</time>
      </trkpt>
      <trkpt lat="47.10517" lon="-2.07703">
        <ele>27</ele>
        <time>2016-07-22T14:23:22Z</time>
      </trkpt>
      <trkpt lat="47.10532" lon="-2.07691">
        <ele>27</ele>
        <time>2016-07-22T14:23:26Z</time>
      </trkpt>
      <trkpt lat="47.10555" lon="-2.07664">
        <ele>29</ele>
        <time>2016-07-22T14:23:33Z</time>
      </trkpt>
      <trkpt lat="47.1057" lon="-2.07651">
        <ele>28</ele>
        <time>2016-07-22T14:23:37Z</time>
      </trkpt>
      <trkpt lat="47.10583" lon="-2.07638">
        <ele>28</ele>
        <time>2016-07-22T14:23:41Z</time>
      </trkpt>
      <trkpt lat="47.10604" lon="-2.0762">
        <ele>27</ele>
        <time>2016-07-22T14:23:46Z</time>
      </trkpt>
      <trkpt lat="47.10622" lon="-2.07599">
        <ele>32</ele>
        <time>2016-07-22T14:23:51Z</time>
      </trkpt>
      <trkpt lat="47.10642" lon="-2.0758">
        <ele>35</ele>
        <time>2016-07-22T14:23:56Z</time>
      </trkpt>
      <trkpt lat="47.10653" lon="-2.07563">
        <ele>37</ele>
        <time>2016-07-22T14:24:01Z</time>
      </trkpt>
      <trkpt lat="47.10653" lon="-2.0756">
        <ele>36</ele>
        <time>2016-07-22T14:24:06Z</time>
      </trkpt>
      <trkpt lat="47.10651" lon="-2.07545">
        <ele>35</ele>
        <time>2016-07-22T14:24:11Z</time>
      </trkpt>
      <trkpt lat="47.10645" lon="-2.07518">
        <ele>33</ele>
        <time>2016-07-22T14:24:16Z</time>
      </trkpt>
      <trkpt lat="47.10636" lon="-2.07486">
        <ele>32</ele>
        <time>2016-07-22T14:24:21Z</time>
      </trkpt>
      <trkpt lat="47.10621" lon="-2.0742">
        <ele>30</ele>
        <time>2016-07-22T14:24:30Z</time>
      </trkpt>
      <trkpt lat="47.10619" lon="-2.07413">
        <ele>29</ele>
        <time>2016-07-22T14:24:31Z</time>
      </trkpt>
      <trkpt lat="47.1061" lon="-2.07375">
        <ele>28</ele>
        <time>2016-07-22T14:24:36Z</time>
      </trkpt>
      <trkpt lat="47.10603" lon="-2.07337">
        <ele>28</ele>
        <time>2016-07-22T14:24:41Z</time>
      </trkpt>
      <trkpt lat="47.10603" lon="-2.07301">
        <ele>28</ele>
        <time>2016-07-22T14:24:46Z</time>
      </trkpt>
      <trkpt lat="47.10607" lon="-2.07273">
        <ele>31</ele>
        <time>2016-07-22T14:24:53Z</time>
      </trkpt>
      <trkpt lat="47.10607" lon="-2.07272">
        <ele>31</ele>
        <time>2016-07-22T14:24:56Z</time>
      </trkpt>
      <trkpt lat="47.10605" lon="-2.07268">
        <ele>32</ele>
        <time>2016-07-22T14:25:01Z</time>
      </trkpt>
      <trkpt lat="47.10594" lon="-2.07245">
        <ele>33</ele>
        <time>2016-07-22T14:25:06Z</time>
      </trkpt>
      <trkpt lat="47.10579" lon="-2.07212">
        <ele>35</ele>
        <time>2016-07-22T14:25:11Z</time>
      </trkpt>
      <trkpt lat="47.10563" lon="-2.07155">
        <ele>35</ele>
        <time>2016-07-22T14:25:19Z</time>
      </trkpt>
      <trkpt lat="47.1056" lon="-2.07138">
        <ele>34</ele>
        <time>2016-07-22T14:25:21Z</time>
      </trkpt>
      <trkpt lat="47.10551" lon="-2.07104">
        <ele>33</ele>
        <time>2016-07-22T14:25:26Z</time>
      </trkpt>
      <trkpt lat="47.10535" lon="-2.07043">
        <ele>30</ele>
        <time>2016-07-22T14:25:34Z</time>
      </trkpt>
      <trkpt lat="47.10531" lon="-2.07019">
        <ele>29</ele>
        <time>2016-07-22T14:25:37Z</time>
      </trkpt>
      <trkpt lat="47.10519" lon="-2.0698">
        <ele>31</ele>
        <time>2016-07-22T14:25:42Z</time>
      </trkpt>
      <trkpt lat="47.10508" lon="-2.06937">
        <ele>30</ele>
        <time>2016-07-22T14:25:48Z</time>
      </trkpt>
      <trkpt lat="47.10499" lon="-2.0691">
        <ele>28</ele>
        <time>2016-07-22T14:25:52Z</time>
      </trkpt>
      <trkpt lat="47.10495" lon="-2.06881">
        <ele>28</ele>
        <time>2016-07-22T14:25:56Z</time>
      </trkpt>
      <trkpt lat="47.10481" lon="-2.0683">
        <ele>30</ele>
        <time>2016-07-22T14:26:03Z</time>
      </trkpt>
      <trkpt lat="47.10472" lon="-2.06792">
        <ele>29</ele>
        <time>2016-07-22T14:26:08Z</time>
      </trkpt>
      <trkpt lat="47.10461" lon="-2.06757">
        <ele>29</ele>
        <time>2016-07-22T14:26:13Z</time>
      </trkpt>
      <trkpt lat="47.10453" lon="-2.0672">
        <ele>28</ele>
        <time>2016-07-22T14:26:18Z</time>
      </trkpt>
      <trkpt lat="47.10444" lon="-2.06702">
        <ele>30</ele>
        <time>2016-07-22T14:26:21Z</time>
      </trkpt>
      <trkpt lat="47.10427" lon="-2.0665">
        <ele>31</ele>
        <time>2016-07-22T14:26:29Z</time>
      </trkpt>
      <trkpt lat="47.10424" lon="-2.06635">
        <ele>31</ele>
        <time>2016-07-22T14:26:31Z</time>
      </trkpt>
      <trkpt lat="47.10414" lon="-2.06594">
        <ele>36</ele>
        <time>2016-07-22T14:26:37Z</time>
      </trkpt>
      <trkpt lat="47.10408" lon="-2.06569">
        <ele>34</ele>
        <time>2016-07-22T14:26:41Z</time>
      </trkpt>
      <trkpt lat="47.10398" lon="-2.06533">
        <ele>33</ele>
        <time>2016-07-22T14:26:46Z</time>
      </trkpt>
      <trkpt lat="47.10387" lon="-2.06499">
        <ele>32</ele>
        <time>2016-07-22T14:26:51Z</time>
      </trkpt>
      <trkpt lat="47.10377" lon="-2.06464">
        <ele>36</ele>
        <time>2016-07-22T14:26:56Z</time>
      </trkpt>
      <trkpt lat="47.10356" lon="-2.06398">
        <ele>35</ele>
        <time>2016-07-22T14:27:05Z</time>
      </trkpt>
      <trkpt lat="47.10347" lon="-2.0636">
        <ele>36</ele>
        <time>2016-07-22T14:27:10Z</time>
      </trkpt>
      <trkpt lat="47.10345" lon="-2.06353">
        <ele>36</ele>
        <time>2016-07-22T14:27:11Z</time>
      </trkpt>
      <trkpt lat="47.10335" lon="-2.06316">
        <ele>35</ele>
        <time>2016-07-22T14:27:16Z</time>
      </trkpt>
      <trkpt lat="47.10323" lon="-2.06279">
        <ele>33</ele>
        <time>2016-07-22T14:27:21Z</time>
      </trkpt>
      <trkpt lat="47.10309" lon="-2.06236">
        <ele>34</ele>
        <time>2016-07-22T14:27:27Z</time>
      </trkpt>
      <trkpt lat="47.103" lon="-2.06205">
        <ele>34</ele>
        <time>2016-07-22T14:27:31Z</time>
      </trkpt>
      <trkpt lat="47.10289" lon="-2.06168">
        <ele>35</ele>
        <time>2016-07-22T14:27:36Z</time>
      </trkpt>
      <trkpt lat="47.10277" lon="-2.0613">
        <ele>36</ele>
        <time>2016-07-22T14:27:41Z</time>
      </trkpt>
      <trkpt lat="47.10267" lon="-2.06095">
        <ele>36</ele>
        <time>2016-07-22T14:27:46Z</time>
      </trkpt>
      <trkpt lat="47.10256" lon="-2.06062">
        <ele>35</ele>
        <time>2016-07-22T14:27:51Z</time>
      </trkpt>
      <trkpt lat="47.10243" lon="-2.06032">
        <ele>36</ele>
        <time>2016-07-22T14:27:56Z</time>
      </trkpt>
      <trkpt lat="47.1024" lon="-2.06024">
        <ele>37</ele>
        <time>2016-07-22T14:28:01Z</time>
      </trkpt>
    </trkseg>
  </trk>
  <trk>
    <name><![CDATA[Sequence 32]]></name>
    <trkseg>
      <trkpt lat="47.10241" lon="-2.06018">
        <ele>35</ele>
        <time>2016-07-22T14:29:34Z</time>
      </trkpt>
      <trkpt lat="47.10241" lon="-2.06018">
        <ele>35</ele>
        <time>2016-07-22T14:29:39Z</time>
      </trkpt>
      <trkpt lat="47.10239" lon="-2.06015">
        <ele>36</ele>
        <time>2016-07-22T14:29:44Z</time>
      </trkpt>
      <trkpt lat="47.10239" lon="-2.06008">
        <ele>37</ele>
        <time>2016-07-22T14:29:49Z</time>
      </trkpt>
      <trkpt lat="47.1023" lon="-2.05978">
        <ele>39</ele>
        <time>2016-07-22T14:29:57Z</time>
      </trkpt>
      <trkpt lat="47.10226" lon="-2.05964">
        <ele>37</ele>
        <time>2016-07-22T14:30:00Z</time>
      </trkpt>
      <trkpt lat="47.10213" lon="-2.05957">
        <ele>37</ele>
        <time>2016-07-22T14:30:04Z</time>
      </trkpt>
      <trkpt lat="47.10187" lon="-2.05971">
        <ele>39</ele>
        <time>2016-07-22T14:30:10Z</time>
      </trkpt>
      <trkpt lat="47.10152" lon="-2.05996">
        <ele>38</ele>
        <time>2016-07-22T14:30:18Z</time>
      </trkpt>
      <trkpt lat="47.10148" lon="-2.05999">
        <ele>38</ele>
        <time>2016-07-22T14:30:19Z</time>
      </trkpt>
      <trkpt lat="47.10128" lon="-2.06015">
        <ele>37</ele>
        <time>2016-07-22T14:30:24Z</time>
      </trkpt>
      <trkpt lat="47.10106" lon="-2.06029">
        <ele>37</ele>
        <time>2016-07-22T14:30:29Z</time>
      </trkpt>
      <trkpt lat="47.10072" lon="-2.06055">
        <ele>38</ele>
        <time>2016-07-22T14:30:38Z</time>
      </trkpt>
      <trkpt lat="47.1007" lon="-2.06059">
        <ele>39</ele>
        <time>2016-07-22T14:30:39Z</time>
      </trkpt>
      <trkpt lat="47.10048" lon="-2.0607">
        <ele>39</ele>
        <time>2016-07-22T14:30:44Z</time>
      </trkpt>
      <trkpt lat="47.10008" lon="-2.06083">
        <ele>42</ele>
        <time>2016-07-22T14:30:52Z</time>
      </trkpt>
      <trkpt lat="47.09993" lon="-2.06082">
        <ele>41</ele>
        <time>2016-07-22T14:30:55Z</time>
      </trkpt>
      <trkpt lat="47.09957" lon="-2.06051">
        <ele>42</ele>
        <time>2016-07-22T14:31:02Z</time>
      </trkpt>
      <trkpt lat="47.09941" lon="-2.06036">
        <ele>41</ele>
        <time>2016-07-22T14:31:05Z</time>
      </trkpt>
      <trkpt lat="47.09916" lon="-2.06019">
        <ele>40</ele>
        <time>2016-07-22T14:31:09Z</time>
      </trkpt>
      <trkpt lat="47.09886" lon="-2.05969">
        <ele>38</ele>
        <time>2016-07-22T14:31:17Z</time>
      </trkpt>
      <trkpt lat="47.09874" lon="-2.05949">
        <ele>39</ele>
        <time>2016-07-22T14:31:20Z</time>
      </trkpt>
      <trkpt lat="47.09852" lon="-2.05918">
        <ele>39</ele>
        <time>2016-07-22T14:31:25Z</time>
      </trkpt>
      <trkpt lat="47.09837" lon="-2.0589">
        <ele>37</ele>
        <time>2016-07-22T14:31:29Z</time>
      </trkpt>
      <trkpt lat="47.09822" lon="-2.05859">
        <ele>33</ele>
        <time>2016-07-22T14:31:34Z</time>
      </trkpt>
      <trkpt lat="47.09813" lon="-2.05824">
        <ele>33</ele>
        <time>2016-07-22T14:31:39Z</time>
      </trkpt>
      <trkpt lat="47.09804" lon="-2.05783">
        <ele>31</ele>
        <time>2016-07-22T14:31:44Z</time>
      </trkpt>
      <trkpt lat="47.09794" lon="-2.05746">
        <ele>32</ele>
        <time>2016-07-22T14:31:49Z</time>
      </trkpt>
      <trkpt lat="47.09785" lon="-2.05707">
        <ele>33</ele>
        <time>2016-07-22T14:31:54Z</time>
      </trkpt>
      <trkpt lat="47.09773" lon="-2.05667">
        <ele>33</ele>
        <time>2016-07-22T14:31:59Z</time>
      </trkpt>
      <trkpt lat="47.09757" lon="-2.05627">
        <ele>32</ele>
        <time>2016-07-22T14:32:04Z</time>
      </trkpt>
      <trkpt lat="47.09731" lon="-2.05592">
        <ele>30</ele>
        <time>2016-07-22T14:32:09Z</time>
      </trkpt>
      <trkpt lat="47.09704" lon="-2.05563">
        <ele>30</ele>
        <time>2016-07-22T14:32:14Z</time>
      </trkpt>
      <trkpt lat="47.0968" lon="-2.05534">
        <ele>29</ele>
        <time>2016-07-22T14:32:19Z</time>
      </trkpt>
      <trkpt lat="47.09662" lon="-2.055">
        <ele>28</ele>
        <time>2016-07-22T14:32:24Z</time>
      </trkpt>
      <trkpt lat="47.09645" lon="-2.05461">
        <ele>28</ele>
        <time>2016-07-22T14:32:29Z</time>
      </trkpt>
      <trkpt lat="47.09626" lon="-2.05419">
        <ele>25</ele>
        <time>2016-07-22T14:32:34Z</time>
      </trkpt>
      <trkpt lat="47.09609" lon="-2.05376">
        <ele>21</ele>
        <time>2016-07-22T14:32:39Z</time>
      </trkpt>
      <trkpt lat="47.0959" lon="-2.05322">
        <ele>20</ele>
        <time>2016-07-22T14:32:46Z</time>
      </trkpt>
      <trkpt lat="47.09579" lon="-2.05299">
        <ele>20</ele>
        <time>2016-07-22T14:32:49Z</time>
      </trkpt>
      <trkpt lat="47.09568" lon="-2.05261">
        <ele>19</ele>
        <time>2016-07-22T14:32:54Z</time>
      </trkpt>
      <trkpt lat="47.09575" lon="-2.05209">
        <ele>15</ele>
        <time>2016-07-22T14:33:00Z</time>
      </trkpt>
      <trkpt lat="47.09574" lon="-2.05181">
        <ele>12</ele>
        <time>2016-07-22T14:33:04Z</time>
      </trkpt>
      <trkpt lat="47.09571" lon="-2.05146">
        <ele>12</ele>
        <time>2016-07-22T14:33:10Z</time>
      </trkpt>
      <trkpt lat="47.09579" lon="-2.05126">
        <ele>12</ele>
        <time>2016-07-22T14:33:14Z</time>
      </trkpt>
      <trkpt lat="47.09592" lon="-2.05107">
        <ele>11</ele>
        <time>2016-07-22T14:33:19Z</time>
      </trkpt>
      <trkpt lat="47.09609" lon="-2.05077">
        <ele>12</ele>
        <time>2016-07-22T14:33:27Z</time>
      </trkpt>
      <trkpt lat="47.09616" lon="-2.05072">
        <ele>12</ele>
        <time>2016-07-22T14:33:29Z</time>
      </trkpt>
      <trkpt lat="47.09625" lon="-2.05051">
        <ele>13</ele>
        <time>2016-07-22T14:33:34Z</time>
      </trkpt>
      <trkpt lat="47.09642" lon="-2.05024">
        <ele>16</ele>
        <time>2016-07-22T14:33:41Z</time>
      </trkpt>
      <trkpt lat="47.09661" lon="-2.04996">
        <ele>17</ele>
        <time>2016-07-22T14:33:48Z</time>
      </trkpt>
      <trkpt lat="47.09664" lon="-2.04992">
        <ele>17</ele>
        <time>2016-07-22T14:33:49Z</time>
      </trkpt>
      <trkpt lat="47.09673" lon="-2.04966">
        <ele>19</ele>
        <time>2016-07-22T14:33:55Z</time>
      </trkpt>
      <trkpt lat="47.09675" lon="-2.04947">
        <ele>18</ele>
        <time>2016-07-22T14:33:59Z</time>
      </trkpt>
      <trkpt lat="47.09667" lon="-2.0493">
        <ele>18</ele>
        <time>2016-07-22T14:34:04Z</time>
      </trkpt>
      <trkpt lat="47.09656" lon="-2.04914">
        <ele>22</ele>
        <time>2016-07-22T14:34:09Z</time>
      </trkpt>
      <trkpt lat="47.09647" lon="-2.04898">
        <ele>25</ele>
        <time>2016-07-22T14:34:14Z</time>
      </trkpt>
      <trkpt lat="47.09638" lon="-2.04882">
        <ele>27</ele>
        <time>2016-07-22T14:34:19Z</time>
      </trkpt>
      <trkpt lat="47.09629" lon="-2.04865">
        <ele>27</ele>
        <time>2016-07-22T14:34:24Z</time>
      </trkpt>
      <trkpt lat="47.09618" lon="-2.04846">
        <ele>28</ele>
        <time>2016-07-22T14:34:29Z</time>
      </trkpt>
      <trkpt lat="47.09608" lon="-2.04826">
        <ele>29</ele>
        <time>2016-07-22T14:34:34Z</time>
      </trkpt>
      <trkpt lat="47.09598" lon="-2.04803">
        <ele>29</ele>
        <time>2016-07-22T14:34:39Z</time>
      </trkpt>
      <trkpt lat="47.096" lon="-2.04777">
        <ele>28</ele>
        <time>2016-07-22T14:34:44Z</time>
      </trkpt>
      <trkpt lat="47.09614" lon="-2.04753">
        <ele>27</ele>
        <time>2016-07-22T14:34:49Z</time>
      </trkpt>
      <trkpt lat="47.09624" lon="-2.04725">
        <ele>27</ele>
        <time>2016-07-22T14:34:54Z</time>
      </trkpt>
      <trkpt lat="47.0963" lon="-2.04694">
        <ele>26</ele>
        <time>2016-07-22T14:34:59Z</time>
      </trkpt>
      <trkpt lat="47.0963" lon="-2.04667">
        <ele>26</ele>
        <time>2016-07-22T14:35:04Z</time>
      </trkpt>
      <trkpt lat="47.09629" lon="-2.04646">
        <ele>26</ele>
        <time>2016-07-22T14:35:09Z</time>
      </trkpt>
      <trkpt lat="47.09627" lon="-2.04622">
        <ele>26</ele>
        <time>2016-07-22T14:35:14Z</time>
      </trkpt>
      <trkpt lat="47.09627" lon="-2.04616">
        <ele>26</ele>
        <time>2016-07-22T14:35:19Z</time>
      </trkpt>
      <trkpt lat="47.09624" lon="-2.04597">
        <ele>27</ele>
        <time>2016-07-22T14:35:25Z</time>
      </trkpt>
      <trkpt lat="47.09624" lon="-2.04575">
        <ele>28</ele>
        <time>2016-07-22T14:35:29Z</time>
      </trkpt>
      <trkpt lat="47.09624" lon="-2.04546">
        <ele>30</ele>
        <time>2016-07-22T14:35:34Z</time>
      </trkpt>
      <trkpt lat="47.09622" lon="-2.04519">
        <ele>32</ele>
        <time>2016-07-22T14:35:39Z</time>
      </trkpt>
      <trkpt lat="47.09627" lon="-2.04472">
        <ele>26</ele>
        <time>2016-07-22T14:35:47Z</time>
      </trkpt>
      <trkpt lat="47.09633" lon="-2.04445">
        <ele>24</ele>
        <time>2016-07-22T14:35:52Z</time>
      </trkpt>
      <trkpt lat="47.09636" lon="-2.04433">
        <ele>25</ele>
        <time>2016-07-22T14:35:54Z</time>
      </trkpt>
      <trkpt lat="47.09643" lon="-2.04414">
        <ele>26</ele>
        <time>2016-07-22T14:35:59Z</time>
      </trkpt>
      <trkpt lat="47.09657" lon="-2.04423">
        <ele>26</ele>
        <time>2016-07-22T14:36:04Z</time>
      </trkpt>
      <trkpt lat="47.09672" lon="-2.0444">
        <ele>28</ele>
        <time>2016-07-22T14:36:09Z</time>
      </trkpt>
      <trkpt lat="47.09683" lon="-2.04456">
        <ele>29</ele>
        <time>2016-07-22T14:36:14Z</time>
      </trkpt>
      <trkpt lat="47.09686" lon="-2.04464">
        <ele>30</ele>
        <time>2016-07-22T14:36:19Z</time>
      </trkpt>
      <trkpt lat="47.09678" lon="-2.04453">
        <ele>30</ele>
        <time>2016-07-22T14:36:24Z</time>
      </trkpt>
      <trkpt lat="47.09666" lon="-2.04434">
        <ele>30</ele>
        <time>2016-07-22T14:36:29Z</time>
      </trkpt>
      <trkpt lat="47.0965" lon="-2.04417">
        <ele>30</ele>
        <time>2016-07-22T14:36:34Z</time>
      </trkpt>
      <trkpt lat="47.09639" lon="-2.04423">
        <ele>31</ele>
        <time>2016-07-22T14:36:39Z</time>
      </trkpt>
      <trkpt lat="47.09634" lon="-2.0445">
        <ele>31</ele>
        <time>2016-07-22T14:36:44Z</time>
      </trkpt>
      <trkpt lat="47.09629" lon="-2.04475">
        <ele>31</ele>
        <time>2016-07-22T14:36:49Z</time>
      </trkpt>
      <trkpt lat="47.09626" lon="-2.04496">
        <ele>30</ele>
        <time>2016-07-22T14:36:54Z</time>
      </trkpt>
      <trkpt lat="47.09627" lon="-2.04515">
        <ele>31</ele>
        <time>2016-07-22T14:36:59Z</time>
      </trkpt>
      <trkpt lat="47.09622" lon="-2.04517">
        <ele>32</ele>
        <time>2016-07-22T14:37:04Z</time>
      </trkpt>
      <trkpt lat="47.09617" lon="-2.04486">
        <ele>33</ele>
        <time>2016-07-22T14:37:13Z</time>
      </trkpt>
      <trkpt lat="47.09606" lon="-2.04487">
        <ele>34</ele>
        <time>2016-07-22T14:37:16Z</time>
      </trkpt>
      <trkpt lat="47.0959" lon="-2.04492">
        <ele>35</ele>
        <time>2016-07-22T14:37:20Z</time>
      </trkpt>
      <trkpt lat="47.09572" lon="-2.04481">
        <ele>37</ele>
        <time>2016-07-22T14:37:24Z</time>
      </trkpt>
      <trkpt lat="47.09552" lon="-2.04458">
        <ele>36</ele>
        <time>2016-07-22T14:37:29Z</time>
      </trkpt>
      <trkpt lat="47.09523" lon="-2.04425">
        <ele>35</ele>
        <time>2016-07-22T14:37:37Z</time>
      </trkpt>
      <trkpt lat="47.09514" lon="-2.04416">
        <ele>34</ele>
        <time>2016-07-22T14:37:39Z</time>
      </trkpt>
      <trkpt lat="47.09493" lon="-2.04395">
        <ele>31</ele>
        <time>2016-07-22T14:37:44Z</time>
      </trkpt>
      <trkpt lat="47.09469" lon="-2.04354">
        <ele>32</ele>
        <time>2016-07-22T14:37:52Z</time>
      </trkpt>
      <trkpt lat="47.09448" lon="-2.04333">
        <ele>31</ele>
        <time>2016-07-22T14:37:57Z</time>
      </trkpt>
      <trkpt lat="47.09434" lon="-2.0432">
        <ele>33</ele>
        <time>2016-07-22T14:38:01Z</time>
      </trkpt>
      <trkpt lat="47.09424" lon="-2.04303">
        <ele>31</ele>
        <time>2016-07-22T14:38:04Z</time>
      </trkpt>
      <trkpt lat="47.09405" lon="-2.04276">
        <ele>29</ele>
        <time>2016-07-22T14:38:10Z</time>
      </trkpt>
      <trkpt lat="47.09388" lon="-2.04277">
        <ele>27</ele>
        <time>2016-07-22T14:38:17Z</time>
      </trkpt>
      <trkpt lat="47.09384" lon="-2.04285">
        <ele>25</ele>
        <time>2016-07-22T14:38:19Z</time>
      </trkpt>
      <trkpt lat="47.09367" lon="-2.04312">
        <ele>23</ele>
        <time>2016-07-22T14:38:24Z</time>
      </trkpt>
      <trkpt lat="47.0935" lon="-2.04332">
        <ele>24</ele>
        <time>2016-07-22T14:38:29Z</time>
      </trkpt>
      <trkpt lat="47.09311" lon="-2.04345">
        <ele>25</ele>
        <time>2016-07-22T14:38:38Z</time>
      </trkpt>
      <trkpt lat="47.09298" lon="-2.04352">
        <ele>25</ele>
        <time>2016-07-22T14:38:41Z</time>
      </trkpt>
      <trkpt lat="47.09283" lon="-2.04361">
        <ele>25</ele>
        <time>2016-07-22T14:38:44Z</time>
      </trkpt>
      <trkpt lat="47.09261" lon="-2.04371">
        <ele>27</ele>
        <time>2016-07-22T14:38:49Z</time>
      </trkpt>
      <trkpt lat="47.09224" lon="-2.04367">
        <ele>32</ele>
        <time>2016-07-22T14:38:58Z</time>
      </trkpt>
      <trkpt lat="47.09222" lon="-2.04367">
        <ele>34</ele>
        <time>2016-07-22T14:38:59Z</time>
      </trkpt>
      <trkpt lat="47.09205" lon="-2.04341">
        <ele>39</ele>
        <time>2016-07-22T14:39:07Z</time>
      </trkpt>
      <trkpt lat="47.09183" lon="-2.04317">
        <ele>33</ele>
        <time>2016-07-22T14:39:13Z</time>
      </trkpt>
      <trkpt lat="47.09179" lon="-2.04311">
        <ele>34</ele>
        <time>2016-07-22T14:39:15Z</time>
      </trkpt>
      <trkpt lat="47.0917" lon="-2.043">
        <ele>34</ele>
        <time>2016-07-22T14:39:21Z</time>
      </trkpt>
      <trkpt lat="47.09169" lon="-2.04298">
        <ele>35</ele>
        <time>2016-07-22T14:39:25Z</time>
      </trkpt>
      <trkpt lat="47.09165" lon="-2.04298">
        <ele>35</ele>
        <time>2016-07-22T14:39:29Z</time>
      </trkpt>
      <trkpt lat="47.09156" lon="-2.0431">
        <ele>37</ele>
        <time>2016-07-22T14:39:34Z</time>
      </trkpt>
      <trkpt lat="47.09141" lon="-2.0433">
        <ele>37</ele>
        <time>2016-07-22T14:39:39Z</time>
      </trkpt>
      <trkpt lat="47.09126" lon="-2.04348">
        <ele>37</ele>
        <time>2016-07-22T14:39:44Z</time>
      </trkpt>
      <trkpt lat="47.09109" lon="-2.04353">
        <ele>39</ele>
        <time>2016-07-22T14:39:49Z</time>
      </trkpt>
      <trkpt lat="47.09091" lon="-2.0433">
        <ele>38</ele>
        <time>2016-07-22T14:39:54Z</time>
      </trkpt>
      <trkpt lat="47.09074" lon="-2.04304">
        <ele>36</ele>
        <time>2016-07-22T14:39:59Z</time>
      </trkpt>
      <trkpt lat="47.09057" lon="-2.04277">
        <ele>36</ele>
        <time>2016-07-22T14:40:04Z</time>
      </trkpt>
      <trkpt lat="47.09039" lon="-2.0425">
        <ele>36</ele>
        <time>2016-07-22T14:40:09Z</time>
      </trkpt>
      <trkpt lat="47.09026" lon="-2.04222">
        <ele>40</ele>
        <time>2016-07-22T14:40:14Z</time>
      </trkpt>
      <trkpt lat="47.09005" lon="-2.04167">
        <ele>36</ele>
        <time>2016-07-22T14:40:23Z</time>
      </trkpt>
      <trkpt lat="47.08988" lon="-2.04144">
        <ele>35</ele>
        <time>2016-07-22T14:40:27Z</time>
      </trkpt>
      <trkpt lat="47.0898" lon="-2.0413">
        <ele>35</ele>
        <time>2016-07-22T14:40:29Z</time>
      </trkpt>
      <trkpt lat="47.08958" lon="-2.04092">
        <ele>34</ele>
        <time>2016-07-22T14:40:35Z</time>
      </trkpt>
      <trkpt lat="47.08949" lon="-2.04065">
        <ele>33</ele>
        <time>2016-07-22T14:40:39Z</time>
      </trkpt>
      <trkpt lat="47.0894" lon="-2.04037">
        <ele>32</ele>
        <time>2016-07-22T14:40:44Z</time>
      </trkpt>
      <trkpt lat="47.0895" lon="-2.04015">
        <ele>32</ele>
        <time>2016-07-22T14:40:49Z</time>
      </trkpt>
      <trkpt lat="47.0897" lon="-2.03994">
        <ele>31</ele>
        <time>2016-07-22T14:40:54Z</time>
      </trkpt>
      <trkpt lat="47.08989" lon="-2.0397">
        <ele>29</ele>
        <time>2016-07-22T14:40:59Z</time>
      </trkpt>
      <trkpt lat="47.09011" lon="-2.0393">
        <ele>32</ele>
        <time>2016-07-22T14:41:06Z</time>
      </trkpt>
      <trkpt lat="47.09014" lon="-2.03911">
        <ele>30</ele>
        <time>2016-07-22T14:41:09Z</time>
      </trkpt>
      <trkpt lat="47.09002" lon="-2.03863">
        <ele>33</ele>
        <time>2016-07-22T14:41:16Z</time>
      </trkpt>
      <trkpt lat="47.08998" lon="-2.03844">
        <ele>34</ele>
        <time>2016-07-22T14:41:19Z</time>
      </trkpt>
      <trkpt lat="47.0898" lon="-2.03791">
        <ele>33</ele>
        <time>2016-07-22T14:41:27Z</time>
      </trkpt>
      <trkpt lat="47.08968" lon="-2.03751">
        <ele>34</ele>
        <time>2016-07-22T14:41:33Z</time>
      </trkpt>
      <trkpt lat="47.08965" lon="-2.03744">
        <ele>34</ele>
        <time>2016-07-22T14:41:34Z</time>
      </trkpt>
      <trkpt lat="47.08949" lon="-2.03704">
        <ele>37</ele>
        <time>2016-07-22T14:41:40Z</time>
      </trkpt>
      <trkpt lat="47.08918" lon="-2.03676">
        <ele>37</ele>
        <time>2016-07-22T14:41:47Z</time>
      </trkpt>
      <trkpt lat="47.08909" lon="-2.03667">
        <ele>37</ele>
        <time>2016-07-22T14:41:49Z</time>
      </trkpt>
      <trkpt lat="47.08891" lon="-2.03641">
        <ele>38</ele>
        <time>2016-07-22T14:41:54Z</time>
      </trkpt>
      <trkpt lat="47.08872" lon="-2.03613">
        <ele>37</ele>
        <time>2016-07-22T14:41:59Z</time>
      </trkpt>
      <trkpt lat="47.08853" lon="-2.03589">
        <ele>35</ele>
        <time>2016-07-22T14:42:04Z</time>
      </trkpt>
      <trkpt lat="47.08834" lon="-2.03581">
        <ele>35</ele>
        <time>2016-07-22T14:42:10Z</time>
      </trkpt>
      <trkpt lat="47.08828" lon="-2.03597">
        <ele>35</ele>
        <time>2016-07-22T14:42:14Z</time>
      </trkpt>
      <trkpt lat="47.0882" lon="-2.03621">
        <ele>37</ele>
        <time>2016-07-22T14:42:19Z</time>
      </trkpt>
      <trkpt lat="47.08804" lon="-2.03652">
        <ele>37</ele>
        <time>2016-07-22T14:42:25Z</time>
      </trkpt>
      <trkpt lat="47.08794" lon="-2.03673">
        <ele>36</ele>
        <time>2016-07-22T14:42:29Z</time>
      </trkpt>
      <trkpt lat="47.0878" lon="-2.03703">
        <ele>34</ele>
        <time>2016-07-22T14:42:35Z</time>
      </trkpt>
      <trkpt lat="47.08769" lon="-2.03723">
        <ele>35</ele>
        <time>2016-07-22T14:42:39Z</time>
      </trkpt>
      <trkpt lat="47.08755" lon="-2.03745">
        <ele>33</ele>
        <time>2016-07-22T14:42:44Z</time>
      </trkpt>
      <trkpt lat="47.08735" lon="-2.03782">
        <ele>34</ele>
        <time>2016-07-22T14:42:51Z</time>
      </trkpt>
      <trkpt lat="47.08722" lon="-2.03807">
        <ele>34</ele>
        <time>2016-07-22T14:42:55Z</time>
      </trkpt>
      <trkpt lat="47.08708" lon="-2.03827">
        <ele>34</ele>
        <time>2016-07-22T14:42:59Z</time>
      </trkpt>
      <trkpt lat="47.08689" lon="-2.03852">
        <ele>36</ele>
        <time>2016-07-22T14:43:04Z</time>
      </trkpt>
      <trkpt lat="47.08636" lon="-2.03884">
        <ele>31</ele>
        <time>2016-07-22T14:43:13Z</time>
      </trkpt>
      <trkpt lat="47.08629" lon="-2.0389">
        <ele>30</ele>
        <time>2016-07-22T14:43:14Z</time>
      </trkpt>
      <trkpt lat="47.08602" lon="-2.03906">
        <ele>28</ele>
        <time>2016-07-22T14:43:20Z</time>
      </trkpt>
      <trkpt lat="47.08568" lon="-2.03941">
        <ele>25</ele>
        <time>2016-07-22T14:43:28Z</time>
      </trkpt>
      <trkpt lat="47.08561" lon="-2.03944">
        <ele>25</ele>
        <time>2016-07-22T14:43:29Z</time>
      </trkpt>
      <trkpt lat="47.08534" lon="-2.03967">
        <ele>23</ele>
        <time>2016-07-22T14:43:34Z</time>
      </trkpt>
      <trkpt lat="47.08509" lon="-2.03984">
        <ele>25</ele>
        <time>2016-07-22T14:43:41Z</time>
      </trkpt>
      <trkpt lat="47.08498" lon="-2.03969">
        <ele>22</ele>
        <time>2016-07-22T14:43:44Z</time>
      </trkpt>
      <trkpt lat="47.08482" lon="-2.03928">
        <ele>22</ele>
        <time>2016-07-22T14:43:50Z</time>
      </trkpt>
      <trkpt lat="47.08472" lon="-2.03905">
        <ele>22</ele>
        <time>2016-07-22T14:43:54Z</time>
      </trkpt>
      <trkpt lat="47.08464" lon="-2.03882">
        <ele>26</ele>
        <time>2016-07-22T14:43:59Z</time>
      </trkpt>
      <trkpt lat="47.08453" lon="-2.0385">
        <ele>26</ele>
        <time>2016-07-22T14:44:04Z</time>
      </trkpt>
      <trkpt lat="47.08432" lon="-2.038">
        <ele>31</ele>
        <time>2016-07-22T14:44:12Z</time>
      </trkpt>
      <trkpt lat="47.08426" lon="-2.03788">
        <ele>32</ele>
        <time>2016-07-22T14:44:14Z</time>
      </trkpt>
      <trkpt lat="47.08409" lon="-2.03744">
        <ele>25</ele>
        <time>2016-07-22T14:44:20Z</time>
      </trkpt>
      <trkpt lat="47.0839" lon="-2.03705">
        <ele>29</ele>
        <time>2016-07-22T14:44:28Z</time>
      </trkpt>
      <trkpt lat="47.08388" lon="-2.03699">
        <ele>30</ele>
        <time>2016-07-22T14:44:29Z</time>
      </trkpt>
      <trkpt lat="47.08377" lon="-2.03644">
        <ele>31</ele>
        <time>2016-07-22T14:44:37Z</time>
      </trkpt>
      <trkpt lat="47.08374" lon="-2.03628">
        <ele>29</ele>
        <time>2016-07-22T14:44:39Z</time>
      </trkpt>
      <trkpt lat="47.08367" lon="-2.03586">
        <ele>29</ele>
        <time>2016-07-22T14:44:45Z</time>
      </trkpt>
      <trkpt lat="47.08356" lon="-2.03532">
        <ele>30</ele>
        <time>2016-07-22T14:44:53Z</time>
      </trkpt>
      <trkpt lat="47.08354" lon="-2.03526">
        <ele>31</ele>
        <time>2016-07-22T14:44:54Z</time>
      </trkpt>
      <trkpt lat="47.08346" lon="-2.03488">
        <ele>29</ele>
        <time>2016-07-22T14:44:59Z</time>
      </trkpt>
      <trkpt lat="47.08336" lon="-2.03425">
        <ele>25</ele>
        <time>2016-07-22T14:45:07Z</time>
      </trkpt>
      <trkpt lat="47.08332" lon="-2.0341">
        <ele>27</ele>
        <time>2016-07-22T14:45:09Z</time>
      </trkpt>
      <trkpt lat="47.08321" lon="-2.0334">
        <ele>31</ele>
        <time>2016-07-22T14:45:18Z</time>
      </trkpt>
      <trkpt lat="47.0832" lon="-2.03332">
        <ele>31</ele>
        <time>2016-07-22T14:45:19Z</time>
      </trkpt>
      <trkpt lat="47.08321" lon="-2.03302">
        <ele>30</ele>
        <time>2016-07-22T14:45:24Z</time>
      </trkpt>
      <trkpt lat="47.08329" lon="-2.03276">
        <ele>31</ele>
        <time>2016-07-22T14:45:29Z</time>
      </trkpt>
      <trkpt lat="47.08339" lon="-2.03247">
        <ele>29</ele>
        <time>2016-07-22T14:45:34Z</time>
      </trkpt>
      <trkpt lat="47.08353" lon="-2.03213">
        <ele>28</ele>
        <time>2016-07-22T14:45:40Z</time>
      </trkpt>
      <trkpt lat="47.08354" lon="-2.03194">
        <ele>28</ele>
        <time>2016-07-22T14:45:44Z</time>
      </trkpt>
      <trkpt lat="47.08347" lon="-2.03174">
        <ele>29</ele>
        <time>2016-07-22T14:45:49Z</time>
      </trkpt>
      <trkpt lat="47.08342" lon="-2.03166">
        <ele>29</ele>
        <time>2016-07-22T14:45:54Z</time>
      </trkpt>
      <trkpt lat="47.08343" lon="-2.03168">
        <ele>29</ele>
        <time>2016-07-22T14:46:03Z</time>
      </trkpt>
      <trkpt lat="47.08343" lon="-2.03168">
        <ele>29</ele>
        <time>2016-07-22T14:46:07Z</time>
      </trkpt>
      <trkpt lat="47.08341" lon="-2.03161">
        <ele>28</ele>
        <time>2016-07-22T14:46:09Z</time>
      </trkpt>
      <trkpt lat="47.0835" lon="-2.03142">
        <ele>28</ele>
        <time>2016-07-22T14:46:14Z</time>
      </trkpt>
      <trkpt lat="47.08368" lon="-2.03124">
        <ele>28</ele>
        <time>2016-07-22T14:46:19Z</time>
      </trkpt>
      <trkpt lat="47.08386" lon="-2.03105">
        <ele>28</ele>
        <time>2016-07-22T14:46:24Z</time>
      </trkpt>
      <trkpt lat="47.08407" lon="-2.03049">
        <ele>29</ele>
        <time>2016-07-22T14:46:33Z</time>
      </trkpt>
      <trkpt lat="47.08411" lon="-2.03034">
        <ele>30</ele>
        <time>2016-07-22T14:46:35Z</time>
      </trkpt>
      <trkpt lat="47.08414" lon="-2.03006">
        <ele>33</ele>
        <time>2016-07-22T14:46:39Z</time>
      </trkpt>
      <trkpt lat="47.0841" lon="-2.02945">
        <ele>33</ele>
        <time>2016-07-22T14:46:47Z</time>
      </trkpt>
      <trkpt lat="47.08408" lon="-2.02929">
        <ele>32</ele>
        <time>2016-07-22T14:46:49Z</time>
      </trkpt>
      <trkpt lat="47.08402" lon="-2.02883">
        <ele>32</ele>
        <time>2016-07-22T14:46:54Z</time>
      </trkpt>
      <trkpt lat="47.08394" lon="-2.02837">
        <ele>31</ele>
        <time>2016-07-22T14:46:59Z</time>
      </trkpt>
      <trkpt lat="47.08387" lon="-2.02783">
        <ele>29</ele>
        <time>2016-07-22T14:47:04Z</time>
      </trkpt>
      <trkpt lat="47.08372" lon="-2.0271">
        <ele>29</ele>
        <time>2016-07-22T14:47:12Z</time>
      </trkpt>
      <trkpt lat="47.08364" lon="-2.02669">
        <ele>31</ele>
        <time>2016-07-22T14:47:17Z</time>
      </trkpt>
      <trkpt lat="47.08361" lon="-2.02654">
        <ele>32</ele>
        <time>2016-07-22T14:47:19Z</time>
      </trkpt>
      <trkpt lat="47.08353" lon="-2.02622">
        <ele>34</ele>
        <time>2016-07-22T14:47:24Z</time>
      </trkpt>
      <trkpt lat="47.0834" lon="-2.02583">
        <ele>32</ele>
        <time>2016-07-22T14:47:30Z</time>
      </trkpt>
      <trkpt lat="47.08321" lon="-2.02532">
        <ele>31</ele>
        <time>2016-07-22T14:47:37Z</time>
      </trkpt>
      <trkpt lat="47.08314" lon="-2.02519">
        <ele>31</ele>
        <time>2016-07-22T14:47:39Z</time>
      </trkpt>
      <trkpt lat="47.08284" lon="-2.02451">
        <ele>28</ele>
        <time>2016-07-22T14:47:48Z</time>
      </trkpt>
      <trkpt lat="47.08267" lon="-2.02415">
        <ele>27</ele>
        <time>2016-07-22T14:47:53Z</time>
      </trkpt>
      <trkpt lat="47.08263" lon="-2.02407">
        <ele>25</ele>
        <time>2016-07-22T14:47:54Z</time>
      </trkpt>
      <trkpt lat="47.08245" lon="-2.0235">
        <ele>26</ele>
        <time>2016-07-22T14:48:01Z</time>
      </trkpt>
      <trkpt lat="47.08236" lon="-2.02321">
        <ele>25</ele>
        <time>2016-07-22T14:48:05Z</time>
      </trkpt>
      <trkpt lat="47.08226" lon="-2.0229">
        <ele>24</ele>
        <time>2016-07-22T14:48:09Z</time>
      </trkpt>
      <trkpt lat="47.08202" lon="-2.02239">
        <ele>24</ele>
        <time>2016-07-22T14:48:15Z</time>
      </trkpt>
      <trkpt lat="47.08181" lon="-2.0219">
        <ele>21</ele>
        <time>2016-07-22T14:48:20Z</time>
      </trkpt>
      <trkpt lat="47.08166" lon="-2.02162">
        <ele>25</ele>
        <time>2016-07-22T14:48:24Z</time>
      </trkpt>
      <trkpt lat="47.08147" lon="-2.02127">
        <ele>27</ele>
        <time>2016-07-22T14:48:29Z</time>
      </trkpt>
      <trkpt lat="47.08119" lon="-2.02069">
        <ele>30</ele>
        <time>2016-07-22T14:48:37Z</time>
      </trkpt>
      <trkpt lat="47.08104" lon="-2.02038">
        <ele>32</ele>
        <time>2016-07-22T14:48:41Z</time>
      </trkpt>
      <trkpt lat="47.08095" lon="-2.02017">
        <ele>32</ele>
        <time>2016-07-22T14:48:44Z</time>
      </trkpt>
      <trkpt lat="47.08088" lon="-2.01998">
        <ele>31</ele>
        <time>2016-07-22T14:48:49Z</time>
      </trkpt>
      <trkpt lat="47.08088" lon="-2.02001">
        <ele>31</ele>
        <time>2016-07-22T14:48:54Z</time>
      </trkpt>
      <trkpt lat="47.08087" lon="-2.02001">
        <ele>31</ele>
        <time>2016-07-22T14:49:00Z</time>
      </trkpt>
    </trkseg>
  </trk>
  <trk>
    <name><![CDATA[Sequence 33]]></name>
    <trkseg>
      <trkpt lat="47.08085" lon="-2.01986">
        <ele>23</ele>
        <time>2016-07-22T14:52:14Z</time>
      </trkpt>
      <trkpt lat="47.08086" lon="-2.01987">
        <ele>23</ele>
        <time>2016-07-22T14:52:19Z</time>
      </trkpt>
      <trkpt lat="47.08086" lon="-2.01988">
        <ele>23</ele>
        <time>2016-07-22T14:52:24Z</time>
      </trkpt>
      <trkpt lat="47.08085" lon="-2.01985">
        <ele>24</ele>
        <time>2016-07-22T14:52:29Z</time>
      </trkpt>
      <trkpt lat="47.08075" lon="-2.01965">
        <ele>26</ele>
        <time>2016-07-22T14:52:34Z</time>
      </trkpt>
      <trkpt lat="47.08062" lon="-2.01937">
        <ele>27</ele>
        <time>2016-07-22T14:52:40Z</time>
      </trkpt>
      <trkpt lat="47.08054" lon="-2.01917">
        <ele>29</ele>
        <time>2016-07-22T14:52:44Z</time>
      </trkpt>
      <trkpt lat="47.08046" lon="-2.01892">
        <ele>30</ele>
        <time>2016-07-22T14:52:49Z</time>
      </trkpt>
      <trkpt lat="47.08059" lon="-2.01874">
        <ele>28</ele>
        <time>2016-07-22T14:52:54Z</time>
      </trkpt>
      <trkpt lat="47.08078" lon="-2.01859">
        <ele>29</ele>
        <time>2016-07-22T14:52:59Z</time>
      </trkpt>
      <trkpt lat="47.08117" lon="-2.01818">
        <ele>26</ele>
        <time>2016-07-22T14:53:07Z</time>
      </trkpt>
      <trkpt lat="47.08125" lon="-2.01809">
        <ele>24</ele>
        <time>2016-07-22T14:53:09Z</time>
      </trkpt>
      <trkpt lat="47.08152" lon="-2.01775">
        <ele>28</ele>
        <time>2016-07-22T14:53:17Z</time>
      </trkpt>
      <trkpt lat="47.08174" lon="-2.01751">
        <ele>28</ele>
        <time>2016-07-22T14:53:22Z</time>
      </trkpt>
      <trkpt lat="47.08187" lon="-2.01732">
        <ele>27</ele>
        <time>2016-07-22T14:53:26Z</time>
      </trkpt>
      <trkpt lat="47.08204" lon="-2.01713">
        <ele>28</ele>
        <time>2016-07-22T14:53:31Z</time>
      </trkpt>
      <trkpt lat="47.08216" lon="-2.01698">
        <ele>30</ele>
        <time>2016-07-22T14:53:35Z</time>
      </trkpt>
      <trkpt lat="47.08242" lon="-2.0166">
        <ele>31</ele>
        <time>2016-07-22T14:53:44Z</time>
      </trkpt>
      <trkpt lat="47.08244" lon="-2.01657">
        <ele>31</ele>
        <time>2016-07-22T14:53:45Z</time>
      </trkpt>
      <trkpt lat="47.08263" lon="-2.01627">
        <ele>27</ele>
        <time>2016-07-22T14:53:51Z</time>
      </trkpt>
      <trkpt lat="47.08276" lon="-2.01605">
        <ele>29</ele>
        <time>2016-07-22T14:53:56Z</time>
      </trkpt>
      <trkpt lat="47.08287" lon="-2.01586">
        <ele>30</ele>
        <time>2016-07-22T14:54:00Z</time>
      </trkpt>
      <trkpt lat="47.08301" lon="-2.01545">
        <ele>31</ele>
        <time>2016-07-22T14:54:09Z</time>
      </trkpt>
      <trkpt lat="47.08302" lon="-2.01543">
        <ele>32</ele>
        <time>2016-07-22T14:54:10Z</time>
      </trkpt>
      <trkpt lat="47.08318" lon="-2.01533">
        <ele>30</ele>
        <time>2016-07-22T14:54:15Z</time>
      </trkpt>
      <trkpt lat="47.08342" lon="-2.01543">
        <ele>30</ele>
        <time>2016-07-22T14:54:20Z</time>
      </trkpt>
      <trkpt lat="47.0837" lon="-2.01558">
        <ele>30</ele>
        <time>2016-07-22T14:54:25Z</time>
      </trkpt>
      <trkpt lat="47.08404" lon="-2.01574">
        <ele>31</ele>
        <time>2016-07-22T14:54:31Z</time>
      </trkpt>
      <trkpt lat="47.08442" lon="-2.01597">
        <ele>29</ele>
        <time>2016-07-22T14:54:38Z</time>
      </trkpt>
      <trkpt lat="47.08467" lon="-2.01617">
        <ele>30</ele>
        <time>2016-07-22T14:54:43Z</time>
      </trkpt>
      <trkpt lat="47.08482" lon="-2.01632">
        <ele>27</ele>
        <time>2016-07-22T14:54:46Z</time>
      </trkpt>
      <trkpt lat="47.08515" lon="-2.01663">
        <ele>28</ele>
        <time>2016-07-22T14:54:54Z</time>
      </trkpt>
      <trkpt lat="47.0852" lon="-2.01666">
        <ele>28</ele>
        <time>2016-07-22T14:54:55Z</time>
      </trkpt>
      <trkpt lat="47.0854" lon="-2.01684">
        <ele>29</ele>
        <time>2016-07-22T14:55:00Z</time>
      </trkpt>
      <trkpt lat="47.08561" lon="-2.01699">
        <ele>32</ele>
        <time>2016-07-22T14:55:05Z</time>
      </trkpt>
      <trkpt lat="47.08578" lon="-2.01696">
        <ele>32</ele>
        <time>2016-07-22T14:55:10Z</time>
      </trkpt>
      <trkpt lat="47.08599" lon="-2.01676">
        <ele>31</ele>
        <time>2016-07-22T14:55:16Z</time>
      </trkpt>
      <trkpt lat="47.08615" lon="-2.01681">
        <ele>33</ele>
        <time>2016-07-22T14:55:20Z</time>
      </trkpt>
      <trkpt lat="47.08631" lon="-2.01704">
        <ele>33</ele>
        <time>2016-07-22T14:55:25Z</time>
      </trkpt>
      <trkpt lat="47.08647" lon="-2.01727">
        <ele>34</ele>
        <time>2016-07-22T14:55:30Z</time>
      </trkpt>
      <trkpt lat="47.08661" lon="-2.01747">
        <ele>35</ele>
        <time>2016-07-22T14:55:35Z</time>
      </trkpt>
      <trkpt lat="47.08678" lon="-2.01767">
        <ele>37</ele>
        <time>2016-07-22T14:55:40Z</time>
      </trkpt>
      <trkpt lat="47.08695" lon="-2.01788">
        <ele>38</ele>
        <time>2016-07-22T14:55:45Z</time>
      </trkpt>
      <trkpt lat="47.0871" lon="-2.01812">
        <ele>37</ele>
        <time>2016-07-22T14:55:50Z</time>
      </trkpt>
      <trkpt lat="47.08725" lon="-2.01832">
        <ele>39</ele>
        <time>2016-07-22T14:55:55Z</time>
      </trkpt>
      <trkpt lat="47.0874" lon="-2.01854">
        <ele>39</ele>
        <time>2016-07-22T14:56:00Z</time>
      </trkpt>
      <trkpt lat="47.08753" lon="-2.01876">
        <ele>38</ele>
        <time>2016-07-22T14:56:05Z</time>
      </trkpt>
      <trkpt lat="47.08765" lon="-2.01897">
        <ele>39</ele>
        <time>2016-07-22T14:56:10Z</time>
      </trkpt>
      <trkpt lat="47.08779" lon="-2.01918">
        <ele>40</ele>
        <time>2016-07-22T14:56:15Z</time>
      </trkpt>
      <trkpt lat="47.08793" lon="-2.01944">
        <ele>40</ele>
        <time>2016-07-22T14:56:20Z</time>
      </trkpt>
      <trkpt lat="47.08806" lon="-2.01973">
        <ele>40</ele>
        <time>2016-07-22T14:56:25Z</time>
      </trkpt>
      <trkpt lat="47.08819" lon="-2.02002">
        <ele>40</ele>
        <time>2016-07-22T14:56:30Z</time>
      </trkpt>
      <trkpt lat="47.08831" lon="-2.02031">
        <ele>39</ele>
        <time>2016-07-22T14:56:35Z</time>
      </trkpt>
      <trkpt lat="47.08844" lon="-2.0206">
        <ele>38</ele>
        <time>2016-07-22T14:56:40Z</time>
      </trkpt>
      <trkpt lat="47.08867" lon="-2.02116">
        <ele>37</ele>
        <time>2016-07-22T14:56:49Z</time>
      </trkpt>
      <trkpt lat="47.08879" lon="-2.02144">
        <ele>36</ele>
        <time>2016-07-22T14:56:54Z</time>
      </trkpt>
      <trkpt lat="47.0888" lon="-2.02149">
        <ele>36</ele>
        <time>2016-07-22T14:56:55Z</time>
      </trkpt>
      <trkpt lat="47.08893" lon="-2.02174">
        <ele>36</ele>
        <time>2016-07-22T14:57:03Z</time>
      </trkpt>
      <trkpt lat="47.08894" lon="-2.02175">
        <ele>37</ele>
        <time>2016-07-22T14:57:05Z</time>
      </trkpt>
      <trkpt lat="47.0889" lon="-2.02176">
        <ele>36</ele>
        <time>2016-07-22T14:57:10Z</time>
      </trkpt>
      <trkpt lat="47.0888" lon="-2.0215">
        <ele>37</ele>
        <time>2016-07-22T14:57:15Z</time>
      </trkpt>
      <trkpt lat="47.08866" lon="-2.0212">
        <ele>36</ele>
        <time>2016-07-22T14:57:20Z</time>
      </trkpt>
      <trkpt lat="47.08844" lon="-2.02067">
        <ele>38</ele>
        <time>2016-07-22T14:57:28Z</time>
      </trkpt>
      <trkpt lat="47.08838" lon="-2.02054">
        <ele>38</ele>
        <time>2016-07-22T14:57:30Z</time>
      </trkpt>
      <trkpt lat="47.08822" lon="-2.02021">
        <ele>39</ele>
        <time>2016-07-22T14:57:35Z</time>
      </trkpt>
      <trkpt lat="47.08806" lon="-2.01987">
        <ele>40</ele>
        <time>2016-07-22T14:57:40Z</time>
      </trkpt>
      <trkpt lat="47.08788" lon="-2.0195">
        <ele>41</ele>
        <time>2016-07-22T14:57:45Z</time>
      </trkpt>
      <trkpt lat="47.0877" lon="-2.01916">
        <ele>41</ele>
        <time>2016-07-22T14:57:50Z</time>
      </trkpt>
      <trkpt lat="47.08749" lon="-2.01886">
        <ele>44</ele>
        <time>2016-07-22T14:57:55Z</time>
      </trkpt>
      <trkpt lat="47.08727" lon="-2.01854">
        <ele>44</ele>
        <time>2016-07-22T14:58:00Z</time>
      </trkpt>
      <trkpt lat="47.08705" lon="-2.0182">
        <ele>43</ele>
        <time>2016-07-22T14:58:05Z</time>
      </trkpt>
      <trkpt lat="47.0867" lon="-2.01772">
        <ele>40</ele>
        <time>2016-07-22T14:58:13Z</time>
      </trkpt>
      <trkpt lat="47.08666" lon="-2.01765">
        <ele>39</ele>
        <time>2016-07-22T14:58:15Z</time>
      </trkpt>
      <trkpt lat="47.08653" lon="-2.01741">
        <ele>39</ele>
        <time>2016-07-22T14:58:20Z</time>
      </trkpt>
      <trkpt lat="47.08633" lon="-2.01711">
        <ele>36</ele>
        <time>2016-07-22T14:58:25Z</time>
      </trkpt>
      <trkpt lat="47.08614" lon="-2.01683">
        <ele>35</ele>
        <time>2016-07-22T14:58:30Z</time>
      </trkpt>
      <trkpt lat="47.0859" lon="-2.01675">
        <ele>32</ele>
        <time>2016-07-22T14:58:37Z</time>
      </trkpt>
      <trkpt lat="47.08579" lon="-2.01664">
        <ele>33</ele>
        <time>2016-07-22T14:58:40Z</time>
      </trkpt>
      <trkpt lat="47.08559" lon="-2.01642">
        <ele>34</ele>
        <time>2016-07-22T14:58:45Z</time>
      </trkpt>
      <trkpt lat="47.08539" lon="-2.01619">
        <ele>35</ele>
        <time>2016-07-22T14:58:50Z</time>
      </trkpt>
      <trkpt lat="47.08523" lon="-2.01597">
        <ele>36</ele>
        <time>2016-07-22T14:58:55Z</time>
      </trkpt>
      <trkpt lat="47.08488" lon="-2.01544">
        <ele>33</ele>
        <time>2016-07-22T14:59:04Z</time>
      </trkpt>
      <trkpt lat="47.08473" lon="-2.01519">
        <ele>33</ele>
        <time>2016-07-22T14:59:08Z</time>
      </trkpt>
      <trkpt lat="47.08465" lon="-2.01511">
        <ele>34</ele>
        <time>2016-07-22T14:59:10Z</time>
      </trkpt>
      <trkpt lat="47.08443" lon="-2.01478">
        <ele>36</ele>
        <time>2016-07-22T14:59:16Z</time>
      </trkpt>
      <trkpt lat="47.08426" lon="-2.01448">
        <ele>37</ele>
        <time>2016-07-22T14:59:21Z</time>
      </trkpt>
      <trkpt lat="47.08413" lon="-2.01424">
        <ele>39</ele>
        <time>2016-07-22T14:59:25Z</time>
      </trkpt>
      <trkpt lat="47.08395" lon="-2.01396">
        <ele>39</ele>
        <time>2016-07-22T14:59:30Z</time>
      </trkpt>
      <trkpt lat="47.0838" lon="-2.01368">
        <ele>39</ele>
        <time>2016-07-22T14:59:35Z</time>
      </trkpt>
      <trkpt lat="47.08361" lon="-2.01342">
        <ele>40</ele>
        <time>2016-07-22T14:59:40Z</time>
      </trkpt>
      <trkpt lat="47.08341" lon="-2.01317">
        <ele>42</ele>
        <time>2016-07-22T14:59:45Z</time>
      </trkpt>
      <trkpt lat="47.0832" lon="-2.01288">
        <ele>40</ele>
        <time>2016-07-22T14:59:50Z</time>
      </trkpt>
      <trkpt lat="47.08299" lon="-2.0126">
        <ele>40</ele>
        <time>2016-07-22T14:59:55Z</time>
      </trkpt>
      <trkpt lat="47.08279" lon="-2.01232">
        <ele>41</ele>
        <time>2016-07-22T15:00:00Z</time>
      </trkpt>
      <trkpt lat="47.08257" lon="-2.01205">
        <ele>40</ele>
        <time>2016-07-22T15:00:05Z</time>
      </trkpt>
      <trkpt lat="47.08235" lon="-2.01175">
        <ele>41</ele>
        <time>2016-07-22T15:00:10Z</time>
      </trkpt>
      <trkpt lat="47.0821" lon="-2.01121">
        <ele>38</ele>
        <time>2016-07-22T15:00:17Z</time>
      </trkpt>
      <trkpt lat="47.08202" lon="-2.01099">
        <ele>38</ele>
        <time>2016-07-22T15:00:20Z</time>
      </trkpt>
      <trkpt lat="47.08185" lon="-2.01064">
        <ele>38</ele>
        <time>2016-07-22T15:00:25Z</time>
      </trkpt>
      <trkpt lat="47.08164" lon="-2.01036">
        <ele>40</ele>
        <time>2016-07-22T15:00:30Z</time>
      </trkpt>
      <trkpt lat="47.08133" lon="-2.00986">
        <ele>40</ele>
        <time>2016-07-22T15:00:38Z</time>
      </trkpt>
      <trkpt lat="47.08112" lon="-2.00958">
        <ele>39</ele>
        <time>2016-07-22T15:00:43Z</time>
      </trkpt>
      <trkpt lat="47.08104" lon="-2.00945">
        <ele>40</ele>
        <time>2016-07-22T15:00:45Z</time>
      </trkpt>
      <trkpt lat="47.08074" lon="-2.00897">
        <ele>38</ele>
        <time>2016-07-22T15:00:52Z</time>
      </trkpt>
      <trkpt lat="47.08057" lon="-2.00865">
        <ele>37</ele>
        <time>2016-07-22T15:00:57Z</time>
      </trkpt>
      <trkpt lat="47.08048" lon="-2.00846">
        <ele>37</ele>
        <time>2016-07-22T15:01:00Z</time>
      </trkpt>
      <trkpt lat="47.08037" lon="-2.00815">
        <ele>37</ele>
        <time>2016-07-22T15:01:05Z</time>
      </trkpt>
      <trkpt lat="47.08025" lon="-2.00785">
        <ele>37</ele>
        <time>2016-07-22T15:01:10Z</time>
      </trkpt>
      <trkpt lat="47.08012" lon="-2.00752">
        <ele>36</ele>
        <time>2016-07-22T15:01:15Z</time>
      </trkpt>
      <trkpt lat="47.08" lon="-2.00721">
        <ele>37</ele>
        <time>2016-07-22T15:01:20Z</time>
      </trkpt>
      <trkpt lat="47.07985" lon="-2.00688">
        <ele>38</ele>
        <time>2016-07-22T15:01:25Z</time>
      </trkpt>
      <trkpt lat="47.0797" lon="-2.00653">
        <ele>38</ele>
        <time>2016-07-22T15:01:30Z</time>
      </trkpt>
      <trkpt lat="47.07956" lon="-2.00618">
        <ele>38</ele>
        <time>2016-07-22T15:01:35Z</time>
      </trkpt>
      <trkpt lat="47.07941" lon="-2.00583">
        <ele>40</ele>
        <time>2016-07-22T15:01:40Z</time>
      </trkpt>
      <trkpt lat="47.07927" lon="-2.00545">
        <ele>38</ele>
        <time>2016-07-22T15:01:45Z</time>
      </trkpt>
      <trkpt lat="47.07916" lon="-2.00508">
        <ele>38</ele>
        <time>2016-07-22T15:01:50Z</time>
      </trkpt>
      <trkpt lat="47.07903" lon="-2.00468">
        <ele>36</ele>
        <time>2016-07-22T15:01:55Z</time>
      </trkpt>
      <trkpt lat="47.07886" lon="-2.00401">
        <ele>36</ele>
        <time>2016-07-22T15:02:03Z</time>
      </trkpt>
      <trkpt lat="47.07882" lon="-2.00365">
        <ele>36</ele>
        <time>2016-07-22T15:02:07Z</time>
      </trkpt>
      <trkpt lat="47.07879" lon="-2.0034">
        <ele>35</ele>
        <time>2016-07-22T15:02:10Z</time>
      </trkpt>
      <trkpt lat="47.0787" lon="-2.00266">
        <ele>34</ele>
        <time>2016-07-22T15:02:19Z</time>
      </trkpt>
      <trkpt lat="47.07866" lon="-2.0024">
        <ele>34</ele>
        <time>2016-07-22T15:02:22Z</time>
      </trkpt>
      <trkpt lat="47.07864" lon="-2.00212">
        <ele>34</ele>
        <time>2016-07-22T15:02:25Z</time>
      </trkpt>
      <trkpt lat="47.07863" lon="-2.00162">
        <ele>31</ele>
        <time>2016-07-22T15:02:30Z</time>
      </trkpt>
      <trkpt lat="47.07864" lon="-2.00119">
        <ele>31</ele>
        <time>2016-07-22T15:02:35Z</time>
      </trkpt>
      <trkpt lat="47.07863" lon="-2.00077">
        <ele>30</ele>
        <time>2016-07-22T15:02:40Z</time>
      </trkpt>
      <trkpt lat="47.0786" lon="-2.00033">
        <ele>30</ele>
        <time>2016-07-22T15:02:45Z</time>
      </trkpt>
      <trkpt lat="47.07855" lon="-1.99992">
        <ele>30</ele>
        <time>2016-07-22T15:02:50Z</time>
      </trkpt>
      <trkpt lat="47.07843" lon="-1.99956">
        <ele>28</ele>
        <time>2016-07-22T15:02:55Z</time>
      </trkpt>
      <trkpt lat="47.07825" lon="-1.99922">
        <ele>27</ele>
        <time>2016-07-22T15:03:00Z</time>
      </trkpt>
      <trkpt lat="47.07807" lon="-1.99889">
        <ele>27</ele>
        <time>2016-07-22T15:03:05Z</time>
      </trkpt>
      <trkpt lat="47.07782" lon="-1.99836">
        <ele>28</ele>
        <time>2016-07-22T15:03:13Z</time>
      </trkpt>
      <trkpt lat="47.07778" lon="-1.99822">
        <ele>30</ele>
        <time>2016-07-22T15:03:15Z</time>
      </trkpt>
      <trkpt lat="47.07765" lon="-1.99787">
        <ele>30</ele>
        <time>2016-07-22T15:03:20Z</time>
      </trkpt>
      <trkpt lat="47.07754" lon="-1.9975">
        <ele>30</ele>
        <time>2016-07-22T15:03:25Z</time>
      </trkpt>
      <trkpt lat="47.07742" lon="-1.99715">
        <ele>32</ele>
        <time>2016-07-22T15:03:30Z</time>
      </trkpt>
      <trkpt lat="47.07729" lon="-1.99678">
        <ele>33</ele>
        <time>2016-07-22T15:03:35Z</time>
      </trkpt>
      <trkpt lat="47.07717" lon="-1.99647">
        <ele>32</ele>
        <time>2016-07-22T15:03:40Z</time>
      </trkpt>
      <trkpt lat="47.07703" lon="-1.99616">
        <ele>32</ele>
        <time>2016-07-22T15:03:45Z</time>
      </trkpt>
      <trkpt lat="47.0769" lon="-1.99584">
        <ele>33</ele>
        <time>2016-07-22T15:03:50Z</time>
      </trkpt>
      <trkpt lat="47.07676" lon="-1.99551">
        <ele>33</ele>
        <time>2016-07-22T15:03:55Z</time>
      </trkpt>
      <trkpt lat="47.07664" lon="-1.9952">
        <ele>32</ele>
        <time>2016-07-22T15:04:00Z</time>
      </trkpt>
      <trkpt lat="47.07652" lon="-1.99491">
        <ele>32</ele>
        <time>2016-07-22T15:04:05Z</time>
      </trkpt>
      <trkpt lat="47.07639" lon="-1.99456">
        <ele>30</ele>
        <time>2016-07-22T15:04:10Z</time>
      </trkpt>
      <trkpt lat="47.07626" lon="-1.9942">
        <ele>30</ele>
        <time>2016-07-22T15:04:15Z</time>
      </trkpt>
      <trkpt lat="47.07615" lon="-1.99382">
        <ele>28</ele>
        <time>2016-07-22T15:04:20Z</time>
      </trkpt>
      <trkpt lat="47.07604" lon="-1.99343">
        <ele>28</ele>
        <time>2016-07-22T15:04:25Z</time>
      </trkpt>
      <trkpt lat="47.07588" lon="-1.99307">
        <ele>27</ele>
        <time>2016-07-22T15:04:30Z</time>
      </trkpt>
      <trkpt lat="47.0757" lon="-1.99288">
        <ele>27</ele>
        <time>2016-07-22T15:04:35Z</time>
      </trkpt>
      <trkpt lat="47.07549" lon="-1.99292">
        <ele>26</ele>
        <time>2016-07-22T15:04:40Z</time>
      </trkpt>
      <trkpt lat="47.0752" lon="-1.99307">
        <ele>26</ele>
        <time>2016-07-22T15:04:46Z</time>
      </trkpt>
      <trkpt lat="47.075" lon="-1.99312">
        <ele>24</ele>
        <time>2016-07-22T15:04:50Z</time>
      </trkpt>
      <trkpt lat="47.07464" lon="-1.99318">
        <ele>28</ele>
        <time>2016-07-22T15:04:57Z</time>
      </trkpt>
      <trkpt lat="47.07442" lon="-1.99318">
        <ele>28</ele>
        <time>2016-07-22T15:05:01Z</time>
      </trkpt>
      <trkpt lat="47.07413" lon="-1.99316">
        <ele>29</ele>
        <time>2016-07-22T15:05:07Z</time>
      </trkpt>
      <trkpt lat="47.07399" lon="-1.99315">
        <ele>30</ele>
        <time>2016-07-22T15:05:10Z</time>
      </trkpt>
      <trkpt lat="47.07373" lon="-1.99309">
        <ele>31</ele>
        <time>2016-07-22T15:05:16Z</time>
      </trkpt>
      <trkpt lat="47.07342" lon="-1.99309">
        <ele>31</ele>
        <time>2016-07-22T15:05:24Z</time>
      </trkpt>
      <trkpt lat="47.07333" lon="-1.99313">
        <ele>31</ele>
        <time>2016-07-22T15:05:29Z</time>
      </trkpt>
      <trkpt lat="47.07331" lon="-1.99313">
        <ele>30</ele>
        <time>2016-07-22T15:05:30Z</time>
      </trkpt>
      <trkpt lat="47.07314" lon="-1.99318">
        <ele>32</ele>
        <time>2016-07-22T15:05:35Z</time>
      </trkpt>
      <trkpt lat="47.07293" lon="-1.99325">
        <ele>32</ele>
        <time>2016-07-22T15:05:40Z</time>
      </trkpt>
      <trkpt lat="47.07274" lon="-1.9933">
        <ele>33</ele>
        <time>2016-07-22T15:05:45Z</time>
      </trkpt>
      <trkpt lat="47.07258" lon="-1.99336">
        <ele>34</ele>
        <time>2016-07-22T15:05:50Z</time>
      </trkpt>
      <trkpt lat="47.07243" lon="-1.99341">
        <ele>35</ele>
        <time>2016-07-22T15:05:55Z</time>
      </trkpt>
      <trkpt lat="47.07229" lon="-1.99348">
        <ele>35</ele>
        <time>2016-07-22T15:06:00Z</time>
      </trkpt>
      <trkpt lat="47.0721" lon="-1.9936">
        <ele>33</ele>
        <time>2016-07-22T15:06:06Z</time>
      </trkpt>
      <trkpt lat="47.0719" lon="-1.99376">
        <ele>33</ele>
        <time>2016-07-22T15:06:12Z</time>
      </trkpt>
      <trkpt lat="47.0718" lon="-1.99385">
        <ele>33</ele>
        <time>2016-07-22T15:06:15Z</time>
      </trkpt>
      <trkpt lat="47.07166" lon="-1.99401">
        <ele>36</ele>
        <time>2016-07-22T15:06:20Z</time>
      </trkpt>
      <trkpt lat="47.07151" lon="-1.99418">
        <ele>36</ele>
        <time>2016-07-22T15:06:25Z</time>
      </trkpt>
      <trkpt lat="47.07131" lon="-1.99434">
        <ele>35</ele>
        <time>2016-07-22T15:06:30Z</time>
      </trkpt>
      <trkpt lat="47.07105" lon="-1.99452">
        <ele>33</ele>
        <time>2016-07-22T15:06:35Z</time>
      </trkpt>
      <trkpt lat="47.07075" lon="-1.9947">
        <ele>30</ele>
        <time>2016-07-22T15:06:40Z</time>
      </trkpt>
      <trkpt lat="47.07041" lon="-1.99491">
        <ele>28</ele>
        <time>2016-07-22T15:06:45Z</time>
      </trkpt>
      <trkpt lat="47.07009" lon="-1.99513">
        <ele>27</ele>
        <time>2016-07-22T15:06:50Z</time>
      </trkpt>
      <trkpt lat="47.0698" lon="-1.99534">
        <ele>28</ele>
        <time>2016-07-22T15:06:55Z</time>
      </trkpt>
      <trkpt lat="47.06951" lon="-1.99553">
        <ele>27</ele>
        <time>2016-07-22T15:07:00Z</time>
      </trkpt>
      <trkpt lat="47.06926" lon="-1.99571">
        <ele>27</ele>
        <time>2016-07-22T15:07:05Z</time>
      </trkpt>
      <trkpt lat="47.06898" lon="-1.99588">
        <ele>27</ele>
        <time>2016-07-22T15:07:10Z</time>
      </trkpt>
      <trkpt lat="47.06859" lon="-1.99615">
        <ele>26</ele>
        <time>2016-07-22T15:07:17Z</time>
      </trkpt>
      <trkpt lat="47.06843" lon="-1.99626">
        <ele>26</ele>
        <time>2016-07-22T15:07:20Z</time>
      </trkpt>
      <trkpt lat="47.06808" lon="-1.9965">
        <ele>26</ele>
        <time>2016-07-22T15:07:26Z</time>
      </trkpt>
      <trkpt lat="47.06786" lon="-1.99665">
        <ele>26</ele>
        <time>2016-07-22T15:07:30Z</time>
      </trkpt>
      <trkpt lat="47.06758" lon="-1.99681">
        <ele>24</ele>
        <time>2016-07-22T15:07:35Z</time>
      </trkpt>
      <trkpt lat="47.06731" lon="-1.99698">
        <ele>23</ele>
        <time>2016-07-22T15:07:40Z</time>
      </trkpt>
      <trkpt lat="47.06704" lon="-1.99712">
        <ele>22</ele>
        <time>2016-07-22T15:07:45Z</time>
      </trkpt>
      <trkpt lat="47.06673" lon="-1.99731">
        <ele>21</ele>
        <time>2016-07-22T15:07:50Z</time>
      </trkpt>
      <trkpt lat="47.0663" lon="-1.99754">
        <ele>18</ele>
        <time>2016-07-22T15:07:56Z</time>
      </trkpt>
      <trkpt lat="47.06605" lon="-1.99766">
        <ele>13</ele>
        <time>2016-07-22T15:08:00Z</time>
      </trkpt>
      <trkpt lat="47.06585" lon="-1.99781">
        <ele>13</ele>
        <time>2016-07-22T15:08:05Z</time>
      </trkpt>
      <trkpt lat="47.06557" lon="-1.99792">
        <ele>11</ele>
        <time>2016-07-22T15:08:10Z</time>
      </trkpt>
      <trkpt lat="47.06529" lon="-1.99803">
        <ele>12</ele>
        <time>2016-07-22T15:08:15Z</time>
      </trkpt>
      <trkpt lat="47.06499" lon="-1.99807">
        <ele>9</ele>
        <time>2016-07-22T15:08:20Z</time>
      </trkpt>
      <trkpt lat="47.06473" lon="-1.99815">
        <ele>9</ele>
        <time>2016-07-22T15:08:25Z</time>
      </trkpt>
      <trkpt lat="47.06458" lon="-1.99817">
        <ele>11</ele>
        <time>2016-07-22T15:08:30Z</time>
      </trkpt>
      <trkpt lat="47.06437" lon="-1.99819">
        <ele>11</ele>
        <time>2016-07-22T15:08:35Z</time>
      </trkpt>
      <trkpt lat="47.06406" lon="-1.99826">
        <ele>11</ele>
        <time>2016-07-22T15:08:41Z</time>
      </trkpt>
      <trkpt lat="47.06389" lon="-1.99833">
        <ele>11</ele>
        <time>2016-07-22T15:08:45Z</time>
      </trkpt>
      <trkpt lat="47.0637" lon="-1.99872">
        <ele>9</ele>
        <time>2016-07-22T15:08:53Z</time>
      </trkpt>
      <trkpt lat="47.06369" lon="-1.99881">
        <ele>10</ele>
        <time>2016-07-22T15:08:55Z</time>
      </trkpt>
      <trkpt lat="47.06358" lon="-1.99885">
        <ele>7</ele>
        <time>2016-07-22T15:09:00Z</time>
      </trkpt>
      <trkpt lat="47.06356" lon="-1.99892">
        <ele>9</ele>
        <time>2016-07-22T15:09:05Z</time>
      </trkpt>
      <trkpt lat="47.06353" lon="-1.99899">
        <ele>10</ele>
        <time>2016-07-22T15:09:13Z</time>
      </trkpt>
      <trkpt lat="47.06348" lon="-1.99907">
        <ele>10</ele>
        <time>2016-07-22T15:09:15Z</time>
      </trkpt>
      <trkpt lat="47.06334" lon="-1.9993">
        <ele>9</ele>
        <time>2016-07-22T15:09:20Z</time>
      </trkpt>
      <trkpt lat="47.06315" lon="-1.9998">
        <ele>10</ele>
        <time>2016-07-22T15:09:29Z</time>
      </trkpt>
      <trkpt lat="47.06312" lon="-1.99987">
        <ele>10</ele>
        <time>2016-07-22T15:09:30Z</time>
      </trkpt>
      <trkpt lat="47.06307" lon="-2.00016">
        <ele>12</ele>
        <time>2016-07-22T15:09:35Z</time>
      </trkpt>
      <trkpt lat="47.06305" lon="-2.0004">
        <ele>8</ele>
        <time>2016-07-22T15:09:42Z</time>
      </trkpt>
      <trkpt lat="47.06308" lon="-2.00062">
        <ele>13</ele>
        <time>2016-07-22T15:09:49Z</time>
      </trkpt>
      <trkpt lat="47.06308" lon="-2.00065">
        <ele>13</ele>
        <time>2016-07-22T15:09:50Z</time>
      </trkpt>
      <trkpt lat="47.06309" lon="-2.00077">
        <ele>15</ele>
        <time>2016-07-22T15:09:55Z</time>
      </trkpt>
      <trkpt lat="47.06307" lon="-2.00094">
        <ele>12</ele>
        <time>2016-07-22T15:10:00Z</time>
      </trkpt>
      <trkpt lat="47.06298" lon="-2.00104">
        <ele>10</ele>
        <time>2016-07-22T15:10:05Z</time>
      </trkpt>
      <trkpt lat="47.06295" lon="-2.00111">
        <ele>12</ele>
        <time>2016-07-22T15:10:10Z</time>
      </trkpt>
      <trkpt lat="47.06288" lon="-2.00116">
        <ele>9</ele>
        <time>2016-07-22T15:10:15Z</time>
      </trkpt>
      <trkpt lat="47.06285" lon="-2.0012">
        <ele>6</ele>
        <time>2016-07-22T15:10:22Z</time>
      </trkpt>
      <trkpt lat="47.06284" lon="-2.00122">
        <ele>6</ele>
        <time>2016-07-22T15:10:28Z</time>
      </trkpt>
      <trkpt lat="47.06283" lon="-2.00121">
        <ele>6</ele>
        <time>2016-07-22T15:10:32Z</time>
      </trkpt>
      <trkpt lat="47.06283" lon="-2.00121">
        <ele>6</ele>
        <time>2016-07-22T15:10:35Z</time>
      </trkpt>
      <trkpt lat="47.06283" lon="-2.00121">
        <ele>6</ele>
        <time>2016-07-22T15:10:40Z</time>
      </trkpt>
      <trkpt lat="47.06283" lon="-2.00121">
        <ele>6</ele>
        <time>2016-07-22T15:10:45Z</time>
      </trkpt>
      <trkpt lat="47.06283" lon="-2.00121">
        <ele>6</ele>
        <time>2016-07-22T15:10:50Z</time>
      </trkpt>
      <trkpt lat="47.06283" lon="-2.00121">
        <ele>6</ele>
        <time>2016-07-22T15:10:55Z</time>
      </trkpt>
      <trkpt lat="47.06283" lon="-2.00121">
        <ele>6</ele>
        <time>2016-07-22T15:11:01Z</time>
      </trkpt>
      <trkpt lat="47.06283" lon="-2.00121">
        <ele>6</ele>
        <time>2016-07-22T15:11:06Z</time>
      </trkpt>
      <trkpt lat="47.06283" lon="-2.00122">
        <ele>7</ele>
        <time>2016-07-22T15:11:10Z</time>
      </trkpt>
      <trkpt lat="47.06288" lon="-2.00127">
        <ele>11</ele>
        <time>2016-07-22T15:11:19Z</time>
      </trkpt>
      <trkpt lat="47.06288" lon="-2.00126">
        <ele>12</ele>
        <time>2016-07-22T15:11:20Z</time>
      </trkpt>
      <trkpt lat="47.06288" lon="-2.00125">
        <ele>12</ele>
        <time>2016-07-22T15:11:25Z</time>
      </trkpt>
      <trkpt lat="47.06288" lon="-2.00125">
        <ele>12</ele>
        <time>2016-07-22T15:11:30Z</time>
      </trkpt>
      <trkpt lat="47.06288" lon="-2.00125">
        <ele>12</ele>
        <time>2016-07-22T15:11:35Z</time>
      </trkpt>
      <trkpt lat="47.06287" lon="-2.00125">
        <ele>12</ele>
        <time>2016-07-22T15:11:53Z</time>
      </trkpt>
      <trkpt lat="47.06287" lon="-2.00125">
        <ele>12</ele>
        <time>2016-07-22T15:11:58Z</time>
      </trkpt>
      <trkpt lat="47.06287" lon="-2.00125">
        <ele>12</ele>
        <time>2016-07-22T15:12:00Z</time>
      </trkpt>
      <trkpt lat="47.06287" lon="-2.00125">
        <ele>12</ele>
        <time>2016-07-22T15:12:09Z</time>
      </trkpt>
      <trkpt lat="47.06287" lon="-2.00125">
        <ele>12</ele>
        <time>2016-07-22T15:12:13Z</time>
      </trkpt>
      <trkpt lat="47.06287" lon="-2.00125">
        <ele>12</ele>
        <time>2016-07-22T15:12:15Z</time>
      </trkpt>
      <trkpt lat="47.06287" lon="-2.00125">
        <ele>11</ele>
        <time>2016-07-22T15:12:22Z</time>
      </trkpt>
      <trkpt lat="47.06287" lon="-2.00125">
        <ele>11</ele>
        <time>2016-07-22T15:12:25Z</time>
      </trkpt>
      <trkpt lat="47.06287" lon="-2.00125">
        <ele>11</ele>
        <time>2016-07-22T15:13:34Z</time>
      </trkpt>
      <trkpt lat="47.06284" lon="-2.00126">
        <ele>6</ele>
        <time>2016-07-22T15:13:39Z</time>
      </trkpt>
      <trkpt lat="47.06284" lon="-2.00129">
        <ele>2</ele>
        <time>2016-07-22T15:13:41Z</time>
      </trkpt>
      <trkpt lat="47.06285" lon="-2.00129">
        <ele>4.5</ele>
        <time>2016-07-22T15:13:48Z</time>
      </trkpt>
      <trkpt lat="47.06286" lon="-2.00127">
        <ele>-1</ele>
        <time>2016-07-22T15:13:50Z</time>
      </trkpt>
      <trkpt lat="47.06285" lon="-2.00126">
        <ele>-1</ele>
        <time>2016-07-22T15:13:55Z</time>
      </trkpt>
      <trkpt lat="47.06284" lon="-2.00126">
        <ele>4.6</ele>
        <time>2016-07-22T15:14:00Z</time>
      </trkpt>
      <trkpt lat="47.06284" lon="-2.00125">
        <ele>4.6</ele>
        <time>2016-07-22T15:14:05Z</time>
      </trkpt>
      <trkpt lat="47.06284" lon="-2.00125">
        <ele>-1</ele>
        <time>2016-07-22T15:14:14Z</time>
      </trkpt>
    </trkseg>
  </trk>
  <trk>
    <name><![CDATA[Sequence 34]]></name>
    <trkseg>
      <trkpt lat="47.06357" lon="-1.99941">
        <ele>6</ele>
        <time>2016-07-22T15:29:36Z</time>
      </trkpt>
      <trkpt lat="47.0636" lon="-1.99925">
        <ele>8</ele>
        <time>2016-07-22T15:29:39Z</time>
      </trkpt>
      <trkpt lat="47.06363" lon="-1.999">
        <ele>5</ele>
        <time>2016-07-22T15:29:44Z</time>
      </trkpt>
      <trkpt lat="47.06358" lon="-1.99882">
        <ele>1</ele>
        <time>2016-07-22T15:29:49Z</time>
      </trkpt>
      <trkpt lat="47.06357" lon="-1.99857">
        <ele>-5</ele>
        <time>2016-07-22T15:29:54Z</time>
      </trkpt>
      <trkpt lat="47.0636" lon="-1.99814">
        <ele>-5</ele>
        <time>2016-07-22T15:30:01Z</time>
      </trkpt>
      <trkpt lat="47.06361" lon="-1.99797">
        <ele>-4</ele>
        <time>2016-07-22T15:30:04Z</time>
      </trkpt>
      <trkpt lat="47.06363" lon="-1.99768">
        <ele>-5</ele>
        <time>2016-07-22T15:30:09Z</time>
      </trkpt>
      <trkpt lat="47.06363" lon="-1.99733">
        <ele>-2</ele>
        <time>2016-07-22T15:30:14Z</time>
      </trkpt>
      <trkpt lat="47.06362" lon="-1.9969">
        <ele>7</ele>
        <time>2016-07-22T15:30:20Z</time>
      </trkpt>
      <trkpt lat="47.06363" lon="-1.99634">
        <ele>2</ele>
        <time>2016-07-22T15:30:27Z</time>
      </trkpt>
      <trkpt lat="47.06366" lon="-1.99598">
        <ele>3</ele>
        <time>2016-07-22T15:30:31Z</time>
      </trkpt>
      <trkpt lat="47.0637" lon="-1.99545">
        <ele>5</ele>
        <time>2016-07-22T15:30:37Z</time>
      </trkpt>
      <trkpt lat="47.06373" lon="-1.99505">
        <ele>6</ele>
        <time>2016-07-22T15:30:42Z</time>
      </trkpt>
      <trkpt lat="47.06373" lon="-1.99489">
        <ele>6</ele>
        <time>2016-07-22T15:30:44Z</time>
      </trkpt>
      <trkpt lat="47.06374" lon="-1.99449">
        <ele>6</ele>
        <time>2016-07-22T15:30:49Z</time>
      </trkpt>
      <trkpt lat="47.06373" lon="-1.99411">
        <ele>6</ele>
        <time>2016-07-22T15:30:54Z</time>
      </trkpt>
      <trkpt lat="47.0637" lon="-1.9937">
        <ele>10</ele>
        <time>2016-07-22T15:30:59Z</time>
      </trkpt>
      <trkpt lat="47.06368" lon="-1.99332">
        <ele>10</ele>
        <time>2016-07-22T15:31:04Z</time>
      </trkpt>
      <trkpt lat="47.06372" lon="-1.9928">
        <ele>10</ele>
        <time>2016-07-22T15:31:11Z</time>
      </trkpt>
      <trkpt lat="47.06372" lon="-1.99258">
        <ele>10</ele>
        <time>2016-07-22T15:31:14Z</time>
      </trkpt>
      <trkpt lat="47.06373" lon="-1.99221">
        <ele>10</ele>
        <time>2016-07-22T15:31:19Z</time>
      </trkpt>
      <trkpt lat="47.0638" lon="-1.99185">
        <ele>10</ele>
        <time>2016-07-22T15:31:24Z</time>
      </trkpt>
      <trkpt lat="47.06384" lon="-1.9915">
        <ele>10</ele>
        <time>2016-07-22T15:31:29Z</time>
      </trkpt>
      <trkpt lat="47.0638" lon="-1.99116">
        <ele>12</ele>
        <time>2016-07-22T15:31:34Z</time>
      </trkpt>
      <trkpt lat="47.06377" lon="-1.9908">
        <ele>10</ele>
        <time>2016-07-22T15:31:39Z</time>
      </trkpt>
      <trkpt lat="47.06372" lon="-1.99046">
        <ele>10</ele>
        <time>2016-07-22T15:31:44Z</time>
      </trkpt>
      <trkpt lat="47.06367" lon="-1.99025">
        <ele>11</ele>
        <time>2016-07-22T15:31:49Z</time>
      </trkpt>
      <trkpt lat="47.06367" lon="-1.99024">
        <ele>11</ele>
        <time>2016-07-22T15:31:54Z</time>
      </trkpt>
      <trkpt lat="47.06367" lon="-1.99024">
        <ele>11</ele>
        <time>2016-07-22T15:31:59Z</time>
      </trkpt>
      <trkpt lat="47.06367" lon="-1.99023">
        <ele>12</ele>
        <time>2016-07-22T15:32:04Z</time>
      </trkpt>
      <trkpt lat="47.06366" lon="-1.99003">
        <ele>12</ele>
        <time>2016-07-22T15:32:09Z</time>
      </trkpt>
      <trkpt lat="47.06364" lon="-1.9897">
        <ele>12</ele>
        <time>2016-07-22T15:32:14Z</time>
      </trkpt>
      <trkpt lat="47.06369" lon="-1.98935">
        <ele>10</ele>
        <time>2016-07-22T15:32:19Z</time>
      </trkpt>
      <trkpt lat="47.06372" lon="-1.98906">
        <ele>12</ele>
        <time>2016-07-22T15:32:24Z</time>
      </trkpt>
      <trkpt lat="47.06377" lon="-1.98877">
        <ele>13</ele>
        <time>2016-07-22T15:32:29Z</time>
      </trkpt>
      <trkpt lat="47.06375" lon="-1.98846">
        <ele>13</ele>
        <time>2016-07-22T15:32:34Z</time>
      </trkpt>
      <trkpt lat="47.06362" lon="-1.98815">
        <ele>13</ele>
        <time>2016-07-22T15:32:39Z</time>
      </trkpt>
      <trkpt lat="47.06353" lon="-1.98783">
        <ele>12</ele>
        <time>2016-07-22T15:32:44Z</time>
      </trkpt>
      <trkpt lat="47.06343" lon="-1.98747">
        <ele>13</ele>
        <time>2016-07-22T15:32:49Z</time>
      </trkpt>
      <trkpt lat="47.06332" lon="-1.98716">
        <ele>13</ele>
        <time>2016-07-22T15:32:54Z</time>
      </trkpt>
      <trkpt lat="47.06318" lon="-1.98686">
        <ele>13</ele>
        <time>2016-07-22T15:32:59Z</time>
      </trkpt>
      <trkpt lat="47.06304" lon="-1.98658">
        <ele>13</ele>
        <time>2016-07-22T15:33:04Z</time>
      </trkpt>
      <trkpt lat="47.06291" lon="-1.98626">
        <ele>13</ele>
        <time>2016-07-22T15:33:09Z</time>
      </trkpt>
      <trkpt lat="47.0628" lon="-1.98594">
        <ele>13</ele>
        <time>2016-07-22T15:33:14Z</time>
      </trkpt>
      <trkpt lat="47.0627" lon="-1.98561">
        <ele>14</ele>
        <time>2016-07-22T15:33:19Z</time>
      </trkpt>
      <trkpt lat="47.06261" lon="-1.98528">
        <ele>15</ele>
        <time>2016-07-22T15:33:24Z</time>
      </trkpt>
      <trkpt lat="47.06253" lon="-1.985">
        <ele>15</ele>
        <time>2016-07-22T15:33:29Z</time>
      </trkpt>
      <trkpt lat="47.06254" lon="-1.9848">
        <ele>15</ele>
        <time>2016-07-22T15:33:34Z</time>
      </trkpt>
      <trkpt lat="47.06278" lon="-1.98464">
        <ele>15</ele>
        <time>2016-07-22T15:33:40Z</time>
      </trkpt>
      <trkpt lat="47.06296" lon="-1.98457">
        <ele>15</ele>
        <time>2016-07-22T15:33:44Z</time>
      </trkpt>
      <trkpt lat="47.06319" lon="-1.98448">
        <ele>15</ele>
        <time>2016-07-22T15:33:49Z</time>
      </trkpt>
      <trkpt lat="47.0634" lon="-1.98439">
        <ele>15</ele>
        <time>2016-07-22T15:33:54Z</time>
      </trkpt>
      <trkpt lat="47.06357" lon="-1.9843">
        <ele>14</ele>
        <time>2016-07-22T15:33:59Z</time>
      </trkpt>
      <trkpt lat="47.06361" lon="-1.9843">
        <ele>14</ele>
        <time>2016-07-22T15:34:04Z</time>
      </trkpt>
      <trkpt lat="47.06362" lon="-1.98428">
        <ele>12</ele>
        <time>2016-07-22T15:34:10Z</time>
      </trkpt>
      <trkpt lat="47.06361" lon="-1.98429">
        <ele>13</ele>
        <time>2016-07-22T15:34:14Z</time>
      </trkpt>
      <trkpt lat="47.06362" lon="-1.98429">
        <ele>13</ele>
        <time>2016-07-22T15:34:19Z</time>
      </trkpt>
      <trkpt lat="47.06361" lon="-1.98427">
        <ele>12</ele>
        <time>2016-07-22T15:34:24Z</time>
      </trkpt>
      <trkpt lat="47.06363" lon="-1.98422">
        <ele>13</ele>
        <time>2016-07-22T15:34:29Z</time>
      </trkpt>
      <trkpt lat="47.06365" lon="-1.98421">
        <ele>15</ele>
        <time>2016-07-22T15:34:34Z</time>
      </trkpt>
      <trkpt lat="47.06365" lon="-1.98423">
        <ele>15</ele>
        <time>2016-07-22T15:34:39Z</time>
      </trkpt>
      <trkpt lat="47.06363" lon="-1.98417">
        <ele>14</ele>
        <time>2016-07-22T15:34:44Z</time>
      </trkpt>
      <trkpt lat="47.06361" lon="-1.98411">
        <ele>13</ele>
        <time>2016-07-22T15:34:49Z</time>
      </trkpt>
      <trkpt lat="47.06359" lon="-1.9841">
        <ele>12</ele>
        <time>2016-07-22T15:34:57Z</time>
      </trkpt>
      <trkpt lat="47.06359" lon="-1.98409">
        <ele>12</ele>
        <time>2016-07-22T15:34:59Z</time>
      </trkpt>
      <trkpt lat="47.06358" lon="-1.98409">
        <ele>12</ele>
        <time>2016-07-22T15:35:04Z</time>
      </trkpt>
      <trkpt lat="47.06358" lon="-1.98409">
        <ele>12</ele>
        <time>2016-07-22T15:35:09Z</time>
      </trkpt>
      <trkpt lat="47.06358" lon="-1.98409">
        <ele>12</ele>
        <time>2016-07-22T15:35:14Z</time>
      </trkpt>
      <trkpt lat="47.06358" lon="-1.98409">
        <ele>12</ele>
        <time>2016-07-22T15:35:19Z</time>
      </trkpt>
      <trkpt lat="47.06358" lon="-1.98409">
        <ele>12</ele>
        <time>2016-07-22T15:35:24Z</time>
      </trkpt>
      <trkpt lat="47.06358" lon="-1.98409">
        <ele>12</ele>
        <time>2016-07-22T15:35:29Z</time>
      </trkpt>
      <trkpt lat="47.06358" lon="-1.98409">
        <ele>12</ele>
        <time>2016-07-22T15:35:36Z</time>
      </trkpt>
      <trkpt lat="47.06358" lon="-1.98409">
        <ele>12</ele>
        <time>2016-07-22T15:35:39Z</time>
      </trkpt>
      <trkpt lat="47.06358" lon="-1.98409">
        <ele>12</ele>
        <time>2016-07-22T15:35:46Z</time>
      </trkpt>
      <trkpt lat="47.06358" lon="-1.98409">
        <ele>12</ele>
        <time>2016-07-22T15:35:49Z</time>
      </trkpt>
      <trkpt lat="47.06358" lon="-1.98409">
        <ele>12</ele>
        <time>2016-07-22T15:35:54Z</time>
      </trkpt>
      <trkpt lat="47.06358" lon="-1.98409">
        <ele>12</ele>
        <time>2016-07-22T15:35:59Z</time>
      </trkpt>
      <trkpt lat="47.06358" lon="-1.98409">
        <ele>12</ele>
        <time>2016-07-22T15:36:07Z</time>
      </trkpt>
    </trkseg>
  </trk>
</gpx>